
Distance (Route):
Temperature : 0°C
Humidity : 0%
Pressure : 0hPa| Receiver | Frames | First received | Last received |
|---|---|---|---|
| PETON7-10 | 412 | 2026-08-30 11:33:00 | 2026-08-30 13:39:47 |
| OM5KV | 285 | 2026-08-30 11:59:55 | 2026-08-30 13:40:28 |
| OE5MMP-10 | 262 | 2026-08-30 12:21:48 | 2026-08-30 13:23:15 |
| OE3OSB-13 | 210 | 2026-08-30 11:33:46 | 2026-08-30 13:40:07 |
| ATIDSZ-14 | 205 | 2026-08-30 12:05:19 | 2026-08-30 13:39:18 |
| OE3JTB-15 | 167 | 2026-08-30 11:30:57 | 2026-08-30 13:40:17 |
| OE5DXL-15 | 82 | 2026-08-30 12:26:21 | 2026-08-30 13:28:09 |
| PG1ADW-2 | 73 | 2026-08-30 11:46:12 | 2026-08-30 13:31:26 |
| HA6NAB-11 | 50 | 2026-08-30 12:03:33 | 2026-08-30 13:27:19 |
| OK1ALN | 33 | 2026-08-30 13:06:08 | 2026-08-30 13:21:58 |
| EDDB2-11 | 18 | 2026-08-30 13:00:06 | 2026-08-30 13:13:34 |
| DO3MHA-12 | 8 | 2026-08-30 13:23:29 | 2026-08-30 13:25:23 |
| S52SK | 4 | 2026-08-30 11:44:25 | 2026-08-30 11:45:18 |
| OK1SLM-15 | 1 | 2026-08-30 12:53:09 | 2026-08-30 12:53:09 |
| Receiver | Date | Latitude | Longitude | Direction | Speed | Altitude | Climb | Temperature | Humidity | Pressure | Voltage | Killtimer | Uptime | BKT | XDATA |
|---|---|---|---|---|---|---|---|---|---|---|---|---|---|---|---|
| OM5KV | 2026-08-30 13:40:28 | 48.24115 | 17.31914 | 33° | 16km/h | 507m | -10.6m/s | 0°C | 0% | 0hPa | 0V | 00:00:00 | 00:00:00 | 00:00:00 | |
| OM5KV | 2026-08-30 13:40:24 | 48.24103 | 17.31897 | 48° | 11km/h | 553m | -11.2m/s | 0°C | 0% | 0hPa | 0V | 00:00:00 | 00:00:00 | 00:00:00 | |
| OM5KV | 2026-08-30 13:40:22 | 48.24098 | 17.31892 | 29° | 18km/h | 578m | -12.3m/s | 0°C | 0% | 0hPa | 0V | 00:00:00 | 00:00:00 | 00:00:00 | |
| OM5KV | 2026-08-30 13:40:18 | 48.24082 | 17.31877 | 23° | 20km/h | 628m | -11.7m/s | 0°C | 0% | 0hPa | 0V | 00:00:00 | 00:00:00 | 00:00:00 | |
| OE3JTB-15 | 2026-08-30 13:40:17 | 48.24078 | 17.31873 | 44° | 20km/h | 639m | -10.9m/s | 0°C | 0% | 0hPa | 0V | 00:00:00 | 00:00:00 | 00:00:00 | |
| OE3JTB-15 | 2026-08-30 13:40:15 | 48.24070 | 17.31863 | 39° | 22km/h | 663m | -11.3m/s | 0°C | 0% | 0hPa | 0V | 00:00:00 | 00:00:00 | 00:00:00 | |
| OM5KV | 2026-08-30 13:40:13 | 48.24062 | 17.31853 | 42° | 22km/h | 686m | -10.3m/s | 0°C | 0% | 0hPa | 0V | 00:00:00 | 00:00:00 | 00:00:00 | |
| OE3JTB-15 | 2026-08-30 13:40:13 | 48.24062 | 17.31853 | 41° | 22km/h | 686m | -10.2m/s | 0°C | 0% | 0hPa | 0V | 00:00:00 | 00:00:00 | 00:00:00 | |
| OE3JTB-15 | 2026-08-30 13:40:10 | 48.24050 | 17.31836 | 37° | 22km/h | 721m | -11.1m/s | 0°C | 0% | 0hPa | 0V | 00:00:00 | 00:00:00 | 00:00:00 | |
| OE3JTB-15 | 2026-08-30 13:40:08 | 48.24042 | 17.31827 | 31° | 22km/h | 745m | -10.5m/s | 0°C | 0% | 0hPa | 0V | 00:00:00 | 00:00:00 | 00:00:00 | |
| OM5KV | 2026-08-30 13:40:07 | 48.24038 | 17.31823 | 33° | 22km/h | 757m | -11.1m/s | 0°C | 0% | 0hPa | 0V | 00:00:00 | 00:00:00 | 00:00:00 | |
| OE3OSB-13 | 2026-08-30 13:40:07 | 48.24034 | 17.31818 | 40° | 22km/h | 768m | -11.7m/s | 23.7°C | 41.4% | 935.3hPa | 0V | 00:00:00 | 00:00:00 | 00:00:00 | |
| OE3JTB-15 | 2026-08-30 13:40:06 | 48.24034 | 17.31818 | 41° | 22km/h | 769m | -11.6m/s | 0°C | 0% | 0hPa | 0V | 00:00:00 | 00:00:00 | 00:00:00 | |
| OE3JTB-15 | 2026-08-30 13:40:04 | 48.24026 | 17.31806 | 47° | 22km/h | 793m | -11.0m/s | 0°C | 0% | 0hPa | 0V | 00:00:00 | 00:00:00 | 00:00:00 | |
| OE3JTB-15 | 2026-08-30 13:40:02 | 48.24017 | 17.31795 | 36° | 20km/h | 818m | -11.6m/s | 0°C | 0% | 0hPa | 0V | 00:00:00 | 00:00:00 | 00:00:00 | |
| OE3JTB-15 | 2026-08-30 13:40:00 | 48.24008 | 17.31786 | 41° | 26km/h | 842m | -11.0m/s | 0°C | 0% | 0hPa | 0V | 00:00:00 | 00:00:00 | 00:00:00 | |
| OM5KV | 2026-08-30 13:39:59 | 48.24004 | 17.31780 | 29° | 24km/h | 852m | -7.8m/s | 0°C | 0% | 0hPa | 0V | 00:00:00 | 00:00:00 | 00:00:00 | |
| OM5KV | 2026-08-30 13:39:56 | 48.23988 | 17.31765 | 40° | 29km/h | 884m | -11.1m/s | 0°C | 0% | 0hPa | 0V | 00:00:00 | 00:00:00 | 00:00:00 | |
| OE3JTB-15 | 2026-08-30 13:39:55 | 48.23982 | 17.31759 | 31° | 22km/h | 896m | -11.0m/s | 0°C | 0% | 0hPa | 0V | 00:00:00 | 00:00:00 | 00:00:00 | |
| OM5KV | 2026-08-30 13:39:54 | 48.23978 | 17.31754 | 34° | 22km/h | 908m | -10.3m/s | 0°C | 0% | 0hPa | 0V | 00:00:00 | 00:00:00 | 00:00:00 | |
| OE3JTB-15 | 2026-08-30 13:39:53 | 48.23973 | 17.31750 | 33° | 20km/h | 920m | -11.8m/s | 0°C | 0% | 0hPa | 0V | 00:00:00 | 00:00:00 | 00:00:00 | |
| OE3JTB-15 | 2026-08-30 13:39:51 | 48.23965 | 17.31741 | 37° | 20km/h | 946m | -12.9m/s | 0°C | 0% | 0hPa | 0V | 00:00:00 | 00:00:00 | 00:00:00 | |
| OM5KV | 2026-08-30 13:39:50 | 48.23960 | 17.31736 | 32° | 20km/h | 960m | -11.9m/s | 0°C | 0% | 0hPa | 0V | 00:00:00 | 00:00:00 | 00:00:00 | |
| OE3JTB-15 | 2026-08-30 13:39:49 | 48.23956 | 17.31732 | 44° | 20km/h | 971m | -10.1m/s | 0°C | 0% | 0hPa | 0V | 00:00:00 | 00:00:00 | 00:00:00 | |
| OM5KV | 2026-08-30 13:39:48 | 48.23952 | 17.31727 | 40° | 22km/h | 982m | -10.6m/s | 0°C | 0% | 0hPa | 0V | 00:00:00 | 00:00:00 | 00:00:00 | |
| OE3JTB-15 | 2026-08-30 13:39:47 | 48.23949 | 17.31723 | 37° | 18km/h | 993m | -9.5m/s | 0°C | 0% | 0hPa | 0V | 00:00:00 | 00:00:00 | 00:00:00 | |
| PETON7-10 | 2026-08-30 13:39:47 | 48.23949 | 17.31723 | 37° | 16km/h | 993m | -9.5m/s | 0°C | 0% | 0hPa | 0V | 00:00:00 | 00:00:00 | 00:00:00 | |
| PETON7-10 | 2026-08-30 13:39:46 | 48.23945 | 17.31718 | 47° | 18km/h | 1004m | -9.6m/s | 0°C | 0% | 0hPa | 0V | 00:00:00 | 00:00:00 | 00:00:00 | |
| OE3JTB-15 | 2026-08-30 13:39:45 | 48.23941 | 17.31713 | 42° | 18km/h | 1014m | -10.4m/s | 0°C | 0% | 0hPa | 0V | 00:00:00 | 00:00:00 | 00:00:00 | |
| PETON7-10 | 2026-08-30 13:39:45 | 48.23941 | 17.31713 | 42° | 18km/h | 1014m | -10.4m/s | 0°C | 0% | 0hPa | 0V | 00:00:00 | 00:00:00 | 00:00:00 | |
| PETON7-10 | 2026-08-30 13:39:44 | 48.23938 | 17.31708 | 45° | 18km/h | 1025m | -11.1m/s | 0°C | 0% | 0hPa | 0V | 00:00:00 | 00:00:00 | 00:00:00 | |
| OE3JTB-15 | 2026-08-30 13:39:43 | 48.23934 | 17.31703 | 36° | 24km/h | 1036m | -9.9m/s | 0°C | 0% | 0hPa | 0V | 00:00:00 | 00:00:00 | 00:00:00 | |
| PETON7-10 | 2026-08-30 13:39:43 | 48.23934 | 17.31703 | 36° | 26km/h | 1036m | -9.9m/s | 0°C | 0% | 0hPa | 0V | 00:00:00 | 00:00:00 | 00:00:00 | |
| OM5KV | 2026-08-30 13:39:42 | 48.23930 | 17.31698 | 49° | 18km/h | 1047m | -10.5m/s | 0°C | 0% | 0hPa | 0V | 00:00:00 | 00:00:00 | 00:00:00 | |
| PETON7-10 | 2026-08-30 13:39:42 | 48.23929 | 17.31698 | 48° | 18km/h | 1047m | -10.4m/s | 0°C | 0% | 0hPa | 0V | 00:00:00 | 00:00:00 | 00:00:00 | |
| OE3JTB-15 | 2026-08-30 13:39:40 | 48.23923 | 17.31688 | 48° | 22km/h | 1069m | -9.7m/s | 0°C | 0% | 0hPa | 0V | 00:00:00 | 00:00:00 | 00:00:00 | |
| PETON7-10 | 2026-08-30 13:39:39 | 48.23919 | 17.31683 | 46° | 24km/h | 1080m | -9.7m/s | 0°C | 0% | 0hPa | 0V | 00:00:00 | 00:00:00 | 00:00:00 | |
| OE3JTB-15 | 2026-08-30 13:39:38 | 48.23915 | 17.31676 | 46° | 22km/h | 1091m | -9.5m/s | 0°C | 0% | 0hPa | 0V | 00:00:00 | 00:00:00 | 00:00:00 | |
| PETON7-10 | 2026-08-30 13:39:38 | 48.23915 | 17.31676 | 46° | 24km/h | 1091m | -9.5m/s | 0°C | 0% | 0hPa | 0V | 00:00:00 | 00:00:00 | 00:00:00 | |
| OM5KV | 2026-08-30 13:39:37 | 48.23911 | 17.31671 | 41° | 20km/h | 1102m | -8.8m/s | 0°C | 0% | 0hPa | 0V | 00:00:00 | 00:00:00 | 00:00:00 | |
| PETON7-10 | 2026-08-30 13:39:37 | 48.23911 | 17.31671 | 40° | 20km/h | 1102m | -8.7m/s | 0°C | 0% | 0hPa | 0V | 00:00:00 | 00:00:00 | 00:00:00 | |
| OE3JTB-15 | 2026-08-30 13:39:36 | 48.23907 | 17.31666 | 34° | 22km/h | 1112m | -9.7m/s | 0°C | 0% | 0hPa | 0V | 00:00:00 | 00:00:00 | 00:00:00 | |
| OE3OSB-13 | 2026-08-30 13:39:35 | 48.23903 | 17.31660 | 42° | 20km/h | 1122m | -10.6m/s | 20.3°C | 48.1% | 898.0hPa | 0V | 00:00:00 | 00:00:00 | 00:00:00 | |
| PETON7-10 | 2026-08-30 13:39:35 | 48.23903 | 17.31660 | 43° | 20km/h | 1122m | -10.5m/s | 0°C | 0% | 0hPa | 0V | 00:00:00 | 00:00:00 | 00:00:00 | |
| OE3JTB-15 | 2026-08-30 13:39:34 | 48.23899 | 17.31654 | 50° | 20km/h | 1133m | -9.5m/s | 0°C | 0% | 0hPa | 0V | 00:00:00 | 00:00:00 | 00:00:00 | |
| PETON7-10 | 2026-08-30 13:39:33 | 48.23896 | 17.31648 | 49° | 18km/h | 1144m | -9.0m/s | 0°C | 0% | 0hPa | 0V | 00:00:00 | 00:00:00 | 00:00:00 | |
| OM5KV | 2026-08-30 13:39:32 | 48.23893 | 17.31643 | 42° | 20km/h | 1155m | -8.8m/s | 0°C | 0% | 0hPa | 0V | 00:00:00 | 00:00:00 | 00:00:00 | |
| OE3JTB-15 | 2026-08-30 13:39:32 | 48.23893 | 17.31643 | 42° | 18km/h | 1155m | -8.8m/s | 0°C | 0% | 0hPa | 0V | 00:00:00 | 00:00:00 | 00:00:00 | |
| PETON7-10 | 2026-08-30 13:39:32 | 48.23893 | 17.31643 | 42° | 20km/h | 1155m | -8.8m/s | 0°C | 0% | 0hPa | 0V | 00:00:00 | 00:00:00 | 00:00:00 | |
| OM5KV | 2026-08-30 13:39:31 | 48.23890 | 17.31638 | 78° | 9km/h | 1165m | -10.6m/s | 0°C | 0% | 0hPa | 0V | 00:00:00 | 00:00:00 | 00:00:00 | |
| PETON7-10 | 2026-08-30 13:39:31 | 48.23890 | 17.31638 | 78° | 9km/h | 1165m | -10.6m/s | 0°C | 0% | 0hPa | 0V | 00:00:00 | 00:00:00 | 00:00:00 | |
| OE3JTB-15 | 2026-08-30 13:39:29 | 48.23884 | 17.31630 | 48° | 22km/h | 1187m | -9.7m/s | 0°C | 0% | 0hPa | 0V | 00:00:00 | 00:00:00 | 00:00:00 | |
| PETON7-10 | 2026-08-30 13:39:29 | 48.23884 | 17.31630 | 48° | 24km/h | 1187m | -9.7m/s | 0°C | 0% | 0hPa | 0V | 00:00:00 | 00:00:00 | 00:00:00 | |
| OM5KV | 2026-08-30 13:39:27 | 48.23875 | 17.31616 | 51° | 24km/h | 1209m | -10.0m/s | 0°C | 0% | 0hPa | 0V | 00:00:00 | 00:00:00 | 00:00:00 | |
| OE3JTB-15 | 2026-08-30 13:39:26 | 48.23871 | 17.31609 | 42° | 27km/h | 1220m | -10.8m/s | 0°C | 0% | 0hPa | 0V | 00:00:00 | 00:00:00 | 00:00:00 | |
| OM5KV | 2026-08-30 13:39:25 | 48.23865 | 17.31603 | 37° | 29km/h | 1231m | -10.4m/s | 0°C | 0% | 0hPa | 0V | 00:00:00 | 00:00:00 | 00:00:00 | |
| PETON7-10 | 2026-08-30 13:39:25 | 48.23865 | 17.31603 | 36° | 26km/h | 1231m | -10.3m/s | 0°C | 0% | 0hPa | 0V | 00:00:00 | 00:00:00 | 00:00:00 | |
| OE3JTB-15 | 2026-08-30 13:39:24 | 48.23859 | 17.31597 | 37° | 26km/h | 1243m | -10.2m/s | 0°C | 0% | 0hPa | 0V | 00:00:00 | 00:00:00 | 00:00:00 | |
| OM5KV | 2026-08-30 13:39:21 | 48.23845 | 17.31578 | 47° | 22km/h | 1277m | -10.2m/s | 0°C | 0% | 0hPa | 0V | 00:00:00 | 00:00:00 | 00:00:00 | |
| OE3JTB-15 | 2026-08-30 13:39:21 | 48.23845 | 17.31578 | 47° | 22km/h | 1277m | -10.1m/s | 0°C | 0% | 0hPa | 0V | 00:00:00 | 00:00:00 | 00:00:00 | |
| PETON7-10 | 2026-08-30 13:39:20 | 48.23841 | 17.31572 | 43° | 26km/h | 1289m | -8.7m/s | 0°C | 0% | 0hPa | 0V | 00:00:00 | 00:00:00 | 00:00:00 | |
| OM5KV | 2026-08-30 13:39:19 | 48.23836 | 17.31566 | 40° | 27km/h | 1299m | -10.6m/s | 0°C | 0% | 0hPa | 0V | 00:00:00 | 00:00:00 | 00:00:00 | |
| ATIDSZ-14 | 2026-08-30 13:39:18 | 48.23832 | 17.31559 | 38° | 22km/h | 1312m | -10.3m/s | 0°C | 0% | 0hPa | 0V | 00:00:00 | 00:00:00 | 00:00:00 | |
| OM5KV | 2026-08-30 13:39:16 | 48.23823 | 17.31547 | 43° | 27km/h | 1332m | -8.6m/s | 0°C | 0% | 0hPa | 0V | 00:00:00 | 00:00:00 | 00:00:00 | |
| OE3JTB-15 | 2026-08-30 13:39:15 | 48.23818 | 17.31540 | 43° | 26km/h | 1342m | -9.2m/s | 0°C | 0% | 0hPa | 0V | 00:00:00 | 00:00:00 | 00:00:00 | |
| PETON7-10 | 2026-08-30 13:39:15 | 48.23818 | 17.31540 | 43° | 24km/h | 1342m | -9.2m/s | 0°C | 0% | 0hPa | 0V | 00:00:00 | 00:00:00 | 00:00:00 | |
| OM5KV | 2026-08-30 13:39:14 | 48.23814 | 17.31534 | 47° | 24km/h | 1354m | -9.4m/s | 0°C | 0% | 0hPa | 0V | 00:00:00 | 00:00:00 | 00:00:00 | |
| OM5KV | 2026-08-30 13:39:10 | 48.23799 | 17.31503 | 44° | 26km/h | 1392m | -9.4m/s | 0°C | 0% | 0hPa | 0V | 00:00:00 | 00:00:00 | 00:00:00 | |
| PETON7-10 | 2026-08-30 13:39:10 | 48.23799 | 17.31503 | 43° | 26km/h | 1392m | -9.3m/s | 0°C | 0% | 0hPa | 0V | 00:00:00 | 00:00:00 | 00:00:00 | |
| OM5KV | 2026-08-30 13:39:08 | 48.23791 | 17.31490 | 51° | 24km/h | 1413m | -9.4m/s | 0°C | 0% | 0hPa | 0V | 00:00:00 | 00:00:00 | 00:00:00 | |
| PETON7-10 | 2026-08-30 13:39:05 | 48.23778 | 17.31467 | 55° | 22km/h | 1446m | -10.5m/s | 0°C | 0% | 0hPa | 0V | 00:00:00 | 00:00:00 | 00:00:00 | |
| OE3OSB-13 | 2026-08-30 13:39:04 | 48.23774 | 17.31458 | 56° | 26km/h | 1457m | -11.1m/s | 17.1°C | 55.8% | 863.5hPa | 0V | 00:00:00 | 00:00:00 | 00:00:00 | |
| OM5KV | 2026-08-30 13:39:04 | 48.23774 | 17.31458 | 57° | 26km/h | 1457m | -11.1m/s | 0°C | 0% | 0hPa | 0V | 00:00:00 | 00:00:00 | 00:00:00 | |
| OM5KV | 2026-08-30 13:39:02 | 48.23768 | 17.31441 | 77° | 18km/h | 1481m | -6.9m/s | 0°C | 0% | 0hPa | 0V | 00:00:00 | 00:00:00 | 00:00:00 | |
| PETON7-10 | 2026-08-30 13:38:59 | 48.23764 | 17.31417 | 77° | 22km/h | 1514m | -10.6m/s | 0°C | 0% | 0hPa | 0V | 00:00:00 | 00:00:00 | 00:00:00 | |
| OM5KV | 2026-08-30 13:38:58 | 48.23763 | 17.31410 | 77° | 22km/h | 1524m | -9.6m/s | 0°C | 0% | 0hPa | 0V | 00:00:00 | 00:00:00 | 00:00:00 | |
| ATIDSZ-14 | 2026-08-30 13:38:58 | 48.23763 | 17.31410 | 77° | 22km/h | 1524m | -9.6m/s | 0°C | 0% | 0hPa | 0V | 00:00:00 | 00:00:00 | 00:00:00 | |
| PETON7-10 | 2026-08-30 13:38:54 | 48.23760 | 17.31378 | 70° | 22km/h | 1569m | -11.0m/s | 0°C | 0% | 0hPa | 0V | 00:00:00 | 00:00:00 | 00:00:00 | |
| OM5KV | 2026-08-30 13:38:53 | 48.23759 | 17.31371 | 86° | 20km/h | 1580m | -10.2m/s | 0°C | 0% | 0hPa | 0V | 00:00:00 | 00:00:00 | 00:00:00 | |
| OM5KV | 2026-08-30 13:38:50 | 48.23760 | 17.31347 | 93° | 26km/h | 1615m | -10.9m/s | 0°C | 0% | 0hPa | 0V | 00:00:00 | 00:00:00 | 00:00:00 | |
| PETON7-10 | 2026-08-30 13:38:49 | 48.23760 | 17.31339 | 90° | 16km/h | 1627m | -10.8m/s | 0°C | 0% | 0hPa | 0V | 00:00:00 | 00:00:00 | 00:00:00 | |
| OM5KV | 2026-08-30 13:38:47 | 48.23760 | 17.31325 | 104° | 16km/h | 1650m | -10.4m/s | 0°C | 0% | 0hPa | 0V | 00:00:00 | 00:00:00 | 00:00:00 | |
| PETON7-10 | 2026-08-30 13:38:44 | 48.23764 | 17.31309 | 99° | 16km/h | 1682m | -11.2m/s | 0°C | 0% | 0hPa | 0V | 00:00:00 | 00:00:00 | 00:00:00 | |
| ATIDSZ-14 | 2026-08-30 13:38:38 | 48.23772 | 17.31275 | 122° | 20km/h | 1752m | -9.9m/s | 0°C | 0% | 0hPa | 0V | 00:00:00 | 00:00:00 | 00:00:00 | |
| OM5KV | 2026-08-30 13:38:37 | 48.23776 | 17.31268 | 117° | 24km/h | 1763m | -10.4m/s | 0°C | 0% | 0hPa | 0V | 00:00:00 | 00:00:00 | 00:00:00 | |
| OM5KV | 2026-08-30 13:38:36 | 48.23779 | 17.31262 | 130° | 16km/h | 1775m | -12.3m/s | 0°C | 0% | 0hPa | 0V | 00:00:00 | 00:00:00 | 00:00:00 | |
| PETON7-10 | 2026-08-30 13:38:34 | 48.23784 | 17.31249 | 122° | 22km/h | 1799m | -12.2m/s | 0°C | 0% | 0hPa | 0V | 00:00:00 | 00:00:00 | 00:00:00 | |
| OE3OSB-13 | 2026-08-30 13:38:33 | 48.23788 | 17.31243 | 122° | 20km/h | 1812m | -14.7m/s | 13.7°C | 63.3% | 827.7hPa | 0V | 00:00:00 | 00:00:00 | 00:00:00 | |
| OM5KV | 2026-08-30 13:38:31 | 48.23794 | 17.31230 | 122° | 18km/h | 1840m | -11.7m/s | 0°C | 0% | 0hPa | 0V | 00:00:00 | 00:00:00 | 00:00:00 | |
| OM5KV | 2026-08-30 13:38:31 | 48.23794 | 17.31230 | 122° | 18km/h | 1840m | -11.7m/s | 0°C | 0% | 0hPa | 0V | 00:00:00 | 00:00:00 | 00:00:00 | |
| PETON7-10 | 2026-08-30 13:38:23 | 48.23811 | 17.31171 | 110° | 24km/h | 1941m | -12.6m/s | 0°C | 0% | 0hPa | 0V | 00:00:00 | 00:00:00 | 00:00:00 | |
| OM5KV | 2026-08-30 13:38:19 | 48.23819 | 17.31142 | 113° | 26km/h | 1991m | -11.5m/s | 0°C | 0% | 0hPa | 0V | 00:00:00 | 00:00:00 | 00:00:00 | |
| ATIDSZ-14 | 2026-08-30 13:38:17 | 48.23824 | 17.31124 | 109° | 24km/h | 2016m | -11.2m/s | 0°C | 0% | 0hPa | 0V | 00:00:00 | 00:00:00 | 00:00:00 | |
| OM5KV | 2026-08-30 13:38:15 | 48.23826 | 17.31105 | 100° | 27km/h | 2040m | -10.7m/s | 0°C | 0% | 0hPa | 0V | 00:00:00 | 00:00:00 | 00:00:00 | |
| PETON7-10 | 2026-08-30 13:38:13 | 48.23828 | 17.31083 | 95° | 29km/h | 2063m | -10.7m/s | 0°C | 0% | 0hPa | 0V | 00:00:00 | 00:00:00 | 00:00:00 | |
| OM5KV | 2026-08-30 13:38:09 | 48.23827 | 17.31040 | 88° | 27km/h | 2110m | -11.5m/s | 0°C | 0% | 0hPa | 0V | 00:00:00 | 00:00:00 | 00:00:00 | |
| OM5KV | 2026-08-30 13:38:07 | 48.23825 | 17.31017 | 82° | 35km/h | 2134m | -11.3m/s | 0°C | 0% | 0hPa | 0V | 00:00:00 | 00:00:00 | 00:00:00 | |
| OE3JTB-15 | 2026-08-30 13:38:04 | 48.23821 | 17.30982 | 82° | 35km/h | 2169m | -10.6m/s | 0°C | 0% | 0hPa | 0V | 00:00:00 | 00:00:00 | 00:00:00 | |
| PETON7-10 | 2026-08-30 13:38:03 | 48.23820 | 17.30970 | 79° | 33km/h | 2181m | -12.2m/s | 0°C | 0% | 0hPa | 0V | 00:00:00 | 00:00:00 | 00:00:00 | |
| OM5KV | 2026-08-30 13:38:02 | 48.23819 | 17.30959 | 85° | 29km/h | 2194m | -11.1m/s | 0°C | 0% | 0hPa | 0V | 00:00:00 | 00:00:00 | 00:00:00 | |
| OM5KV | 2026-08-30 13:37:58 | 48.23814 | 17.30910 | 80° | 37km/h | 2239m | -10.9m/s | 0°C | 0% | 0hPa | 0V | 00:00:00 | 00:00:00 | 00:00:00 | |
| OM5KV | 2026-08-30 13:37:57 | 48.23812 | 17.30898 | 79° | 31km/h | 2252m | -11.1m/s | 0°C | 0% | 0hPa | 0V | 00:00:00 | 00:00:00 | 00:00:00 | |
| ATIDSZ-14 | 2026-08-30 13:37:56 | 48.23811 | 17.30885 | 83° | 35km/h | 2264m | -11.1m/s | 0°C | 0% | 0hPa | 0V | 00:00:00 | 00:00:00 | 00:00:00 | |
| PETON7-10 | 2026-08-30 13:37:53 | 48.23806 | 17.30845 | 83° | 35km/h | 2301m | -12.3m/s | 0°C | 0% | 0hPa | 0V | 00:00:00 | 00:00:00 | 00:00:00 | |
| OM5KV | 2026-08-30 13:37:51 | 48.23803 | 17.30820 | 82° | 35km/h | 2324m | -10.9m/s | 0°C | 0% | 0hPa | 0V | 00:00:00 | 00:00:00 | 00:00:00 | |
| OM5KV | 2026-08-30 13:37:47 | 48.23797 | 17.30768 | 79° | 38km/h | 2371m | -11.2m/s | 0°C | 0% | 0hPa | 0V | 00:00:00 | 00:00:00 | 00:00:00 | |
| OM5KV | 2026-08-30 13:37:46 | 48.23796 | 17.30753 | 78° | 35km/h | 2384m | -10.9m/s | 0°C | 0% | 0hPa | 0V | 00:00:00 | 00:00:00 | 00:00:00 | |
| OE3JTB-15 | 2026-08-30 13:37:44 | 48.23794 | 17.30727 | 78° | 35km/h | 2409m | -12.1m/s | 0°C | 0% | 0hPa | 0V | 00:00:00 | 00:00:00 | 00:00:00 | |
| OM5KV | 2026-08-30 13:37:42 | 48.23790 | 17.30701 | 77° | 37km/h | 2434m | -11.8m/s | 0°C | 0% | 0hPa | 0V | 00:00:00 | 00:00:00 | 00:00:00 | |
| PETON7-10 | 2026-08-30 13:37:38 | 48.23780 | 17.30651 | 65° | 37km/h | 2482m | -10.6m/s | 0°C | 0% | 0hPa | 0V | 00:00:00 | 00:00:00 | 00:00:00 | |
| ATIDSZ-14 | 2026-08-30 13:37:36 | 48.23774 | 17.30626 | 70° | 35km/h | 2506m | -11.7m/s | 0°C | 0% | 0hPa | 0V | 00:00:00 | 00:00:00 | 00:00:00 | |
| OE3OSB-13 | 2026-08-30 13:37:31 | 48.23755 | 17.30548 | 71° | 35km/h | 2578m | -11.1m/s | 9.8°C | 44.0% | 755.0hPa | 0V | 00:00:00 | 00:00:00 | 00:00:00 | |
| OM5KV | 2026-08-30 13:37:25 | 48.23741 | 17.30481 | 80° | 38km/h | 2643m | -10.6m/s | 0°C | 0% | 0hPa | 0V | 00:00:00 | 00:00:00 | 00:00:00 | |
| PETON7-10 | 2026-08-30 13:37:21 | 48.23729 | 17.30426 | 76° | 33km/h | 2693m | -10.8m/s | 0°C | 0% | 0hPa | 0V | 00:00:00 | 00:00:00 | 00:00:00 | |
| OM5KV | 2026-08-30 13:37:19 | 48.23723 | 17.30399 | 70° | 38km/h | 2717m | -10.7m/s | 0°C | 0% | 0hPa | 0V | 00:00:00 | 00:00:00 | 00:00:00 | |
| OM5KV | 2026-08-30 13:37:18 | 48.23720 | 17.30386 | 73° | 31km/h | 2729m | -10.6m/s | 0°C | 0% | 0hPa | 0V | 00:00:00 | 00:00:00 | 00:00:00 | |
| ATIDSZ-14 | 2026-08-30 13:37:15 | 48.23711 | 17.30350 | 68° | 33km/h | 2768m | -12.1m/s | 0°C | 0% | 0hPa | 0V | 00:00:00 | 00:00:00 | 00:00:00 | |
| OM5KV | 2026-08-30 13:37:14 | 48.23708 | 17.30339 | 64° | 31km/h | 2781m | -12.0m/s | 0°C | 0% | 0hPa | 0V | 00:00:00 | 00:00:00 | 00:00:00 | |
| OM5KV | 2026-08-30 13:37:12 | 48.23701 | 17.30317 | 73° | 31km/h | 2805m | -10.9m/s | 0°C | 0% | 0hPa | 0V | 00:00:00 | 00:00:00 | 00:00:00 | |
| OM5KV | 2026-08-30 13:37:08 | 48.23690 | 17.30274 | 64° | 31km/h | 2855m | -12.5m/s | 0°C | 0% | 0hPa | 0V | 00:00:00 | 00:00:00 | 00:00:00 | |
| PETON7-10 | 2026-08-30 13:37:06 | 48.23684 | 17.30251 | 73° | 29km/h | 2879m | -12.0m/s | 0°C | 0% | 0hPa | 0V | 00:00:00 | 00:00:00 | 00:00:00 | |
| OM5KV | 2026-08-30 13:37:01 | 48.23672 | 17.30194 | 74° | 31km/h | 2943m | -11.4m/s | 0°C | 0% | 0hPa | 0V | 00:00:00 | 00:00:00 | 00:00:00 | |
| OE3OSB-13 | 2026-08-30 13:37:00 | 48.23667 | 17.30173 | 70° | 27km/h | 2968m | -11.7m/s | 7.4°C | 46.8% | 720.1hPa | 0V | 00:00:00 | 00:00:00 | 00:00:00 | |
| ATIDSZ-14 | 2026-08-30 13:36:55 | 48.23656 | 17.30132 | 80° | 29km/h | 3016m | -10.7m/s | 0°C | 0% | 0hPa | 0V | 00:00:00 | 00:00:00 | 00:00:00 | |
| PETON7-10 | 2026-08-30 13:36:51 | 48.23649 | 17.30088 | 77° | 33km/h | 3065m | -10.6m/s | 0°C | 0% | 0hPa | 0V | 00:00:00 | 00:00:00 | 00:00:00 | |
| OM5KV | 2026-08-30 13:36:49 | 48.23645 | 17.30063 | 85° | 33km/h | 3091m | -10.7m/s | 0°C | 0% | 0hPa | 0V | 00:00:00 | 00:00:00 | 00:00:00 | |
| OE3JTB-15 | 2026-08-30 13:36:47 | 48.23643 | 17.30039 | 88° | 33km/h | 3114m | -9.8m/s | 0°C | 0% | 0hPa | 0V | 00:00:00 | 00:00:00 | 00:00:00 | |
| OM5KV | 2026-08-30 13:36:43 | 48.23641 | 17.29986 | 85° | 33km/h | 3160m | -10.9m/s | 0°C | 0% | 0hPa | 0V | 00:00:00 | 00:00:00 | 00:00:00 | |
| OM5KV | 2026-08-30 13:36:37 | 48.23633 | 17.29909 | 88° | 35km/h | 3231m | -10.2m/s | 0°C | 0% | 0hPa | 0V | 00:00:00 | 00:00:00 | 00:00:00 | |
| PETON7-10 | 2026-08-30 13:36:36 | 48.23632 | 17.29896 | 87° | 33km/h | 3242m | -11.4m/s | 0°C | 0% | 0hPa | 0V | 00:00:00 | 00:00:00 | 00:00:00 | |
| ATIDSZ-14 | 2026-08-30 13:36:35 | 48.23632 | 17.29883 | 86° | 35km/h | 3255m | -11.5m/s | 0°C | 0% | 0hPa | 0V | 00:00:00 | 00:00:00 | 00:00:00 | |
| OM5KV | 2026-08-30 13:36:31 | 48.23629 | 17.29832 | 80° | 33km/h | 3302m | -11.7m/s | 0°C | 0% | 0hPa | 0V | 00:00:00 | 00:00:00 | 00:00:00 | |
| OE3OSB-13 | 2026-08-30 13:36:29 | 48.23625 | 17.29796 | 80° | 33km/h | 3339m | -12.1m/s | 4.4°C | 66.3% | 688.0hPa | 0V | 00:00:00 | 00:00:00 | 00:00:00 | |
| OE3JTB-15 | 2026-08-30 13:36:27 | 48.23623 | 17.29783 | 84° | 33km/h | 3352m | -12.4m/s | 0°C | 0% | 0hPa | 0V | 00:00:00 | 00:00:00 | 00:00:00 | |
| OM5KV | 2026-08-30 13:36:25 | 48.23621 | 17.29758 | 80° | 35km/h | 3379m | -12.2m/s | 0°C | 0% | 0hPa | 0V | 00:00:00 | 00:00:00 | 00:00:00 | |
| PETON7-10 | 2026-08-30 13:36:21 | 48.23614 | 17.29708 | 83° | 35km/h | 3429m | -11.7m/s | 0°C | 0% | 0hPa | 0V | 00:00:00 | 00:00:00 | 00:00:00 | |
| OM5KV | 2026-08-30 13:36:20 | 48.23613 | 17.29695 | 81° | 37km/h | 3442m | -12.3m/s | 0°C | 0% | 0hPa | 0V | 00:00:00 | 00:00:00 | 00:00:00 | |
| OM5KV | 2026-08-30 13:36:19 | 48.23612 | 17.29682 | 81° | 35km/h | 3455m | -11.8m/s | 0°C | 0% | 0hPa | 0V | 00:00:00 | 00:00:00 | 00:00:00 | |
| OM5KV | 2026-08-30 13:36:15 | 48.23606 | 17.29632 | 76° | 40km/h | 3508m | -11.2m/s | 0°C | 0% | 0hPa | 0V | 00:00:00 | 00:00:00 | 00:00:00 | |
| ATIDSZ-14 | 2026-08-30 13:36:14 | 48.23603 | 17.29618 | 83° | 33km/h | 3520m | -11.3m/s | 0°C | 0% | 0hPa | 0V | 00:00:00 | 00:00:00 | 00:00:00 | |
| OM5KV | 2026-08-30 13:36:09 | 48.23595 | 17.29555 | 79° | 35km/h | 3579m | -11.6m/s | 0°C | 0% | 0hPa | 0V | 00:00:00 | 00:00:00 | 00:00:00 | |
| PETON7-10 | 2026-08-30 13:36:05 | 48.23589 | 17.29504 | 78° | 29km/h | 3629m | -11.7m/s | 0°C | 0% | 0hPa | 0V | 00:00:00 | 00:00:00 | 00:00:00 | |
| OM5KV | 2026-08-30 13:36:04 | 48.23588 | 17.29493 | 85° | 31km/h | 3642m | -11.8m/s | 0°C | 0% | 0hPa | 0V | 00:00:00 | 00:00:00 | 00:00:00 | |
| OM5KV | 2026-08-30 13:36:03 | 48.23587 | 17.29481 | 87° | 29km/h | 3655m | -12.3m/s | 0°C | 0% | 0hPa | 0V | 00:00:00 | 00:00:00 | 00:00:00 | |
| OE3JTB-15 | 2026-08-30 13:35:58 | 48.23583 | 17.29424 | 83° | 37km/h | 3720m | -13.2m/s | 0°C | 0% | 0hPa | 0V | 00:00:00 | 00:00:00 | 00:00:00 | |
| OM5KV | 2026-08-30 13:35:57 | 48.23583 | 17.29413 | 93° | 29km/h | 3734m | -12.7m/s | 0°C | 0% | 0hPa | 0V | 00:00:00 | 00:00:00 | 00:00:00 | |
| ATIDSZ-14 | 2026-08-30 13:35:53 | 48.23580 | 17.29369 | 79° | 35km/h | 3786m | -11.7m/s | 0°C | 0% | 0hPa | 0V | 00:00:00 | 00:00:00 | 00:00:00 | |
| OM5KV | 2026-08-30 13:35:52 | 48.23579 | 17.29356 | 86° | 29km/h | 3799m | -11.5m/s | 0°C | 0% | 0hPa | 0V | 00:00:00 | 00:00:00 | 00:00:00 | |
| OM5KV | 2026-08-30 13:35:51 | 48.23578 | 17.29345 | 85° | 29km/h | 3812m | -11.9m/s | 0°C | 0% | 0hPa | 0V | 00:00:00 | 00:00:00 | 00:00:00 | |
| PETON7-10 | 2026-08-30 13:35:50 | 48.23578 | 17.29334 | 90° | 31km/h | 3826m | -11.7m/s | 0°C | 0% | 0hPa | 0V | 00:00:00 | 00:00:00 | 00:00:00 | |
| OM5KV | 2026-08-30 13:35:47 | 48.23577 | 17.29301 | 83° | 31km/h | 3866m | -12.4m/s | 0°C | 0% | 0hPa | 0V | 00:00:00 | 00:00:00 | 00:00:00 | |
| OM5KV | 2026-08-30 13:35:45 | 48.23575 | 17.29277 | 87° | 31km/h | 3893m | -12.6m/s | 0°C | 0% | 0hPa | 0V | 00:00:00 | 00:00:00 | 00:00:00 | |
| OM5KV | 2026-08-30 13:35:42 | 48.23574 | 17.29241 | 90° | 31km/h | 3934m | -12.0m/s | 0°C | 0% | 0hPa | 0V | 00:00:00 | 00:00:00 | 00:00:00 | |
| OM5KV | 2026-08-30 13:35:36 | 48.23567 | 17.29169 | 82° | 29km/h | 4011m | -12.0m/s | 0°C | 0% | 0hPa | 0V | 00:00:00 | 00:00:00 | 00:00:00 | |
| PETON7-10 | 2026-08-30 13:35:35 | 48.23566 | 17.29159 | 78° | 27km/h | 4024m | -12.8m/s | 0°C | 0% | 0hPa | 0V | 00:00:00 | 00:00:00 | 00:00:00 | |
| ATIDSZ-14 | 2026-08-30 13:35:32 | 48.23563 | 17.29126 | 82° | 27km/h | 4064m | -13.0m/s | 0°C | 0% | 0hPa | 0V | 00:00:00 | 00:00:00 | 00:00:00 | |
| OM5KV | 2026-08-30 13:35:30 | 48.23562 | 17.29105 | 88° | 29km/h | 4090m | -12.5m/s | 0°C | 0% | 0hPa | 0V | 00:00:00 | 00:00:00 | 00:00:00 | |
| OE3OSB-13 | 2026-08-30 13:35:27 | 48.23563 | 17.29065 | 82° | 24km/h | 4143m | -13.4m/s | -1.5°C | 71.0% | 622.1hPa | 0V | 00:00:00 | 00:00:00 | 00:00:00 | |
| OM5KV | 2026-08-30 13:35:23 | 48.23562 | 17.29036 | 90° | 26km/h | 4184m | -13.2m/s | 0°C | 0% | 0hPa | 0V | 00:00:00 | 00:00:00 | 00:00:00 | |
| PETON7-10 | 2026-08-30 13:35:20 | 48.23563 | 17.29006 | 94° | 29km/h | 4225m | -12.9m/s | 0°C | 0% | 0hPa | 0V | 00:00:00 | 00:00:00 | 00:00:00 | |
| OM5KV | 2026-08-30 13:35:19 | 48.23563 | 17.28996 | 93° | 27km/h | 4238m | -13.2m/s | 0°C | 0% | 0hPa | 0V | 00:00:00 | 00:00:00 | 00:00:00 | |
| OM5KV | 2026-08-30 13:35:18 | 48.23564 | 17.28986 | 90° | 27km/h | 4252m | -13.6m/s | 0°C | 0% | 0hPa | 0V | 00:00:00 | 00:00:00 | 00:00:00 | |
| OM5KV | 2026-08-30 13:35:13 | 48.23567 | 17.28932 | 92° | 29km/h | 4321m | -13.3m/s | 0°C | 0% | 0hPa | 0V | 00:00:00 | 00:00:00 | 00:00:00 | |
| ATIDSZ-14 | 2026-08-30 13:35:12 | 48.23568 | 17.28922 | 92° | 29km/h | 4337m | -13.5m/s | 0°C | 0% | 0hPa | 0V | 00:00:00 | 00:00:00 | 00:00:00 | |
| OM5KV | 2026-08-30 13:35:07 | 48.23566 | 17.28864 | 94° | 31km/h | 4406m | -14.0m/s | 0°C | 0% | 0hPa | 0V | 00:00:00 | 00:00:00 | 00:00:00 | |
| OM5KV | 2026-08-30 13:35:06 | 48.23566 | 17.28851 | 94° | 33km/h | 4421m | -14.3m/s | 0°C | 0% | 0hPa | 0V | 00:00:00 | 00:00:00 | 00:00:00 | |
| PETON7-10 | 2026-08-30 13:35:05 | 48.23566 | 17.28840 | 92° | 37km/h | 4436m | -12.8m/s | 0°C | 0% | 0hPa | 0V | 00:00:00 | 00:00:00 | 00:00:00 | |
| OM5KV | 2026-08-30 13:35:01 | 48.23565 | 17.28788 | 93° | 38km/h | 4492m | -12.9m/s | 0°C | 0% | 0hPa | 0V | 00:00:00 | 00:00:00 | 00:00:00 | |
| OM5KV | 2026-08-30 13:35:00 | 48.23566 | 17.28775 | 95° | 35km/h | 4506m | -13.9m/s | 0°C | 0% | 0hPa | 0V | 00:00:00 | 00:00:00 | 00:00:00 | |
| OE3OSB-13 | 2026-08-30 13:34:56 | 48.23568 | 17.28701 | 94° | 38km/h | 4577m | -13.1m/s | -4.1°C | 82.2% | 588.8hPa | 0V | 00:00:00 | 00:00:00 | 00:00:00 | |
| OM5KV | 2026-08-30 13:34:55 | 48.23568 | 17.28701 | 96° | 40km/h | 4577m | -13.1m/s | 0°C | 0% | 0hPa | 0V | 00:00:00 | 00:00:00 | 00:00:00 | |
| OM5KV | 2026-08-30 13:34:54 | 48.23569 | 17.28686 | 95° | 42km/h | 4591m | -14.3m/s | 0°C | 0% | 0hPa | 0V | 00:00:00 | 00:00:00 | 00:00:00 | |
| ATIDSZ-14 | 2026-08-30 13:34:51 | 48.23573 | 17.28640 | 99° | 37km/h | 4635m | -12.6m/s | 0°C | 0% | 0hPa | 0V | 00:00:00 | 00:00:00 | 00:00:00 | |
| PETON7-10 | 2026-08-30 13:34:50 | 48.23575 | 17.28626 | 100° | 40km/h | 4648m | -12.9m/s | 0°C | 0% | 0hPa | 0V | 00:00:00 | 00:00:00 | 00:00:00 | |
| OM5KV | 2026-08-30 13:34:49 | 48.23576 | 17.28612 | 95° | 38km/h | 4661m | -13.2m/s | 0°C | 0% | 0hPa | 0V | 00:00:00 | 00:00:00 | 00:00:00 | |
| OM5KV | 2026-08-30 13:34:48 | 48.23577 | 17.28597 | 93° | 40km/h | 4675m | -13.4m/s | 0°C | 0% | 0hPa | 0V | 00:00:00 | 00:00:00 | 00:00:00 | |
| OM5KV | 2026-08-30 13:34:44 | 48.23580 | 17.28540 | 94° | 37km/h | 4729m | -13.5m/s | 0°C | 0% | 0hPa | 0V | 00:00:00 | 00:00:00 | 00:00:00 | |
| OM5KV | 2026-08-30 13:34:42 | 48.23581 | 17.28510 | 93° | 42km/h | 4756m | -13.2m/s | 0°C | 0% | 0hPa | 0V | 00:00:00 | 00:00:00 | 00:00:00 | |
| OM5KV | 2026-08-30 13:34:38 | 48.23585 | 17.28446 | 91° | 40km/h | 4810m | -12.8m/s | 0°C | 0% | 0hPa | 0V | 00:00:00 | 00:00:00 | 00:00:00 | |
| OM5KV | 2026-08-30 13:34:36 | 48.23584 | 17.28416 | 84° | 40km/h | 4837m | -12.9m/s | 0°C | 0% | 0hPa | 0V | 00:00:00 | 00:00:00 | 00:00:00 | |
| PETON7-10 | 2026-08-30 13:34:35 | 48.23583 | 17.28402 | 87° | 38km/h | 4851m | -13.1m/s | 0°C | 0% | 0hPa | 0V | 00:00:00 | 00:00:00 | 00:00:00 | |
| ATIDSZ-14 | 2026-08-30 13:34:31 | 48.23579 | 17.28345 | 82° | 38km/h | 4902m | -12.9m/s | 0°C | 0% | 0hPa | 0V | 00:00:00 | 00:00:00 | 00:00:00 | |
| OM5KV | 2026-08-30 13:34:27 | 48.23572 | 17.28287 | 75° | 40km/h | 4956m | -12.9m/s | 0°C | 0% | 0hPa | 0V | 00:00:00 | 00:00:00 | 00:00:00 | |
| OE3OSB-13 | 2026-08-30 13:34:25 | 48.23565 | 17.28244 | 73° | 40km/h | 4995m | -12.9m/s | -6.2°C | 59.7% | 558.2hPa | 0V | 00:00:00 | 00:00:00 | 00:00:00 | |
| OM5KV | 2026-08-30 13:34:21 | 48.23556 | 17.28201 | 75° | 38km/h | 5034m | -11.8m/s | 0°C | 0% | 0hPa | 0V | 00:00:00 | 00:00:00 | 00:00:00 | |
| PETON7-10 | 2026-08-30 13:34:20 | 48.23554 | 17.28186 | 73° | 37km/h | 5046m | -12.1m/s | 0°C | 0% | 0hPa | 0V | 00:00:00 | 00:00:00 | 00:00:00 | |
| OM5KV | 2026-08-30 13:34:16 | 48.23541 | 17.28134 | 63° | 38km/h | 5098m | -13.0m/s | 0°C | 0% | 0hPa | 0V | 00:00:00 | 00:00:00 | 00:00:00 | |
| OM5KV | 2026-08-30 13:34:14 | 48.23533 | 17.28110 | 63° | 37km/h | 5123m | -13.1m/s | 0°C | 0% | 0hPa | 0V | 00:00:00 | 00:00:00 | 00:00:00 | |
| OE3JTB-15 | 2026-08-30 13:34:13 | 48.23529 | 17.28098 | 65° | 33km/h | 5136m | -12.9m/s | 0°C | 0% | 0hPa | 0V | 00:00:00 | 00:00:00 | 00:00:00 | |
| ATIDSZ-14 | 2026-08-30 13:34:11 | 48.23522 | 17.28073 | 67° | 37km/h | 5162m | -12.4m/s | 0°C | 0% | 0hPa | 0V | 00:00:00 | 00:00:00 | 00:00:00 | |
| PETON7-10 | 2026-08-30 13:34:05 | 48.23502 | 17.27998 | 71° | 29km/h | 5237m | -12.2m/s | 0°C | 0% | 0hPa | 0V | 00:00:00 | 00:00:00 | 00:00:00 | |
| OM5KV | 2026-08-30 13:34:03 | 48.23496 | 17.27973 | 76° | 31km/h | 5261m | -11.8m/s | 0°C | 0% | 0hPa | 0V | 00:00:00 | 00:00:00 | 00:00:00 | |
| OM5KV | 2026-08-30 13:34:02 | 48.23495 | 17.27961 | 81° | 31km/h | 5273m | -12.7m/s | 0°C | 0% | 0hPa | 0V | 00:00:00 | 00:00:00 | 00:00:00 | |
| OE3OSB-13 | 2026-08-30 13:33:54 | 48.23487 | 17.27865 | 90° | 29km/h | 5386m | -12.2m/s | -8.2°C | 33.2% | 530.2hPa | 0V | 00:00:00 | 00:00:00 | 00:00:00 | |
| PETON7-10 | 2026-08-30 13:33:50 | 48.23484 | 17.27830 | 85° | 33km/h | 5423m | -12.5m/s | 0°C | 0% | 0hPa | 0V | 00:00:00 | 00:00:00 | 00:00:00 | |
| OE3JTB-15 | 2026-08-30 13:33:44 | 48.23480 | 17.27759 | 84° | 37km/h | 5498m | -12.1m/s | 0°C | 0% | 0hPa | 0V | 00:00:00 | 00:00:00 | 00:00:00 | |
| OM5KV | 2026-08-30 13:33:40 | 48.23479 | 17.27709 | 93° | 33km/h | 5547m | -12.1m/s | 0°C | 0% | 0hPa | 0V | 00:00:00 | 00:00:00 | 00:00:00 | |
| OM5KV | 2026-08-30 13:33:38 | 48.23481 | 17.27685 | 98° | 35km/h | 5573m | -13.0m/s | 0°C | 0% | 0hPa | 0V | 00:00:00 | 00:00:00 | 00:00:00 | |
| PETON7-10 | 2026-08-30 13:33:34 | 48.23485 | 17.27632 | 95° | 37km/h | 5623m | -11.7m/s | 0°C | 0% | 0hPa | 0V | 00:00:00 | 00:00:00 | 00:00:00 | |
| OM5KV | 2026-08-30 13:33:32 | 48.23486 | 17.27606 | 97° | 33km/h | 5648m | -12.0m/s | 0°C | 0% | 0hPa | 0V | 00:00:00 | 00:00:00 | 00:00:00 | |
| ATIDSZ-14 | 2026-08-30 13:33:29 | 48.23489 | 17.27569 | 101° | 35km/h | 5685m | -12.4m/s | 0°C | 0% | 0hPa | 0V | 00:00:00 | 00:00:00 | 00:00:00 | |
| OM5KV | 2026-08-30 13:33:28 | 48.23490 | 17.27556 | 99° | 35km/h | 5698m | -12.9m/s | 0°C | 0% | 0hPa | 0V | 00:00:00 | 00:00:00 | 00:00:00 | |
| OE3OSB-13 | 2026-08-30 13:33:23 | 48.23499 | 17.27472 | 101° | 38km/h | 5772m | -12.1m/s | -10.1°C | 11.2% | 503.9hPa | 0V | 00:00:00 | 00:00:00 | 00:00:00 | |
| OM5KV | 2026-08-30 13:33:21 | 48.23502 | 17.27458 | 105° | 38km/h | 5784m | -11.8m/s | 0°C | 0% | 0hPa | 0V | 00:00:00 | 00:00:00 | 00:00:00 | |
| PETON7-10 | 2026-08-30 13:33:19 | 48.23507 | 17.27429 | 107° | 40km/h | 5809m | -12.7m/s | 0°C | 0% | 0hPa | 0V | 00:00:00 | 00:00:00 | 00:00:00 | |
| OM5KV | 2026-08-30 13:33:11 | 48.23528 | 17.27315 | 111° | 40km/h | 5906m | -13.0m/s | 0°C | 0% | 0hPa | 0V | 00:00:00 | 00:00:00 | 00:00:00 | |
| OM5KV | 2026-08-30 13:33:10 | 48.23532 | 17.27300 | 112° | 42km/h | 5918m | -12.5m/s | 0°C | 0% | 0hPa | 0V | 00:00:00 | 00:00:00 | 00:00:00 | |
| ATIDSZ-14 | 2026-08-30 13:33:08 | 48.23540 | 17.27268 | 112° | 46km/h | 5943m | -13.0m/s | 0°C | 0% | 0hPa | 0V | 00:00:00 | 00:00:00 | 00:00:00 | |
| OM5KV | 2026-08-30 13:33:06 | 48.23548 | 17.27235 | 110° | 47km/h | 5968m | -12.5m/s | 0°C | 0% | 0hPa | 0V | 00:00:00 | 00:00:00 | 00:00:00 | |
| OM5KV | 2026-08-30 13:33:04 | 48.23555 | 17.27201 | 107° | 46km/h | 5993m | -12.8m/s | 0°C | 0% | 0hPa | 0V | 00:00:00 | 00:00:00 | 00:00:00 | |
| PETON7-10 | 2026-08-30 13:33:03 | 48.23559 | 17.27183 | 109° | 49km/h | 6005m | -12.3m/s | 0°C | 0% | 0hPa | 0V | 00:00:00 | 00:00:00 | 00:00:00 | |
| OM5KV | 2026-08-30 13:33:01 | 48.23566 | 17.27149 | 111° | 47km/h | 6030m | -12.4m/s | 0°C | 0% | 0hPa | 0V | 00:00:00 | 00:00:00 | 00:00:00 | |
| OE3OSB-13 | 2026-08-30 13:32:52 | 48.23609 | 17.26971 | 107° | 51km/h | 6150m | -12.2m/s | -12.8°C | 12.7% | 479.4hPa | 0V | 00:00:00 | 00:00:00 | 00:00:00 | |
| OM5KV | 2026-08-30 13:32:49 | 48.23617 | 17.26933 | 108° | 49km/h | 6175m | -12.5m/s | 0°C | 0% | 0hPa | 0V | 00:00:00 | 00:00:00 | 00:00:00 | |
| PETON7-10 | 2026-08-30 13:32:48 | 48.23621 | 17.26915 | 110° | 46km/h | 6187m | -12.7m/s | 0°C | 0% | 0hPa | 0V | 00:00:00 | 00:00:00 | 00:00:00 | |
| OM5KV | 2026-08-30 13:32:43 | 48.23641 | 17.26829 | 111° | 49km/h | 6250m | -12.7m/s | 0°C | 0% | 0hPa | 0V | 00:00:00 | 00:00:00 | 00:00:00 | |
| OM5KV | 2026-08-30 13:32:42 | 48.23645 | 17.26810 | 110° | 51km/h | 6262m | -12.0m/s | 0°C | 0% | 0hPa | 0V | 00:00:00 | 00:00:00 | 00:00:00 | |
| OM5KV | 2026-08-30 13:32:37 | 48.23664 | 17.26724 | 111° | 44km/h | 6322m | -12.2m/s | 0°C | 0% | 0hPa | 0V | 00:00:00 | 00:00:00 | 00:00:00 | |
| OM5KV | 2026-08-30 13:32:36 | 48.23668 | 17.26708 | 112° | 44km/h | 6334m | -10.7m/s | 0°C | 0% | 0hPa | 0V | 00:00:00 | 00:00:00 | 00:00:00 | |
| PETON7-10 | 2026-08-30 13:32:32 | 48.23683 | 17.26647 | 112° | 47km/h | 6377m | -12.3m/s | 0°C | 0% | 0hPa | 0V | 00:00:00 | 00:00:00 | 00:00:00 | |
| OE3JTB-15 | 2026-08-30 13:32:31 | 48.23687 | 17.26631 | 111° | 49km/h | 6389m | -12.0m/s | 0°C | 0% | 0hPa | 0V | 00:00:00 | 00:00:00 | 00:00:00 | |
| ATIDSZ-14 | 2026-08-30 13:32:27 | 48.23700 | 17.26565 | 106° | 46km/h | 6435m | -12.6m/s | 0°C | 0% | 0hPa | 0V | 00:00:00 | 00:00:00 | 00:00:00 | |
| OM5KV | 2026-08-30 13:32:25 | 48.23706 | 17.26531 | 106° | 46km/h | 6458m | -12.9m/s | 0°C | 0% | 0hPa | 0V | 00:00:00 | 00:00:00 | 00:00:00 | |
| OE3OSB-13 | 2026-08-30 13:32:22 | 48.23724 | 17.26447 | 111° | 47km/h | 6518m | -12.3m/s | -14.9°C | 25.1% | 456.3hPa | 0V | 00:00:00 | 00:00:00 | 00:00:00 | |
| OM5KV | 2026-08-30 13:32:19 | 48.23729 | 17.26429 | 113° | 51km/h | 6530m | -11.8m/s | 0°C | 0% | 0hPa | 0V | 00:00:00 | 00:00:00 | 00:00:00 | |
| OM5KV | 2026-08-30 13:32:18 | 48.23734 | 17.26411 | 112° | 51km/h | 6542m | -12.0m/s | 0°C | 0% | 0hPa | 0V | 00:00:00 | 00:00:00 | 00:00:00 | |
| PETON7-10 | 2026-08-30 13:32:17 | 48.23738 | 17.26393 | 111° | 49km/h | 6554m | -12.0m/s | 0°C | 0% | 0hPa | 0V | 00:00:00 | 00:00:00 | 00:00:00 | |
| OM5KV | 2026-08-30 13:32:13 | 48.23755 | 17.26319 | 108° | 51km/h | 6601m | -12.1m/s | 0°C | 0% | 0hPa | 0V | 00:00:00 | 00:00:00 | 00:00:00 | |
| OM5KV | 2026-08-30 13:32:12 | 48.23759 | 17.26301 | 109° | 49km/h | 6613m | -12.4m/s | 0°C | 0% | 0hPa | 0V | 00:00:00 | 00:00:00 | 00:00:00 | |
| OM5KV | 2026-08-30 13:32:07 | 48.23779 | 17.26214 | 113° | 49km/h | 6674m | -11.5m/s | 0°C | 0% | 0hPa | 0V | 00:00:00 | 00:00:00 | 00:00:00 | |
| ATIDSZ-14 | 2026-08-30 13:32:06 | 48.23784 | 17.26197 | 114° | 51km/h | 6685m | -12.9m/s | 0°C | 0% | 0hPa | 0V | 00:00:00 | 00:00:00 | 00:00:00 | |
| OE3JTB-15 | 2026-08-30 13:32:02 | 48.23803 | 17.26126 | 110° | 53km/h | 6733m | -12.5m/s | 0°C | 0% | 0hPa | 0V | 00:00:00 | 00:00:00 | 00:00:00 | |
| PETON7-10 | 2026-08-30 13:32:01 | 48.23807 | 17.26109 | 112° | 51km/h | 6746m | -13.2m/s | 0°C | 0% | 0hPa | 0V | 00:00:00 | 00:00:00 | 00:00:00 | |
| OE3OSB-13 | 2026-08-30 13:31:50 | 48.23870 | 17.25898 | 113° | 49km/h | 6892m | -12.9m/s | -17.5°C | 29.2% | 433.9hPa | 0V | 00:00:00 | 00:00:00 | 00:00:00 | |
| OM5KV | 2026-08-30 13:31:49 | 48.23870 | 17.25898 | 114° | 49km/h | 6892m | -12.9m/s | 0°C | 0% | 0hPa | 0V | 00:00:00 | 00:00:00 | 00:00:00 | |
| PETON7-10 | 2026-08-30 13:31:46 | 48.23886 | 17.25845 | 117° | 53km/h | 6929m | -12.5m/s | 0°C | 0% | 0hPa | 0V | 00:00:00 | 00:00:00 | 00:00:00 | |
| OM5KV | 2026-08-30 13:31:44 | 48.23897 | 17.25808 | 115° | 55km/h | 6956m | -12.9m/s | 0°C | 0% | 0hPa | 0V | 00:00:00 | 00:00:00 | 00:00:00 | |
| OM5KV | 2026-08-30 13:31:38 | 48.23930 | 17.25697 | 116° | 51km/h | 7027m | -13.0m/s | 0°C | 0% | 0hPa | 0V | 00:00:00 | 00:00:00 | 00:00:00 | |
| OM5KV | 2026-08-30 13:31:32 | 48.23965 | 17.25588 | 115° | 53km/h | 7100m | -12.5m/s | 0°C | 0% | 0hPa | 0V | 00:00:00 | 00:00:00 | 00:00:00 | |
| PETON7-10 | 2026-08-30 13:31:31 | 48.23971 | 17.25569 | 111° | 51km/h | 7112m | -13.1m/s | 0°C | 0% | 0hPa | 0V | 00:00:00 | 00:00:00 | 00:00:00 | |
| OM5KV | 2026-08-30 13:31:27 | 48.23990 | 17.25497 | 113° | 47km/h | 7163m | -14.4m/s | 0°C | 0% | 0hPa | 0V | 00:00:00 | 00:00:00 | 00:00:00 | |
| PG1ADW-2 | 2026-08-30 13:31:26 | 48.23995 | 17.25481 | 115° | 68km/h | 7176m | -14.0m/s | 0°C | 0% | 0hPa | 0V | 00:00:00 | 00:00:00 | 00:00:00 | |
| OM5KV | 2026-08-30 13:31:21 | 48.24023 | 17.25397 | 119° | 51km/h | 7241m | -13.7m/s | 0°C | 0% | 0hPa | 0V | 00:00:00 | 00:00:00 | 00:00:00 | |
| OE3OSB-13 | 2026-08-30 13:31:19 | 48.24042 | 17.25344 | 114° | 51km/h | 7277m | -12.5m/s | -20.7°C | 27.5% | 411.7hPa | 0V | 00:00:00 | 00:00:00 | 00:00:00 | |
| PETON7-10 | 2026-08-30 13:31:14 | 48.24063 | 17.25273 | 117° | 55km/h | 7327m | -14.5m/s | 0°C | 0% | 0hPa | 0V | 00:00:00 | 00:00:00 | 00:00:00 | |
| OM5KV | 2026-08-30 13:31:10 | 48.24088 | 17.25203 | 120° | 57km/h | 7378m | -13.3m/s | 0°C | 0% | 0hPa | 0V | 00:00:00 | 00:00:00 | 00:00:00 | |
| OM5KV | 2026-08-30 13:31:08 | 48.24101 | 17.25165 | 118° | 58km/h | 7404m | -13.0m/s | 0°C | 0% | 0hPa | 0V | 00:00:00 | 00:00:00 | 00:00:00 | |
| OE3JTB-15 | 2026-08-30 13:31:07 | 48.24108 | 17.25145 | 116° | 58km/h | 7416m | -13.0m/s | 0°C | 0% | 0hPa | 0V | 00:00:00 | 00:00:00 | 00:00:00 | |
| ATIDSZ-14 | 2026-08-30 13:31:06 | 48.24114 | 17.25125 | 115° | 57km/h | 7429m | -13.0m/s | 0°C | 0% | 0hPa | 0V | 00:00:00 | 00:00:00 | 00:00:00 | |
| OM5KV | 2026-08-30 13:31:04 | 48.24126 | 17.25086 | 115° | 55km/h | 7455m | -13.6m/s | 0°C | 0% | 0hPa | 0V | 00:00:00 | 00:00:00 | 00:00:00 | |
| PETON7-10 | 2026-08-30 13:30:59 | 48.24157 | 17.24989 | 116° | 60km/h | 7519m | -12.8m/s | 0°C | 0% | 0hPa | 0V | 00:00:00 | 00:00:00 | 00:00:00 | |
| OM5KV | 2026-08-30 13:30:51 | 48.24207 | 17.24817 | 113° | 60km/h | 7622m | -12.9m/s | 0°C | 0% | 0hPa | 0V | 00:00:00 | 00:00:00 | 00:00:00 | |
| OM5KV | 2026-08-30 13:30:47 | 48.24230 | 17.24734 | 115° | 58km/h | 7675m | -13.2m/s | 0°C | 0% | 0hPa | 0V | 00:00:00 | 00:00:00 | 00:00:00 | |
| ATIDSZ-14 | 2026-08-30 13:30:45 | 48.24243 | 17.24693 | 115° | 60km/h | 7701m | -13.6m/s | 0°C | 0% | 0hPa | 0V | 00:00:00 | 00:00:00 | 00:00:00 | |
| PETON7-10 | 2026-08-30 13:30:43 | 48.24256 | 17.24649 | 113° | 62km/h | 7728m | -14.1m/s | 0°C | 0% | 0hPa | 0V | 00:00:00 | 00:00:00 | 00:00:00 | |
| OM5KV | 2026-08-30 13:30:41 | 48.24269 | 17.24605 | 114° | 64km/h | 7754m | -14.0m/s | 0°C | 0% | 0hPa | 0V | 00:00:00 | 00:00:00 | 00:00:00 | |
| OM5KV | 2026-08-30 13:30:40 | 48.24275 | 17.24583 | 113° | 62km/h | 7767m | -13.8m/s | 0°C | 0% | 0hPa | 0V | 00:00:00 | 00:00:00 | 00:00:00 | |
| OM5KV | 2026-08-30 13:30:35 | 48.24305 | 17.24479 | 117° | 60km/h | 7836m | -13.2m/s | 0°C | 0% | 0hPa | 0V | 00:00:00 | 00:00:00 | 00:00:00 | |
| OM5KV | 2026-08-30 13:30:34 | 48.24312 | 17.24459 | 118° | 62km/h | 7849m | -13.5m/s | 0°C | 0% | 0hPa | 0V | 00:00:00 | 00:00:00 | 00:00:00 | |
| OE3JTB-15 | 2026-08-30 13:30:29 | 48.24345 | 17.24350 | 112° | 68km/h | 7915m | -14.6m/s | 0°C | 0% | 0hPa | 0V | 00:00:00 | 00:00:00 | 00:00:00 | |
| PETON7-10 | 2026-08-30 13:30:28 | 48.24351 | 17.24329 | 114° | 62km/h | 7929m | -13.7m/s | 0°C | 0% | 0hPa | 0V | 00:00:00 | 00:00:00 | 00:00:00 | |
| ATIDSZ-14 | 2026-08-30 13:30:24 | 48.24374 | 17.24244 | 114° | 64km/h | 7983m | -14.1m/s | 0°C | 0% | 0hPa | 0V | 00:00:00 | 00:00:00 | 00:00:00 | |
| OM5KV | 2026-08-30 13:30:23 | 48.24380 | 17.24221 | 114° | 66km/h | 7996m | -13.8m/s | 0°C | 0% | 0hPa | 0V | 00:00:00 | 00:00:00 | 00:00:00 | |
| OM5KV | 2026-08-30 13:30:18 | 48.24409 | 17.24106 | 112° | 62km/h | 8066m | -15.3m/s | 0°C | 0% | 0hPa | 0V | 00:00:00 | 00:00:00 | 00:00:00 | |
| OE3OSB-13 | 2026-08-30 13:30:16 | 48.24421 | 17.24063 | 113° | 64km/h | 8095m | -14.0m/s | -27.2°C | 32.4% | 367.6hPa | 0V | 00:00:00 | 00:00:00 | 00:00:00 | |
| PETON7-10 | 2026-08-30 13:30:13 | 48.24440 | 17.23994 | 110° | 64km/h | 8135m | -13.8m/s | 0°C | 0% | 0hPa | 0V | 00:00:00 | 00:00:00 | 00:00:00 | |
| OM5KV | 2026-08-30 13:30:12 | 48.24445 | 17.23970 | 109° | 66km/h | 8149m | -14.0m/s | 0°C | 0% | 0hPa | 0V | 00:00:00 | 00:00:00 | 00:00:00 | |
| OM5KV | 2026-08-30 13:30:06 | 48.24479 | 17.23834 | 110° | 66km/h | 8234m | -13.3m/s | 0°C | 0% | 0hPa | 0V | 00:00:00 | 00:00:00 | 00:00:00 | |
| ATIDSZ-14 | 2026-08-30 13:30:04 | 48.24489 | 17.23787 | 108° | 66km/h | 8261m | -13.8m/s | 0°C | 0% | 0hPa | 0V | 00:00:00 | 00:00:00 | 00:00:00 | |
| OM5KV | 2026-08-30 13:30:02 | 48.24499 | 17.23740 | 110° | 62km/h | 8288m | -15.2m/s | 0°C | 0% | 0hPa | 0V | 00:00:00 | 00:00:00 | 00:00:00 | |
| OM5KV | 2026-08-30 13:30:01 | 48.24509 | 17.23696 | 111° | 62km/h | 8316m | -13.9m/s | 0°C | 0% | 0hPa | 0V | 00:00:00 | 00:00:00 | 00:00:00 | |
| OE3OSB-13 | 2026-08-30 13:29:45 | 48.24596 | 17.23306 | 107° | 66km/h | 8536m | -14.4m/s | -30.9°C | 54.3% | 345.3hPa | 0V | 00:00:00 | 00:00:00 | 00:00:00 | |
| PETON7-10 | 2026-08-30 13:29:43 | 48.24601 | 17.23281 | 110° | 73km/h | 8550m | -13.1m/s | 0°C | 0% | 0hPa | 0V | 00:00:00 | 00:00:00 | 00:00:00 | |
| OM5KV | 2026-08-30 13:29:40 | 48.24619 | 17.23206 | 109° | 73km/h | 8590m | -13.8m/s | 0°C | 0% | 0hPa | 0V | 00:00:00 | 00:00:00 | 00:00:00 | |
| PETON7-10 | 2026-08-30 13:29:28 | 48.24687 | 17.22889 | 106° | 77km/h | 8757m | -15.7m/s | 0°C | 0% | 0hPa | 0V | 00:00:00 | 00:00:00 | 00:00:00 | |
| OE3JTB-15 | 2026-08-30 13:29:27 | 48.24692 | 17.22862 | 108° | 78km/h | 8772m | -14.5m/s | 0°C | 0% | 0hPa | 0V | 00:00:00 | 00:00:00 | 00:00:00 | |
| OM5KV | 2026-08-30 13:29:23 | 48.24714 | 17.22751 | 106° | 78km/h | 8824m | -14.4m/s | 0°C | 0% | 0hPa | 0V | 00:00:00 | 00:00:00 | 00:00:00 | |
| ATIDSZ-14 | 2026-08-30 13:29:22 | 48.24720 | 17.22722 | 106° | 80km/h | 8837m | -14.3m/s | 0°C | 0% | 0hPa | 0V | 00:00:00 | 00:00:00 | 00:00:00 | |
| OM5KV | 2026-08-30 13:29:17 | 48.24744 | 17.22580 | 107° | 77km/h | 8907m | -13.7m/s | 0°C | 0% | 0hPa | 0V | 00:00:00 | 00:00:00 | 00:00:00 | |
| OE3OSB-13 | 2026-08-30 13:29:14 | 48.24767 | 17.22464 | 104° | 78km/h | 8962m | -13.6m/s | -34.1°C | 56.5% | 324.8hPa | 0V | 00:00:00 | 00:00:00 | 00:00:00 | |
| PETON7-10 | 2026-08-30 13:29:13 | 48.24767 | 17.22464 | 105° | 78km/h | 8962m | -13.6m/s | 0°C | 0% | 0hPa | 0V | 00:00:00 | 00:00:00 | 00:00:00 | |
| OM5KV | 2026-08-30 13:29:12 | 48.24772 | 17.22434 | 104° | 80km/h | 8975m | -14.8m/s | 0°C | 0% | 0hPa | 0V | 00:00:00 | 00:00:00 | 00:00:00 | |
| OM5KV | 2026-08-30 13:29:06 | 48.24803 | 17.22264 | 107° | 80km/h | 9062m | -14.5m/s | 0°C | 0% | 0hPa | 0V | 00:00:00 | 00:00:00 | 00:00:00 | |
| ATIDSZ-14 | 2026-08-30 13:29:02 | 48.24823 | 17.22147 | 104° | 78km/h | 9116m | -13.3m/s | 0°C | 0% | 0hPa | 0V | 00:00:00 | 00:00:00 | 00:00:00 | |
| OM5KV | 2026-08-30 13:29:00 | 48.24833 | 17.22090 | 107° | 78km/h | 9144m | -13.2m/s | 0°C | 0% | 0hPa | 0V | 00:00:00 | 00:00:00 | 00:00:00 | |
| OE3OSB-13 | 2026-08-30 13:28:43 | 48.24927 | 17.21565 | 103° | 80km/h | 9394m | -14.2m/s | -37.9°C | 60.2% | 304.9hPa | 0V | 00:00:00 | 00:00:00 | 00:00:00 | |
| PETON7-10 | 2026-08-30 13:28:41 | 48.24932 | 17.21535 | 103° | 80km/h | 9408m | -14.5m/s | 0°C | 0% | 0hPa | 0V | 00:00:00 | 00:00:00 | 00:00:00 | |
| OM5KV | 2026-08-30 13:28:31 | 48.24983 | 17.21238 | 105° | 78km/h | 9547m | -16.3m/s | 0°C | 0% | 0hPa | 0V | 00:00:00 | 00:00:00 | 00:00:00 | |
| PETON7-10 | 2026-08-30 13:28:26 | 48.25009 | 17.21089 | 103° | 84km/h | 9617m | -15.4m/s | 0°C | 0% | 0hPa | 0V | 00:00:00 | 00:00:00 | 00:00:00 | |
| OM5KV | 2026-08-30 13:28:25 | 48.25014 | 17.21058 | 103° | 80km/h | 9632m | -15.7m/s | 0°C | 0% | 0hPa | 0V | 00:00:00 | 00:00:00 | 00:00:00 | |
| OE3JTB-15 | 2026-08-30 13:28:22 | 48.25028 | 17.20968 | 104° | 84km/h | 9674m | -13.6m/s | 0°C | 0% | 0hPa | 0V | 00:00:00 | 00:00:00 | 00:00:00 | |
| ATIDSZ-14 | 2026-08-30 13:28:21 | 48.25033 | 17.20936 | 103° | 86km/h | 9687m | -13.8m/s | 0°C | 0% | 0hPa | 0V | 00:00:00 | 00:00:00 | 00:00:00 | |
| OM5KV | 2026-08-30 13:28:19 | 48.25042 | 17.20873 | 102° | 84km/h | 9716m | -16.4m/s | 0°C | 0% | 0hPa | 0V | 00:00:00 | 00:00:00 | 00:00:00 | |
| OM5KV | 2026-08-30 13:28:13 | 48.25068 | 17.20684 | 101° | 84km/h | 9802m | -15.2m/s | 0°C | 0% | 0hPa | 0V | 00:00:00 | 00:00:00 | 00:00:00 | |
| OE3OSB-13 | 2026-08-30 13:28:12 | 48.25075 | 17.20622 | 100° | 80km/h | 9833m | -14.8m/s | -41.8°C | 61.1% | 285.6hPa | 0V | 00:00:00 | 00:00:00 | 00:00:00 | |
| PETON7-10 | 2026-08-30 13:28:11 | 48.25075 | 17.20622 | 101° | 84km/h | 9833m | -14.7m/s | 0°C | 0% | 0hPa | 0V | 00:00:00 | 00:00:00 | 00:00:00 | |
| OE5DXL-15 | 2026-08-30 13:28:09 | 48.25084 | 17.20559 | 102° | 86km/h | 9862m | -15.2m/s | 0°C | 0% | 0hPa | 0V | 00:00:00 | 00:00:00 | 00:00:00 | |
| OM5KV | 2026-08-30 13:28:06 | 48.25097 | 17.20465 | 103° | 82km/h | 9905m | -14.5m/s | 0°C | 0% | 0hPa | 0V | 00:00:00 | 00:00:00 | 00:00:00 | |
| OM5KV | 2026-08-30 13:28:01 | 48.25121 | 17.20309 | 103° | 82km/h | 9976m | -14.9m/s | 0°C | 0% | 0hPa | 0V | 00:00:00 | 00:00:00 | 00:00:00 | |
| ATIDSZ-14 | 2026-08-30 13:28:00 | 48.25124 | 17.20279 | 104° | 84km/h | 9991m | -14.8m/s | 0°C | 0% | 0hPa | 0V | 00:00:00 | 00:00:00 | 00:00:00 | |
| PETON7-10 | 2026-08-30 13:27:56 | 48.25144 | 17.20152 | 102° | 86km/h | 10048m | -16.1m/s | 0°C | 0% | 0hPa | 0V | 00:00:00 | 00:00:00 | 00:00:00 | |
| OM5KV | 2026-08-30 13:27:55 | 48.25149 | 17.20120 | 103° | 84km/h | 10063m | -15.5m/s | 0°C | 0% | 0hPa | 0V | 00:00:00 | 00:00:00 | 00:00:00 | |
| OE3JTB-15 | 2026-08-30 13:27:53 | 48.25158 | 17.20056 | 104° | 88km/h | 10092m | -15.5m/s | 0°C | 0% | 0hPa | 0V | 00:00:00 | 00:00:00 | 00:00:00 | |
| OM5KV | 2026-08-30 13:27:49 | 48.25176 | 17.19927 | 103° | 86km/h | 10149m | -15.1m/s | 0°C | 0% | 0hPa | 0V | 00:00:00 | 00:00:00 | 00:00:00 | |
| PG1ADW-2 | 2026-08-30 13:27:48 | 48.25181 | 17.19895 | 104° | 88km/h | 10164m | -15.2m/s | 0°C | 0% | 0hPa | 0V | 00:00:00 | 00:00:00 | 00:00:00 | |
| OM5KV | 2026-08-30 13:27:43 | 48.25203 | 17.19736 | 104° | 84km/h | 10239m | -14.9m/s | 0°C | 0% | 0hPa | 0V | 00:00:00 | 00:00:00 | 00:00:00 | |
| OE3OSB-13 | 2026-08-30 13:27:41 | 48.25217 | 17.19639 | 101° | 86km/h | 10282m | -13.9m/s | -45.5°C | 55.8% | 266.9hPa | 0V | 00:00:00 | 00:00:00 | 00:00:00 | |
| OE5DXL-15 | 2026-08-30 13:27:39 | 48.25221 | 17.19607 | 104° | 88km/h | 10296m | -15.1m/s | 0°C | 0% | 0hPa | 0V | 00:00:00 | 00:00:00 | 00:00:00 | |
| OM5KV | 2026-08-30 13:27:38 | 48.25226 | 17.19575 | 106° | 89km/h | 10311m | -15.0m/s | 0°C | 0% | 0hPa | 0V | 00:00:00 | 00:00:00 | 00:00:00 | |
| OM5KV | 2026-08-30 13:27:31 | 48.25266 | 17.19350 | 105° | 88km/h | 10414m | -14.4m/s | 0°C | 0% | 0hPa | 0V | 00:00:00 | 00:00:00 | 00:00:00 | |
| PETON7-10 | 2026-08-30 13:27:26 | 48.25296 | 17.19189 | 107° | 88km/h | 10490m | -14.1m/s | 0°C | 0% | 0hPa | 0V | 00:00:00 | 00:00:00 | 00:00:00 | |
| OM5KV | 2026-08-30 13:27:25 | 48.25302 | 17.19158 | 109° | 86km/h | 10504m | -15.1m/s | 0°C | 0% | 0hPa | 0V | 00:00:00 | 00:00:00 | 00:00:00 | |
| OE3JTB-15 | 2026-08-30 13:27:24 | 48.25309 | 17.19127 | 108° | 89km/h | 10518m | -14.3m/s | 0°C | 0% | 0hPa | 0V | 00:00:00 | 00:00:00 | 00:00:00 | |
| OM5KV | 2026-08-30 13:27:20 | 48.25332 | 17.18997 | 105° | 86km/h | 10577m | -15.4m/s | 0°C | 0% | 0hPa | 0V | 00:00:00 | 00:00:00 | 00:00:00 | |
| HA6NAB-11 | 2026-08-30 13:27:19 | 48.25337 | 17.18965 | 107° | 89km/h | 10592m | -15.9m/s | 0°C | 0% | 0hPa | 0V | 00:00:00 | 00:00:00 | 00:00:00 | |
| ATIDSZ-14 | 2026-08-30 13:27:18 | 48.25344 | 17.18932 | 106° | 91km/h | 10607m | -16.5m/s | 0°C | 0% | 0hPa | 0V | 00:00:00 | 00:00:00 | 00:00:00 | |
| OM5KV | 2026-08-30 13:27:15 | 48.25360 | 17.18835 | 106° | 88km/h | 10653m | -14.5m/s | 0°C | 0% | 0hPa | 0V | 00:00:00 | 00:00:00 | 00:00:00 | |
| HA6NAB-11 | 2026-08-30 13:27:14 | 48.25366 | 17.18803 | 105° | 91km/h | 10669m | -15.7m/s | 0°C | 0% | 0hPa | 0V | 00:00:00 | 00:00:00 | 00:00:00 | |
| PETON7-10 | 2026-08-30 13:27:11 | 48.25382 | 17.18703 | 106° | 91km/h | 10713m | -14.6m/s | 0°C | 0% | 0hPa | 0V | 00:00:00 | 00:00:00 | 00:00:00 | |
| OE3OSB-13 | 2026-08-30 13:27:10 | 48.25394 | 17.18637 | 104° | 91km/h | 10745m | -15.4m/s | -49.1°C | 51.0% | 248.5hPa | 0V | 00:00:00 | 00:00:00 | 00:00:00 | |
| OE5DXL-15 | 2026-08-30 13:27:09 | 48.25394 | 17.18637 | 105° | 88km/h | 10745m | -15.4m/s | 0°C | 0% | 0hPa | 0V | 00:00:00 | 00:00:00 | 00:00:00 | |
| OM5KV | 2026-08-30 13:27:04 | 48.25421 | 17.18470 | 103° | 93km/h | 10821m | -15.9m/s | 0°C | 0% | 0hPa | 0V | 00:00:00 | 00:00:00 | 00:00:00 | |
| HA6NAB-11 | 2026-08-30 13:26:59 | 48.25446 | 17.18303 | 103° | 91km/h | 10896m | -15.2m/s | 0°C | 0% | 0hPa | 0V | 00:00:00 | 00:00:00 | 00:00:00 | |
| ATIDSZ-14 | 2026-08-30 13:26:58 | 48.25451 | 17.18269 | 103° | 88km/h | 10911m | -16.6m/s | 0°C | 0% | 0hPa | 0V | 00:00:00 | 00:00:00 | 00:00:00 | |
| PETON7-10 | 2026-08-30 13:26:56 | 48.25462 | 17.18204 | 104° | 86km/h | 10942m | -16.0m/s | 0°C | 0% | 0hPa | 0V | 00:00:00 | 00:00:00 | 00:00:00 | |
| OE3JTB-15 | 2026-08-30 13:26:55 | 48.25466 | 17.18171 | 102° | 86km/h | 10958m | -14.9m/s | 0°C | 0% | 0hPa | 0V | 00:00:00 | 00:00:00 | 00:00:00 | |
| HA6NAB-11 | 2026-08-30 13:26:54 | 48.25471 | 17.18139 | 103° | 86km/h | 10972m | -15.3m/s | 0°C | 0% | 0hPa | 0V | 00:00:00 | 00:00:00 | 00:00:00 | |
| OM5KV | 2026-08-30 13:26:53 | 48.25476 | 17.18107 | 106° | 88km/h | 10987m | -16.1m/s | 0°C | 0% | 0hPa | 0V | 00:00:00 | 00:00:00 | 00:00:00 | |
| PG1ADW-2 | 2026-08-30 13:26:52 | 48.25482 | 17.18074 | 104° | 88km/h | 11003m | -15.7m/s | 0°C | 0% | 0hPa | 0V | 00:00:00 | 00:00:00 | 00:00:00 | |
| HA6NAB-11 | 2026-08-30 13:26:48 | 48.25503 | 17.17947 | 105° | 88km/h | 11063m | -16.0m/s | 0°C | 0% | 0hPa | 0V | 00:00:00 | 00:00:00 | 00:00:00 | |
| OM5KV | 2026-08-30 13:26:46 | 48.25513 | 17.17883 | 105° | 84km/h | 11094m | -15.9m/s | 0°C | 0% | 0hPa | 0V | 00:00:00 | 00:00:00 | 00:00:00 | |
| PETON7-10 | 2026-08-30 13:26:41 | 48.25538 | 17.17724 | 106° | 86km/h | 11173m | -16.2m/s | 0°C | 0% | 0hPa | 0V | 00:00:00 | 00:00:00 | 00:00:00 | |
| OM5KV | 2026-08-30 13:26:40 | 48.25544 | 17.17692 | 106° | 88km/h | 11190m | -16.0m/s | 0°C | 0% | 0hPa | 0V | 00:00:00 | 00:00:00 | 00:00:00 | |
| OE3OSB-13 | 2026-08-30 13:26:39 | 48.25554 | 17.17630 | 103° | 84km/h | 11222m | -15.5m/s | -53.2°C | 34.4% | 230.4hPa | 0V | 00:00:00 | 00:00:00 | 00:00:00 | |
| ATIDSZ-14 | 2026-08-30 13:26:37 | 48.25560 | 17.17598 | 106° | 88km/h | 11238m | -16.1m/s | 0°C | 0% | 0hPa | 0V | 00:00:00 | 00:00:00 | 00:00:00 | |
| OM5KV | 2026-08-30 13:26:35 | 48.25570 | 17.17534 | 104° | 86km/h | 11270m | -16.1m/s | 0°C | 0% | 0hPa | 0V | 00:00:00 | 00:00:00 | 00:00:00 | |
| OM5KV | 2026-08-30 13:26:30 | 48.25595 | 17.17375 | 106° | 86km/h | 11350m | -16.0m/s | 0°C | 0% | 0hPa | 0V | 00:00:00 | 00:00:00 | 00:00:00 | |
| PETON7-10 | 2026-08-30 13:26:26 | 48.25616 | 17.17249 | 105° | 89km/h | 11416m | -16.5m/s | 0°C | 0% | 0hPa | 0V | 00:00:00 | 00:00:00 | 00:00:00 | |
| OM5KV | 2026-08-30 13:26:24 | 48.25626 | 17.17184 | 104° | 86km/h | 11448m | -15.6m/s | 0°C | 0% | 0hPa | 0V | 00:00:00 | 00:00:00 | 00:00:00 | |
| OM5KV | 2026-08-30 13:26:18 | 48.25658 | 17.16989 | 106° | 93km/h | 11547m | -16.6m/s | 0°C | 0% | 0hPa | 0V | 00:00:00 | 00:00:00 | 00:00:00 | |
| ATIDSZ-14 | 2026-08-30 13:26:16 | 48.25669 | 17.16922 | 106° | 89km/h | 11579m | -17.0m/s | 0°C | 0% | 0hPa | 0V | 00:00:00 | 00:00:00 | 00:00:00 | |
| PG1ADW-2 | 2026-08-30 13:26:15 | 48.25676 | 17.16889 | 107° | 91km/h | 11596m | -16.3m/s | 0°C | 0% | 0hPa | 0V | 00:00:00 | 00:00:00 | 00:00:00 | |
| OM5KV | 2026-08-30 13:26:12 | 48.25694 | 17.16790 | 107° | 88km/h | 11647m | -15.9m/s | 0°C | 0% | 0hPa | 0V | 00:00:00 | 00:00:00 | 00:00:00 | |
| PETON7-10 | 2026-08-30 13:26:11 | 48.25699 | 17.16758 | 104° | 91km/h | 11662m | -16.2m/s | 0°C | 0% | 0hPa | 0V | 00:00:00 | 00:00:00 | 00:00:00 | |
| OE5DXL-15 | 2026-08-30 13:26:09 | 48.25710 | 17.16692 | 105° | 95km/h | 11694m | -17.8m/s | 0°C | 0% | 0hPa | 0V | 00:00:00 | 00:00:00 | 00:00:00 | |
| OE3OSB-13 | 2026-08-30 13:26:08 | 48.25721 | 17.16627 | 103° | 89km/h | 11728m | -16.8m/s | -56.0°C | 13.2% | 212.5hPa | 0V | 00:00:00 | 00:00:00 | 00:00:00 | |
| OM5KV | 2026-08-30 13:26:07 | 48.25721 | 17.16627 | 105° | 91km/h | 11728m | -16.8m/s | 0°C | 0% | 0hPa | 0V | 00:00:00 | 00:00:00 | 00:00:00 | |
| OM5KV | 2026-08-30 13:26:01 | 48.25753 | 17.16426 | 104° | 91km/h | 11826m | -16.4m/s | 0°C | 0% | 0hPa | 0V | 00:00:00 | 00:00:00 | 00:00:00 | |
| OE3JTB-15 | 2026-08-30 13:25:57 | 48.25774 | 17.16286 | 104° | 99km/h | 11893m | -18.2m/s | 0°C | 0% | 0hPa | 0V | 00:00:00 | 00:00:00 | 00:00:00 | |
| PETON7-10 | 2026-08-30 13:25:56 | 48.25780 | 17.16250 | 103° | 97km/h | 11910m | -17.9m/s | 0°C | 0% | 0hPa | 0V | 00:00:00 | 00:00:00 | 00:00:00 | |
| ATIDSZ-14 | 2026-08-30 13:25:55 | 48.25785 | 17.16214 | 103° | 97km/h | 11928m | -16.9m/s | 0°C | 0% | 0hPa | 0V | 00:00:00 | 00:00:00 | 00:00:00 | |
| OM5KV | 2026-08-30 13:25:54 | 48.25791 | 17.16179 | 104° | 95km/h | 11944m | -16.6m/s | 0°C | 0% | 0hPa | 0V | 00:00:00 | 00:00:00 | 00:00:00 | |
| PG1ADW-2 | 2026-08-30 13:25:53 | 48.25796 | 17.16143 | 104° | 99km/h | 11961m | -17.2m/s | 0°C | 0% | 0hPa | 0V | 00:00:00 | 00:00:00 | 00:00:00 | |
| OM5KV | 2026-08-30 13:25:47 | 48.25820 | 17.15920 | 96° | 95km/h | 12062m | -18.9m/s | 0°C | 0% | 0hPa | 0V | 00:00:00 | 00:00:00 | 00:00:00 | |
| PETON7-10 | 2026-08-30 13:25:41 | 48.25830 | 17.15705 | 95° | 99km/h | 12165m | -17.7m/s | 0°C | 0% | 0hPa | 0V | 00:00:00 | 00:00:00 | 00:00:00 | |
| OE5DXL-15 | 2026-08-30 13:25:39 | 48.25832 | 17.15631 | 93° | 97km/h | 12200m | -18.0m/s | 0°C | 0% | 0hPa | 0V | 00:00:00 | 00:00:00 | 00:00:00 | |
| OE3OSB-13 | 2026-08-30 13:25:37 | 48.25838 | 17.15521 | 93° | 99km/h | 12252m | -16.8m/s | -55.7°C | 4.1% | 195.2hPa | 0V | 00:00:00 | 00:00:00 | 00:00:00 | |
| ATIDSZ-14 | 2026-08-30 13:25:35 | 48.25840 | 17.15483 | 94° | 99km/h | 12270m | -19.3m/s | 0°C | 0% | 0hPa | 0V | 00:00:00 | 00:00:00 | 00:00:00 | |
| OM5KV | 2026-08-30 13:25:34 | 48.25841 | 17.15446 | 94° | 99km/h | 12289m | -18.5m/s | 0°C | 0% | 0hPa | 0V | 00:00:00 | 00:00:00 | 00:00:00 | |
| OM5KV | 2026-08-30 13:25:28 | 48.25858 | 17.15215 | 99° | 102km/h | 12393m | -18.8m/s | 0°C | 0% | 0hPa | 0V | 00:00:00 | 00:00:00 | 00:00:00 | |
| PETON7-10 | 2026-08-30 13:25:26 | 48.25866 | 17.15142 | 101° | 93km/h | 12431m | -18.2m/s | 0°C | 0% | 0hPa | 0V | 00:00:00 | 00:00:00 | 00:00:00 | |
| DO3MHA-12 | 2026-08-30 13:25:23 | 48.25875 | 17.15036 | 96° | 93km/h | 12483m | -18.5m/s | 0°C | 0% | 0hPa | 0V | 00:00:00 | 00:00:00 | 00:00:00 | |
| OM5KV | 2026-08-30 13:25:22 | 48.25877 | 17.15001 | 98° | 93km/h | 12501m | -19.2m/s | 0°C | 0% | 0hPa | 0V | 00:00:00 | 00:00:00 | 00:00:00 | |
| OM5KV | 2026-08-30 13:25:16 | 48.25887 | 17.14791 | 92° | 93km/h | 12611m | -18.6m/s | 0°C | 0% | 0hPa | 0V | 00:00:00 | 00:00:00 | 00:00:00 | |
| ATIDSZ-14 | 2026-08-30 13:25:14 | 48.25889 | 17.14722 | 94° | 93km/h | 12647m | -18.2m/s | 0°C | 0% | 0hPa | 0V | 00:00:00 | 00:00:00 | 00:00:00 | |
| OM5KV | 2026-08-30 13:25:11 | 48.25891 | 17.14615 | 92° | 95km/h | 12701m | -18.6m/s | 0°C | 0% | 0hPa | 0V | 00:00:00 | 00:00:00 | 00:00:00 | |
| PETON7-10 | 2026-08-30 13:25:10 | 48.25892 | 17.14579 | 92° | 100km/h | 12720m | -19.1m/s | 0°C | 0% | 0hPa | 0V | 00:00:00 | 00:00:00 | 00:00:00 | |
| OE5DXL-15 | 2026-08-30 13:25:09 | 48.25892 | 17.14540 | 91° | 97km/h | 12739m | -19.1m/s | 0°C | 0% | 0hPa | 0V | 00:00:00 | 00:00:00 | 00:00:00 | |
| OE3OSB-13 | 2026-08-30 13:25:06 | 48.25897 | 17.14387 | 92° | 102km/h | 12810m | -20.2m/s | -53.8°C | 1.9% | 178.6hPa | 0V | 00:00:00 | 00:00:00 | 00:00:00 | |
| PG1ADW-2 | 2026-08-30 13:25:04 | 48.25899 | 17.14348 | 94° | 93km/h | 12829m | -18.3m/s | 0°C | 0% | 0hPa | 0V | 00:00:00 | 00:00:00 | 00:00:00 | |
| OM5KV | 2026-08-30 13:24:58 | 48.25917 | 17.14119 | 99° | 100km/h | 12938m | -18.3m/s | 0°C | 0% | 0hPa | 0V | 00:00:00 | 00:00:00 | 00:00:00 | |
| OE3JTB-15 | 2026-08-30 13:24:57 | 48.25921 | 17.14082 | 98° | 80km/h | 12956m | -20.1m/s | 0°C | 0% | 0hPa | 0V | 00:00:00 | 00:00:00 | 00:00:00 | |
| PETON7-10 | 2026-08-30 13:24:55 | 48.25928 | 17.14008 | 101° | 91km/h | 12993m | -18.7m/s | 0°C | 0% | 0hPa | 0V | 00:00:00 | 00:00:00 | 00:00:00 | |
| ATIDSZ-14 | 2026-08-30 13:24:54 | 48.25932 | 17.13973 | 98° | 95km/h | 13010m | -18.6m/s | 0°C | 0% | 0hPa | 0V | 00:00:00 | 00:00:00 | 00:00:00 | |
| OM5KV | 2026-08-30 13:24:53 | 48.25934 | 17.13937 | 97° | 93km/h | 13028m | -18.8m/s | 0°C | 0% | 0hPa | 0V | 00:00:00 | 00:00:00 | 00:00:00 | |
| DO3MHA-12 | 2026-08-30 13:24:48 | 48.25947 | 17.13762 | 96° | 91km/h | 13121m | -19.4m/s | 0°C | 0% | 0hPa | 0V | 00:00:00 | 00:00:00 | 00:00:00 | |
| OM5KV | 2026-08-30 13:24:47 | 48.25949 | 17.13727 | 98° | 89km/h | 13141m | -19.3m/s | 0°C | 0% | 0hPa | 0V | 00:00:00 | 00:00:00 | 00:00:00 | |
| OM5KV | 2026-08-30 13:24:42 | 48.25964 | 17.13556 | 96° | 88km/h | 13238m | -19.5m/s | 0°C | 0% | 0hPa | 0V | 00:00:00 | 00:00:00 | 00:00:00 | |
| PG1ADW-2 | 2026-08-30 13:24:41 | 48.25966 | 17.13523 | 97° | 31km/h | 13257m | -19.0m/s | 0°C | 0% | 0hPa | 0V | 00:00:00 | 00:00:00 | 00:00:00 | |
| PETON7-10 | 2026-08-30 13:24:40 | 48.25968 | 17.13490 | 97° | 86km/h | 13275m | -18.1m/s | 0°C | 0% | 0hPa | 0V | 00:00:00 | 00:00:00 | 00:00:00 | |
| OE5DXL-15 | 2026-08-30 13:24:39 | 48.25970 | 17.13457 | 97° | 78km/h | 13294m | -19.8m/s | 0°C | 0% | 0hPa | 0V | 00:00:00 | 00:00:00 | 00:00:00 | |
| DO3MHA-12 | 2026-08-30 13:24:38 | 48.25972 | 17.13424 | 94° | 86km/h | 13313m | -18.4m/s | 0°C | 0% | 0hPa | 0V | 00:00:00 | 00:00:00 | 00:00:00 | |
| OM5KV | 2026-08-30 13:24:37 | 48.25974 | 17.13390 | 96° | 86km/h | 13332m | -19.8m/s | 0°C | 0% | 0hPa | 0V | 00:00:00 | 00:00:00 | 00:00:00 | |
| OE3OSB-13 | 2026-08-30 13:24:35 | 48.25982 | 17.13294 | 98° | 88km/h | 13389m | -18.9m/s | -53.8°C | 1.3% | 162.8hPa | 0V | 00:00:00 | 00:00:00 | 00:00:00 | |
| ATIDSZ-14 | 2026-08-30 13:24:33 | 48.25985 | 17.13260 | 98° | 88km/h | 13408m | -19.1m/s | 0°C | 0% | 0hPa | 0V | 00:00:00 | 00:00:00 | 00:00:00 | |
| OM5KV | 2026-08-30 13:24:31 | 48.25992 | 17.13196 | 103° | 86km/h | 13445m | -18.5m/s | 0°C | 0% | 0hPa | 0V | 00:00:00 | 00:00:00 | 00:00:00 | |
| DO3MHA-12 | 2026-08-30 13:24:28 | 48.26006 | 17.13101 | 103° | 78km/h | 13504m | -21.0m/s | 0°C | 0% | 0hPa | 0V | 00:00:00 | 00:00:00 | 00:00:00 | |
| PETON7-10 | 2026-08-30 13:24:25 | 48.26020 | 17.13008 | 100° | 71km/h | 13562m | -19.3m/s | 0°C | 0% | 0hPa | 0V | 00:00:00 | 00:00:00 | 00:00:00 | |
| HA6NAB-11 | 2026-08-30 13:24:24 | 48.26023 | 17.12978 | 101° | 78km/h | 13582m | -20.5m/s | 0°C | 0% | 0hPa | 0V | 00:00:00 | 00:00:00 | 00:00:00 | |
| HA6NAB-11 | 2026-08-30 13:24:19 | 48.26038 | 17.12839 | 97° | 68km/h | 13678m | -20.9m/s | 0°C | 0% | 0hPa | 0V | 00:00:00 | 00:00:00 | 00:00:00 | |
| DO3MHA-12 | 2026-08-30 13:24:18 | 48.26039 | 17.12814 | 97° | 69km/h | 13698m | -20.2m/s | 0°C | 0% | 0hPa | 0V | 00:00:00 | 00:00:00 | 00:00:00 | |
| OM5KV | 2026-08-30 13:24:13 | 48.26045 | 17.12685 | 96° | 71km/h | 13796m | -20.8m/s | 0°C | 0% | 0hPa | 0V | 00:00:00 | 00:00:00 | 00:00:00 | |
| ATIDSZ-14 | 2026-08-30 13:24:12 | 48.26046 | 17.12658 | 95° | 71km/h | 13816m | -22.5m/s | 0°C | 0% | 0hPa | 0V | 00:00:00 | 00:00:00 | 00:00:00 | |
| OE5DXL-15 | 2026-08-30 13:24:09 | 48.26052 | 17.12580 | 99° | 60km/h | 13878m | -20.4m/s | 0°C | 0% | 0hPa | 0V | 00:00:00 | 00:00:00 | 00:00:00 | |
| DO3MHA-12 | 2026-08-30 13:24:08 | 48.26055 | 17.12553 | 98° | 69km/h | 13897m | -19.8m/s | 0°C | 0% | 0hPa | 0V | 00:00:00 | 00:00:00 | 00:00:00 | |
| OM5KV | 2026-08-30 13:24:07 | 48.26057 | 17.12527 | 98° | 71km/h | 13917m | -20.1m/s | 0°C | 0% | 0hPa | 0V | 00:00:00 | 00:00:00 | 00:00:00 | |
| OE3OSB-13 | 2026-08-30 13:24:04 | 48.26066 | 17.12423 | 95° | 66km/h | 13996m | -20.0m/s | -54.9°C | 0.3% | 147.6hPa | 0V | 00:00:00 | 00:00:00 | 00:00:00 | |
| HA6NAB-11 | 2026-08-30 13:24:03 | 48.26066 | 17.12423 | 96° | 66km/h | 13996m | -20.0m/s | 0°C | 0% | 0hPa | 0V | 00:00:00 | 00:00:00 | 00:00:00 | |
| OM5KV | 2026-08-30 13:24:01 | 48.26069 | 17.12373 | 96° | 69km/h | 14034m | -20.0m/s | 0°C | 0% | 0hPa | 0V | 00:00:00 | 00:00:00 | 00:00:00 | |
| HA6NAB-11 | 2026-08-30 13:23:58 | 48.26073 | 17.12296 | 95° | 66km/h | 14094m | -20.7m/s | 0°C | 0% | 0hPa | 0V | 00:00:00 | 00:00:00 | 00:00:00 | |
| OM5KV | 2026-08-30 13:23:56 | 48.26076 | 17.12244 | 96° | 69km/h | 14134m | -20.5m/s | 0°C | 0% | 0hPa | 0V | 00:00:00 | 00:00:00 | 00:00:00 | |
| PETON7-10 | 2026-08-30 13:23:54 | 48.26079 | 17.12194 | 98° | 53km/h | 14177m | -20.5m/s | 0°C | 0% | 0hPa | 0V | 00:00:00 | 00:00:00 | 00:00:00 | |
| ATIDSZ-14 | 2026-08-30 13:23:52 | 48.26084 | 17.12146 | 98° | 64km/h | 14219m | -20.0m/s | 0°C | 0% | 0hPa | 0V | 00:00:00 | 00:00:00 | 00:00:00 | |
| DO3MHA-12 | 2026-08-30 13:23:48 | 48.26095 | 17.12060 | 101° | 49km/h | 14298m | -20.1m/s | 0°C | 0% | 0hPa | 0V | 00:00:00 | 00:00:00 | 00:00:00 | |
| OM5KV | 2026-08-30 13:23:45 | 48.26103 | 17.12003 | 104° | 46km/h | 14357m | -20.7m/s | 0°C | 0% | 0hPa | 0V | 00:00:00 | 00:00:00 | 00:00:00 | |
| OE5DXL-15 | 2026-08-30 13:23:39 | 48.26118 | 17.11909 | 99° | 47km/h | 14477m | -21.5m/s | 0°C | 0% | 0hPa | 0V | 00:00:00 | 00:00:00 | 00:00:00 | |
| OE3OSB-13 | 2026-08-30 13:23:33 | 48.26113 | 17.11815 | 72° | 33km/h | 14622m | -20.6m/s | -55.8°C | 0.0% | 133.3hPa | 0V | 00:00:00 | 00:00:00 | 00:00:00 | |
| ATIDSZ-14 | 2026-08-30 13:23:31 | 48.26111 | 17.11802 | 79° | 35km/h | 14643m | -21.6m/s | 0°C | 0% | 0hPa | 0V | 00:00:00 | 00:00:00 | 00:00:00 | |
| DO3MHA-12 | 2026-08-30 13:23:29 | 48.26105 | 17.11776 | 70° | 49km/h | 14686m | -21.5m/s | 0°C | 0% | 0hPa | 0V | 00:00:00 | 00:00:00 | 00:00:00 | |
| OM5KV | 2026-08-30 13:23:28 | 48.26102 | 17.11762 | 69° | 37km/h | 14707m | -20.7m/s | 0°C | 0% | 0hPa | 0V | 00:00:00 | 00:00:00 | 00:00:00 | |
| PETON7-10 | 2026-08-30 13:23:24 | 48.26090 | 17.11706 | 71° | 55km/h | 14790m | -21.5m/s | 0°C | 0% | 0hPa | 0V | 00:00:00 | 00:00:00 | 00:00:00 | |
| OE3JTB-15 | 2026-08-30 13:23:23 | 48.26086 | 17.11690 | 71° | 58km/h | 14810m | -21.2m/s | 0°C | 0% | 0hPa | 0V | 00:00:00 | 00:00:00 | 00:00:00 | |
| HA6NAB-11 | 2026-08-30 13:23:17 | 48.26063 | 17.11577 | 77° | 60km/h | 14939m | -22.3m/s | 0°C | 0% | 0hPa | 0V | 00:00:00 | 00:00:00 | 00:00:00 | |
| OE5MMP-10 | 2026-08-30 13:23:15 | 48.26055 | 17.11533 | 76° | 57km/h | 14982m | -21.3m/s | 0°C | 0% | 0hPa | 0V | 00:00:00 | 00:00:00 | 00:00:00 | |
| HA6NAB-11 | 2026-08-30 13:23:12 | 48.26047 | 17.11464 | 84° | 66km/h | 15047m | -21.5m/s | 0°C | 0% | 0hPa | 0V | 00:00:00 | 00:00:00 | 00:00:00 | |
| ATIDSZ-14 | 2026-08-30 13:23:10 | 48.26045 | 17.11417 | 89° | 60km/h | 15088m | -21.3m/s | 0°C | 0% | 0hPa | 0V | 00:00:00 | 00:00:00 | 00:00:00 | |
| PETON7-10 | 2026-08-30 13:23:09 | 48.26045 | 17.11394 | 90° | 58km/h | 15110m | -21.8m/s | 0°C | 0% | 0hPa | 0V | 00:00:00 | 00:00:00 | 00:00:00 | |
| HA6NAB-11 | 2026-08-30 13:23:06 | 48.26043 | 17.11329 | 88° | 55km/h | 15171m | -22.4m/s | 0°C | 0% | 0hPa | 0V | 00:00:00 | 00:00:00 | 00:00:00 | |
| OE5MMP-10 | 2026-08-30 13:23:02 | 48.26041 | 17.11246 | 86° | 58km/h | 15256m | -23.3m/s | 0°C | 0% | 0hPa | 0V | 00:00:00 | 00:00:00 | 00:00:00 | |
| HA6NAB-11 | 2026-08-30 13:23:01 | 48.26040 | 17.11225 | 89° | 55km/h | 15278m | -21.1m/s | 0°C | 0% | 0hPa | 0V | 00:00:00 | 00:00:00 | 00:00:00 | |
| HA6NAB-11 | 2026-08-30 13:22:55 | 48.26040 | 17.11090 | 96° | 58km/h | 15409m | -21.5m/s | 0°C | 0% | 0hPa | 0V | 00:00:00 | 00:00:00 | 00:00:00 | |
| PETON7-10 | 2026-08-30 13:22:53 | 48.26044 | 17.11046 | 99° | 49km/h | 15453m | -23.0m/s | 0°C | 0% | 0hPa | 0V | 00:00:00 | 00:00:00 | 00:00:00 | |
| OE5MMP-10 | 2026-08-30 13:22:52 | 48.26046 | 17.11023 | 100° | 49km/h | 15474m | -22.5m/s | 0°C | 0% | 0hPa | 0V | 00:00:00 | 00:00:00 | 00:00:00 | |
| OE3JTB-15 | 2026-08-30 13:22:50 | 48.26052 | 17.10982 | 109° | 38km/h | 15518m | -22.0m/s | 0°C | 0% | 0hPa | 0V | 00:00:00 | 00:00:00 | 00:00:00 | |
| HA6NAB-11 | 2026-08-30 13:22:49 | 48.26057 | 17.10963 | 109° | 53km/h | 15540m | -22.3m/s | 0°C | 0% | 0hPa | 0V | 00:00:00 | 00:00:00 | 00:00:00 | |
| OM5KV | 2026-08-30 13:22:43 | 48.26077 | 17.10862 | 106° | 44km/h | 15673m | -22.9m/s | 0°C | 0% | 0hPa | 0V | 00:00:00 | 00:00:00 | 00:00:00 | |
| OE5MMP-10 | 2026-08-30 13:22:42 | 48.26079 | 17.10847 | 99° | 35km/h | 15696m | -23.9m/s | 0°C | 0% | 0hPa | 0V | 00:00:00 | 00:00:00 | 00:00:00 | |
| OE5DXL-15 | 2026-08-30 13:22:38 | 48.26084 | 17.10788 | 92° | 33km/h | 15788m | -22.9m/s | 0°C | 0% | 0hPa | 0V | 00:00:00 | 00:00:00 | 00:00:00 | |
| OM5KV | 2026-08-30 13:22:37 | 48.26083 | 17.10773 | 86° | 37km/h | 15811m | -23.7m/s | 0°C | 0% | 0hPa | 0V | 00:00:00 | 00:00:00 | 00:00:00 | |
| OM5KV | 2026-08-30 13:22:32 | 48.26077 | 17.10712 | 76° | 33km/h | 15930m | -24.0m/s | 0°C | 0% | 0hPa | 0V | 00:00:00 | 00:00:00 | 00:00:00 | |
| OE5MMP-10 | 2026-08-30 13:22:30 | 48.26073 | 17.10690 | 74° | 38km/h | 15979m | -24.4m/s | 0°C | 0% | 0hPa | 0V | 00:00:00 | 00:00:00 | 00:00:00 | |
| PETON7-10 | 2026-08-30 13:22:23 | 48.26053 | 17.10598 | 73° | 37km/h | 16147m | -24.8m/s | 0°C | 0% | 0hPa | 0V | 00:00:00 | 00:00:00 | 00:00:00 | |
| OE3JTB-15 | 2026-08-30 13:22:21 | 48.26048 | 17.10567 | 79° | 29km/h | 16196m | -24.8m/s | 0°C | 0% | 0hPa | 0V | 00:00:00 | 00:00:00 | 00:00:00 | |
| OE5MMP-10 | 2026-08-30 13:22:19 | 48.26044 | 17.10534 | 79° | 33km/h | 16244m | -23.4m/s | 0°C | 0% | 0hPa | 0V | 00:00:00 | 00:00:00 | 00:00:00 | |
| OM5KV | 2026-08-30 13:22:16 | 48.26040 | 17.10486 | 85° | 40km/h | 16316m | -23.4m/s | 0°C | 0% | 0hPa | 0V | 00:00:00 | 00:00:00 | 00:00:00 | |
| ATIDSZ-14 | 2026-08-30 13:22:10 | 48.26034 | 17.10417 | 80° | 22km/h | 16460m | -24.9m/s | 0°C | 0% | 0hPa | 0V | 00:00:00 | 00:00:00 | 00:00:00 | |
| OE5DXL-15 | 2026-08-30 13:22:08 | 48.26032 | 17.10401 | 84° | 22km/h | 16509m | -24.5m/s | 0°C | 0% | 0hPa | 0V | 00:00:00 | 00:00:00 | 00:00:00 | |
| OM5KV | 2026-08-30 13:22:04 | 48.26027 | 17.10370 | 76° | 20km/h | 16607m | -25.4m/s | 0°C | 0% | 0hPa | 0V | 00:00:00 | 00:00:00 | 00:00:00 | |
| OM5KV | 2026-08-30 13:21:59 | 48.26013 | 17.10333 | 71° | 22km/h | 16728m | -23.6m/s | 0°C | 0% | 0hPa | 0V | 00:00:00 | 00:00:00 | 00:00:00 | |
| OK1ALN | 2026-08-30 13:21:58 | 48.26011 | 17.10325 | 64° | 26km/h | 16751m | -23.6m/s | 0°C | 0% | 0hPa | 0V | 00:00:00 | 00:00:00 | 00:00:00 | |
| PETON7-10 | 2026-08-30 13:21:53 | 48.25997 | 17.10278 | 73° | 20km/h | 16865m | -23.8m/s | 0°C | 0% | 0hPa | 0V | 00:00:00 | 00:00:00 | 00:00:00 | |
| OE3JTB-15 | 2026-08-30 13:21:52 | 48.25995 | 17.10266 | 75° | 16km/h | 16889m | -24.2m/s | 0°C | 0% | 0hPa | 0V | 00:00:00 | 00:00:00 | 00:00:00 | |
| ATIDSZ-14 | 2026-08-30 13:21:49 | 48.25990 | 17.10232 | 75° | 27km/h | 16961m | -25.7m/s | 0°C | 0% | 0hPa | 0V | 00:00:00 | 00:00:00 | 00:00:00 | |
| OM5KV | 2026-08-30 13:21:43 | 48.25982 | 17.10189 | 75° | 9km/h | 17111m | -25.7m/s | 0°C | 0% | 0hPa | 0V | 00:00:00 | 00:00:00 | 00:00:00 | |
| PETON7-10 | 2026-08-30 13:21:38 | 48.25981 | 17.10178 | 19° | 15km/h | 17237m | -27.0m/s | 0°C | 0% | 0hPa | 0V | 00:00:00 | 00:00:00 | 00:00:00 | |
| OK1ALN | 2026-08-30 13:21:37 | 48.25979 | 17.10177 | 33° | 5km/h | 17263m | -26.0m/s | 0°C | 0% | 0hPa | 0V | 00:00:00 | 00:00:00 | 00:00:00 | |
| OE5DXL-15 | 2026-08-30 13:21:35 | 48.25976 | 17.10173 | 39° | 22km/h | 17314m | -26.3m/s | 0°C | 0% | 0hPa | 0V | 00:00:00 | 00:00:00 | 00:00:00 | |
| OM5KV | 2026-08-30 13:21:31 | 48.25965 | 17.10158 | 40° | 16km/h | 17418m | -26.1m/s | 0°C | 0% | 0hPa | 0V | 00:00:00 | 00:00:00 | 00:00:00 | |
| ATIDSZ-14 | 2026-08-30 13:21:28 | 48.25956 | 17.10143 | 48° | 22km/h | 17493m | -25.4m/s | 0°C | 0% | 0hPa | 0V | 00:00:00 | 00:00:00 | 00:00:00 | |
| OM5KV | 2026-08-30 13:21:25 | 48.25944 | 17.10126 | 51° | 24km/h | 17569m | -25.2m/s | 0°C | 0% | 0hPa | 0V | 00:00:00 | 00:00:00 | 00:00:00 | |
| PETON7-10 | 2026-08-30 13:21:23 | 48.25936 | 17.10110 | 58° | 24km/h | 17620m | -24.0m/s | 0°C | 0% | 0hPa | 0V | 00:00:00 | 00:00:00 | 00:00:00 | |
| OK1ALN | 2026-08-30 13:21:14 | 48.25900 | 17.10028 | 57° | 26km/h | 17845m | -27.3m/s | 0°C | 0% | 0hPa | 0V | 00:00:00 | 00:00:00 | 00:00:00 | |
| OM5KV | 2026-08-30 13:21:13 | 48.25897 | 17.10020 | 61° | 22km/h | 17872m | -26.9m/s | 0°C | 0% | 0hPa | 0V | 00:00:00 | 00:00:00 | 00:00:00 | |
| ATIDSZ-14 | 2026-08-30 13:21:07 | 48.25890 | 17.09983 | 107° | 13km/h | 18029m | -25.4m/s | 0°C | 0% | 0hPa | 0V | 00:00:00 | 00:00:00 | 00:00:00 | |
| OE5MMP-10 | 2026-08-30 13:21:03 | 48.25897 | 17.09967 | 128° | 4km/h | 18130m | -24.3m/s | 0°C | 0% | 0hPa | 0V | 00:00:00 | 00:00:00 | 00:00:00 | |
| OM5KV | 2026-08-30 13:21:02 | 48.25899 | 17.09965 | 140° | 9km/h | 18153m | -23.7m/s | 0°C | 0% | 0hPa | 0V | 00:00:00 | 00:00:00 | 00:00:00 | |
| OE5DXL-15 | 2026-08-30 13:21:01 | 48.25901 | 17.09963 | 148° | 9km/h | 18178m | -25.2m/s | 0°C | 0% | 0hPa | 0V | 00:00:00 | 00:00:00 | 00:00:00 | |
| OE3OSB-13 | 2026-08-30 13:20:57 | 48.25906 | 17.09959 | 17° | 0km/h | 18309m | -26.8m/s | -55.8°C | 0.0% | 72.7hPa | 0V | 00:00:00 | 00:00:00 | 00:00:00 | |
| OM5KV | 2026-08-30 13:20:56 | 48.25906 | 17.09959 | 0° | 0km/h | 18309m | -26.8m/s | 0°C | 0% | 0hPa | 0V | 00:00:00 | 00:00:00 | 00:00:00 | |
| OE3JTB-15 | 2026-08-30 13:20:54 | 48.25905 | 17.09959 | 3° | 11km/h | 18363m | -26.8m/s | 0°C | 0% | 0hPa | 0V | 00:00:00 | 00:00:00 | 00:00:00 | |
| OE5MMP-10 | 2026-08-30 13:20:53 | 48.25903 | 17.09958 | 8° | 13km/h | 18389m | -26.3m/s | 0°C | 0% | 0hPa | 0V | 00:00:00 | 00:00:00 | 00:00:00 | |
| PETON7-10 | 2026-08-30 13:20:50 | 48.25897 | 17.09953 | 50° | 11km/h | 18470m | -26.1m/s | 0°C | 0% | 0hPa | 0V | 00:00:00 | 00:00:00 | 00:00:00 | |
| OM5KV | 2026-08-30 13:20:45 | 48.25888 | 17.09927 | 63° | 16km/h | 18600m | -25.8m/s | 0°C | 0% | 0hPa | 0V | 00:00:00 | 00:00:00 | 00:00:00 | |
| OE5MMP-10 | 2026-08-30 13:20:43 | 48.25885 | 17.09915 | 67° | 11km/h | 18653m | -28.0m/s | 0°C | 0% | 0hPa | 0V | 00:00:00 | 00:00:00 | 00:00:00 | |
| OM5KV | 2026-08-30 13:20:39 | 48.25881 | 17.09897 | 74° | 9km/h | 18763m | -27.0m/s | 0°C | 0% | 0hPa | 0V | 00:00:00 | 00:00:00 | 00:00:00 | |
| PETON7-10 | 2026-08-30 13:20:35 | 48.25879 | 17.09894 | 251° | 11km/h | 18869m | -25.3m/s | 0°C | 0% | 0hPa | 0V | 00:00:00 | 00:00:00 | 00:00:00 | |
| OK1ALN | 2026-08-30 13:20:33 | 48.25877 | 17.09896 | 336° | 5km/h | 18922m | -25.3m/s | 0°C | 0% | 0hPa | 0V | 00:00:00 | 00:00:00 | 00:00:00 | |
| OE5DXL-15 | 2026-08-30 13:20:31 | 48.25874 | 17.09897 | 343° | 15km/h | 18974m | -23.7m/s | 0°C | 0% | 0hPa | 0V | 00:00:00 | 00:00:00 | 00:00:00 | |
| HA6NAB-11 | 2026-08-30 13:20:30 | 48.25872 | 17.09898 | 358° | 9km/h | 19000m | -24.2m/s | 0°C | 0% | 0hPa | 0V | 00:00:00 | 00:00:00 | 00:00:00 | |
| ATIDSZ-14 | 2026-08-30 13:20:26 | 48.25862 | 17.09891 | 47° | 13km/h | 19103m | -25.0m/s | 0°C | 0% | 0hPa | 0V | 00:00:00 | 00:00:00 | 00:00:00 | |
| OE3JTB-15 | 2026-08-30 13:20:25 | 48.25860 | 17.09887 | 56° | 13km/h | 19129m | -24.7m/s | 0°C | 0% | 0hPa | 0V | 00:00:00 | 00:00:00 | 00:00:00 | |
| HA6NAB-11 | 2026-08-30 13:20:24 | 48.25858 | 17.09883 | 51° | 15km/h | 19154m | -25.0m/s | 0°C | 0% | 0hPa | 0V | 00:00:00 | 00:00:00 | 00:00:00 | |
| PETON7-10 | 2026-08-30 13:20:18 | 48.25853 | 17.09853 | 84° | 16km/h | 19306m | -25.1m/s | 0°C | 0% | 0hPa | 0V | 00:00:00 | 00:00:00 | 00:00:00 | |
| OM5KV | 2026-08-30 13:20:14 | 48.25851 | 17.09830 | 78° | 16km/h | 19410m | -26.1m/s | 0°C | 0% | 0hPa | 0V | 00:00:00 | 00:00:00 | 00:00:00 | |
| OK1ALN | 2026-08-30 13:20:12 | 48.25849 | 17.09818 | 80° | 18km/h | 19462m | -24.9m/s | 0°C | 0% | 0hPa | 0V | 00:00:00 | 00:00:00 | 00:00:00 | |
| OM5KV | 2026-08-30 13:20:08 | 48.25845 | 17.09790 | 86° | 18km/h | 19568m | -26.0m/s | 0°C | 0% | 0hPa | 0V | 00:00:00 | 00:00:00 | 00:00:00 | |
| ATIDSZ-14 | 2026-08-30 13:20:05 | 48.25845 | 17.09773 | 88° | 15km/h | 19648m | -26.6m/s | 0°C | 0% | 0hPa | 0V | 00:00:00 | 00:00:00 | 00:00:00 | |
| PETON7-10 | 2026-08-30 13:20:02 | 48.25845 | 17.09759 | 87° | 7km/h | 19730m | -26.1m/s | 0°C | 0% | 0hPa | 0V | 00:00:00 | 00:00:00 | 00:00:00 | |
| OE5DXL-15 | 2026-08-30 13:20:01 | 48.25845 | 17.09756 | 87° | 11km/h | 19757m | -25.8m/s | 0°C | 0% | 0hPa | 0V | 00:00:00 | 00:00:00 | 00:00:00 | |
| OE3OSB-13 | 2026-08-30 13:19:55 | 48.25843 | 17.09757 | 271° | 5km/h | 19948m | -27.2m/s | -53.2°C | 0.0% | 55.3hPa | 0V | 00:00:00 | 00:00:00 | 00:00:00 | |
| OK1ALN | 2026-08-30 13:19:51 | 48.25841 | 17.09767 | 305° | 9km/h | 20031m | -26.9m/s | 0°C | 0% | 0hPa | 0V | 00:00:00 | 00:00:00 | 00:00:00 | |
| PETON7-10 | 2026-08-30 13:19:47 | 48.25833 | 17.09774 | 1° | 15km/h | 20139m | -24.4m/s | 0°C | 0% | 0hPa | 0V | 00:00:00 | 00:00:00 | 00:00:00 | |
| ATIDSZ-14 | 2026-08-30 13:19:43 | 48.25822 | 17.09772 | 12° | 13km/h | 20248m | -26.7m/s | 0°C | 0% | 0hPa | 0V | 00:00:00 | 00:00:00 | 00:00:00 | |
| OM5KV | 2026-08-30 13:19:41 | 48.25816 | 17.09769 | 21° | 15km/h | 20303m | -27.2m/s | 0°C | 0% | 0hPa | 0V | 00:00:00 | 00:00:00 | 00:00:00 | |
| OE5DXL-15 | 2026-08-30 13:19:31 | 48.25774 | 17.09740 | 56° | 5km/h | 20591m | -28.0m/s | 0°C | 0% | 0hPa | 0V | 00:00:00 | 00:00:00 | 00:00:00 | |
| OM5KV | 2026-08-30 13:19:29 | 48.25771 | 17.09733 | 50° | 9km/h | 20650m | -27.8m/s | 0°C | 0% | 0hPa | 0V | 00:00:00 | 00:00:00 | 00:00:00 | |
| OE3JTB-15 | 2026-08-30 13:19:27 | 48.25769 | 17.09729 | 67° | 4km/h | 20708m | -27.6m/s | 0°C | 0% | 0hPa | 0V | 00:00:00 | 00:00:00 | 00:00:00 | |
| OE3OSB-13 | 2026-08-30 13:19:24 | 48.25771 | 17.09729 | 232° | 2km/h | 20823m | -28.8m/s | -54.7°C | 0.0% | 47.7hPa | 0V | 00:00:00 | 00:00:00 | 00:00:00 | |
| ATIDSZ-14 | 2026-08-30 13:19:23 | 48.25771 | 17.09729 | 234° | 4km/h | 20823m | -28.8m/s | 0°C | 0% | 0hPa | 0V | 00:00:00 | 00:00:00 | 00:00:00 | |
| OM5KV | 2026-08-30 13:19:18 | 48.25774 | 17.09731 | 0° | 0km/h | 20967m | -27.8m/s | 0°C | 0% | 0hPa | 0V | 00:00:00 | 00:00:00 | 00:00:00 | |
| PETON7-10 | 2026-08-30 13:19:14 | 48.25773 | 17.09727 | 22° | 7km/h | 21081m | -27.4m/s | 0°C | 0% | 0hPa | 0V | 00:00:00 | 00:00:00 | 00:00:00 | |
| OM5KV | 2026-08-30 13:19:12 | 48.25771 | 17.09727 | 0° | 0km/h | 21138m | -28.7m/s | 0°C | 0% | 0hPa | 0V | 00:00:00 | 00:00:00 | 00:00:00 | |
| OK1ALN | 2026-08-30 13:19:09 | 48.25771 | 17.09728 | 271° | 5km/h | 21227m | -29.4m/s | 0°C | 0% | 0hPa | 0V | 00:00:00 | 00:00:00 | 00:00:00 | |
| OM5KV | 2026-08-30 13:19:05 | 48.25773 | 17.09740 | 236° | 7km/h | 21345m | -26.8m/s | 0°C | 0% | 0hPa | 0V | 00:00:00 | 00:00:00 | 00:00:00 | |
| ATIDSZ-14 | 2026-08-30 13:19:02 | 48.25774 | 17.09747 | 278° | 7km/h | 21430m | -29.2m/s | 0°C | 0% | 0hPa | 0V | 00:00:00 | 00:00:00 | 00:00:00 | |
| OE3OSB-13 | 2026-08-30 13:18:53 | 48.25759 | 17.09771 | 337° | 15km/h | 21731m | -31.5m/s | -53.2°C | 0.0% | 40.8hPa | 0V | 00:00:00 | 00:00:00 | 00:00:00 | |
| OM5KV | 2026-08-30 13:18:52 | 48.25759 | 17.09771 | 338° | 15km/h | 21731m | -31.5m/s | 0°C | 0% | 0hPa | 0V | 00:00:00 | 00:00:00 | 00:00:00 | |
| OM5KV | 2026-08-30 13:18:46 | 48.25741 | 17.09771 | 19° | 11km/h | 21918m | -30.9m/s | 0°C | 0% | 0hPa | 0V | 00:00:00 | 00:00:00 | 00:00:00 | |
| PETON7-10 | 2026-08-30 13:18:42 | 48.25736 | 17.09766 | 94° | 9km/h | 22043m | -32.1m/s | 0°C | 0% | 0hPa | 0V | 00:00:00 | 00:00:00 | 00:00:00 | |
| ATIDSZ-14 | 2026-08-30 13:18:40 | 48.25738 | 17.09765 | 206° | 4km/h | 22107m | -30.5m/s | 0°C | 0% | 0hPa | 0V | 00:00:00 | 00:00:00 | 00:00:00 | |
| OM5KV | 2026-08-30 13:18:35 | 48.25743 | 17.09779 | 265° | 15km/h | 22268m | -33.7m/s | 0°C | 0% | 0hPa | 0V | 00:00:00 | 00:00:00 | 00:00:00 | |
| OM5KV | 2026-08-30 13:18:30 | 48.25742 | 17.09809 | 296° | 20km/h | 22440m | -34.1m/s | 0°C | 0% | 0hPa | 0V | 00:00:00 | 00:00:00 | 00:00:00 | |
| OE3JTB-15 | 2026-08-30 13:18:29 | 48.25739 | 17.09816 | 301° | 13km/h | 22474m | -33.9m/s | 0°C | 0% | 0hPa | 0V | 00:00:00 | 00:00:00 | 00:00:00 | |
| OE5MMP-10 | 2026-08-30 13:18:27 | 48.25734 | 17.09829 | 313° | 20km/h | 22543m | -34.0m/s | 0°C | 0% | 0hPa | 0V | 00:00:00 | 00:00:00 | 00:00:00 | |
| OM5KV | 2026-08-30 13:18:24 | 48.25723 | 17.09842 | 330° | 16km/h | 22648m | -33.8m/s | 0°C | 0% | 0hPa | 0V | 00:00:00 | 00:00:00 | 00:00:00 | |
| OE3OSB-13 | 2026-08-30 13:18:22 | 48.25713 | 17.09849 | 348° | 16km/h | 22751m | -35.6m/s | -53.8°C | 0.0% | 34.1hPa | 0V | 00:00:00 | 00:00:00 | 00:00:00 | |
| HA6NAB-11 | 2026-08-30 13:18:21 | 48.25712 | 17.09849 | 350° | 16km/h | 22751m | -35.6m/s | 0°C | 0% | 0hPa | 0V | 00:00:00 | 00:00:00 | 00:00:00 | |
| ATIDSZ-14 | 2026-08-30 13:18:20 | 48.25708 | 17.09851 | 357° | 18km/h | 22787m | -34.5m/s | 0°C | 0% | 0hPa | 0V | 00:00:00 | 00:00:00 | 00:00:00 | |
| OM5KV | 2026-08-30 13:18:19 | 48.25704 | 17.09851 | 350° | 15km/h | 22822m | -34.1m/s | 0°C | 0% | 0hPa | 0V | 00:00:00 | 00:00:00 | 00:00:00 | |
| OE5MMP-10 | 2026-08-30 13:18:17 | 48.25697 | 17.09854 | 349° | 9km/h | 22892m | -34.7m/s | 0°C | 0% | 0hPa | 0V | 00:00:00 | 00:00:00 | 00:00:00 | |
| HA6NAB-11 | 2026-08-30 13:18:16 | 48.25693 | 17.09855 | 352° | 13km/h | 22926m | -33.7m/s | 0°C | 0% | 0hPa | 0V | 00:00:00 | 00:00:00 | 00:00:00 | |
| OM5KV | 2026-08-30 13:18:14 | 48.25688 | 17.09858 | 329° | 13km/h | 22996m | -35.3m/s | 0°C | 0% | 0hPa | 0V | 00:00:00 | 00:00:00 | 00:00:00 | |
| HA6NAB-11 | 2026-08-30 13:18:11 | 48.25682 | 17.09867 | 316° | 11km/h | 23105m | -35.6m/s | 0°C | 0% | 0hPa | 0V | 00:00:00 | 00:00:00 | 00:00:00 | |
| PETON7-10 | 2026-08-30 13:18:10 | 48.25680 | 17.09869 | 320° | 7km/h | 23141m | -34.9m/s | 0°C | 0% | 0hPa | 0V | 00:00:00 | 00:00:00 | 00:00:00 | |
| OM5KV | 2026-08-30 13:18:09 | 48.25678 | 17.09872 | 303° | 7km/h | 23177m | -35.7m/s | 0°C | 0% | 0hPa | 0V | 00:00:00 | 00:00:00 | 00:00:00 | |
| OK1ALN | 2026-08-30 13:18:06 | 48.25673 | 17.09878 | 340° | 7km/h | 23286m | -34.5m/s | 0°C | 0% | 0hPa | 0V | 00:00:00 | 00:00:00 | 00:00:00 | |
| HA6NAB-11 | 2026-08-30 13:18:05 | 48.25671 | 17.09879 | 324° | 7km/h | 23323m | -35.3m/s | 0°C | 0% | 0hPa | 0V | 00:00:00 | 00:00:00 | 00:00:00 | |
| OM5KV | 2026-08-30 13:18:03 | 48.25667 | 17.09880 | 14° | 9km/h | 23396m | -36.0m/s | 0°C | 0% | 0hPa | 0V | 00:00:00 | 00:00:00 | 00:00:00 | |
| OE3JTB-15 | 2026-08-30 13:18:00 | 48.25662 | 17.09878 | 17° | 7km/h | 23505m | -36.8m/s | 0°C | 0% | 0hPa | 0V | 00:00:00 | 00:00:00 | 00:00:00 | |
| OE3OSB-13 | 2026-08-30 13:17:51 | 48.25648 | 17.09875 | 359° | 2km/h | 23873m | -36.5m/s | -53.6°C | 0.0% | 27.9hPa | 0V | 00:00:00 | 00:00:00 | 00:00:00 | |
| OM5KV | 2026-08-30 13:17:46 | 48.25649 | 17.09877 | 0° | 0km/h | 24030m | -39.1m/s | 0°C | 0% | 0hPa | 0V | 00:00:00 | 00:00:00 | 00:00:00 | |
| OE5MMP-10 | 2026-08-30 13:17:45 | 48.25649 | 17.09877 | 224° | 15km/h | 24070m | -39.5m/s | 0°C | 0% | 0hPa | 0V | 00:00:00 | 00:00:00 | 00:00:00 | |
| PETON7-10 | 2026-08-30 13:17:40 | 48.25653 | 17.09875 | 187° | 15km/h | 24272m | -39.1m/s | 0°C | 0% | 0hPa | 0V | 00:00:00 | 00:00:00 | 00:00:00 | |
| OM5KV | 2026-08-30 13:17:34 | 48.25667 | 17.09887 | 213° | 11km/h | 24513m | -39.7m/s | 0°C | 0% | 0hPa | 0V | 00:00:00 | 00:00:00 | 00:00:00 | |
| ATIDSZ-14 | 2026-08-30 13:17:33 | 48.25669 | 17.09890 | 248° | 11km/h | 24553m | -39.3m/s | 0°C | 0% | 0hPa | 0V | 00:00:00 | 00:00:00 | 00:00:00 | |
| OE3JTB-15 | 2026-08-30 13:17:31 | 48.25671 | 17.09917 | 262° | 15km/h | 24635m | -39.3m/s | 0°C | 0% | 0hPa | 0V | 00:00:00 | 00:00:00 | 00:00:00 | |
| OM5KV | 2026-08-30 13:17:27 | 48.25671 | 17.09925 | 277° | 20km/h | 24790m | -37.6m/s | 0°C | 0% | 0hPa | 0V | 00:00:00 | 00:00:00 | 00:00:00 | |
| OK1ALN | 2026-08-30 13:17:25 | 48.25671 | 17.09940 | 286° | 18km/h | 24869m | -39.3m/s | 0°C | 0% | 0hPa | 0V | 00:00:00 | 00:00:00 | 00:00:00 | |
| PETON7-10 | 2026-08-30 13:17:22 | 48.25667 | 17.09956 | 307° | 13km/h | 24986m | -40.3m/s | 0°C | 0% | 0hPa | 0V | 00:00:00 | 00:00:00 | 00:00:00 | |
| OE3OSB-13 | 2026-08-30 13:17:20 | 48.25656 | 17.09971 | 330° | 20km/h | 25109m | -38.6m/s | -51.4°C | 0.0% | 22.3hPa | 0V | 00:00:00 | 00:00:00 | 00:00:00 | |
| ATIDSZ-14 | 2026-08-30 13:17:11 | 48.25626 | 17.09994 | 14° | 9km/h | 25429m | -38.6m/s | 0°C | 0% | 0hPa | 0V | 00:00:00 | 00:00:00 | 00:00:00 | |
| OM5KV | 2026-08-30 13:17:10 | 48.25624 | 17.09993 | 16° | 5km/h | 25469m | -40.1m/s | 0°C | 0% | 0hPa | 0V | 00:00:00 | 00:00:00 | 00:00:00 | |
| PETON7-10 | 2026-08-30 13:17:05 | 48.25621 | 17.09994 | 314° | 9km/h | 25680m | -41.2m/s | 0°C | 0% | 0hPa | 0V | 00:00:00 | 00:00:00 | 00:00:00 | |
| OK1ALN | 2026-08-30 13:17:04 | 48.25620 | 17.09995 | 324° | 9km/h | 25723m | -43.8m/s | 0°C | 0% | 0hPa | 0V | 00:00:00 | 00:00:00 | 00:00:00 | |
| OE3JTB-15 | 2026-08-30 13:17:01 | 48.25612 | 17.10004 | 336° | 15km/h | 25855m | -41.5m/s | 0°C | 0% | 0hPa | 0V | 00:00:00 | 00:00:00 | 00:00:00 | |
| OE3OSB-13 | 2026-08-30 13:16:49 | 48.25584 | 17.10002 | 284° | 7km/h | 26402m | -43.3m/s | -48.5°C | 0.0% | 17.5hPa | 0V | 00:00:00 | 00:00:00 | 00:00:00 | |
| OM5KV | 2026-08-30 13:16:48 | 48.25584 | 17.10002 | 285° | 7km/h | 26402m | -43.3m/s | 0°C | 0% | 0hPa | 0V | 00:00:00 | 00:00:00 | 00:00:00 | |
| OK1ALN | 2026-08-30 13:16:43 | 48.25572 | 17.10014 | 345° | 13km/h | 26629m | -44.2m/s | 0°C | 0% | 0hPa | 0V | 00:00:00 | 00:00:00 | 00:00:00 | |
| ATIDSZ-14 | 2026-08-30 13:16:39 | 48.25555 | 17.10021 | 351° | 20km/h | 26807m | -45.5m/s | 0°C | 0% | 0hPa | 0V | 00:00:00 | 00:00:00 | 00:00:00 | |
| OM5KV | 2026-08-30 13:16:36 | 48.25541 | 17.10024 | 1° | 18km/h | 26946m | -44.8m/s | 0°C | 0% | 0hPa | 0V | 00:00:00 | 00:00:00 | 00:00:00 | |
| PETON7-10 | 2026-08-30 13:16:34 | 48.25532 | 17.10023 | 12° | 13km/h | 27038m | -42.5m/s | 0°C | 0% | 0hPa | 0V | 00:00:00 | 00:00:00 | 00:00:00 | |
| OE3JTB-15 | 2026-08-30 13:16:32 | 48.25524 | 17.10020 | 22° | 16km/h | 27126m | -44.2m/s | 0°C | 0% | 0hPa | 0V | 00:00:00 | 00:00:00 | 00:00:00 | |
| OM5KV | 2026-08-30 13:16:28 | 48.25512 | 17.10012 | 9° | 11km/h | 27303m | -43.2m/s | 0°C | 0% | 0hPa | 0V | 00:00:00 | 00:00:00 | 00:00:00 | |
| OM5KV | 2026-08-30 13:16:23 | 48.25501 | 17.10023 | 304° | 11km/h | 27530m | -45.3m/s | 0°C | 0% | 0hPa | 0V | 00:00:00 | 00:00:00 | 00:00:00 | |
| PETON7-10 | 2026-08-30 13:16:19 | 48.25489 | 17.10034 | 356° | 18km/h | 27719m | -46.0m/s | 0°C | 0% | 0hPa | 0V | 00:00:00 | 00:00:00 | 00:00:00 | |
| OM5KV | 2026-08-30 13:16:17 | 48.25481 | 17.10035 | 359° | 18km/h | 27811m | -45.3m/s | 0°C | 0% | 0hPa | 0V | 00:00:00 | 00:00:00 | 00:00:00 | |
| OK1ALN | 2026-08-30 13:16:15 | 48.25473 | 17.10033 | 16° | 15km/h | 27903m | -44.9m/s | 0°C | 0% | 0hPa | 0V | 00:00:00 | 00:00:00 | 00:00:00 | |
| ATIDSZ-14 | 2026-08-30 13:16:12 | 48.25461 | 17.10027 | 16° | 13km/h | 28046m | -46.3m/s | 0°C | 0% | 0hPa | 0V | 00:00:00 | 00:00:00 | 00:00:00 | |
| OE3JTB-15 | 2026-08-30 13:16:03 | 48.25421 | 17.10008 | 31° | 18km/h | 28502m | -53.2m/s | 0°C | 0% | 0hPa | 0V | 00:00:00 | 00:00:00 | 00:00:00 | |
| PETON7-10 | 2026-08-30 13:16:02 | 48.25416 | 17.10003 | 40° | 16km/h | 28557m | -52.8m/s | 0°C | 0% | 0hPa | 0V | 00:00:00 | 00:00:00 | 00:00:00 | |
| OM5KV | 2026-08-30 13:15:59 | 48.25403 | 17.09985 | 55° | 18km/h | 28718m | -49.8m/s | 0°C | 0% | 0hPa | 0V | 00:00:00 | 00:00:00 | 00:00:00 | |
| OM5KV | 2026-08-30 13:15:53 | 48.25391 | 17.09948 | 67° | 16km/h | 29026m | -50.1m/s | 0°C | 0% | 0hPa | 0V | 00:00:00 | 00:00:00 | 00:00:00 | |
| HA6NAB-11 | 2026-08-30 13:15:50 | 48.25384 | 17.09933 | 47° | 13km/h | 29181m | -50.3m/s | 0°C | 0% | 0hPa | 0V | 00:00:00 | 00:00:00 | 00:00:00 | |
| OK1ALN | 2026-08-30 13:15:49 | 48.25382 | 17.09929 | 59° | 15km/h | 29234m | -49.0m/s | 0°C | 0% | 0hPa | 0V | 00:00:00 | 00:00:00 | 00:00:00 | |
| PETON7-10 | 2026-08-30 13:15:47 | 48.25377 | 17.09921 | 37° | 18km/h | 29336m | -51.1m/s | 0°C | 0% | 0hPa | 0V | 00:00:00 | 00:00:00 | 00:00:00 | |
| HA6NAB-11 | 2026-08-30 13:15:44 | 48.25370 | 17.09910 | 45° | 16km/h | 29494m | -50.6m/s | 0°C | 0% | 0hPa | 0V | 00:00:00 | 00:00:00 | 00:00:00 | |
| OM5KV | 2026-08-30 13:15:39 | 48.25354 | 17.09890 | 29° | 16km/h | 29761m | -54.7m/s | 0°C | 0% | 0hPa | 0V | 00:00:00 | 00:00:00 | 00:00:00 | |
| HA6NAB-11 | 2026-08-30 13:15:38 | 48.25350 | 17.09887 | 28° | 20km/h | 29816m | -55.1m/s | 0°C | 0% | 0hPa | 0V | 00:00:00 | 00:00:00 | 00:00:00 | |
| ATIDSZ-14 | 2026-08-30 13:15:34 | 48.25332 | 17.09874 | 26° | 22km/h | 30042m | -55.0m/s | 0°C | 0% | 0hPa | 0V | 00:00:00 | 00:00:00 | 00:00:00 | |
| OE3JTB-15 | 2026-08-30 13:15:33 | 48.25327 | 17.09871 | 19° | 18km/h | 30097m | -55.1m/s | 0°C | 0% | 0hPa | 0V | 00:00:00 | 00:00:00 | 00:00:00 | |
| PETON7-10 | 2026-08-30 13:15:32 | 48.25321 | 17.09867 | 24° | 27km/h | 30154m | -55.2m/s | 0°C | 0% | 0hPa | 0V | 00:00:00 | 00:00:00 | 00:00:00 | |
| HA6NAB-11 | 2026-08-30 13:15:27 | 48.25291 | 17.09843 | 29° | 26km/h | 30428m | -54.2m/s | 0°C | 0% | 0hPa | 0V | 00:00:00 | 00:00:00 | 00:00:00 | |
| OM5KV | 2026-08-30 13:15:26 | 48.25285 | 17.09838 | 30° | 26km/h | 30485m | -56.2m/s | 0°C | 0% | 0hPa | 0V | 00:00:00 | 00:00:00 | 00:00:00 | |
| OK1ALN | 2026-08-30 13:15:23 | 48.25269 | 17.09825 | 35° | 22km/h | 30658m | -56.3m/s | 0°C | 0% | 0hPa | 0V | 00:00:00 | 00:00:00 | 00:00:00 | |
| HA6NAB-11 | 2026-08-30 13:15:21 | 48.25261 | 17.09814 | 49° | 20km/h | 30776m | -57.4m/s | 0°C | 0% | 0hPa | 0V | 00:00:00 | 00:00:00 | 00:00:00 | |
| PETON7-10 | 2026-08-30 13:15:18 | 48.25249 | 17.09791 | 53° | 18km/h | 31006m | -56.1m/s | 0°C | 0% | 0hPa | 0V | 00:00:00 | 00:00:00 | 00:00:00 | |
| OE3OSB-13 | 2026-08-30 13:15:15 | 48.25235 | 17.09764 | 51° | 13km/h | 31364m | -61.6m/s | -40.1°C | 0.0% | 5.9hPa | 0V | 00:00:00 | 00:00:00 | 00:00:00 | |
| OM5KV | 2026-08-30 13:15:06 | 48.25219 | 17.09745 | 39° | 18km/h | 31694m | -64.3m/s | 0°C | 0% | 0hPa | 0V | 00:00:00 | 00:00:00 | 00:00:00 | |
| PETON7-10 | 2026-08-30 13:15:02 | 48.25201 | 17.09724 | 37° | 47km/h | 31955m | -65.5m/s | 0°C | 0% | 0hPa | 0V | 00:00:00 | 00:00:00 | 00:00:00 | |
| OE3OSB-13 | 2026-08-30 13:14:45 | 48.25147 | 17.09501 | 77° | 29km/h | 33111m | -53.0m/s | -37.8°C | 0.0% | 3.6hPa | 0V | 00:00:00 | 00:00:00 | 00:00:00 | |
| PETON7-10 | 2026-08-30 13:14:39 | 48.25153 | 17.09399 | 102° | 47km/h | 33291m | -25.2m/s | 0°C | 0% | 0hPa | 0V | 00:00:00 | 00:00:00 | 00:00:00 | |
| OE5MMP-10 | 2026-08-30 13:14:34 | 48.25157 | 17.09289 | 65° | 33km/h | 33285m | 4.8m/s | 0°C | 0% | 0hPa | 0V | 00:00:00 | 00:00:00 | 00:00:00 | |
| OE3JTB-15 | 2026-08-30 13:14:32 | 48.25148 | 17.09265 | 61° | 35km/h | 33271m | 7.3m/s | 0°C | 0% | 0hPa | 0V | 00:00:00 | 00:00:00 | 00:00:00 | |
| ATIDSZ-14 | 2026-08-30 13:14:25 | 48.25144 | 17.09183 | 99° | 35km/h | 33228m | 7.1m/s | 0°C | 0% | 0hPa | 0V | 00:00:00 | 00:00:00 | 00:00:00 | |
| OE5MMP-10 | 2026-08-30 13:14:24 | 48.25144 | 17.09167 | 90° | 38km/h | 33220m | 8.4m/s | 0°C | 0% | 0hPa | 0V | 00:00:00 | 00:00:00 | 00:00:00 | |
| OE3OSB-13 | 2026-08-30 13:14:14 | 48.25128 | 17.09005 | 43° | 24km/h | 33134m | 4.9m/s | -38.3°C | 0.0% | 3.6hPa | 0V | 00:00:00 | 00:00:00 | 00:00:00 | |
| PETON7-10 | 2026-08-30 13:14:09 | 48.25118 | 17.08986 | 59° | 35km/h | 33124m | 7.1m/s | 0°C | 0% | 0hPa | 0V | 00:00:00 | 00:00:00 | 00:00:00 | |
| ATIDSZ-14 | 2026-08-30 13:14:04 | 48.25114 | 17.08911 | 118° | 24km/h | 33089m | 7.9m/s | 0°C | 0% | 0hPa | 0V | 00:00:00 | 00:00:00 | 00:00:00 | |
| OE5MMP-10 | 2026-08-30 13:14:03 | 48.25116 | 17.08905 | 120° | 29km/h | 33082m | 7.0m/s | 0°C | 0% | 0hPa | 0V | 00:00:00 | 00:00:00 | 00:00:00 | |
| OK1ALN | 2026-08-30 13:14:02 | 48.25117 | 17.08900 | 80° | 15km/h | 33076m | 4.3m/s | 0°C | 0% | 0hPa | 0V | 00:00:00 | 00:00:00 | 00:00:00 | |
| PETON7-10 | 2026-08-30 13:13:54 | 48.25092 | 17.08800 | 111° | 35km/h | 33020m | 5.3m/s | 0°C | 0% | 0hPa | 0V | 00:00:00 | 00:00:00 | 00:00:00 | |
| OE5MMP-10 | 2026-08-30 13:13:52 | 48.25097 | 17.08782 | 105° | 37km/h | 33007m | 7.0m/s | 0°C | 0% | 0hPa | 0V | 00:00:00 | 00:00:00 | 00:00:00 | |
| OE5MMP-10 | 2026-08-30 13:13:42 | 48.25068 | 17.08659 | 101° | 40km/h | 32939m | 4.8m/s | 0°C | 0% | 0hPa | 0V | 00:00:00 | 00:00:00 | 00:00:00 | |
| ATIDSZ-14 | 2026-08-30 13:13:41 | 48.25070 | 17.08643 | 104° | 38km/h | 32934m | 6.8m/s | 0°C | 0% | 0hPa | 0V | 00:00:00 | 00:00:00 | 00:00:00 | |
| PETON7-10 | 2026-08-30 13:13:39 | 48.25071 | 17.08624 | 62° | 33km/h | 32918m | 6.0m/s | 0°C | 0% | 0hPa | 0V | 00:00:00 | 00:00:00 | 00:00:00 | |
| EDDB2-11 | 2026-08-30 13:13:34 | 48.25044 | 17.08545 | 73° | 38km/h | 32881m | 7.2m/s | -39.1°C | 0.0% | 3.9hPa | 0V | 00:00:00 | 00:00:00 | 00:00:00 | |
| OE5MMP-10 | 2026-08-30 13:13:31 | 48.25039 | 17.08524 | 60° | 33km/h | 32864m | 6.2m/s | 0°C | 0% | 0hPa | 0V | 00:00:00 | 00:00:00 | 00:00:00 | |
| HA6NAB-11 | 2026-08-30 13:13:29 | 48.25033 | 17.08508 | 66° | 29km/h | 32851m | 6.7m/s | 0°C | 0% | 0hPa | 0V | 00:00:00 | 00:00:00 | 00:00:00 | |
| HA6NAB-11 | 2026-08-30 13:13:24 | 48.25018 | 17.08440 | 70° | 27km/h | 32818m | 9.2m/s | 0°C | 0% | 0hPa | 0V | 00:00:00 | 00:00:00 | 00:00:00 | |
| PETON7-10 | 2026-08-30 13:13:23 | 48.25014 | 17.08432 | 49° | 33km/h | 32810m | 6.1m/s | 0°C | 0% | 0hPa | 0V | 00:00:00 | 00:00:00 | 00:00:00 | |
| OK1ALN | 2026-08-30 13:13:22 | 48.25009 | 17.08423 | 46° | 33km/h | 32803m | 6.0m/s | 0°C | 0% | 0hPa | 0V | 00:00:00 | 00:00:00 | 00:00:00 | |
| OE5MMP-10 | 2026-08-30 13:13:21 | 48.25003 | 17.08414 | 46° | 35km/h | 32796m | 7.6m/s | 0°C | 0% | 0hPa | 0V | 00:00:00 | 00:00:00 | 00:00:00 | |
| HA6NAB-11 | 2026-08-30 13:13:18 | 48.24982 | 17.08374 | 61° | 40km/h | 32777m | 4.8m/s | 0°C | 0% | 0hPa | 0V | 00:00:00 | 00:00:00 | 00:00:00 | |
| OE5DXL-15 | 2026-08-30 13:13:16 | 48.24975 | 17.08354 | 79° | 24km/h | 32762m | 7.8m/s | 0°C | 0% | 0hPa | 0V | 00:00:00 | 00:00:00 | 00:00:00 | |
| HA6NAB-11 | 2026-08-30 13:13:13 | 48.24974 | 17.08328 | 83° | 33km/h | 32742m | 8.2m/s | 0°C | 0% | 0hPa | 0V | 00:00:00 | 00:00:00 | 00:00:00 | |
| OE5MMP-10 | 2026-08-30 13:13:11 | 48.24967 | 17.08299 | 58° | 31km/h | 32728m | 5.2m/s | 0°C | 0% | 0hPa | 0V | 00:00:00 | 00:00:00 | 00:00:00 | |
| PETON7-10 | 2026-08-30 13:13:07 | 48.24942 | 17.08260 | 42° | 35km/h | 32702m | 4.1m/s | 0°C | 0% | 0hPa | 0V | 00:00:00 | 00:00:00 | 00:00:00 | |
| OE3JTB-15 | 2026-08-30 13:13:05 | 48.24934 | 17.08242 | 63° | 33km/h | 32689m | 8.4m/s | 0°C | 0% | 0hPa | 0V | 00:00:00 | 00:00:00 | 00:00:00 | |
| OK1ALN | 2026-08-30 13:13:01 | 48.24919 | 17.08194 | 59° | 20km/h | 32663m | 9.9m/s | 0°C | 0% | 0hPa | 0V | 00:00:00 | 00:00:00 | 00:00:00 | |
| OE5MMP-10 | 2026-08-30 13:12:59 | 48.24914 | 17.08188 | 32° | 35km/h | 32649m | 4.1m/s | 0°C | 0% | 0hPa | 0V | 00:00:00 | 00:00:00 | 00:00:00 | |
| ATIDSZ-14 | 2026-08-30 13:12:58 | 48.24911 | 17.08183 | 54° | 22km/h | 32645m | 3.6m/s | 0°C | 0% | 0hPa | 0V | 00:00:00 | 00:00:00 | 00:00:00 | |
| PETON7-10 | 2026-08-30 13:12:52 | 48.24883 | 17.08091 | 77° | 31km/h | 32601m | 8.7m/s | 0°C | 0% | 0hPa | 0V | 00:00:00 | 00:00:00 | 00:00:00 | |
| OE5MMP-10 | 2026-08-30 13:12:49 | 48.24881 | 17.08074 | 68° | 31km/h | 32582m | 6.2m/s | 0°C | 0% | 0hPa | 0V | 00:00:00 | 00:00:00 | 00:00:00 | |
| OM5KV | 2026-08-30 13:12:44 | 48.24866 | 17.08007 | 77° | 38km/h | 32547m | 8.3m/s | 0°C | 0% | 0hPa | 0V | 00:00:00 | 00:00:00 | 00:00:00 | |
| OK1ALN | 2026-08-30 13:12:40 | 48.24855 | 17.07969 | 54° | 35km/h | 32518m | 9.3m/s | 0°C | 0% | 0hPa | 0V | 00:00:00 | 00:00:00 | 00:00:00 | |
| OE5MMP-10 | 2026-08-30 13:12:39 | 48.24849 | 17.07958 | 47° | 35km/h | 32510m | 6.3m/s | 0°C | 0% | 0hPa | 0V | 00:00:00 | 00:00:00 | 00:00:00 | |
| ATIDSZ-14 | 2026-08-30 13:12:38 | 48.24842 | 17.07947 | 41° | 38km/h | 32504m | 4.9m/s | 0°C | 0% | 0hPa | 0V | 00:00:00 | 00:00:00 | 00:00:00 | |
| OE5DXL-15 | 2026-08-30 13:12:37 | 48.24834 | 17.07939 | 37° | 33km/h | 32498m | 7.0m/s | 0°C | 0% | 0hPa | 0V | 00:00:00 | 00:00:00 | 00:00:00 | |
| OE3JTB-15 | 2026-08-30 13:12:36 | 48.24829 | 17.07933 | 37° | 33km/h | 32491m | 8.8m/s | 0°C | 0% | 0hPa | 0V | 00:00:00 | 00:00:00 | 00:00:00 | |
| OM5KV | 2026-08-30 13:12:33 | 48.24822 | 17.07912 | 85° | 29km/h | 32471m | 6.8m/s | 0°C | 0% | 0hPa | 0V | 00:00:00 | 00:00:00 | 00:00:00 | |
| OE5MMP-10 | 2026-08-30 13:12:29 | 48.24808 | 17.07856 | 51° | 31km/h | 32445m | 10.5m/s | 0°C | 0% | 0hPa | 0V | 00:00:00 | 00:00:00 | 00:00:00 | |
| OM5KV | 2026-08-30 13:12:27 | 48.24794 | 17.07847 | 359° | 27km/h | 32427m | 7.2m/s | 0°C | 0% | 0hPa | 0V | 00:00:00 | 00:00:00 | 00:00:00 | |
| OK1ALN | 2026-08-30 13:12:20 | 48.24759 | 17.07795 | 75° | 20km/h | 32379m | 7.8m/s | 0°C | 0% | 0hPa | 0V | 00:00:00 | 00:00:00 | 00:00:00 | |
| OE5MMP-10 | 2026-08-30 13:12:19 | 48.24757 | 17.07789 | 50° | 29km/h | 32373m | 4.8m/s | 0°C | 0% | 0hPa | 0V | 00:00:00 | 00:00:00 | 00:00:00 | |
| OM5KV | 2026-08-30 13:12:16 | 48.24736 | 17.07772 | 32° | 49km/h | 32351m | 7.4m/s | 0°C | 0% | 0hPa | 0V | 00:00:00 | 00:00:00 | 00:00:00 | |
| ATIDSZ-14 | 2026-08-30 13:12:15 | 48.24725 | 17.07762 | 33° | 51km/h | 32345m | 4.8m/s | 0°C | 0% | 0hPa | 0V | 00:00:00 | 00:00:00 | 00:00:00 | |
| OM5KV | 2026-08-30 13:12:11 | 48.24696 | 17.07737 | 42° | 18km/h | 32317m | 6.3m/s | 0°C | 0% | 0hPa | 0V | 00:00:00 | 00:00:00 | 00:00:00 | |
| OE3OSB-13 | 2026-08-30 13:12:09 | 48.24683 | 17.07712 | 50° | 42km/h | 32296m | 6.4m/s | -40.4°C | 0.0% | 4.7hPa | 0V | 00:00:00 | 00:00:00 | 00:00:00 | |
| OE3JTB-15 | 2026-08-30 13:12:07 | 48.24676 | 17.07700 | 46° | 35km/h | 32290m | 4.3m/s | 0°C | 0% | 0hPa | 0V | 00:00:00 | 00:00:00 | 00:00:00 | |
| OE5MMP-10 | 2026-08-30 13:12:05 | 48.24660 | 17.07685 | 16° | 31km/h | 32276m | 8.9m/s | 0°C | 0% | 0hPa | 0V | 00:00:00 | 00:00:00 | 00:00:00 | |
| OM5KV | 2026-08-30 13:12:04 | 48.24652 | 17.07683 | 3° | 31km/h | 32268m | 7.2m/s | 0°C | 0% | 0hPa | 0V | 00:00:00 | 00:00:00 | 00:00:00 | |
| EDDB2-11 | 2026-08-30 13:12:00 | 48.24595 | 17.07622 | 1° | 46km/h | 32205m | 7.0m/s | -40.5°C | 0.0% | 4.8hPa | 0V | 00:00:00 | 00:00:00 | 00:00:00 | |
| OM5KV | 2026-08-30 13:11:58 | 48.24620 | 17.07641 | 71° | 35km/h | 32234m | 4.4m/s | 0°C | 0% | 0hPa | 0V | 00:00:00 | 00:00:00 | 00:00:00 | |
| OE5MMP-10 | 2026-08-30 13:11:55 | 48.24606 | 17.07623 | 1° | 37km/h | 32212m | 6.6m/s | 0°C | 0% | 0hPa | 0V | 00:00:00 | 00:00:00 | 00:00:00 | |
| OE5MMP-10 | 2026-08-30 13:11:45 | 48.24548 | 17.07564 | 46° | 26km/h | 32148m | 7.6m/s | 0°C | 0% | 0hPa | 0V | 00:00:00 | 00:00:00 | 00:00:00 | |
| OE3OSB-13 | 2026-08-30 13:11:38 | 48.24489 | 17.07535 | 91° | 11km/h | 32096m | 4.6m/s | -40.7°C | 0.0% | 4.9hPa | 0V | 00:00:00 | 00:00:00 | 00:00:00 | |
| OK1ALN | 2026-08-30 13:11:37 | 48.24490 | 17.07535 | 92° | 11km/h | 32096m | 4.6m/s | 0°C | 0% | 0hPa | 0V | 00:00:00 | 00:00:00 | 00:00:00 | |
| ATIDSZ-14 | 2026-08-30 13:11:35 | 48.24483 | 17.07522 | 36° | 35km/h | 32083m | 5.6m/s | 0°C | 0% | 0hPa | 0V | 00:00:00 | 00:00:00 | 00:00:00 | |
| OM5KV | 2026-08-30 13:11:34 | 48.24473 | 17.07515 | 19° | 49km/h | 32077m | 6.3m/s | 0°C | 0% | 0hPa | 0V | 00:00:00 | 00:00:00 | 00:00:00 | |
| OE5MMP-10 | 2026-08-30 13:11:33 | 48.24461 | 17.07511 | 4° | 27km/h | 32070m | 6.2m/s | 0°C | 0% | 0hPa | 0V | 00:00:00 | 00:00:00 | 00:00:00 | |
| PETON7-10 | 2026-08-30 13:11:27 | 48.24421 | 17.07515 | 51° | 22km/h | 32032m | 7.5m/s | 0°C | 0% | 0hPa | 0V | 00:00:00 | 00:00:00 | 00:00:00 | |
| OE5MMP-10 | 2026-08-30 13:11:22 | 48.24390 | 17.07515 | 318° | 24km/h | 31999m | 4.9m/s | 0°C | 0% | 0hPa | 0V | 00:00:00 | 00:00:00 | 00:00:00 | |
| OK1ALN | 2026-08-30 13:11:17 | 48.24363 | 17.07516 | 60° | 20km/h | 31968m | 6.0m/s | 0°C | 0% | 0hPa | 0V | 00:00:00 | 00:00:00 | 00:00:00 | |
| ATIDSZ-14 | 2026-08-30 13:11:14 | 48.24356 | 17.07511 | 328° | 13km/h | 31946m | 6.7m/s | 0°C | 0% | 0hPa | 0V | 00:00:00 | 00:00:00 | 00:00:00 | |
| OE5MMP-10 | 2026-08-30 13:11:12 | 48.24349 | 17.07516 | 352° | 20km/h | 31931m | 7.0m/s | 0°C | 0% | 0hPa | 0V | 00:00:00 | 00:00:00 | 00:00:00 | |
| PETON7-10 | 2026-08-30 13:11:10 | 48.24339 | 17.07519 | 343° | 22km/h | 31919m | 4.9m/s | 0°C | 0% | 0hPa | 0V | 00:00:00 | 00:00:00 | 00:00:00 | |
| OE3JTB-15 | 2026-08-30 13:11:09 | 48.24334 | 17.07523 | 325° | 24km/h | 31913m | 6.5m/s | 0°C | 0% | 0hPa | 0V | 00:00:00 | 00:00:00 | 00:00:00 | |
| OE3OSB-13 | 2026-08-30 13:11:07 | 48.24324 | 17.07535 | 30° | 4km/h | 31896m | 5.1m/s | -40.8°C | 0.0% | 5.2hPa | 0V | 00:00:00 | 00:00:00 | 00:00:00 | |
| OE5MMP-10 | 2026-08-30 13:11:02 | 48.24318 | 17.07503 | 66° | 29km/h | 31872m | 1.5m/s | 0°C | 0% | 0hPa | 0V | 00:00:00 | 00:00:00 | 00:00:00 | |
| OK1ALN | 2026-08-30 13:10:57 | 48.24308 | 17.07537 | 308° | 33km/h | 31841m | 1.9m/s | 0°C | 0% | 0hPa | 0V | 00:00:00 | 00:00:00 | 00:00:00 | |
| PETON7-10 | 2026-08-30 13:10:55 | 48.24299 | 17.07544 | 37° | 24km/h | 31829m | 9.3m/s | 0°C | 0% | 0hPa | 0V | 00:00:00 | 00:00:00 | 00:00:00 | |
| OE5DXL-15 | 2026-08-30 13:10:54 | 48.24296 | 17.07535 | 85° | 26km/h | 31820m | 8.8m/s | 0°C | 0% | 0hPa | 0V | 00:00:00 | 00:00:00 | 00:00:00 | |
| OE5MMP-10 | 2026-08-30 13:10:52 | 48.24301 | 17.07506 | 124° | 20km/h | 31806m | 5.9m/s | 0°C | 0% | 0hPa | 0V | 00:00:00 | 00:00:00 | 00:00:00 | |
| OM5KV | 2026-08-30 13:10:50 | 48.24310 | 17.07496 | 214° | 11km/h | 31795m | 6.5m/s | 0°C | 0% | 0hPa | 0V | 00:00:00 | 00:00:00 | 00:00:00 | |
| OE5MMP-10 | 2026-08-30 13:10:42 | 48.24300 | 17.07508 | 157° | 22km/h | 31742m | 5.1m/s | 0°C | 0% | 0hPa | 0V | 00:00:00 | 00:00:00 | 00:00:00 | |
| OE3JTB-15 | 2026-08-30 13:10:40 | 48.24310 | 17.07495 | 115° | 26km/h | 31732m | 5.8m/s | 0°C | 0% | 0hPa | 0V | 00:00:00 | 00:00:00 | 00:00:00 | |
| OE3OSB-13 | 2026-08-30 13:10:36 | 48.24287 | 17.07481 | 321° | 15km/h | 31696m | 7.3m/s | -40.5°C | 0.0% | 5.5hPa | 0V | 00:00:00 | 00:00:00 | 00:00:00 | |
| ATIDSZ-14 | 2026-08-30 13:10:34 | 48.24286 | 17.07484 | 232° | 9km/h | 31689m | 5.8m/s | 0°C | 0% | 0hPa | 0V | 00:00:00 | 00:00:00 | 00:00:00 | |
| OE5MMP-10 | 2026-08-30 13:10:30 | 48.24298 | 17.07457 | 92° | 26km/h | 31660m | 5.1m/s | 0°C | 0% | 0hPa | 0V | 00:00:00 | 00:00:00 | 00:00:00 | |
| PETON7-10 | 2026-08-30 13:10:24 | 48.24282 | 17.07435 | 341° | 22km/h | 31624m | 6.6m/s | 0°C | 0% | 0hPa | 0V | 00:00:00 | 00:00:00 | 00:00:00 | |
| OE5MMP-10 | 2026-08-30 13:10:19 | 48.24269 | 17.07411 | 134° | 18km/h | 31590m | 8.0m/s | 0°C | 0% | 0hPa | 0V | 00:00:00 | 00:00:00 | 00:00:00 | |
| OK1ALN | 2026-08-30 13:10:16 | 48.24276 | 17.07395 | 67° | 16km/h | 31576m | 8.2m/s | 0°C | 0% | 0hPa | 0V | 00:00:00 | 00:00:00 | 00:00:00 | |
| ATIDSZ-14 | 2026-08-30 13:10:11 | 48.24242 | 17.07379 | 343° | 13km/h | 31542m | 8.5m/s | 0°C | 0% | 0hPa | 0V | 00:00:00 | 00:00:00 | 00:00:00 | |
| OE5MMP-10 | 2026-08-30 13:10:09 | 48.24244 | 17.07377 | 145° | 24km/h | 31529m | 5.4m/s | 0°C | 0% | 0hPa | 0V | 00:00:00 | 00:00:00 | 00:00:00 | |
| PETON7-10 | 2026-08-30 13:10:08 | 48.24246 | 17.07372 | 116° | 20km/h | 31522m | 7.3m/s | 0°C | 0% | 0hPa | 0V | 00:00:00 | 00:00:00 | 00:00:00 | |
| OE3OSB-13 | 2026-08-30 13:10:05 | 48.24243 | 17.07332 | 64° | 22km/h | 31495m | 9.6m/s | -40.7°C | 0.0% | 5.8hPa | 0V | 00:00:00 | 00:00:00 | 00:00:00 | |
| OE5DXL-15 | 2026-08-30 13:10:04 | 48.24243 | 17.07332 | 65° | 18km/h | 31495m | 9.5m/s | 0°C | 0% | 0hPa | 0V | 00:00:00 | 00:00:00 | 00:00:00 | |
| OE5MMP-10 | 2026-08-30 13:09:59 | 48.24222 | 17.07314 | 34° | 22km/h | 31462m | 4.4m/s | 0°C | 0% | 0hPa | 0V | 00:00:00 | 00:00:00 | 00:00:00 | |
| OK1ALN | 2026-08-30 13:09:55 | 48.24221 | 17.07296 | 146° | 24km/h | 31435m | 6.0m/s | 0°C | 0% | 0hPa | 0V | 00:00:00 | 00:00:00 | 00:00:00 | |
| PETON7-10 | 2026-08-30 13:09:52 | 48.24225 | 17.07272 | 58° | 20km/h | 31415m | 6.5m/s | 0°C | 0% | 0hPa | 0V | 00:00:00 | 00:00:00 | 00:00:00 | |
| ATIDSZ-14 | 2026-08-30 13:09:51 | 48.24220 | 17.07264 | 42° | 27km/h | 31409m | 5.7m/s | 0°C | 0% | 0hPa | 0V | 00:00:00 | 00:00:00 | 00:00:00 | |
| OE5MMP-10 | 2026-08-30 13:09:48 | 48.24207 | 17.07256 | 1° | 11km/h | 31388m | 4.6m/s | 0°C | 0% | 0hPa | 0V | 00:00:00 | 00:00:00 | 00:00:00 | |
| OE3JTB-15 | 2026-08-30 13:09:42 | 48.24203 | 17.07226 | 114° | 18km/h | 31350m | 9.4m/s | 0°C | 0% | 0hPa | 0V | 00:00:00 | 00:00:00 | 00:00:00 | |
| OE5MMP-10 | 2026-08-30 13:09:38 | 48.24200 | 17.07214 | 36° | 20km/h | 31321m | 9.3m/s | 0°C | 0% | 0hPa | 0V | 00:00:00 | 00:00:00 | 00:00:00 | |
| OK1ALN | 2026-08-30 13:09:35 | 48.24190 | 17.07194 | 106° | 15km/h | 31303m | 7.0m/s | 0°C | 0% | 0hPa | 0V | 00:00:00 | 00:00:00 | 00:00:00 | |
| PETON7-10 | 2026-08-30 13:09:34 | 48.24191 | 17.07190 | 143° | 15km/h | 31295m | 9.5m/s | 0°C | 0% | 0hPa | 0V | 00:00:00 | 00:00:00 | 00:00:00 | |
| OE5DXL-15 | 2026-08-30 13:09:33 | 48.24194 | 17.07188 | 166° | 20km/h | 31287m | 6.2m/s | 0°C | 0% | 0hPa | 0V | 00:00:00 | 00:00:00 | 00:00:00 | |
| ATIDSZ-14 | 2026-08-30 13:09:30 | 48.24200 | 17.07175 | 72° | 22km/h | 31269m | 8.2m/s | 0°C | 0% | 0hPa | 0V | 00:00:00 | 00:00:00 | 00:00:00 | |
| OM5KV | 2026-08-30 13:09:27 | 48.24187 | 17.07155 | 28° | 20km/h | 31249m | 8.5m/s | 0°C | 0% | 0hPa | 0V | 00:00:00 | 00:00:00 | 00:00:00 | |
| PETON7-10 | 2026-08-30 13:09:17 | 48.24184 | 17.07110 | 12° | 22km/h | 31183m | 6.0m/s | 0°C | 0% | 0hPa | 0V | 00:00:00 | 00:00:00 | 00:00:00 | |
| OE5MMP-10 | 2026-08-30 13:09:16 | 48.24180 | 17.07107 | 30° | 22km/h | 31175m | 9.2m/s | 0°C | 0% | 0hPa | 0V | 00:00:00 | 00:00:00 | 00:00:00 | |
| OK1ALN | 2026-08-30 13:09:14 | 48.24167 | 17.07092 | 44° | 38km/h | 31159m | 4.8m/s | 0°C | 0% | 0hPa | 0V | 00:00:00 | 00:00:00 | 00:00:00 | |
| OE3JTB-15 | 2026-08-30 13:09:13 | 48.24161 | 17.07082 | 52° | 22km/h | 31155m | 2.6m/s | 0°C | 0% | 0hPa | 0V | 00:00:00 | 00:00:00 | 00:00:00 | |
| OM5KV | 2026-08-30 13:09:09 | 48.24167 | 17.07074 | 186° | 26km/h | 31127m | 4.3m/s | 0°C | 0% | 0hPa | 0V | 00:00:00 | 00:00:00 | 00:00:00 | |
| OE5MMP-10 | 2026-08-30 13:09:06 | 48.24172 | 17.07061 | 63° | 24km/h | 31109m | 7.8m/s | 0°C | 0% | 0hPa | 0V | 00:00:00 | 00:00:00 | 00:00:00 | |
| OM5KV | 2026-08-30 13:09:04 | 48.24161 | 17.07043 | 35° | 31km/h | 31094m | 7.5m/s | 0°C | 0% | 0hPa | 0V | 00:00:00 | 00:00:00 | 00:00:00 | |
| OE3OSB-13 | 2026-08-30 13:09:03 | 48.24151 | 17.07033 | 38° | 13km/h | 31083m | 2.7m/s | -39.8°C | 0.0% | 6.4hPa | 0V | 00:00:00 | 00:00:00 | 00:00:00 | |
| PETON7-10 | 2026-08-30 13:09:02 | 48.24151 | 17.07033 | 39° | 22km/h | 31083m | 2.6m/s | 0°C | 0% | 0hPa | 0V | 00:00:00 | 00:00:00 | 00:00:00 | |
| OE5DXL-15 | 2026-08-30 13:09:01 | 48.24149 | 17.07029 | 78° | 26km/h | 31079m | 6.1m/s | 0°C | 0% | 0hPa | 0V | 00:00:00 | 00:00:00 | 00:00:00 | |
| OM5KV | 2026-08-30 13:08:58 | 48.24150 | 17.07003 | 91° | 24km/h | 31059m | 3.4m/s | 0°C | 0% | 0hPa | 0V | 00:00:00 | 00:00:00 | 00:00:00 | |
| OE5MMP-10 | 2026-08-30 13:08:56 | 48.24148 | 17.06992 | 47° | 24km/h | 31049m | 11.0m/s | 0°C | 0% | 0hPa | 0V | 00:00:00 | 00:00:00 | 00:00:00 | |
| OK1ALN | 2026-08-30 13:08:54 | 48.24140 | 17.06993 | 356° | 24km/h | 31034m | 4.8m/s | 0°C | 0% | 0hPa | 0V | 00:00:00 | 00:00:00 | 00:00:00 | |
| OM5KV | 2026-08-30 13:08:52 | 48.24129 | 17.06986 | 50° | 27km/h | 31022m | 9.9m/s | 0°C | 0% | 0hPa | 0V | 00:00:00 | 00:00:00 | 00:00:00 | |
| ATIDSZ-14 | 2026-08-30 13:08:47 | 48.24125 | 17.06932 | 65° | 13km/h | 30984m | 5.4m/s | 0°C | 0% | 0hPa | 0V | 00:00:00 | 00:00:00 | 00:00:00 | |
| OE5MMP-10 | 2026-08-30 13:08:46 | 48.24123 | 17.06929 | 27° | 22km/h | 30979m | 5.6m/s | 0°C | 0% | 0hPa | 0V | 00:00:00 | 00:00:00 | 00:00:00 | |
| PETON7-10 | 2026-08-30 13:08:44 | 48.24114 | 17.06921 | 44° | 27km/h | 30966m | 8.5m/s | 0°C | 0% | 0hPa | 0V | 00:00:00 | 00:00:00 | 00:00:00 | |
| OM5KV | 2026-08-30 13:08:41 | 48.24098 | 17.06902 | 28° | 24km/h | 30945m | 9.9m/s | 0°C | 0% | 0hPa | 0V | 00:00:00 | 00:00:00 | 00:00:00 | |
| PG1ADW-2 | 2026-08-30 13:08:39 | 48.24091 | 17.06894 | 46° | 26km/h | 30930m | 6.7m/s | 0°C | 0% | 0hPa | 0V | 00:00:00 | 00:00:00 | 00:00:00 | |
| OE5MMP-10 | 2026-08-30 13:08:36 | 48.24088 | 17.06868 | 76° | 33km/h | 30910m | 5.0m/s | 0°C | 0% | 0hPa | 0V | 00:00:00 | 00:00:00 | 00:00:00 | |
| OK1ALN | 2026-08-30 13:08:33 | 48.24072 | 17.06848 | 9° | 37km/h | 30891m | 9.4m/s | 0°C | 0% | 0hPa | 0V | 00:00:00 | 00:00:00 | 00:00:00 | |
| OE5DXL-15 | 2026-08-30 13:08:31 | 48.24053 | 17.06848 | 5° | 31km/h | 30877m | 6.7m/s | 0°C | 0% | 0hPa | 0V | 00:00:00 | 00:00:00 | 00:00:00 | |
| OM5KV | 2026-08-30 13:08:30 | 48.24043 | 17.06845 | 22° | 38km/h | 30870m | 6.8m/s | 0°C | 0% | 0hPa | 0V | 00:00:00 | 00:00:00 | 00:00:00 | |
| PETON7-10 | 2026-08-30 13:08:29 | 48.24036 | 17.06837 | 47° | 27km/h | 30863m | 7.4m/s | 0°C | 0% | 0hPa | 0V | 00:00:00 | 00:00:00 | 00:00:00 | |
| OE5MMP-10 | 2026-08-30 13:08:26 | 48.24026 | 17.06810 | 57° | 26km/h | 30842m | 8.2m/s | 0°C | 0% | 0hPa | 0V | 00:00:00 | 00:00:00 | 00:00:00 | |
| OM5KV | 2026-08-30 13:08:23 | 48.24015 | 17.06801 | 26° | 24km/h | 30823m | 7.6m/s | 0°C | 0% | 0hPa | 0V | 00:00:00 | 00:00:00 | 00:00:00 | |
| OM5KV | 2026-08-30 13:08:17 | 48.23971 | 17.06767 | 6° | 16km/h | 30780m | 4.9m/s | 0°C | 0% | 0hPa | 0V | 00:00:00 | 00:00:00 | 00:00:00 | |
| OE5MMP-10 | 2026-08-30 13:08:15 | 48.23965 | 17.06763 | 66° | 38km/h | 30768m | 9.4m/s | 0°C | 0% | 0hPa | 0V | 00:00:00 | 00:00:00 | 00:00:00 | |
| PETON7-10 | 2026-08-30 13:08:14 | 48.23964 | 17.06756 | 72° | 31km/h | 30760m | 5.7m/s | 0°C | 0% | 0hPa | 0V | 00:00:00 | 00:00:00 | 00:00:00 | |
| PG1ADW-2 | 2026-08-30 13:08:12 | 48.23958 | 17.06735 | 50° | 26km/h | 30750m | 6.3m/s | 0°C | 0% | 0hPa | 0V | 00:00:00 | 00:00:00 | 00:00:00 | |
| OM5KV | 2026-08-30 13:08:07 | 48.23906 | 17.06721 | 16° | 49km/h | 30717m | 6.5m/s | 0°C | 0% | 0hPa | 0V | 00:00:00 | 00:00:00 | 00:00:00 | |
| ATIDSZ-14 | 2026-08-30 13:08:06 | 48.23895 | 17.06714 | 36° | 40km/h | 30710m | 7.8m/s | 0°C | 0% | 0hPa | 0V | 00:00:00 | 00:00:00 | 00:00:00 | |
| OE5MMP-10 | 2026-08-30 13:08:05 | 48.23888 | 17.06705 | 50° | 24km/h | 30703m | 4.9m/s | 0°C | 0% | 0hPa | 0V | 00:00:00 | 00:00:00 | 00:00:00 | |
| OE5DXL-15 | 2026-08-30 13:08:01 | 48.23873 | 17.06690 | 3° | 26km/h | 30678m | 4.4m/s | 0°C | 0% | 0hPa | 0V | 00:00:00 | 00:00:00 | 00:00:00 | |
| OE3OSB-13 | 2026-08-30 13:08:00 | 48.23863 | 17.06687 | 30° | 24km/h | 30665m | 11.1m/s | -40.6°C | 0.0% | 7.2hPa | 0V | 00:00:00 | 00:00:00 | 00:00:00 | |
| EDDB2-11 | 2026-08-30 13:07:52 | 48.23818 | 17.06663 | 45° | 18km/h | 30609m | 7.5m/s | -40.8°C | 0.0% | 7.2hPa | 0V | 00:00:00 | 00:00:00 | 00:00:00 | |
| OK1ALN | 2026-08-30 13:07:51 | 48.23818 | 17.06663 | 47° | 18km/h | 30609m | 7.5m/s | 0°C | 0% | 0hPa | 0V | 00:00:00 | 00:00:00 | 00:00:00 | |
| PG1ADW-2 | 2026-08-30 13:07:49 | 48.23809 | 17.06651 | 30° | 31km/h | 30598m | 5.4m/s | 0°C | 0% | 0hPa | 0V | 00:00:00 | 00:00:00 | 00:00:00 | |
| OE3JTB-15 | 2026-08-30 13:07:46 | 48.23786 | 17.06648 | 351° | 27km/h | 30577m | 5.9m/s | 0°C | 0% | 0hPa | 0V | 00:00:00 | 00:00:00 | 00:00:00 | |
| OE5MMP-10 | 2026-08-30 13:07:45 | 48.23778 | 17.06649 | 4° | 29km/h | 30571m | 5.5m/s | 0°C | 0% | 0hPa | 0V | 00:00:00 | 00:00:00 | 00:00:00 | |
| ATIDSZ-14 | 2026-08-30 13:07:43 | 48.23766 | 17.06642 | 48° | 27km/h | 30557m | 7.0m/s | 0°C | 0% | 0hPa | 0V | 00:00:00 | 00:00:00 | 00:00:00 | |
| PETON7-10 | 2026-08-30 13:07:42 | 48.23762 | 17.06634 | 52° | 27km/h | 30552m | 3.7m/s | 0°C | 0% | 0hPa | 0V | 00:00:00 | 00:00:00 | 00:00:00 | |
| OM5KV | 2026-08-30 13:07:37 | 48.23728 | 17.06611 | 27° | 27km/h | 30523m | 5.8m/s | 0°C | 0% | 0hPa | 0V | 00:00:00 | 00:00:00 | 00:00:00 | |
| OE5MMP-10 | 2026-08-30 13:07:35 | 48.23719 | 17.06597 | 62° | 27km/h | 30507m | 6.3m/s | 0°C | 0% | 0hPa | 0V | 00:00:00 | 00:00:00 | 00:00:00 | |
| OM5KV | 2026-08-30 13:07:31 | 48.23704 | 17.06582 | 2° | 22km/h | 30479m | 5.7m/s | 0°C | 0% | 0hPa | 0V | 00:00:00 | 00:00:00 | 00:00:00 | |
| OK1ALN | 2026-08-30 13:07:30 | 48.23698 | 17.06581 | 15° | 27km/h | 30474m | 4.0m/s | 0°C | 0% | 0hPa | 0V | 00:00:00 | 00:00:00 | 00:00:00 | |
| OE5DXL-15 | 2026-08-30 13:07:29 | 48.23692 | 17.06577 | 36° | 33km/h | 30468m | 8.2m/s | 0°C | 0% | 0hPa | 0V | 00:00:00 | 00:00:00 | 00:00:00 | |
| HA6NAB-11 | 2026-08-30 13:07:27 | 48.23678 | 17.06558 | 50° | 42km/h | 30454m | 4.7m/s | 0°C | 0% | 0hPa | 0V | 00:00:00 | 00:00:00 | 00:00:00 | |
| OE5MMP-10 | 2026-08-30 13:07:25 | 48.23662 | 17.06540 | 27° | 31km/h | 30441m | 9.2m/s | 0°C | 0% | 0hPa | 0V | 00:00:00 | 00:00:00 | 00:00:00 | |
| PETON7-10 | 2026-08-30 13:07:23 | 48.23645 | 17.06534 | 358° | 20km/h | 30428m | 4.3m/s | 0°C | 0% | 0hPa | 0V | 00:00:00 | 00:00:00 | 00:00:00 | |
| ATIDSZ-14 | 2026-08-30 13:07:22 | 48.23639 | 17.06534 | 12° | 20km/h | 30423m | 7.0m/s | 0°C | 0% | 0hPa | 0V | 00:00:00 | 00:00:00 | 00:00:00 | |
| EDDB2-11 | 2026-08-30 13:07:21 | 48.23615 | 17.06508 | 15° | 37km/h | 30388m | 8.3m/s | -42.2°C | 0.0% | 7.6hPa | 0V | 00:00:00 | 00:00:00 | 00:00:00 | |
| OE3JTB-15 | 2026-08-30 13:07:17 | 48.23615 | 17.06508 | 16° | 27km/h | 30388m | 8.2m/s | 0°C | 0% | 0hPa | 0V | 00:00:00 | 00:00:00 | 00:00:00 | |
| OE5MMP-10 | 2026-08-30 13:07:15 | 48.23596 | 17.06501 | 20° | 27km/h | 30377m | 6.6m/s | 0°C | 0% | 0hPa | 0V | 00:00:00 | 00:00:00 | 00:00:00 | |
| OM5KV | 2026-08-30 13:07:10 | 48.23566 | 17.06467 | 20° | 26km/h | 30342m | 9.3m/s | 0°C | 0% | 0hPa | 0V | 00:00:00 | 00:00:00 | 00:00:00 | |
| HA6NAB-11 | 2026-08-30 13:07:09 | 48.23559 | 17.06465 | 360° | 27km/h | 30334m | 5.6m/s | 0°C | 0% | 0hPa | 0V | 00:00:00 | 00:00:00 | 00:00:00 | |
| OE5MMP-10 | 2026-08-30 13:07:05 | 48.23541 | 17.06449 | 51° | 27km/h | 30309m | 3.5m/s | 0°C | 0% | 0hPa | 0V | 00:00:00 | 00:00:00 | 00:00:00 | |
| HA6NAB-11 | 2026-08-30 13:07:03 | 48.23529 | 17.06436 | 25° | 37km/h | 30298m | 9.7m/s | 0°C | 0% | 0hPa | 0V | 00:00:00 | 00:00:00 | 00:00:00 | |
| ATIDSZ-14 | 2026-08-30 13:07:01 | 48.23509 | 17.06431 | 3° | 38km/h | 30283m | 4.6m/s | 0°C | 0% | 0hPa | 0V | 00:00:00 | 00:00:00 | 00:00:00 | |
| OE3OSB-13 | 2026-08-30 13:06:58 | 48.23488 | 17.06417 | 54° | 15km/h | 30257m | 5.7m/s | -42.6°C | 0.0% | 7.8hPa | 0V | 00:00:00 | 00:00:00 | 00:00:00 | |
| EDDB2-11 | 2026-08-30 13:06:50 | 48.23445 | 17.06373 | 349° | 27km/h | 30199m | 6.9m/s | -42.6°C | 0.0% | 7.9hPa | 0V | 00:00:00 | 00:00:00 | 00:00:00 | |
| OK1ALN | 2026-08-30 13:06:49 | 48.23450 | 17.06373 | 17° | 22km/h | 30206m | 7.4m/s | 0°C | 0% | 0hPa | 0V | 00:00:00 | 00:00:00 | 00:00:00 | |
| OM5KV | 2026-08-30 13:06:48 | 48.23444 | 17.06373 | 351° | 27km/h | 30199m | 6.9m/s | 0°C | 0% | 0hPa | 0V | 00:00:00 | 00:00:00 | 00:00:00 | |
| OE5MMP-10 | 2026-08-30 13:06:45 | 48.23432 | 17.06373 | 59° | 16km/h | 30181m | 9.3m/s | 0°C | 0% | 0hPa | 0V | 00:00:00 | 00:00:00 | 00:00:00 | |
| OM5KV | 2026-08-30 13:06:42 | 48.23425 | 17.06347 | 56° | 31km/h | 30163m | 7.0m/s | 0°C | 0% | 0hPa | 0V | 00:00:00 | 00:00:00 | 00:00:00 | |
| ATIDSZ-14 | 2026-08-30 13:06:39 | 48.23409 | 17.06337 | 339° | 18km/h | 30144m | 5.0m/s | 0°C | 0% | 0hPa | 0V | 00:00:00 | 00:00:00 | 00:00:00 | |
| OE5MMP-10 | 2026-08-30 13:06:35 | 48.23398 | 17.06341 | 1° | 24km/h | 30124m | 4.6m/s | 0°C | 0% | 0hPa | 0V | 00:00:00 | 00:00:00 | 00:00:00 | |
| OM5KV | 2026-08-30 13:06:32 | 48.23380 | 17.06340 | 11° | 31km/h | 30103m | 5.7m/s | 0°C | 0% | 0hPa | 0V | 00:00:00 | 00:00:00 | 00:00:00 | |
| OE5DXL-15 | 2026-08-30 13:06:29 | 48.23363 | 17.06325 | 46° | 20km/h | 30083m | 4.7m/s | 0°C | 0% | 0hPa | 0V | 00:00:00 | 00:00:00 | 00:00:00 | |
| OK1ALN | 2026-08-30 13:06:28 | 48.23360 | 17.06321 | 23° | 18km/h | 30079m | 4.1m/s | 0°C | 0% | 0hPa | 0V | 00:00:00 | 00:00:00 | 00:00:00 | |
| OM5KV | 2026-08-30 13:06:27 | 48.23355 | 17.06320 | 3° | 22km/h | 30073m | 8.6m/s | 0°C | 0% | 0hPa | 0V | 00:00:00 | 00:00:00 | 00:00:00 | |
| OE5MMP-10 | 2026-08-30 13:06:24 | 48.23332 | 17.06327 | 349° | 22km/h | 30054m | 4.8m/s | 0°C | 0% | 0hPa | 0V | 00:00:00 | 00:00:00 | 00:00:00 | |
| OM5KV | 2026-08-30 13:06:21 | 48.23319 | 17.06319 | 74° | 20km/h | 30033m | 6.6m/s | 0°C | 0% | 0hPa | 0V | 00:00:00 | 00:00:00 | 00:00:00 | |
| EDDB2-11 | 2026-08-30 13:06:19 | 48.23308 | 17.06303 | 10° | 26km/h | 30014m | 7.7m/s | -43.4°C | 0.0% | 8.3hPa | 0V | 00:00:00 | 00:00:00 | 00:00:00 | |
| ATIDSZ-14 | 2026-08-30 13:06:18 | 48.23308 | 17.06303 | 11° | 27km/h | 30015m | 7.7m/s | 0°C | 0% | 0hPa | 0V | 00:00:00 | 00:00:00 | 00:00:00 | |
| OE5MMP-10 | 2026-08-30 13:06:14 | 48.23287 | 17.06307 | 35° | 18km/h | 29990m | 6.1m/s | 0°C | 0% | 0hPa | 0V | 00:00:00 | 00:00:00 | 00:00:00 | |
| OK1ALN | 2026-08-30 13:06:08 | 48.23262 | 17.06275 | 44° | 22km/h | 29956m | 5.6m/s | 0°C | 0% | 0hPa | 0V | 00:00:00 | 00:00:00 | 00:00:00 | |
| OM5KV | 2026-08-30 13:06:07 | 48.23260 | 17.06269 | 76° | 16km/h | 29949m | 9.4m/s | 0°C | 0% | 0hPa | 0V | 00:00:00 | 00:00:00 | 00:00:00 | |
| OE5MMP-10 | 2026-08-30 13:06:04 | 48.23260 | 17.06253 | 65° | 18km/h | 29930m | 7.6m/s | 0°C | 0% | 0hPa | 0V | 00:00:00 | 00:00:00 | 00:00:00 | |
| OE3OSB-13 | 2026-08-30 13:05:58 | 48.23231 | 17.06211 | 60° | 20km/h | 29870m | 4.6m/s | -43.5°C | 0.0% | 8.6hPa | 0V | 00:00:00 | 00:00:00 | 00:00:00 | |
| EDDB2-11 | 2026-08-30 13:05:48 | 48.23214 | 17.06171 | 2° | 20km/h | 29822m | 3.7m/s | -44.0°C | 0.0% | 8.7hPa | 0V | 00:00:00 | 00:00:00 | 00:00:00 | |
| OE5MMP-10 | 2026-08-30 13:05:44 | 48.23207 | 17.06156 | 97° | 16km/h | 29802m | 5.8m/s | 0°C | 0% | 0hPa | 0V | 00:00:00 | 00:00:00 | 00:00:00 | |
| ATIDSZ-14 | 2026-08-30 13:05:37 | 48.23200 | 17.06130 | 53° | 7km/h | 29757m | 4.9m/s | 0°C | 0% | 0hPa | 0V | 00:00:00 | 00:00:00 | 00:00:00 | |
| OE5MMP-10 | 2026-08-30 13:05:33 | 48.23181 | 17.06103 | 53° | 22km/h | 29734m | 1.6m/s | 0°C | 0% | 0hPa | 0V | 00:00:00 | 00:00:00 | 00:00:00 | |
| OE5DXL-15 | 2026-08-30 13:05:28 | 48.23185 | 17.06090 | 271° | 18km/h | 29701m | 8.5m/s | 0°C | 0% | 0hPa | 0V | 00:00:00 | 00:00:00 | 00:00:00 | |
| OE3OSB-13 | 2026-08-30 13:05:25 | 48.23172 | 17.06082 | 74° | 31km/h | 29676m | 10.6m/s | -44.7°C | 0.0% | 9.0hPa | 0V | 00:00:00 | 00:00:00 | 00:00:00 | |
| OE5MMP-10 | 2026-08-30 13:05:23 | 48.23171 | 17.06070 | 92° | 16km/h | 29668m | 6.2m/s | 0°C | 0% | 0hPa | 0V | 00:00:00 | 00:00:00 | 00:00:00 | |
| OE3JTB-15 | 2026-08-30 13:05:21 | 48.23171 | 17.06049 | 80° | 16km/h | 29658m | 5.7m/s | 0°C | 0% | 0hPa | 0V | 00:00:00 | 00:00:00 | 00:00:00 | |
| EDDB2-11 | 2026-08-30 13:05:17 | 48.23165 | 17.06043 | 135° | 7km/h | 29626m | 7.1m/s | -44.7°C | 0.0% | 9.1hPa | 0V | 00:00:00 | 00:00:00 | 00:00:00 | |
| ATIDSZ-14 | 2026-08-30 13:05:15 | 48.23167 | 17.06041 | 124° | 11km/h | 29620m | 5.8m/s | 0°C | 0% | 0hPa | 0V | 00:00:00 | 00:00:00 | 00:00:00 | |
| OE5MMP-10 | 2026-08-30 13:05:13 | 48.23166 | 17.06030 | 56° | 16km/h | 29606m | 7.1m/s | 0°C | 0% | 0hPa | 0V | 00:00:00 | 00:00:00 | 00:00:00 | |
| OE5MMP-10 | 2026-08-30 13:05:03 | 48.23145 | 17.05991 | 104° | 18km/h | 29542m | 9.6m/s | 0°C | 0% | 0hPa | 0V | 00:00:00 | 00:00:00 | 00:00:00 | |
| PETON7-10 | 2026-08-30 13:05:02 | 48.23146 | 17.05985 | 110° | 18km/h | 29534m | 6.5m/s | 0°C | 0% | 0hPa | 0V | 00:00:00 | 00:00:00 | 00:00:00 | |
| OE3OSB-13 | 2026-08-30 13:04:54 | 48.23128 | 17.05950 | 108° | 20km/h | 29481m | 2.8m/s | -44.9°C | 0.0% | 9.4hPa | 0V | 00:00:00 | 00:00:00 | 00:00:00 | |
| EDDB2-11 | 2026-08-30 13:04:46 | 48.23112 | 17.05904 | 342° | 5km/h | 29425m | 11.2m/s | -45.0°C | 0.0% | 9.5hPa | 0V | 00:00:00 | 00:00:00 | 00:00:00 | |
| OE5MMP-10 | 2026-08-30 13:04:42 | 48.23110 | 17.05901 | 106° | 20km/h | 29409m | 8.4m/s | 0°C | 0% | 0hPa | 0V | 00:00:00 | 00:00:00 | 00:00:00 | |
| ATIDSZ-14 | 2026-08-30 13:04:34 | 48.23100 | 17.05852 | 58° | 16km/h | 29353m | 6.7m/s | 0°C | 0% | 0hPa | 0V | 00:00:00 | 00:00:00 | 00:00:00 | |
| OE5MMP-10 | 2026-08-30 13:04:32 | 48.23099 | 17.05843 | 111° | 15km/h | 29340m | 7.5m/s | 0°C | 0% | 0hPa | 0V | 00:00:00 | 00:00:00 | 00:00:00 | |
| PETON7-10 | 2026-08-30 13:04:31 | 48.23099 | 17.05839 | 112° | 15km/h | 29332m | 7.8m/s | 0°C | 0% | 0hPa | 0V | 00:00:00 | 00:00:00 | 00:00:00 | |
| OE5DXL-15 | 2026-08-30 13:04:28 | 48.23104 | 17.05826 | 118° | 16km/h | 29312m | 8.3m/s | 0°C | 0% | 0hPa | 0V | 00:00:00 | 00:00:00 | 00:00:00 | |
| OE3OSB-13 | 2026-08-30 13:04:23 | 48.23093 | 17.05799 | 328° | 4km/h | 29270m | 4.7m/s | -45.3°C | 0.0% | 9.8hPa | 0V | 00:00:00 | 00:00:00 | 00:00:00 | |
| OE5MMP-10 | 2026-08-30 13:04:22 | 48.23093 | 17.05799 | 329° | 13km/h | 29270m | 4.7m/s | 0°C | 0% | 0hPa | 0V | 00:00:00 | 00:00:00 | 00:00:00 | |
| EDDB2-11 | 2026-08-30 13:04:15 | 48.23092 | 17.05752 | 117° | 7km/h | 29218m | 6.7m/s | -45.7°C | 0.0% | 9.9hPa | 0V | 00:00:00 | 00:00:00 | 00:00:00 | |
| ATIDSZ-14 | 2026-08-30 13:04:14 | 48.23092 | 17.05752 | 119° | 7km/h | 29218m | 6.7m/s | 0°C | 0% | 0hPa | 0V | 00:00:00 | 00:00:00 | 00:00:00 | |
| OE5MMP-10 | 2026-08-30 13:04:11 | 48.23085 | 17.05740 | 29° | 16km/h | 29194m | 6.6m/s | 0°C | 0% | 0hPa | 0V | 00:00:00 | 00:00:00 | 00:00:00 | |
| OE5MMP-10 | 2026-08-30 13:04:01 | 48.23067 | 17.05696 | 95° | 18km/h | 29130m | 4.8m/s | 0°C | 0% | 0hPa | 0V | 00:00:00 | 00:00:00 | 00:00:00 | |
| PETON7-10 | 2026-08-30 13:04:00 | 48.23067 | 17.05693 | 105° | 18km/h | 29127m | 2.7m/s | 0°C | 0% | 0hPa | 0V | 00:00:00 | 00:00:00 | 00:00:00 | |
| OE3OSB-13 | 2026-08-30 13:03:52 | 48.23055 | 17.05632 | 43° | 26km/h | 29058m | 7.8m/s | -46.1°C | 0.0% | 10.3hPa | 0V | 00:00:00 | 00:00:00 | 00:00:00 | |
| EDDB2-11 | 2026-08-30 13:03:44 | 48.23045 | 17.05569 | 78° | 29km/h | 29003m | 5.9m/s | -46.3°C | 0.0% | 10.4hPa | 0V | 00:00:00 | 00:00:00 | 00:00:00 | |
| OE5MMP-10 | 2026-08-30 13:03:39 | 48.23038 | 17.05541 | 38° | 26km/h | 28979m | 6.6m/s | 0°C | 0% | 0hPa | 0V | 00:00:00 | 00:00:00 | 00:00:00 | |
| ATIDSZ-14 | 2026-08-30 13:03:33 | 48.23018 | 17.05491 | 87° | 18km/h | 28938m | 6.1m/s | 0°C | 0% | 0hPa | 0V | 00:00:00 | 00:00:00 | 00:00:00 | |
| PETON7-10 | 2026-08-30 13:03:30 | 48.23014 | 17.05461 | 71° | 22km/h | 28917m | 6.2m/s | 0°C | 0% | 0hPa | 0V | 00:00:00 | 00:00:00 | 00:00:00 | |
| OE5MMP-10 | 2026-08-30 13:03:29 | 48.23011 | 17.05450 | 63° | 18km/h | 28911m | 5.4m/s | 0°C | 0% | 0hPa | 0V | 00:00:00 | 00:00:00 | 00:00:00 | |
| OE5DXL-15 | 2026-08-30 13:03:28 | 48.23008 | 17.05442 | 54° | 26km/h | 28905m | 6.3m/s | 0°C | 0% | 0hPa | 0V | 00:00:00 | 00:00:00 | 00:00:00 | |
| OE3JTB-15 | 2026-08-30 13:03:25 | 48.22999 | 17.05437 | 358° | 26km/h | 28883m | 5.8m/s | 0°C | 0% | 0hPa | 0V | 00:00:00 | 00:00:00 | 00:00:00 | |
| OE3OSB-13 | 2026-08-30 13:03:21 | 48.22978 | 17.05404 | 68° | 22km/h | 28849m | 8.4m/s | -46.7°C | 0.0% | 10.8hPa | 0V | 00:00:00 | 00:00:00 | 00:00:00 | |
| OE5MMP-10 | 2026-08-30 13:03:18 | 48.22976 | 17.05394 | 77° | 18km/h | 28834m | 8.1m/s | 0°C | 0% | 0hPa | 0V | 00:00:00 | 00:00:00 | 00:00:00 | |
| EDDB2-11 | 2026-08-30 13:03:13 | 48.22948 | 17.05385 | 13° | 18km/h | 28793m | 4.8m/s | -46.6°C | 0.0% | 10.9hPa | 0V | 00:00:00 | 00:00:00 | 00:00:00 | |
| ATIDSZ-14 | 2026-08-30 13:03:12 | 48.22948 | 17.05385 | 14° | 18km/h | 28793m | 4.8m/s | 0°C | 0% | 0hPa | 0V | 00:00:00 | 00:00:00 | 00:00:00 | |
| OE5MMP-10 | 2026-08-30 13:03:08 | 48.22939 | 17.05353 | 78° | 33km/h | 28768m | 4.0m/s | 0°C | 0% | 0hPa | 0V | 00:00:00 | 00:00:00 | 00:00:00 | |
| OE3OSB-13 | 2026-08-30 13:02:50 | 48.22811 | 17.05295 | 27° | 18km/h | 28649m | 5.0m/s | -46.6°C | 0.0% | 11.2hPa | 0V | 00:00:00 | 00:00:00 | 00:00:00 | |
| OE5MMP-10 | 2026-08-30 13:02:47 | 48.22802 | 17.05282 | 61° | 31km/h | 28635m | 5.9m/s | 0°C | 0% | 0hPa | 0V | 00:00:00 | 00:00:00 | 00:00:00 | |
| EDDB2-11 | 2026-08-30 13:02:42 | 48.22763 | 17.05248 | 359° | 47km/h | 28591m | 7.9m/s | -46.7°C | 0.0% | 11.4hPa | 0V | 00:00:00 | 00:00:00 | 00:00:00 | |
| OE5MMP-10 | 2026-08-30 13:02:34 | 48.22719 | 17.05224 | 40° | 31km/h | 28546m | 5.4m/s | 0°C | 0% | 0hPa | 0V | 00:00:00 | 00:00:00 | 00:00:00 | |
| ATIDSZ-14 | 2026-08-30 13:02:30 | 48.22690 | 17.05224 | 326° | 33km/h | 28519m | 5.1m/s | 0°C | 0% | 0hPa | 0V | 00:00:00 | 00:00:00 | 00:00:00 | |
| OE5DXL-15 | 2026-08-30 13:02:27 | 48.22668 | 17.05239 | 3° | 22km/h | 28502m | 6.2m/s | 0°C | 0% | 0hPa | 0V | 00:00:00 | 00:00:00 | 00:00:00 | |
| PETON7-10 | 2026-08-30 13:02:26 | 48.22660 | 17.05236 | 29° | 22km/h | 28496m | 5.7m/s | 0°C | 0% | 0hPa | 0V | 00:00:00 | 00:00:00 | 00:00:00 | |
| OE5MMP-10 | 2026-08-30 13:02:24 | 48.22652 | 17.05224 | 70° | 20km/h | 28481m | 8.1m/s | 0°C | 0% | 0hPa | 0V | 00:00:00 | 00:00:00 | 00:00:00 | |
| OE3OSB-13 | 2026-08-30 13:02:19 | 48.22623 | 17.05228 | 337° | 38km/h | 28447m | 4.2m/s | -46.5°C | 0.0% | 11.7hPa | 0V | 00:00:00 | 00:00:00 | 00:00:00 | |
| OE5MMP-10 | 2026-08-30 13:02:14 | 48.22603 | 17.05246 | 353° | 26km/h | 28425m | 8.3m/s | 0°C | 0% | 0hPa | 0V | 00:00:00 | 00:00:00 | 00:00:00 | |
| EDDB2-11 | 2026-08-30 13:02:11 | 48.22588 | 17.05235 | 297° | 13km/h | 28390m | 6.9m/s | -46.6°C | 0.0% | 11.8hPa | 0V | 00:00:00 | 00:00:00 | 00:00:00 | |
| ATIDSZ-14 | 2026-08-30 13:02:09 | 48.22588 | 17.05235 | 298° | 15km/h | 28390m | 6.9m/s | 0°C | 0% | 0hPa | 0V | 00:00:00 | 00:00:00 | 00:00:00 | |
| OE5MMP-10 | 2026-08-30 13:02:04 | 48.22556 | 17.05275 | 330° | 27km/h | 28360m | 2.5m/s | 0°C | 0% | 0hPa | 0V | 00:00:00 | 00:00:00 | 00:00:00 | |
| OE3OSB-13 | 2026-08-30 13:01:47 | 48.22486 | 17.05293 | 356° | 5km/h | 28254m | 7.8m/s | -47.2°C | 0.0% | 12.2hPa | 0V | 00:00:00 | 00:00:00 | 00:00:00 | |
| OE5MMP-10 | 2026-08-30 13:01:42 | 48.22468 | 17.05304 | 352° | 22km/h | 28222m | 3.9m/s | 0°C | 0% | 0hPa | 0V | 00:00:00 | 00:00:00 | 00:00:00 | |
| EDDB2-11 | 2026-08-30 13:01:40 | 48.22453 | 17.05310 | 14° | 9km/h | 28206m | 4.0m/s | -47.2°C | 0.0% | 12.3hPa | 0V | 00:00:00 | 00:00:00 | 00:00:00 | |
| OE5MMP-10 | 2026-08-30 13:01:32 | 48.22433 | 17.05285 | 315° | 22km/h | 28160m | 6.4m/s | 0°C | 0% | 0hPa | 0V | 00:00:00 | 00:00:00 | 00:00:00 | |
| ATIDSZ-14 | 2026-08-30 13:01:29 | 48.22414 | 17.05298 | 11° | 26km/h | 28142m | 5.4m/s | 0°C | 0% | 0hPa | 0V | 00:00:00 | 00:00:00 | 00:00:00 | |
| OE5DXL-15 | 2026-08-30 13:01:27 | 48.22407 | 17.05291 | 64° | 24km/h | 28128m | 7.9m/s | 0°C | 0% | 0hPa | 0V | 00:00:00 | 00:00:00 | 00:00:00 | |
| PETON7-10 | 2026-08-30 13:01:25 | 48.22405 | 17.05282 | 73° | 22km/h | 28116m | 4.2m/s | 0°C | 0% | 0hPa | 0V | 00:00:00 | 00:00:00 | 00:00:00 | |
| OE3OSB-13 | 2026-08-30 13:01:17 | 48.22364 | 17.05275 | 51° | 26km/h | 28064m | 8.2m/s | -47.2°C | 0.0% | 12.7hPa | 0V | 00:00:00 | 00:00:00 | 00:00:00 | |
| OE5MMP-10 | 2026-08-30 13:01:11 | 48.22339 | 17.05257 | 308° | 26km/h | 28035m | 5.7m/s | 0°C | 0% | 0hPa | 0V | 00:00:00 | 00:00:00 | 00:00:00 | |
| PETON7-10 | 2026-08-30 13:01:10 | 48.22335 | 17.05264 | 314° | 26km/h | 28029m | 5.2m/s | 0°C | 0% | 0hPa | 0V | 00:00:00 | 00:00:00 | 00:00:00 | |
| EDDB2-11 | 2026-08-30 13:01:09 | 48.22321 | 17.05272 | 16° | 18km/h | 28010m | 6.7m/s | -47.0°C | 0.0% | 12.8hPa | 0V | 00:00:00 | 00:00:00 | 00:00:00 | |
| OE3JTB-15 | 2026-08-30 13:01:00 | 48.22278 | 17.05274 | 330° | 24km/h | 27969m | 5.0m/s | 0°C | 0% | 0hPa | 0V | 00:00:00 | 00:00:00 | 00:00:00 | |
| OE3OSB-13 | 2026-08-30 13:00:45 | 48.22211 | 17.05362 | 240° | 13km/h | 27858m | 3.5m/s | -47.1°C | 0.0% | 13.2hPa | 0V | 00:00:00 | 00:00:00 | 00:00:00 | |
| EDDB2-11 | 2026-08-30 13:00:38 | 48.22181 | 17.05413 | 263° | 18km/h | 27801m | 8.5m/s | -47.2°C | 0.0% | 13.4hPa | 0V | 00:00:00 | 00:00:00 | 00:00:00 | |
| OE5MMP-10 | 2026-08-30 13:00:35 | 48.22181 | 17.05413 | 264° | 22km/h | 27801m | 8.5m/s | 0°C | 0% | 0hPa | 0V | 00:00:00 | 00:00:00 | 00:00:00 | |
| OE3JTB-15 | 2026-08-30 13:00:31 | 48.22172 | 17.05428 | 325° | 20km/h | 27772m | 7.9m/s | 0°C | 0% | 0hPa | 0V | 00:00:00 | 00:00:00 | 00:00:00 | |
| OE5DXL-15 | 2026-08-30 13:00:26 | 48.22151 | 17.05456 | 276° | 16km/h | 27741m | 5.0m/s | 0°C | 0% | 0hPa | 0V | 00:00:00 | 00:00:00 | 00:00:00 | |
| ATIDSZ-14 | 2026-08-30 13:00:25 | 48.22152 | 17.05462 | 262° | 20km/h | 27733m | 9.6m/s | 0°C | 0% | 0hPa | 0V | 00:00:00 | 00:00:00 | 00:00:00 | |
| PETON7-10 | 2026-08-30 13:00:23 | 48.22152 | 17.05477 | 283° | 20km/h | 27721m | 2.9m/s | 0°C | 0% | 0hPa | 0V | 00:00:00 | 00:00:00 | 00:00:00 | |
| OE5MMP-10 | 2026-08-30 13:00:20 | 48.22142 | 17.05487 | 358° | 22km/h | 27702m | 4.2m/s | 0°C | 0% | 0hPa | 0V | 00:00:00 | 00:00:00 | 00:00:00 | |
| OE3OSB-13 | 2026-08-30 13:00:14 | 48.22121 | 17.05526 | 217° | 11km/h | 27658m | 5.1m/s | -47.2°C | 0.0% | 13.8hPa | 0V | 00:00:00 | 00:00:00 | 00:00:00 | |
| PETON7-10 | 2026-08-30 13:00:08 | 48.22123 | 17.05553 | 340° | 18km/h | 27626m | 8.7m/s | 0°C | 0% | 0hPa | 0V | 00:00:00 | 00:00:00 | 00:00:00 | |
| EDDB2-11 | 2026-08-30 13:00:06 | 48.22114 | 17.05557 | 334° | 20km/h | 27612m | 5.5m/s | -47.4°C | 0.0% | 13.9hPa | 0V | 00:00:00 | 00:00:00 | 00:00:00 | |
| ATIDSZ-14 | 2026-08-30 13:00:05 | 48.22109 | 17.05562 | 315° | 22km/h | 27605m | 8.0m/s | 0°C | 0% | 0hPa | 0V | 00:00:00 | 00:00:00 | 00:00:00 | |
| OE3JTB-15 | 2026-08-30 13:00:02 | 48.22108 | 17.05583 | 228° | 13km/h | 27587m | 7.3m/s | 0°C | 0% | 0hPa | 0V | 00:00:00 | 00:00:00 | 00:00:00 | |
| OE3OSB-13 | 2026-08-30 12:59:43 | 48.22077 | 17.05622 | 341° | 13km/h | 27455m | 6.5m/s | -47.7°C | 0.0% | 14.3hPa | 0V | 00:00:00 | 00:00:00 | 00:00:00 | |
| ATIDSZ-14 | 2026-08-30 12:59:42 | 48.22077 | 17.05622 | 343° | 13km/h | 27455m | 6.4m/s | 0°C | 0% | 0hPa | 0V | 00:00:00 | 00:00:00 | 00:00:00 | |
| PETON7-10 | 2026-08-30 12:59:38 | 48.22068 | 17.05614 | 23° | 16km/h | 27428m | 7.2m/s | 0°C | 0% | 0hPa | 0V | 00:00:00 | 00:00:00 | 00:00:00 | |
| OE5MMP-10 | 2026-08-30 12:59:36 | 48.22065 | 17.05617 | 327° | 18km/h | 27416m | 4.8m/s | 0°C | 0% | 0hPa | 0V | 00:00:00 | 00:00:00 | 00:00:00 | |
| OE3JTB-15 | 2026-08-30 12:59:33 | 48.22053 | 17.05615 | 29° | 20km/h | 27397m | 7.3m/s | 0°C | 0% | 0hPa | 0V | 00:00:00 | 00:00:00 | 00:00:00 | |
| OE5MMP-10 | 2026-08-30 12:59:26 | 48.22024 | 17.05604 | 24° | 15km/h | 27351m | 7.8m/s | 0°C | 0% | 0hPa | 0V | 00:00:00 | 00:00:00 | 00:00:00 | |
| PETON7-10 | 2026-08-30 12:59:23 | 48.22015 | 17.05597 | 36° | 22km/h | 27331m | 6.9m/s | 0°C | 0% | 0hPa | 0V | 00:00:00 | 00:00:00 | 00:00:00 | |
| ATIDSZ-14 | 2026-08-30 12:59:22 | 48.22012 | 17.05593 | 58° | 16km/h | 27325m | 5.6m/s | 0°C | 0% | 0hPa | 0V | 00:00:00 | 00:00:00 | 00:00:00 | |
| OE5MMP-10 | 2026-08-30 12:59:12 | 48.21968 | 17.05563 | 46° | 29km/h | 27263m | 7.6m/s | 0°C | 0% | 0hPa | 0V | 00:00:00 | 00:00:00 | 00:00:00 | |
| PETON7-10 | 2026-08-30 12:59:07 | 48.21942 | 17.05541 | 274° | 18km/h | 27229m | 7.1m/s | 0°C | 0% | 0hPa | 0V | 00:00:00 | 00:00:00 | 00:00:00 | |
| OE3JTB-15 | 2026-08-30 12:59:04 | 48.21940 | 17.05549 | 4° | 20km/h | 27212m | 7.8m/s | 0°C | 0% | 0hPa | 0V | 00:00:00 | 00:00:00 | 00:00:00 | |
| ATIDSZ-14 | 2026-08-30 12:59:02 | 48.21929 | 17.05544 | 13° | 33km/h | 27199m | 5.1m/s | 0°C | 0% | 0hPa | 0V | 00:00:00 | 00:00:00 | 00:00:00 | |
| OE5MMP-10 | 2026-08-30 12:58:57 | 48.21905 | 17.05546 | 31° | 24km/h | 27163m | 7.4m/s | 0°C | 0% | 0hPa | 0V | 00:00:00 | 00:00:00 | 00:00:00 | |
| PETON7-10 | 2026-08-30 12:58:51 | 48.21880 | 17.05567 | 342° | 20km/h | 27125m | 8.7m/s | 0°C | 0% | 0hPa | 0V | 00:00:00 | 00:00:00 | 00:00:00 | |
| OE5DXL-15 | 2026-08-30 12:58:50 | 48.21871 | 17.05569 | 359° | 20km/h | 27118m | 5.8m/s | 0°C | 0% | 0hPa | 0V | 00:00:00 | 00:00:00 | 00:00:00 | |
| OE5MMP-10 | 2026-08-30 12:58:46 | 48.21855 | 17.05574 | 255° | 16km/h | 27092m | 6.9m/s | 0°C | 0% | 0hPa | 0V | 00:00:00 | 00:00:00 | 00:00:00 | |
| OE3OSB-13 | 2026-08-30 12:58:41 | 48.21826 | 17.05605 | 339° | 26km/h | 27043m | 7.9m/s | -48.5°C | 0.0% | 15.5hPa | 0V | 00:00:00 | 00:00:00 | 00:00:00 | |
| OE5MMP-10 | 2026-08-30 12:58:36 | 48.21819 | 17.05607 | 14° | 11km/h | 27029m | 5.1m/s | 0°C | 0% | 0hPa | 0V | 00:00:00 | 00:00:00 | 00:00:00 | |
| OE3JTB-15 | 2026-08-30 12:58:35 | 48.21818 | 17.05607 | 284° | 20km/h | 27023m | 6.8m/s | 0°C | 0% | 0hPa | 0V | 00:00:00 | 00:00:00 | 00:00:00 | |
| PETON7-10 | 2026-08-30 12:58:22 | 48.21769 | 17.05648 | 332° | 26km/h | 26936m | 7.6m/s | 0°C | 0% | 0hPa | 0V | 00:00:00 | 00:00:00 | 00:00:00 | |
| ATIDSZ-14 | 2026-08-30 12:58:20 | 48.21763 | 17.05652 | 336° | 33km/h | 26929m | 6.7m/s | 0°C | 0% | 0hPa | 0V | 00:00:00 | 00:00:00 | 00:00:00 | |
| OE5MMP-10 | 2026-08-30 12:58:12 | 48.21721 | 17.05680 | 252° | 26km/h | 26882m | 3.3m/s | 0°C | 0% | 0hPa | 0V | 00:00:00 | 00:00:00 | 00:00:00 | |
| OE3OSB-13 | 2026-08-30 12:58:10 | 48.21715 | 17.05675 | 35° | 24km/h | 26862m | 4.7m/s | -48.5°C | 0.0% | 16.1hPa | 0V | 00:00:00 | 00:00:00 | 00:00:00 | |
| PETON7-10 | 2026-08-30 12:58:06 | 48.21691 | 17.05675 | 335° | 20km/h | 26843m | 6.3m/s | 0°C | 0% | 0hPa | 0V | 00:00:00 | 00:00:00 | 00:00:00 | |
| OE5MMP-10 | 2026-08-30 12:58:00 | 48.21671 | 17.05696 | 222° | 24km/h | 26809m | 6.9m/s | 0°C | 0% | 0hPa | 0V | 00:00:00 | 00:00:00 | 00:00:00 | |
| ATIDSZ-14 | 2026-08-30 12:57:59 | 48.21672 | 17.05699 | 245° | 11km/h | 26803m | 5.9m/s | 0°C | 0% | 0hPa | 0V | 00:00:00 | 00:00:00 | 00:00:00 | |
| OE5MMP-10 | 2026-08-30 12:57:50 | 48.21637 | 17.05748 | 256° | 16km/h | 26751m | 2.9m/s | 0°C | 0% | 0hPa | 0V | 00:00:00 | 00:00:00 | 00:00:00 | |
| OE5MMP-10 | 2026-08-30 12:57:40 | 48.21626 | 17.05778 | 297° | 15km/h | 26692m | 5.1m/s | 0°C | 0% | 0hPa | 0V | 00:00:00 | 00:00:00 | 00:00:00 | |
| OE3OSB-13 | 2026-08-30 12:57:39 | 48.21624 | 17.05786 | 276° | 13km/h | 26680m | 6.6m/s | -48.9°C | 0.0% | 16.7hPa | 0V | 00:00:00 | 00:00:00 | 00:00:00 | |
| ATIDSZ-14 | 2026-08-30 12:57:38 | 48.21624 | 17.05786 | 278° | 15km/h | 26680m | 6.6m/s | 0°C | 0% | 0hPa | 0V | 00:00:00 | 00:00:00 | 00:00:00 | |
| OE3JTB-15 | 2026-08-30 12:57:37 | 48.21625 | 17.05792 | 260° | 9km/h | 26674m | 5.5m/s | 0°C | 0% | 0hPa | 0V | 00:00:00 | 00:00:00 | 00:00:00 | |
| PETON7-10 | 2026-08-30 12:57:36 | 48.21626 | 17.05798 | 253° | 9km/h | 26669m | 4.2m/s | 0°C | 0% | 0hPa | 0V | 00:00:00 | 00:00:00 | 00:00:00 | |
| OE5MMP-10 | 2026-08-30 12:57:28 | 48.21623 | 17.05820 | 297° | 7km/h | 26625m | 5.0m/s | 0°C | 0% | 0hPa | 0V | 00:00:00 | 00:00:00 | 00:00:00 | |
| PETON7-10 | 2026-08-30 12:57:21 | 48.21619 | 17.05825 | 141° | 7km/h | 26587m | 7.7m/s | 0°C | 0% | 0hPa | 0V | 00:00:00 | 00:00:00 | 00:00:00 | |
| OE5MMP-10 | 2026-08-30 12:57:18 | 48.21620 | 17.05821 | 283° | 11km/h | 26566m | 6.1m/s | 0°C | 0% | 0hPa | 0V | 00:00:00 | 00:00:00 | 00:00:00 | |
| OE5DXL-15 | 2026-08-30 12:57:12 | 48.21620 | 17.05842 | 92° | 15km/h | 26530m | 2.1m/s | 0°C | 0% | 0hPa | 0V | 00:00:00 | 00:00:00 | 00:00:00 | |
| OE3OSB-13 | 2026-08-30 12:57:08 | 48.21618 | 17.05850 | 333° | 9km/h | 26498m | 5.6m/s | -49.4°C | 0.0% | 17.3hPa | 0V | 00:00:00 | 00:00:00 | 00:00:00 | |
| PETON7-10 | 2026-08-30 12:57:06 | 48.21616 | 17.05851 | 328° | 9km/h | 26494m | 3.5m/s | 0°C | 0% | 0hPa | 0V | 00:00:00 | 00:00:00 | 00:00:00 | |
| OE5MMP-10 | 2026-08-30 12:56:58 | 48.21616 | 17.05858 | 52° | 11km/h | 26448m | 6.6m/s | 0°C | 0% | 0hPa | 0V | 00:00:00 | 00:00:00 | 00:00:00 | |
| ATIDSZ-14 | 2026-08-30 12:56:57 | 48.21614 | 17.05856 | 11° | 7km/h | 26441m | 6.4m/s | 0°C | 0% | 0hPa | 0V | 00:00:00 | 00:00:00 | 00:00:00 | |
| PETON7-10 | 2026-08-30 12:56:51 | 48.21603 | 17.05862 | 60° | 18km/h | 26407m | 4.4m/s | 0°C | 0% | 0hPa | 0V | 00:00:00 | 00:00:00 | 00:00:00 | |
| OE5MMP-10 | 2026-08-30 12:56:46 | 48.21610 | 17.05849 | 92° | 20km/h | 26376m | 6.8m/s | 0°C | 0% | 0hPa | 0V | 00:00:00 | 00:00:00 | 00:00:00 | |
| OE3JTB-15 | 2026-08-30 12:56:39 | 48.21575 | 17.05834 | 53° | 22km/h | 26338m | 6.1m/s | 0°C | 0% | 0hPa | 0V | 00:00:00 | 00:00:00 | 00:00:00 | |
| OE3OSB-13 | 2026-08-30 12:56:37 | 48.21576 | 17.05812 | 123° | 20km/h | 26320m | 6.3m/s | -49.9°C | 0.0% | 17.9hPa | 0V | 00:00:00 | 00:00:00 | 00:00:00 | |
| PETON7-10 | 2026-08-30 12:56:34 | 48.21579 | 17.05799 | 77° | 24km/h | 26313m | 4.0m/s | 0°C | 0% | 0hPa | 0V | 00:00:00 | 00:00:00 | 00:00:00 | |
| OE5MMP-10 | 2026-08-30 12:56:33 | 48.21576 | 17.05793 | 51° | 27km/h | 26307m | 8.6m/s | 0°C | 0% | 0hPa | 0V | 00:00:00 | 00:00:00 | 00:00:00 | |
| OE5DXL-15 | 2026-08-30 12:56:24 | 48.21531 | 17.05759 | 73° | 20km/h | 26254m | 1.9m/s | 0°C | 0% | 0hPa | 0V | 00:00:00 | 00:00:00 | 00:00:00 | |
| OE5MMP-10 | 2026-08-30 12:56:23 | 48.21529 | 17.05751 | 59° | 20km/h | 26249m | 7.8m/s | 0°C | 0% | 0hPa | 0V | 00:00:00 | 00:00:00 | 00:00:00 | |
| PETON7-10 | 2026-08-30 12:56:17 | 48.21494 | 17.05740 | 357° | 20km/h | 26211m | 7.7m/s | 0°C | 0% | 0hPa | 0V | 00:00:00 | 00:00:00 | 00:00:00 | |
| ATIDSZ-14 | 2026-08-30 12:56:16 | 48.21487 | 17.05742 | 348° | 20km/h | 26203m | 7.8m/s | 0°C | 0% | 0hPa | 0V | 00:00:00 | 00:00:00 | 00:00:00 | |
| OE5MMP-10 | 2026-08-30 12:56:12 | 48.21479 | 17.05735 | 50° | 26km/h | 26178m | 3.5m/s | 0°C | 0% | 0hPa | 0V | 00:00:00 | 00:00:00 | 00:00:00 | |
| OE3JTB-15 | 2026-08-30 12:56:10 | 48.21472 | 17.05730 | 4° | 15km/h | 26165m | 7.4m/s | 0°C | 0% | 0hPa | 0V | 00:00:00 | 00:00:00 | 00:00:00 | |
| OE3OSB-13 | 2026-08-30 12:56:06 | 48.21432 | 17.05741 | 340° | 16km/h | 26130m | 8.1m/s | -51.2°C | 0.0% | 18.6hPa | 0V | 00:00:00 | 00:00:00 | 00:00:00 | |
| PETON7-10 | 2026-08-30 12:56:02 | 48.21427 | 17.05745 | 342° | 15km/h | 26117m | 6.4m/s | 0°C | 0% | 0hPa | 0V | 00:00:00 | 00:00:00 | 00:00:00 | |
| OE5MMP-10 | 2026-08-30 12:56:01 | 48.21424 | 17.05746 | 6° | 15km/h | 26110m | 6.7m/s | 0°C | 0% | 0hPa | 0V | 00:00:00 | 00:00:00 | 00:00:00 | |
| ATIDSZ-14 | 2026-08-30 12:55:56 | 48.21400 | 17.05758 | 324° | 15km/h | 26083m | 3.1m/s | 0°C | 0% | 0hPa | 0V | 00:00:00 | 00:00:00 | 00:00:00 | |
| OE5DXL-15 | 2026-08-30 12:55:54 | 48.21393 | 17.05760 | 16° | 7km/h | 26069m | 6.7m/s | 0°C | 0% | 0hPa | 0V | 00:00:00 | 00:00:00 | 00:00:00 | |
| OE5MMP-10 | 2026-08-30 12:55:50 | 48.21384 | 17.05765 | 303° | 7km/h | 26045m | 4.8m/s | 0°C | 0% | 0hPa | 0V | 00:00:00 | 00:00:00 | 00:00:00 | |
| PETON7-10 | 2026-08-30 12:55:45 | 48.21375 | 17.05770 | 332° | 5km/h | 26011m | 7.4m/s | 0°C | 0% | 0hPa | 0V | 00:00:00 | 00:00:00 | 00:00:00 | |
| OE3JTB-15 | 2026-08-30 12:55:41 | 48.21376 | 17.05774 | 33° | 7km/h | 25987m | 3.7m/s | 0°C | 0% | 0hPa | 0V | 00:00:00 | 00:00:00 | 00:00:00 | |
| OE5MMP-10 | 2026-08-30 12:55:40 | 48.21376 | 17.05775 | 285° | 7km/h | 25981m | 7.8m/s | 0°C | 0% | 0hPa | 0V | 00:00:00 | 00:00:00 | 00:00:00 | |
| OE3OSB-13 | 2026-08-30 12:55:35 | 48.21374 | 17.05778 | 147° | 9km/h | 25942m | 6.1m/s | -51.6°C | 0.0% | 19.2hPa | 0V | 00:00:00 | 00:00:00 | 00:00:00 | |
| OE5MMP-10 | 2026-08-30 12:55:29 | 48.21381 | 17.05785 | 146° | 5km/h | 25909m | 5.7m/s | 0°C | 0% | 0hPa | 0V | 00:00:00 | 00:00:00 | 00:00:00 | |
| OE5DXL-15 | 2026-08-30 12:55:24 | 48.21385 | 17.05784 | 129° | 11km/h | 25880m | 8.4m/s | 0°C | 0% | 0hPa | 0V | 00:00:00 | 00:00:00 | 00:00:00 | |
| OE5MMP-10 | 2026-08-30 12:55:19 | 48.21392 | 17.05779 | 206° | 11km/h | 25849m | 3.5m/s | 0°C | 0% | 0hPa | 0V | 00:00:00 | 00:00:00 | 00:00:00 | |
| ATIDSZ-14 | 2026-08-30 12:55:15 | 48.21401 | 17.05767 | 110° | 11km/h | 25824m | 5.8m/s | 0°C | 0% | 0hPa | 0V | 00:00:00 | 00:00:00 | 00:00:00 | |
| PETON7-10 | 2026-08-30 12:55:14 | 48.21401 | 17.05764 | 57° | 11km/h | 25817m | 8.1m/s | 0°C | 0% | 0hPa | 0V | 00:00:00 | 00:00:00 | 00:00:00 | |
| OE3JTB-15 | 2026-08-30 12:55:12 | 48.21398 | 17.05762 | 35° | 9km/h | 25805m | 3.7m/s | 0°C | 0% | 0hPa | 0V | 00:00:00 | 00:00:00 | 00:00:00 | |
| OE5MMP-10 | 2026-08-30 12:55:09 | 48.21396 | 17.05748 | 83° | 9km/h | 25787m | 4.5m/s | 0°C | 0% | 0hPa | 0V | 00:00:00 | 00:00:00 | 00:00:00 | |
| OE3OSB-13 | 2026-08-30 12:55:04 | 48.21397 | 17.05733 | 113° | 5km/h | 25749m | 4.1m/s | -51.8°C | 0.0% | 19.9hPa | 0V | 00:00:00 | 00:00:00 | 00:00:00 | |
| PETON7-10 | 2026-08-30 12:54:59 | 48.21388 | 17.05727 | 28° | 9km/h | 25726m | 8.0m/s | 0°C | 0% | 0hPa | 0V | 00:00:00 | 00:00:00 | 00:00:00 | |
| OE5MMP-10 | 2026-08-30 12:54:57 | 48.21387 | 17.05721 | 100° | 7km/h | 25714m | 3.7m/s | 0°C | 0% | 0hPa | 0V | 00:00:00 | 00:00:00 | 00:00:00 | |
| OE5DXL-15 | 2026-08-30 12:54:54 | 48.21385 | 17.05712 | 44° | 13km/h | 25696m | 3.6m/s | 0°C | 0% | 0hPa | 0V | 00:00:00 | 00:00:00 | 00:00:00 | |
| OE5MMP-10 | 2026-08-30 12:54:45 | 48.21375 | 17.05716 | 83° | 11km/h | 25638m | 5.9m/s | 0°C | 0% | 0hPa | 0V | 00:00:00 | 00:00:00 | 00:00:00 | |
| PETON7-10 | 2026-08-30 12:54:44 | 48.21375 | 17.05712 | 79° | 13km/h | 25632m | 5.6m/s | 0°C | 0% | 0hPa | 0V | 00:00:00 | 00:00:00 | 00:00:00 | |
| OE3JTB-15 | 2026-08-30 12:54:43 | 48.21373 | 17.05708 | 58° | 16km/h | 25625m | 6.9m/s | 0°C | 0% | 0hPa | 0V | 00:00:00 | 00:00:00 | 00:00:00 | |
| OE3OSB-13 | 2026-08-30 12:54:33 | 48.21345 | 17.05712 | 271° | 7km/h | 25557m | 4.7m/s | -51.5°C | 0.0% | 20.7hPa | 0V | 00:00:00 | 00:00:00 | 00:00:00 | |
| OE5MMP-10 | 2026-08-30 12:54:32 | 48.21345 | 17.05712 | 272° | 16km/h | 25557m | 4.6m/s | 0°C | 0% | 0hPa | 0V | 00:00:00 | 00:00:00 | 00:00:00 | |
| PETON7-10 | 2026-08-30 12:54:29 | 48.21342 | 17.05728 | 317° | 20km/h | 25540m | 5.0m/s | 0°C | 0% | 0hPa | 0V | 00:00:00 | 00:00:00 | 00:00:00 | |
| OE5DXL-15 | 2026-08-30 12:54:24 | 48.21324 | 17.05745 | 332° | 24km/h | 25511m | 7.5m/s | 0°C | 0% | 0hPa | 0V | 00:00:00 | 00:00:00 | 00:00:00 | |
| OE5MMP-10 | 2026-08-30 12:54:21 | 48.21315 | 17.05757 | 293° | 18km/h | 25493m | 8.3m/s | 0°C | 0% | 0hPa | 0V | 00:00:00 | 00:00:00 | 00:00:00 | |
| PETON7-10 | 2026-08-30 12:54:14 | 48.21292 | 17.05798 | 334° | 22km/h | 25451m | 6.6m/s | 0°C | 0% | 0hPa | 0V | 00:00:00 | 00:00:00 | 00:00:00 | |
| ATIDSZ-14 | 2026-08-30 12:54:12 | 48.21285 | 17.05799 | 24° | 15km/h | 25439m | 5.3m/s | 0°C | 0% | 0hPa | 0V | 00:00:00 | 00:00:00 | 00:00:00 | |
| OE5MMP-10 | 2026-08-30 12:54:09 | 48.21270 | 17.05802 | 325° | 29km/h | 25421m | 6.1m/s | 0°C | 0% | 0hPa | 0V | 00:00:00 | 00:00:00 | 00:00:00 | |
| OE3OSB-13 | 2026-08-30 12:54:02 | 48.21232 | 17.05860 | 351° | 33km/h | 25371m | 3.5m/s | -51.3°C | 0.0% | 21.4hPa | 0V | 00:00:00 | 00:00:00 | 00:00:00 | |
| OE5MMP-10 | 2026-08-30 12:53:59 | 48.21220 | 17.05864 | 326° | 31km/h | 25360m | 4.8m/s | 0°C | 0% | 0hPa | 0V | 00:00:00 | 00:00:00 | 00:00:00 | |
| OE5DXL-15 | 2026-08-30 12:53:54 | 48.21202 | 17.05906 | 321° | 24km/h | 25332m | 7.8m/s | 0°C | 0% | 0hPa | 0V | 00:00:00 | 00:00:00 | 00:00:00 | |
| ATIDSZ-14 | 2026-08-30 12:53:51 | 48.21180 | 17.05914 | 358° | 38km/h | 25312m | 7.6m/s | 0°C | 0% | 0hPa | 0V | 00:00:00 | 00:00:00 | 00:00:00 | |
| OE5MMP-10 | 2026-08-30 12:53:48 | 48.21156 | 17.05929 | 318° | 24km/h | 25294m | 7.8m/s | 0°C | 0% | 0hPa | 0V | 00:00:00 | 00:00:00 | 00:00:00 | |
| OE3JTB-15 | 2026-08-30 12:53:45 | 48.21151 | 17.05949 | 284° | 22km/h | 25273m | 5.5m/s | 0°C | 0% | 0hPa | 0V | 00:00:00 | 00:00:00 | 00:00:00 | |
| OE5MMP-10 | 2026-08-30 12:53:38 | 48.21117 | 17.05980 | 338° | 20km/h | 25232m | 6.4m/s | 0°C | 0% | 0hPa | 0V | 00:00:00 | 00:00:00 | 00:00:00 | |
| ATIDSZ-14 | 2026-08-30 12:53:31 | 48.21093 | 17.06016 | 302° | 24km/h | 25192m | 7.8m/s | 0°C | 0% | 0hPa | 0V | 00:00:00 | 00:00:00 | 00:00:00 | |
| OE3OSB-13 | 2026-08-30 12:53:30 | 48.21089 | 17.06024 | 312° | 29km/h | 25185m | 5.8m/s | -51.1°C | 0.0% | 22.2hPa | 0V | 00:00:00 | 00:00:00 | 00:00:00 | |
| OE5MMP-10 | 2026-08-30 12:53:27 | 48.21076 | 17.06041 | 332° | 18km/h | 25167m | 4.7m/s | 0°C | 0% | 0hPa | 0V | 00:00:00 | 00:00:00 | 00:00:00 | |
| OE5DXL-15 | 2026-08-30 12:53:24 | 48.21066 | 17.06053 | 310° | 16km/h | 25149m | 5.3m/s | 0°C | 0% | 0hPa | 0V | 00:00:00 | 00:00:00 | 00:00:00 | |
| PETON7-10 | 2026-08-30 12:53:23 | 48.21063 | 17.06059 | 296° | 24km/h | 25144m | 6.6m/s | 0°C | 0% | 0hPa | 0V | 00:00:00 | 00:00:00 | 00:00:00 | |
| OE3JTB-15 | 2026-08-30 12:53:16 | 48.21052 | 17.06102 | 295° | 16km/h | 25098m | 7.0m/s | 0°C | 0% | 0hPa | 0V | 00:00:00 | 00:00:00 | 00:00:00 | |
| OE5MMP-10 | 2026-08-30 12:53:15 | 48.21050 | 17.06107 | 302° | 18km/h | 25091m | 5.4m/s | 0°C | 0% | 0hPa | 0V | 00:00:00 | 00:00:00 | 00:00:00 | |
| ATIDSZ-14 | 2026-08-30 12:53:11 | 48.21039 | 17.06124 | 302° | 20km/h | 25067m | 4.4m/s | 0°C | 0% | 0hPa | 0V | 00:00:00 | 00:00:00 | 00:00:00 | |
| OK1SLM-15 | 2026-08-30 12:53:09 | 48.21038 | 17.06136 | 254° | 18km/h | 25055m | 5.8m/s | 0°C | 0% | 0hPa | 0V | 00:00:00 | 00:00:00 | 00:00:00 | |
| PETON7-10 | 2026-08-30 12:53:06 | 48.21040 | 17.06164 | 280° | 13km/h | 25036m | 4.7m/s | 0°C | 0% | 0hPa | 0V | 00:00:00 | 00:00:00 | 00:00:00 | |
| OE5MMP-10 | 2026-08-30 12:53:03 | 48.21038 | 17.06183 | 245° | 13km/h | 25020m | 5.7m/s | 0°C | 0% | 0hPa | 0V | 00:00:00 | 00:00:00 | 00:00:00 | |
| OE3OSB-13 | 2026-08-30 12:53:00 | 48.21040 | 17.06195 | 259° | 16km/h | 24996m | 3.9m/s | -51.1°C | 0.0% | 23.0hPa | 0V | 00:00:00 | 00:00:00 | 00:00:00 | |
| OE5DXL-15 | 2026-08-30 12:52:54 | 48.21038 | 17.06227 | 316° | 22km/h | 24969m | 6.8m/s | 0°C | 0% | 0hPa | 0V | 00:00:00 | 00:00:00 | 00:00:00 | |
| OE5MMP-10 | 2026-08-30 12:52:53 | 48.21035 | 17.06232 | 319° | 20km/h | 24963m | 4.0m/s | 0°C | 0% | 0hPa | 0V | 00:00:00 | 00:00:00 | 00:00:00 | |
| ATIDSZ-14 | 2026-08-30 12:52:50 | 48.21037 | 17.06234 | 182° | 16km/h | 24945m | 4.5m/s | 0°C | 0% | 0hPa | 0V | 00:00:00 | 00:00:00 | 00:00:00 | |
| PETON7-10 | 2026-08-30 12:52:48 | 48.21046 | 17.06243 | 236° | 24km/h | 24934m | 8.0m/s | 0°C | 0% | 0hPa | 0V | 00:00:00 | 00:00:00 | 00:00:00 | |
| OE3JTB-15 | 2026-08-30 12:52:47 | 48.21049 | 17.06253 | 264° | 24km/h | 24927m | 6.7m/s | 0°C | 0% | 0hPa | 0V | 00:00:00 | 00:00:00 | 00:00:00 | |
| OE5MMP-10 | 2026-08-30 12:52:43 | 48.21041 | 17.06291 | 300° | 18km/h | 24903m | 4.6m/s | 0°C | 0% | 0hPa | 0V | 00:00:00 | 00:00:00 | 00:00:00 | |
| OE5MMP-10 | 2026-08-30 12:52:33 | 48.21043 | 17.06364 | 300° | 22km/h | 24841m | 5.1m/s | 0°C | 0% | 0hPa | 0V | 00:00:00 | 00:00:00 | 00:00:00 | |
| ATIDSZ-14 | 2026-08-30 12:52:30 | 48.21034 | 17.06388 | 278° | 15km/h | 24826m | 5.8m/s | 0°C | 0% | 0hPa | 0V | 00:00:00 | 00:00:00 | 00:00:00 | |
| OE3OSB-13 | 2026-08-30 12:52:29 | 48.21041 | 17.06412 | 251° | 29km/h | 24810m | 9.2m/s | -51.1°C | 0.0% | 23.8hPa | 0V | 00:00:00 | 00:00:00 | 00:00:00 | |
| OE5DXL-15 | 2026-08-30 12:52:24 | 48.21046 | 17.06444 | 252° | 20km/h | 24791m | 8.3m/s | 0°C | 0% | 0hPa | 0V | 00:00:00 | 00:00:00 | 00:00:00 | |
| OE5MMP-10 | 2026-08-30 12:52:23 | 48.21047 | 17.06450 | 269° | 20km/h | 24784m | 4.9m/s | 0°C | 0% | 0hPa | 0V | 00:00:00 | 00:00:00 | 00:00:00 | |
| PETON7-10 | 2026-08-30 12:52:18 | 48.21047 | 17.06491 | 244° | 22km/h | 24755m | 7.8m/s | 0°C | 0% | 0hPa | 0V | 00:00:00 | 00:00:00 | 00:00:00 | |
| OE5MMP-10 | 2026-08-30 12:52:13 | 48.21057 | 17.06528 | 262° | 20km/h | 24727m | 7.7m/s | 0°C | 0% | 0hPa | 0V | 00:00:00 | 00:00:00 | 00:00:00 | |
| ATIDSZ-14 | 2026-08-30 12:52:09 | 48.21064 | 17.06557 | 255° | 26km/h | 24700m | 6.7m/s | 0°C | 0% | 0hPa | 0V | 00:00:00 | 00:00:00 | 00:00:00 | |
| OE5MMP-10 | 2026-08-30 12:52:02 | 48.21086 | 17.06592 | 265° | 18km/h | 24658m | 6.6m/s | 0°C | 0% | 0hPa | 0V | 00:00:00 | 00:00:00 | 00:00:00 | |
| PETON7-10 | 2026-08-30 12:52:00 | 48.21085 | 17.06605 | 263° | 18km/h | 24648m | 6.5m/s | 0°C | 0% | 0hPa | 0V | 00:00:00 | 00:00:00 | 00:00:00 | |
| OE3OSB-13 | 2026-08-30 12:51:57 | 48.21102 | 17.06628 | 217° | 26km/h | 24622m | 6.6m/s | -50.9°C | 0.0% | 24.6hPa | 0V | 00:00:00 | 00:00:00 | 00:00:00 | |
| OE5DXL-15 | 2026-08-30 12:51:54 | 48.21109 | 17.06636 | 202° | 13km/h | 24611m | 6.8m/s | 0°C | 0% | 0hPa | 0V | 00:00:00 | 00:00:00 | 00:00:00 | |
| OE5MMP-10 | 2026-08-30 12:51:52 | 48.21114 | 17.06634 | 126° | 20km/h | 24597m | 5.5m/s | 0°C | 0% | 0hPa | 0V | 00:00:00 | 00:00:00 | 00:00:00 | |
| ATIDSZ-14 | 2026-08-30 12:51:49 | 48.21116 | 17.06636 | 248° | 16km/h | 24581m | 3.8m/s | 0°C | 0% | 0hPa | 0V | 00:00:00 | 00:00:00 | 00:00:00 | |
| PETON7-10 | 2026-08-30 12:51:43 | 48.21150 | 17.06656 | 188° | 13km/h | 24550m | 7.9m/s | 0°C | 0% | 0hPa | 0V | 00:00:00 | 00:00:00 | 00:00:00 | |
| OE5MMP-10 | 2026-08-30 12:51:42 | 48.21153 | 17.06658 | 234° | 16km/h | 24542m | 6.2m/s | 0°C | 0% | 0hPa | 0V | 00:00:00 | 00:00:00 | 00:00:00 | |
| PETON7-10 | 2026-08-30 12:51:30 | 48.21180 | 17.06677 | 123° | 13km/h | 24462m | 7.4m/s | 0°C | 0% | 0hPa | 0V | 00:00:00 | 00:00:00 | 00:00:00 | |
| OE5MMP-10 | 2026-08-30 12:51:29 | 48.21180 | 17.06677 | 123° | 13km/h | 24462m | 7.4m/s | 0°C | 0% | 0hPa | 0V | 00:00:00 | 00:00:00 | 00:00:00 | |
| OE3OSB-13 | 2026-08-30 12:51:26 | 48.21185 | 17.06680 | 222° | 11km/h | 24443m | 7.7m/s | -51.1°C | 0.0% | 25.4hPa | 0V | 00:00:00 | 00:00:00 | 00:00:00 | |
| ATIDSZ-14 | 2026-08-30 12:51:25 | 48.21185 | 17.06680 | 223° | 11km/h | 24443m | 7.7m/s | 0°C | 0% | 0hPa | 0V | 00:00:00 | 00:00:00 | 00:00:00 | |
| OE5DXL-15 | 2026-08-30 12:51:24 | 48.21188 | 17.06683 | 229° | 13km/h | 24436m | 6.4m/s | 0°C | 0% | 0hPa | 0V | 00:00:00 | 00:00:00 | 00:00:00 | |
| OE3JTB-15 | 2026-08-30 12:51:20 | 48.21206 | 17.06699 | 203° | 11km/h | 24414m | 4.4m/s | 0°C | 0% | 0hPa | 0V | 00:00:00 | 00:00:00 | 00:00:00 | |
| OE5MMP-10 | 2026-08-30 12:51:17 | 48.21210 | 17.06708 | 298° | 11km/h | 24395m | 4.4m/s | 0°C | 0% | 0hPa | 0V | 00:00:00 | 00:00:00 | 00:00:00 | |
| PETON7-10 | 2026-08-30 12:51:13 | 48.21216 | 17.06718 | 203° | 11km/h | 24372m | 4.8m/s | 0°C | 0% | 0hPa | 0V | 00:00:00 | 00:00:00 | 00:00:00 | |
| OE5MMP-10 | 2026-08-30 12:51:07 | 48.21229 | 17.06726 | 127° | 9km/h | 24335m | 5.6m/s | 0°C | 0% | 0hPa | 0V | 00:00:00 | 00:00:00 | 00:00:00 | |
| ATIDSZ-14 | 2026-08-30 12:51:01 | 48.21237 | 17.06713 | 177° | 13km/h | 24301m | 6.0m/s | 0°C | 0% | 0hPa | 0V | 00:00:00 | 00:00:00 | 00:00:00 | |
| OE3OSB-13 | 2026-08-30 12:50:55 | 48.21248 | 17.06700 | 102° | 20km/h | 24259m | 3.6m/s | -52.5°C | 0.0% | 26.2hPa | 0V | 00:00:00 | 00:00:00 | 00:00:00 | |
| OE5DXL-15 | 2026-08-30 12:50:54 | 48.21248 | 17.06700 | 103° | 11km/h | 24260m | 3.5m/s | 0°C | 0% | 0hPa | 0V | 00:00:00 | 00:00:00 | 00:00:00 | |
| OE3JTB-15 | 2026-08-30 12:50:51 | 48.21247 | 17.06683 | 52° | 11km/h | 24242m | 5.0m/s | 0°C | 0% | 0hPa | 0V | 00:00:00 | 00:00:00 | 00:00:00 | |
| OE5MMP-10 | 2026-08-30 12:50:45 | 48.21246 | 17.06671 | 110° | 11km/h | 24207m | 3.7m/s | 0°C | 0% | 0hPa | 0V | 00:00:00 | 00:00:00 | 00:00:00 | |
| PETON7-10 | 2026-08-30 12:50:43 | 48.21248 | 17.06661 | 94° | 13km/h | 24194m | 4.6m/s | 0°C | 0% | 0hPa | 0V | 00:00:00 | 00:00:00 | 00:00:00 | |
| ATIDSZ-14 | 2026-08-30 12:50:39 | 48.21238 | 17.06635 | 4° | 20km/h | 24172m | 6.2m/s | 0°C | 0% | 0hPa | 0V | 00:00:00 | 00:00:00 | 00:00:00 | |
| OE5MMP-10 | 2026-08-30 12:50:33 | 48.21227 | 17.06625 | 69° | 11km/h | 24138m | 5.2m/s | 0°C | 0% | 0hPa | 0V | 00:00:00 | 00:00:00 | 00:00:00 | |
| PETON7-10 | 2026-08-30 12:50:28 | 48.21229 | 17.06610 | 30° | 9km/h | 24111m | 7.8m/s | 0°C | 0% | 0hPa | 0V | 00:00:00 | 00:00:00 | 00:00:00 | |
| OE3OSB-13 | 2026-08-30 12:50:24 | 48.21211 | 17.06614 | 7° | 2km/h | 24081m | 4.1m/s | -53.1°C | 0.0% | 27.1hPa | 0V | 00:00:00 | 00:00:00 | 00:00:00 | |
| OE5MMP-10 | 2026-08-30 12:50:23 | 48.21211 | 17.06614 | 8° | 5km/h | 24081m | 4.1m/s | 0°C | 0% | 0hPa | 0V | 00:00:00 | 00:00:00 | 00:00:00 | |
| OE3JTB-15 | 2026-08-30 12:50:22 | 48.21211 | 17.06614 | 220° | 9km/h | 24077m | 5.4m/s | 0°C | 0% | 0hPa | 0V | 00:00:00 | 00:00:00 | 00:00:00 | |
| ATIDSZ-14 | 2026-08-30 12:50:18 | 48.21209 | 17.06625 | 317° | 5km/h | 24054m | 7.2m/s | 0°C | 0% | 0hPa | 0V | 00:00:00 | 00:00:00 | 00:00:00 | |
| PETON7-10 | 2026-08-30 12:50:13 | 48.21202 | 17.06626 | 317° | 11km/h | 24022m | 6.2m/s | 0°C | 0% | 0hPa | 0V | 00:00:00 | 00:00:00 | 00:00:00 | |
| OE3OSB-13 | 2026-08-30 12:49:53 | 48.21212 | 17.06667 | 38° | 7km/h | 23899m | 3.2m/s | -53.4°C | 0.0% | 28.0hPa | 0V | 00:00:00 | 00:00:00 | 00:00:00 | |
| OE5MMP-10 | 2026-08-30 12:49:43 | 48.21203 | 17.06655 | 140° | 11km/h | 23846m | 4.2m/s | 0°C | 0% | 0hPa | 0V | 00:00:00 | 00:00:00 | 00:00:00 | |
| ATIDSZ-14 | 2026-08-30 12:49:38 | 48.21203 | 17.06642 | 351° | 11km/h | 23820m | 7.3m/s | 0°C | 0% | 0hPa | 0V | 00:00:00 | 00:00:00 | 00:00:00 | |
| OE5MMP-10 | 2026-08-30 12:49:33 | 48.21187 | 17.06632 | 66° | 13km/h | 23791m | 5.8m/s | 0°C | 0% | 0hPa | 0V | 00:00:00 | 00:00:00 | 00:00:00 | |
| PETON7-10 | 2026-08-30 12:49:28 | 48.21177 | 17.06617 | 34° | 15km/h | 23761m | 5.7m/s | 0°C | 0% | 0hPa | 0V | 00:00:00 | 00:00:00 | 00:00:00 | |
| OE5MMP-10 | 2026-08-30 12:49:24 | 48.21165 | 17.06603 | 64° | 16km/h | 23731m | 7.3m/s | 0°C | 0% | 0hPa | 0V | 00:00:00 | 00:00:00 | 00:00:00 | |
| OE3OSB-13 | 2026-08-30 12:49:22 | 48.21160 | 17.06590 | 45° | 18km/h | 23720m | 6.0m/s | -53.5°C | 0.0% | 28.9hPa | 0V | 00:00:00 | 00:00:00 | 00:00:00 | |
| ATIDSZ-14 | 2026-08-30 12:49:17 | 48.21144 | 17.06588 | 349° | 15km/h | 23694m | 6.0m/s | 0°C | 0% | 0hPa | 0V | 00:00:00 | 00:00:00 | 00:00:00 | |
| OE5MMP-10 | 2026-08-30 12:49:12 | 48.21128 | 17.06593 | 31° | 22km/h | 23666m | 8.8m/s | 0°C | 0% | 0hPa | 0V | 00:00:00 | 00:00:00 | 00:00:00 | |
| OE5MMP-10 | 2026-08-30 12:49:01 | 48.21072 | 17.06596 | 7° | 22km/h | 23602m | 4.5m/s | 0°C | 0% | 0hPa | 0V | 00:00:00 | 00:00:00 | 00:00:00 | |
| OE3OSB-13 | 2026-08-30 12:48:51 | 48.21032 | 17.06597 | 52° | 16km/h | 23542m | 5.6m/s | -53.4°C | 0.0% | 29.9hPa | 0V | 00:00:00 | 00:00:00 | 00:00:00 | |
| OE5MMP-10 | 2026-08-30 12:48:41 | 48.21012 | 17.06581 | 32° | 7km/h | 23489m | 6.6m/s | 0°C | 0% | 0hPa | 0V | 00:00:00 | 00:00:00 | 00:00:00 | |
| PETON7-10 | 2026-08-30 12:48:40 | 48.21010 | 17.06578 | 52° | 9km/h | 23482m | 5.5m/s | 0°C | 0% | 0hPa | 0V | 00:00:00 | 00:00:00 | 00:00:00 | |
| ATIDSZ-14 | 2026-08-30 12:48:36 | 48.21002 | 17.06575 | 316° | 7km/h | 23460m | 4.2m/s | 0°C | 0% | 0hPa | 0V | 00:00:00 | 00:00:00 | 00:00:00 | |
| OE5MMP-10 | 2026-08-30 12:48:31 | 48.21001 | 17.06576 | 30° | 9km/h | 23432m | 5.6m/s | 0°C | 0% | 0hPa | 0V | 00:00:00 | 00:00:00 | 00:00:00 | |
| PETON7-10 | 2026-08-30 12:48:25 | 48.20990 | 17.06563 | 42° | 9km/h | 23401m | 5.9m/s | 0°C | 0% | 0hPa | 0V | 00:00:00 | 00:00:00 | 00:00:00 | |
| OE5DXL-15 | 2026-08-30 12:48:24 | 48.20989 | 17.06560 | 50° | 13km/h | 23396m | 3.7m/s | 0°C | 0% | 0hPa | 0V | 00:00:00 | 00:00:00 | 00:00:00 | |
| OE5MMP-10 | 2026-08-30 12:48:21 | 48.20988 | 17.06554 | 87° | 7km/h | 23379m | 3.9m/s | 0°C | 0% | 0hPa | 0V | 00:00:00 | 00:00:00 | 00:00:00 | |
| OE3OSB-13 | 2026-08-30 12:48:20 | 48.20984 | 17.06554 | 355° | 16km/h | 23366m | 6.4m/s | -53.0°C | 0.0% | 30.8hPa | 0V | 00:00:00 | 00:00:00 | 00:00:00 | |
| ATIDSZ-14 | 2026-08-30 12:48:15 | 48.20972 | 17.06561 | 300° | 4km/h | 23342m | 4.6m/s | 0°C | 0% | 0hPa | 0V | 00:00:00 | 00:00:00 | 00:00:00 | |
| OE5MMP-10 | 2026-08-30 12:48:11 | 48.20965 | 17.06557 | 21° | 15km/h | 23321m | 3.8m/s | 0°C | 0% | 0hPa | 0V | 00:00:00 | 00:00:00 | 00:00:00 | |
| PETON7-10 | 2026-08-30 12:48:10 | 48.20962 | 17.06555 | 23° | 13km/h | 23316m | 7.6m/s | 0°C | 0% | 0hPa | 0V | 00:00:00 | 00:00:00 | 00:00:00 | |
| OE5MMP-10 | 2026-08-30 12:48:01 | 48.20937 | 17.06577 | 274° | 15km/h | 23263m | 5.1m/s | 0°C | 0% | 0hPa | 0V | 00:00:00 | 00:00:00 | 00:00:00 | |
| PETON7-10 | 2026-08-30 12:47:55 | 48.20930 | 17.06601 | 307° | 11km/h | 23230m | 5.7m/s | 0°C | 0% | 0hPa | 0V | 00:00:00 | 00:00:00 | 00:00:00 | |
| OE5DXL-15 | 2026-08-30 12:47:54 | 48.20927 | 17.06606 | 305° | 11km/h | 23224m | 5.6m/s | 0°C | 0% | 0hPa | 0V | 00:00:00 | 00:00:00 | 00:00:00 | |
| ATIDSZ-14 | 2026-08-30 12:47:53 | 48.20924 | 17.06613 | 308° | 22km/h | 23220m | 2.5m/s | 0°C | 0% | 0hPa | 0V | 00:00:00 | 00:00:00 | 00:00:00 | |
| OE5MMP-10 | 2026-08-30 12:47:51 | 48.20922 | 17.06625 | 270° | 9km/h | 23208m | 5.5m/s | 0°C | 0% | 0hPa | 0V | 00:00:00 | 00:00:00 | 00:00:00 | |
| PETON7-10 | 2026-08-30 12:47:40 | 48.20921 | 17.06657 | 303° | 11km/h | 23144m | 5.0m/s | 0°C | 0% | 0hPa | 0V | 00:00:00 | 00:00:00 | 00:00:00 | |
| OE5MMP-10 | 2026-08-30 12:47:37 | 48.20925 | 17.06664 | 230° | 13km/h | 23128m | 2.8m/s | 0°C | 0% | 0hPa | 0V | 00:00:00 | 00:00:00 | 00:00:00 | |
| ATIDSZ-14 | 2026-08-30 12:47:33 | 48.20919 | 17.06674 | 337° | 13km/h | 23105m | 5.0m/s | 0°C | 0% | 0hPa | 0V | 00:00:00 | 00:00:00 | 00:00:00 | |
| OE3JTB-15 | 2026-08-30 12:47:26 | 48.20914 | 17.06695 | 281° | 16km/h | 23063m | 6.3m/s | 0°C | 0% | 0hPa | 0V | 00:00:00 | 00:00:00 | 00:00:00 | |
| OE5MMP-10 | 2026-08-30 12:47:25 | 48.20913 | 17.06701 | 289° | 13km/h | 23058m | 4.0m/s | 0°C | 0% | 0hPa | 0V | 00:00:00 | 00:00:00 | 00:00:00 | |
| OE5DXL-15 | 2026-08-30 12:47:24 | 48.20911 | 17.06705 | 328° | 16km/h | 23053m | 5.8m/s | 0°C | 0% | 0hPa | 0V | 00:00:00 | 00:00:00 | 00:00:00 | |
| OE3OSB-13 | 2026-08-30 12:47:18 | 48.20897 | 17.06697 | 300° | 11km/h | 23014m | 6.0m/s | -53.1°C | 0.0% | 32.8hPa | 0V | 00:00:00 | 00:00:00 | 00:00:00 | |
| OE5MMP-10 | 2026-08-30 12:47:15 | 48.20889 | 17.06706 | 331° | 15km/h | 23002m | 4.6m/s | 0°C | 0% | 0hPa | 0V | 00:00:00 | 00:00:00 | 00:00:00 | |
| ATIDSZ-14 | 2026-08-30 12:47:13 | 48.20879 | 17.06714 | 327° | 16km/h | 22993m | 6.2m/s | 0°C | 0% | 0hPa | 0V | 00:00:00 | 00:00:00 | 00:00:00 | |
| PETON7-10 | 2026-08-30 12:47:10 | 48.20873 | 17.06719 | 7° | 15km/h | 22975m | 7.2m/s | 0°C | 0% | 0hPa | 0V | 00:00:00 | 00:00:00 | 00:00:00 | |
| OE5MMP-10 | 2026-08-30 12:47:05 | 48.20857 | 17.06715 | 332° | 18km/h | 22946m | 4.3m/s | 0°C | 0% | 0hPa | 0V | 00:00:00 | 00:00:00 | 00:00:00 | |
| OE3OSB-13 | 2026-08-30 12:46:47 | 48.20779 | 17.06778 | 359° | 20km/h | 22834m | 5.2m/s | -53.7°C | 0.0% | 33.9hPa | 0V | 00:00:00 | 00:00:00 | 00:00:00 | |
| OE5MMP-10 | 2026-08-30 12:46:45 | 48.20774 | 17.06777 | 11° | 13km/h | 22829m | 5.8m/s | 0°C | 0% | 0hPa | 0V | 00:00:00 | 00:00:00 | 00:00:00 | |
| PETON7-10 | 2026-08-30 12:46:40 | 48.20762 | 17.06780 | 307° | 15km/h | 22799m | 5.0m/s | 0°C | 0% | 0hPa | 0V | 00:00:00 | 00:00:00 | 00:00:00 | |
| OE5MMP-10 | 2026-08-30 12:46:35 | 48.20749 | 17.06806 | 344° | 15km/h | 22768m | 5.5m/s | 0°C | 0% | 0hPa | 0V | 00:00:00 | 00:00:00 | 00:00:00 | |
| ATIDSZ-14 | 2026-08-30 12:46:32 | 48.20737 | 17.06808 | 13° | 7km/h | 22751m | 4.8m/s | 0°C | 0% | 0hPa | 0V | 00:00:00 | 00:00:00 | 00:00:00 | |
| OE3JTB-15 | 2026-08-30 12:46:28 | 48.20727 | 17.06817 | 312° | 18km/h | 22729m | 5.0m/s | 0°C | 0% | 0hPa | 0V | 00:00:00 | 00:00:00 | 00:00:00 | |
| OE5MMP-10 | 2026-08-30 12:46:25 | 48.20720 | 17.06828 | 317° | 16km/h | 22711m | 6.3m/s | 0°C | 0% | 0hPa | 0V | 00:00:00 | 00:00:00 | 00:00:00 | |
| OE5DXL-15 | 2026-08-30 12:46:24 | 48.20717 | 17.06833 | 323° | 20km/h | 22704m | 6.4m/s | 0°C | 0% | 0hPa | 0V | 00:00:00 | 00:00:00 | 00:00:00 | |
| OE3OSB-13 | 2026-08-30 12:46:16 | 48.20690 | 17.06873 | 284° | 16km/h | 22651m | 5.6m/s | -53.4°C | 0.0% | 35.0hPa | 0V | 00:00:00 | 00:00:00 | 00:00:00 | |
| OE5MMP-10 | 2026-08-30 12:46:15 | 48.20690 | 17.06873 | 285° | 18km/h | 22651m | 5.6m/s | 0°C | 0% | 0hPa | 0V | 00:00:00 | 00:00:00 | 00:00:00 | |
| ATIDSZ-14 | 2026-08-30 12:46:13 | 48.20683 | 17.06895 | 308° | 27km/h | 22633m | 4.8m/s | 0°C | 0% | 0hPa | 0V | 00:00:00 | 00:00:00 | 00:00:00 | |
| PETON7-10 | 2026-08-30 12:46:09 | 48.20675 | 17.06912 | 321° | 20km/h | 22617m | 4.2m/s | 0°C | 0% | 0hPa | 0V | 00:00:00 | 00:00:00 | 00:00:00 | |
| OE5MMP-10 | 2026-08-30 12:46:05 | 48.20662 | 17.06930 | 300° | 22km/h | 22597m | 3.7m/s | 0°C | 0% | 0hPa | 0V | 00:00:00 | 00:00:00 | 00:00:00 | |
| OE3OSB-13 | 2026-08-30 12:45:44 | 48.20626 | 17.07084 | 276° | 11km/h | 22477m | 5.9m/s | -53.1°C | 0.0% | 36.0hPa | 0V | 00:00:00 | 00:00:00 | 00:00:00 | |
| PETON7-10 | 2026-08-30 12:45:38 | 48.20628 | 17.07119 | 256° | 13km/h | 22447m | 6.1m/s | 0°C | 0% | 0hPa | 0V | 00:00:00 | 00:00:00 | 00:00:00 | |
| OE5MMP-10 | 2026-08-30 12:45:35 | 48.20632 | 17.07130 | 242° | 15km/h | 22431m | 5.7m/s | 0°C | 0% | 0hPa | 0V | 00:00:00 | 00:00:00 | 00:00:00 | |
| ATIDSZ-14 | 2026-08-30 12:45:31 | 48.20640 | 17.07153 | 216° | 13km/h | 22409m | 5.4m/s | 0°C | 0% | 0hPa | 0V | 00:00:00 | 00:00:00 | 00:00:00 | |
| OE3JTB-15 | 2026-08-30 12:45:30 | 48.20642 | 17.07156 | 223° | 11km/h | 22404m | 5.0m/s | 0°C | 0% | 0hPa | 0V | 00:00:00 | 00:00:00 | 00:00:00 | |
| OE5MMP-10 | 2026-08-30 12:45:26 | 48.20652 | 17.07177 | 213° | 11km/h | 22374m | 4.6m/s | 0°C | 0% | 0hPa | 0V | 00:00:00 | 00:00:00 | 00:00:00 | |
| OE5DXL-15 | 2026-08-30 12:45:23 | 48.20655 | 17.07184 | 247° | 9km/h | 22363m | 5.9m/s | 0°C | 0% | 0hPa | 0V | 00:00:00 | 00:00:00 | 00:00:00 | |
| OE5MMP-10 | 2026-08-30 12:45:14 | 48.20667 | 17.07213 | 176° | 7km/h | 22313m | 5.1m/s | 0°C | 0% | 0hPa | 0V | 00:00:00 | 00:00:00 | 00:00:00 | |
| OE3OSB-13 | 2026-08-30 12:45:13 | 48.20670 | 17.07216 | 233° | 9km/h | 22301m | 6.5m/s | -52.7°C | 0.0% | 37.2hPa | 0V | 00:00:00 | 00:00:00 | 00:00:00 | |
| ATIDSZ-14 | 2026-08-30 12:45:10 | 48.20672 | 17.07223 | 248° | 9km/h | 22290m | 5.9m/s | 0°C | 0% | 0hPa | 0V | 00:00:00 | 00:00:00 | 00:00:00 | |
| PETON7-10 | 2026-08-30 12:45:08 | 48.20672 | 17.07227 | 322° | 7km/h | 22279m | 4.1m/s | 0°C | 0% | 0hPa | 0V | 00:00:00 | 00:00:00 | 00:00:00 | |
| OE3JTB-15 | 2026-08-30 12:45:01 | 48.20680 | 17.07231 | 180° | 9km/h | 22242m | 6.2m/s | 0°C | 0% | 0hPa | 0V | 00:00:00 | 00:00:00 | 00:00:00 | |
| OE5DXL-15 | 2026-08-30 12:44:53 | 48.20678 | 17.07234 | 17° | 11km/h | 22198m | 4.4m/s | 0°C | 0% | 0hPa | 0V | 00:00:00 | 00:00:00 | 00:00:00 | |
| OE5MMP-10 | 2026-08-30 12:44:52 | 48.20677 | 17.07232 | 60° | 5km/h | 22192m | 6.7m/s | 0°C | 0% | 0hPa | 0V | 00:00:00 | 00:00:00 | 00:00:00 | |
| ATIDSZ-14 | 2026-08-30 12:44:50 | 48.20676 | 17.07225 | 116° | 7km/h | 22182m | 5.3m/s | 0°C | 0% | 0hPa | 0V | 00:00:00 | 00:00:00 | 00:00:00 | |
| OE5MMP-10 | 2026-08-30 12:44:42 | 48.20668 | 17.07215 | 62° | 15km/h | 22140m | 4.3m/s | 0°C | 0% | 0hPa | 0V | 00:00:00 | 00:00:00 | 00:00:00 | |
| PETON7-10 | 2026-08-30 12:44:38 | 48.20669 | 17.07200 | 61° | 11km/h | 22119m | 6.0m/s | 0°C | 0% | 0hPa | 0V | 00:00:00 | 00:00:00 | 00:00:00 | |
| OE5MMP-10 | 2026-08-30 12:44:32 | 48.20646 | 17.07190 | 18° | 13km/h | 22089m | 5.3m/s | 0°C | 0% | 0hPa | 0V | 00:00:00 | 00:00:00 | 00:00:00 | |
| ATIDSZ-14 | 2026-08-30 12:44:29 | 48.20634 | 17.07191 | 358° | 13km/h | 22074m | 6.2m/s | 0°C | 0% | 0hPa | 0V | 00:00:00 | 00:00:00 | 00:00:00 | |
| OE5DXL-15 | 2026-08-30 12:44:23 | 48.20620 | 17.07188 | 30° | 18km/h | 22041m | 6.7m/s | 0°C | 0% | 0hPa | 0V | 00:00:00 | 00:00:00 | 00:00:00 | |
| OE5MMP-10 | 2026-08-30 12:44:22 | 48.20617 | 17.07185 | 43° | 16km/h | 22035m | 4.5m/s | 0°C | 0% | 0hPa | 0V | 00:00:00 | 00:00:00 | 00:00:00 | |
| OE3OSB-13 | 2026-08-30 12:44:11 | 48.20567 | 17.07178 | 4° | 15km/h | 21969m | 4.1m/s | -53.2°C | 0.0% | 39.4hPa | 0V | 00:00:00 | 00:00:00 | 00:00:00 | |
| OE5MMP-10 | 2026-08-30 12:44:10 | 48.20567 | 17.07178 | 5° | 18km/h | 21969m | 4.0m/s | 0°C | 0% | 0hPa | 0V | 00:00:00 | 00:00:00 | 00:00:00 | |
| PETON7-10 | 2026-08-30 12:44:08 | 48.20560 | 17.07181 | 338° | 20km/h | 21959m | 5.0m/s | 0°C | 0% | 0hPa | 0V | 00:00:00 | 00:00:00 | 00:00:00 | |
| OE3JTB-15 | 2026-08-30 12:44:02 | 48.20531 | 17.07185 | 334° | 16km/h | 21928m | 5.1m/s | 0°C | 0% | 0hPa | 0V | 00:00:00 | 00:00:00 | 00:00:00 | |
| OE5MMP-10 | 2026-08-30 12:44:00 | 48.20521 | 17.07192 | 342° | 18km/h | 21918m | 6.1m/s | 0°C | 0% | 0hPa | 0V | 00:00:00 | 00:00:00 | 00:00:00 | |
| OE5DXL-15 | 2026-08-30 12:43:53 | 48.20489 | 17.07194 | 2° | 16km/h | 21879m | 4.3m/s | 0°C | 0% | 0hPa | 0V | 00:00:00 | 00:00:00 | 00:00:00 | |
| PETON7-10 | 2026-08-30 12:43:50 | 48.20475 | 17.07202 | 318° | 16km/h | 21864m | 3.9m/s | 0°C | 0% | 0hPa | 0V | 00:00:00 | 00:00:00 | 00:00:00 | |
| ATIDSZ-14 | 2026-08-30 12:43:47 | 48.20465 | 17.07210 | 10° | 15km/h | 21848m | 5.4m/s | 0°C | 0% | 0hPa | 0V | 00:00:00 | 00:00:00 | 00:00:00 | |
| OE3OSB-13 | 2026-08-30 12:43:40 | 48.20439 | 17.07228 | 326° | 26km/h | 21806m | 5.6m/s | -53.4°C | 0.0% | 40.5hPa | 0V | 00:00:00 | 00:00:00 | 00:00:00 | |
| OE5MMP-10 | 2026-08-30 12:43:38 | 48.20434 | 17.07232 | 324° | 16km/h | 21801m | 5.2m/s | 0°C | 0% | 0hPa | 0V | 00:00:00 | 00:00:00 | 00:00:00 | |
| PETON7-10 | 2026-08-30 12:43:35 | 48.20425 | 17.07235 | 36° | 15km/h | 21784m | 4.4m/s | 0°C | 0% | 0hPa | 0V | 00:00:00 | 00:00:00 | 00:00:00 | |
| OE3JTB-15 | 2026-08-30 12:43:33 | 48.20422 | 17.07235 | 295° | 13km/h | 21774m | 5.6m/s | 0°C | 0% | 0hPa | 0V | 00:00:00 | 00:00:00 | 00:00:00 | |
| ATIDSZ-14 | 2026-08-30 12:43:26 | 48.20397 | 17.07272 | 334° | 15km/h | 21736m | 6.5m/s | 0°C | 0% | 0hPa | 0V | 00:00:00 | 00:00:00 | 00:00:00 | |
| OE5MMP-10 | 2026-08-30 12:43:25 | 48.20394 | 17.07273 | 6° | 15km/h | 21729m | 5.9m/s | 0°C | 0% | 0hPa | 0V | 00:00:00 | 00:00:00 | 00:00:00 | |
| OE5DXL-15 | 2026-08-30 12:43:23 | 48.20392 | 17.07273 | 286° | 9km/h | 21718m | 7.3m/s | 0°C | 0% | 0hPa | 0V | 00:00:00 | 00:00:00 | 00:00:00 | |
| PETON7-10 | 2026-08-30 12:43:20 | 48.20390 | 17.07286 | 302° | 11km/h | 21699m | 6.1m/s | 0°C | 0% | 0hPa | 0V | 00:00:00 | 00:00:00 | 00:00:00 | |
| OE5MMP-10 | 2026-08-30 12:43:15 | 48.20380 | 17.07312 | 321° | 9km/h | 21673m | 6.8m/s | 0°C | 0% | 0hPa | 0V | 00:00:00 | 00:00:00 | 00:00:00 | |
| OE3OSB-13 | 2026-08-30 12:43:09 | 48.20373 | 17.07334 | 318° | 11km/h | 21635m | 3.9m/s | -53.8°C | 0.0% | 41.7hPa | 0V | 00:00:00 | 00:00:00 | 00:00:00 | |
| ATIDSZ-14 | 2026-08-30 12:43:06 | 48.20370 | 17.07339 | 313° | 5km/h | 21627m | 5.7m/s | 0°C | 0% | 0hPa | 0V | 00:00:00 | 00:00:00 | 00:00:00 | |
| OE5MMP-10 | 2026-08-30 12:43:05 | 48.20369 | 17.07341 | 271° | 5km/h | 21621m | 5.7m/s | 0°C | 0% | 0hPa | 0V | 00:00:00 | 00:00:00 | 00:00:00 | |
| PG1ADW-2 | 2026-08-30 12:43:04 | 48.20369 | 17.07346 | 322° | 7km/h | 21604m | 6.3m/s | 0°C | 0% | 0hPa | 0V | 00:00:00 | 00:00:00 | 00:00:00 | |
| OE5MMP-10 | 2026-08-30 12:42:55 | 48.20367 | 17.07359 | 300° | 11km/h | 21565m | 5.2m/s | 0°C | 0% | 0hPa | 0V | 00:00:00 | 00:00:00 | 00:00:00 | |
| OE5DXL-15 | 2026-08-30 12:42:53 | 48.20366 | 17.07367 | 276° | 7km/h | 21553m | 4.2m/s | 0°C | 0% | 0hPa | 0V | 00:00:00 | 00:00:00 | 00:00:00 | |
| PETON7-10 | 2026-08-30 12:42:49 | 48.20359 | 17.07387 | 274° | 7km/h | 21534m | 6.0m/s | 0°C | 0% | 0hPa | 0V | 00:00:00 | 00:00:00 | 00:00:00 | |
| ATIDSZ-14 | 2026-08-30 12:42:46 | 48.20363 | 17.07388 | 119° | 5km/h | 21517m | 6.3m/s | 0°C | 0% | 0hPa | 0V | 00:00:00 | 00:00:00 | 00:00:00 | |
| OE5MMP-10 | 2026-08-30 12:42:45 | 48.20363 | 17.07385 | 82° | 5km/h | 21510m | 6.0m/s | 0°C | 0% | 0hPa | 0V | 00:00:00 | 00:00:00 | 00:00:00 | |
| OE3OSB-13 | 2026-08-30 12:42:38 | 48.20357 | 17.07396 | 254° | 5km/h | 21466m | 5.0m/s | -54.1°C | 0.0% | 42.9hPa | 0V | 00:00:00 | 00:00:00 | 00:00:00 | |
| OE5MMP-10 | 2026-08-30 12:42:35 | 48.20357 | 17.07398 | 263° | 5km/h | 21457m | 6.4m/s | 0°C | 0% | 0hPa | 0V | 00:00:00 | 00:00:00 | 00:00:00 | |
| PETON7-10 | 2026-08-30 12:42:34 | 48.20357 | 17.07399 | 316° | 9km/h | 21452m | 4.5m/s | 0°C | 0% | 0hPa | 0V | 00:00:00 | 00:00:00 | 00:00:00 | |
| OE5MMP-10 | 2026-08-30 12:42:24 | 48.20366 | 17.07424 | 280° | 11km/h | 21394m | 6.3m/s | 0°C | 0% | 0hPa | 0V | 00:00:00 | 00:00:00 | 00:00:00 | |
| OE5DXL-15 | 2026-08-30 12:42:23 | 48.20365 | 17.07429 | 294° | 9km/h | 21389m | 4.4m/s | 0°C | 0% | 0hPa | 0V | 00:00:00 | 00:00:00 | 00:00:00 | |
| PETON7-10 | 2026-08-30 12:42:19 | 48.20368 | 17.07439 | 196° | 7km/h | 21367m | 7.0m/s | 0°C | 0% | 0hPa | 0V | 00:00:00 | 00:00:00 | 00:00:00 | |
| OE5MMP-10 | 2026-08-30 12:42:14 | 48.20375 | 17.07454 | 254° | 7km/h | 21340m | 5.9m/s | 0°C | 0% | 0hPa | 0V | 00:00:00 | 00:00:00 | 00:00:00 | |
| OE3JTB-15 | 2026-08-30 12:42:07 | 48.20380 | 17.07470 | 280° | 7km/h | 21294m | 5.3m/s | 0°C | 0% | 0hPa | 0V | 00:00:00 | 00:00:00 | 00:00:00 | |
| OE5MMP-10 | 2026-08-30 12:42:04 | 48.20382 | 17.07475 | 242° | 9km/h | 21283m | 4.4m/s | 0°C | 0% | 0hPa | 0V | 00:00:00 | 00:00:00 | 00:00:00 | |
| ATIDSZ-14 | 2026-08-30 12:42:03 | 48.20382 | 17.07477 | 261° | 7km/h | 21277m | 5.4m/s | 0°C | 0% | 0hPa | 0V | 00:00:00 | 00:00:00 | 00:00:00 | |
| OE5MMP-10 | 2026-08-30 12:41:54 | 48.20376 | 17.07470 | 89° | 9km/h | 21228m | 6.3m/s | 0°C | 0% | 0hPa | 0V | 00:00:00 | 00:00:00 | 00:00:00 | |
| OE5DXL-15 | 2026-08-30 12:41:53 | 48.20377 | 17.07467 | 152° | 9km/h | 21223m | 5.4m/s | 0°C | 0% | 0hPa | 0V | 00:00:00 | 00:00:00 | 00:00:00 | |
| PETON7-10 | 2026-08-30 12:41:49 | 48.20377 | 17.07469 | 35° | 7km/h | 21202m | 3.9m/s | 0°C | 0% | 0hPa | 0V | 00:00:00 | 00:00:00 | 00:00:00 | |
| OE5MMP-10 | 2026-08-30 12:41:43 | 48.20367 | 17.07456 | 2° | 5km/h | 21170m | 4.4m/s | 0°C | 0% | 0hPa | 0V | 00:00:00 | 00:00:00 | 00:00:00 | |
| PG1ADW-2 | 2026-08-30 12:41:39 | 48.20365 | 17.07453 | 62° | 13km/h | 21150m | 5.3m/s | 0°C | 0% | 0hPa | 0V | 00:00:00 | 00:00:00 | 00:00:00 | |
| OE3JTB-15 | 2026-08-30 12:41:37 | 48.20363 | 17.07449 | 61° | 9km/h | 21140m | 5.2m/s | 0°C | 0% | 0hPa | 0V | 00:00:00 | 00:00:00 | 00:00:00 | |
| OE3OSB-13 | 2026-08-30 12:41:36 | 48.20362 | 17.07443 | 70° | 7km/h | 21128m | 4.1m/s | -54.5°C | 0.0% | 45.5hPa | 0V | 00:00:00 | 00:00:00 | 00:00:00 | |
| PETON7-10 | 2026-08-30 12:41:34 | 48.20360 | 17.07441 | 15° | 13km/h | 21123m | 5.5m/s | 0°C | 0% | 0hPa | 0V | 00:00:00 | 00:00:00 | 00:00:00 | |
| OE5MMP-10 | 2026-08-30 12:41:33 | 48.20357 | 17.07440 | 355° | 13km/h | 21117m | 6.0m/s | 0°C | 0% | 0hPa | 0V | 00:00:00 | 00:00:00 | 00:00:00 | |
| ATIDSZ-14 | 2026-08-30 12:41:23 | 48.20329 | 17.07427 | 9° | 9km/h | 21065m | 4.4m/s | 0°C | 0% | 0hPa | 0V | 00:00:00 | 00:00:00 | 00:00:00 | |
| PETON7-10 | 2026-08-30 12:41:19 | 48.20319 | 17.07431 | 17° | 5km/h | 21043m | 6.5m/s | 0°C | 0% | 0hPa | 0V | 00:00:00 | 00:00:00 | 00:00:00 | |
| OE5MMP-10 | 2026-08-30 12:41:13 | 48.20312 | 17.07418 | 97° | 5km/h | 21010m | 3.3m/s | 0°C | 0% | 0hPa | 0V | 00:00:00 | 00:00:00 | 00:00:00 | |
| OE3JTB-15 | 2026-08-30 12:41:08 | 48.20304 | 17.07417 | 101° | 5km/h | 20984m | 5.9m/s | 0°C | 0% | 0hPa | 0V | 00:00:00 | 00:00:00 | 00:00:00 | |
| OE3OSB-13 | 2026-08-30 12:41:05 | 48.20306 | 17.07414 | 141° | 4km/h | 20961m | 6.4m/s | -54.2°C | 0.0% | 46.8hPa | 0V | 00:00:00 | 00:00:00 | 00:00:00 | |
| OE5MMP-10 | 2026-08-30 12:41:03 | 48.20307 | 17.07413 | 145° | 5km/h | 20955m | 6.4m/s | 0°C | 0% | 0hPa | 0V | 00:00:00 | 00:00:00 | 00:00:00 | |
| ATIDSZ-14 | 2026-08-30 12:41:02 | 48.20308 | 17.07411 | 141° | 4km/h | 20950m | 5.4m/s | 0°C | 0% | 0hPa | 0V | 00:00:00 | 00:00:00 | 00:00:00 | |
| OE5DXL-15 | 2026-08-30 12:40:53 | 48.20314 | 17.07416 | 194° | 9km/h | 20898m | 6.1m/s | 0°C | 0% | 0hPa | 0V | 00:00:00 | 00:00:00 | 00:00:00 | |
| OE5MMP-10 | 2026-08-30 12:40:52 | 48.20316 | 17.07415 | 153° | 7km/h | 20892m | 5.7m/s | 0°C | 0% | 0hPa | 0V | 00:00:00 | 00:00:00 | 00:00:00 | |
| PETON7-10 | 2026-08-30 12:40:45 | 48.20321 | 17.07422 | 227° | 9km/h | 20851m | 6.3m/s | 0°C | 0% | 0hPa | 0V | 00:00:00 | 00:00:00 | 00:00:00 | |
| OE5MMP-10 | 2026-08-30 12:40:42 | 48.20327 | 17.07428 | 194° | 9km/h | 20835m | 6.0m/s | 0°C | 0% | 0hPa | 0V | 00:00:00 | 00:00:00 | 00:00:00 | |
| OE3JTB-15 | 2026-08-30 12:40:39 | 48.20336 | 17.07443 | 256° | 9km/h | 20809m | 6.2m/s | 0°C | 0% | 0hPa | 0V | 00:00:00 | 00:00:00 | 00:00:00 | |
| OE3OSB-13 | 2026-08-30 12:40:34 | 48.20336 | 17.07453 | 287° | 5km/h | 20787m | 4.7m/s | -54.0°C | 0.0% | 48.2hPa | 0V | 00:00:00 | 00:00:00 | 00:00:00 | |
| OE5MMP-10 | 2026-08-30 12:40:32 | 48.20336 | 17.07454 | 192° | 9km/h | 20782m | 5.3m/s | 0°C | 0% | 0hPa | 0V | 00:00:00 | 00:00:00 | 00:00:00 | |
| PETON7-10 | 2026-08-30 12:40:30 | 48.20341 | 17.07453 | 173° | 9km/h | 20771m | 3.9m/s | 0°C | 0% | 0hPa | 0V | 00:00:00 | 00:00:00 | 00:00:00 | |
| OE5DXL-15 | 2026-08-30 12:40:24 | 48.20344 | 17.07463 | 352° | 11km/h | 20735m | 5.7m/s | 0°C | 0% | 0hPa | 0V | 00:00:00 | 00:00:00 | 00:00:00 | |
| OE5MMP-10 | 2026-08-30 12:40:22 | 48.20342 | 17.07463 | 334° | 7km/h | 20730m | 4.6m/s | 0°C | 0% | 0hPa | 0V | 00:00:00 | 00:00:00 | 00:00:00 | |
| PETON7-10 | 2026-08-30 12:40:14 | 48.20341 | 17.07468 | 352° | 11km/h | 20690m | 6.2m/s | 0°C | 0% | 0hPa | 0V | 00:00:00 | 00:00:00 | 00:00:00 | |
| OE5MMP-10 | 2026-08-30 12:40:11 | 48.20337 | 17.07463 | 116° | 15km/h | 20673m | 6.0m/s | 0°C | 0% | 0hPa | 0V | 00:00:00 | 00:00:00 | 00:00:00 | |
| OE3JTB-15 | 2026-08-30 12:40:09 | 48.20334 | 17.07458 | 10° | 16km/h | 20652m | 5.8m/s | 0°C | 0% | 0hPa | 0V | 00:00:00 | 00:00:00 | 00:00:00 | |
| ATIDSZ-14 | 2026-08-30 12:40:01 | 48.20309 | 17.07458 | 24° | 11km/h | 20619m | 6.0m/s | 0°C | 0% | 0hPa | 0V | 00:00:00 | 00:00:00 | 00:00:00 | |
| OE5MMP-10 | 2026-08-30 12:40:00 | 48.20307 | 17.07456 | 29° | 15km/h | 20613m | 6.1m/s | 0°C | 0% | 0hPa | 0V | 00:00:00 | 00:00:00 | 00:00:00 | |
| PETON7-10 | 2026-08-30 12:39:59 | 48.20306 | 17.07456 | 71° | 16km/h | 20608m | 4.2m/s | 0°C | 0% | 0hPa | 0V | 00:00:00 | 00:00:00 | 00:00:00 | |
| OE5DXL-15 | 2026-08-30 12:39:53 | 48.20290 | 17.07444 | 355° | 20km/h | 20577m | 4.2m/s | 0°C | 0% | 0hPa | 0V | 00:00:00 | 00:00:00 | 00:00:00 | |
| OE5MMP-10 | 2026-08-30 12:39:50 | 48.20278 | 17.07440 | 36° | 20km/h | 20561m | 4.7m/s | 0°C | 0% | 0hPa | 0V | 00:00:00 | 00:00:00 | 00:00:00 | |
| PETON7-10 | 2026-08-30 12:39:44 | 48.20254 | 17.07416 | 23° | 26km/h | 20528m | 6.9m/s | 0°C | 0% | 0hPa | 0V | 00:00:00 | 00:00:00 | 00:00:00 | |
| ATIDSZ-14 | 2026-08-30 12:39:41 | 48.20236 | 17.07415 | 360° | 26km/h | 20512m | 5.1m/s | 0°C | 0% | 0hPa | 0V | 00:00:00 | 00:00:00 | 00:00:00 | |
| OE3JTB-15 | 2026-08-30 12:39:40 | 48.20219 | 17.07414 | 2° | 18km/h | 20496m | 6.4m/s | 0°C | 0% | 0hPa | 0V | 00:00:00 | 00:00:00 | 00:00:00 | |
| OE3OSB-13 | 2026-08-30 12:39:32 | 48.20188 | 17.07409 | 337° | 16km/h | 20458m | 4.3m/s | -53.4°C | 0.0% | 51.0hPa | 0V | 00:00:00 | 00:00:00 | 00:00:00 | |
| OE5MMP-10 | 2026-08-30 12:39:30 | 48.20184 | 17.07412 | 344° | 15km/h | 20453m | 5.3m/s | 0°C | 0% | 0hPa | 0V | 00:00:00 | 00:00:00 | 00:00:00 | |
| PETON7-10 | 2026-08-30 12:39:29 | 48.20179 | 17.07413 | 353° | 15km/h | 20448m | 5.0m/s | 0°C | 0% | 0hPa | 0V | 00:00:00 | 00:00:00 | 00:00:00 | |
| OE5DXL-15 | 2026-08-30 12:39:22 | 48.20147 | 17.07412 | 9° | 15km/h | 20410m | 6.6m/s | 0°C | 0% | 0hPa | 0V | 00:00:00 | 00:00:00 | 00:00:00 | |
| ATIDSZ-14 | 2026-08-30 12:39:21 | 48.20144 | 17.07412 | 340° | 13km/h | 20404m | 5.5m/s | 0°C | 0% | 0hPa | 0V | 00:00:00 | 00:00:00 | 00:00:00 | |
| OE5MMP-10 | 2026-08-30 12:39:20 | 48.20141 | 17.07414 | 335° | 15km/h | 20398m | 4.6m/s | 0°C | 0% | 0hPa | 0V | 00:00:00 | 00:00:00 | 00:00:00 | |
| PETON7-10 | 2026-08-30 12:39:12 | 48.20115 | 17.07423 | 30° | 16km/h | 20358m | 4.4m/s | 0°C | 0% | 0hPa | 0V | 00:00:00 | 00:00:00 | 00:00:00 | |
| OE3JTB-15 | 2026-08-30 12:39:10 | 48.20098 | 17.07427 | 4° | 16km/h | 20330m | 4.4m/s | 0°C | 0% | 0hPa | 0V | 00:00:00 | 00:00:00 | 00:00:00 | |
| ATIDSZ-14 | 2026-08-30 12:39:00 | 48.20070 | 17.07413 | 19° | 15km/h | 20292m | 6.3m/s | 0°C | 0% | 0hPa | 0V | 00:00:00 | 00:00:00 | 00:00:00 | |
| OE5MMP-10 | 2026-08-30 12:38:59 | 48.20066 | 17.07413 | 351° | 15km/h | 20287m | 5.6m/s | 0°C | 0% | 0hPa | 0V | 00:00:00 | 00:00:00 | 00:00:00 | |
| PETON7-10 | 2026-08-30 12:38:55 | 48.20067 | 17.07414 | 357° | 13km/h | 20265m | 5.9m/s | 0°C | 0% | 0hPa | 0V | 00:00:00 | 00:00:00 | 00:00:00 | |
| OE5DXL-15 | 2026-08-30 12:38:52 | 48.20038 | 17.07417 | 2° | 13km/h | 20250m | 5.7m/s | 0°C | 0% | 0hPa | 0V | 00:00:00 | 00:00:00 | 00:00:00 | |
| OE5MMP-10 | 2026-08-30 12:38:47 | 48.20023 | 17.07417 | 335° | 11km/h | 20224m | 4.0m/s | 0°C | 0% | 0hPa | 0V | 00:00:00 | 00:00:00 | 00:00:00 | |
| PETON7-10 | 2026-08-30 12:38:40 | 48.20003 | 17.07432 | 345° | 15km/h | 20185m | 3.6m/s | 0°C | 0% | 0hPa | 0V | 00:00:00 | 00:00:00 | 00:00:00 | |
| ATIDSZ-14 | 2026-08-30 12:38:39 | 48.20000 | 17.07434 | 324° | 9km/h | 20181m | 5.3m/s | 0°C | 0% | 0hPa | 0V | 00:00:00 | 00:00:00 | 00:00:00 | |
| OE5MMP-10 | 2026-08-30 12:38:37 | 48.19999 | 17.07439 | 274° | 13km/h | 20170m | 4.0m/s | 0°C | 0% | 0hPa | 0V | 00:00:00 | 00:00:00 | 00:00:00 | |
| OE3OSB-13 | 2026-08-30 12:38:29 | 48.19978 | 17.07479 | 321° | 9km/h | 20124m | 4.0m/s | -53.7°C | 0.0% | 54.0hPa | 0V | 00:00:00 | 00:00:00 | 00:00:00 | |
| OE5MMP-10 | 2026-08-30 12:38:27 | 48.19976 | 17.07482 | 295° | 13km/h | 20119m | 6.5m/s | 0°C | 0% | 0hPa | 0V | 00:00:00 | 00:00:00 | 00:00:00 | |
| PETON7-10 | 2026-08-30 12:38:25 | 48.19976 | 17.07489 | 265° | 11km/h | 20108m | 4.9m/s | 0°C | 0% | 0hPa | 0V | 00:00:00 | 00:00:00 | 00:00:00 | |
| OE5DXL-15 | 2026-08-30 12:38:22 | 48.19975 | 17.07499 | 281° | 9km/h | 20092m | 6.4m/s | 0°C | 0% | 0hPa | 0V | 00:00:00 | 00:00:00 | 00:00:00 | |
| ATIDSZ-14 | 2026-08-30 12:38:18 | 48.19972 | 17.07521 | 294° | 9km/h | 20070m | 5.6m/s | 0°C | 0% | 0hPa | 0V | 00:00:00 | 00:00:00 | 00:00:00 | |
| OE5MMP-10 | 2026-08-30 12:38:17 | 48.19971 | 17.07525 | 275° | 9km/h | 20065m | 5.0m/s | 0°C | 0% | 0hPa | 0V | 00:00:00 | 00:00:00 | 00:00:00 | |
| PETON7-10 | 2026-08-30 12:38:10 | 48.19975 | 17.07550 | 273° | 5km/h | 20029m | 4.8m/s | 0°C | 0% | 0hPa | 0V | 00:00:00 | 00:00:00 | 00:00:00 | |
| OE5MMP-10 | 2026-08-30 12:38:07 | 48.19974 | 17.07558 | 221° | 4km/h | 20014m | 3.8m/s | 0°C | 0% | 0hPa | 0V | 00:00:00 | 00:00:00 | 00:00:00 | |
| ATIDSZ-14 | 2026-08-30 12:37:58 | 48.19977 | 17.07572 | 92° | 2km/h | 19968m | 6.6m/s | 0°C | 0% | 0hPa | 0V | 00:00:00 | 00:00:00 | 00:00:00 | |
| OE5MMP-10 | 2026-08-30 12:37:57 | 48.19977 | 17.07570 | 84° | 9km/h | 19962m | 5.2m/s | 0°C | 0% | 0hPa | 0V | 00:00:00 | 00:00:00 | 00:00:00 | |
| PETON7-10 | 2026-08-30 12:37:55 | 48.19978 | 17.07565 | 151° | 11km/h | 19952m | 6.9m/s | 0°C | 0% | 0hPa | 0V | 00:00:00 | 00:00:00 | 00:00:00 | |
| OE5DXL-15 | 2026-08-30 12:37:52 | 48.19983 | 17.07563 | 91° | 11km/h | 19937m | 6.0m/s | 0°C | 0% | 0hPa | 0V | 00:00:00 | 00:00:00 | 00:00:00 | |
| OE3JTB-15 | 2026-08-30 12:37:47 | 48.19967 | 17.07562 | 54° | 13km/h | 19904m | 4.5m/s | 0°C | 0% | 0hPa | 0V | 00:00:00 | 00:00:00 | 00:00:00 | |
| PETON7-10 | 2026-08-30 12:37:40 | 48.19962 | 17.07537 | 30° | 11km/h | 19875m | 4.3m/s | 0°C | 0% | 0hPa | 0V | 00:00:00 | 00:00:00 | 00:00:00 | |
| ATIDSZ-14 | 2026-08-30 12:37:38 | 48.19955 | 17.07534 | 360° | 13km/h | 19864m | 4.6m/s | 0°C | 0% | 0hPa | 0V | 00:00:00 | 00:00:00 | 00:00:00 | |
| OE5MMP-10 | 2026-08-30 12:37:37 | 48.19953 | 17.07534 | 359° | 11km/h | 19859m | 5.9m/s | 0°C | 0% | 0hPa | 0V | 00:00:00 | 00:00:00 | 00:00:00 | |
| OE5MMP-10 | 2026-08-30 12:37:27 | 48.19940 | 17.07519 | 48° | 13km/h | 19808m | 3.7m/s | 0°C | 0% | 0hPa | 0V | 00:00:00 | 00:00:00 | 00:00:00 | |
| PETON7-10 | 2026-08-30 12:37:25 | 48.19938 | 17.07511 | 87° | 16km/h | 19799m | 5.5m/s | 0°C | 0% | 0hPa | 0V | 00:00:00 | 00:00:00 | 00:00:00 | |
| OE5DXL-15 | 2026-08-30 12:37:22 | 48.19941 | 17.07496 | 134° | 16km/h | 19782m | 4.2m/s | 0°C | 0% | 0hPa | 0V | 00:00:00 | 00:00:00 | 00:00:00 | |
| OE5MMP-10 | 2026-08-30 12:37:17 | 48.19947 | 17.07470 | 104° | 15km/h | 19757m | 4.4m/s | 0°C | 0% | 0hPa | 0V | 00:00:00 | 00:00:00 | 00:00:00 | |
| OE3JTB-15 | 2026-08-30 12:37:10 | 48.19954 | 17.07413 | 82° | 15km/h | 19715m | 3.8m/s | 0°C | 0% | 0hPa | 0V | 00:00:00 | 00:00:00 | 00:00:00 | |
| OE5MMP-10 | 2026-08-30 12:37:07 | 48.19953 | 17.07408 | 76° | 15km/h | 19710m | 5.0m/s | 0°C | 0% | 0hPa | 0V | 00:00:00 | 00:00:00 | 00:00:00 | |
| OE3OSB-13 | 2026-08-30 12:36:56 | 48.19943 | 17.07348 | 50° | 13km/h | 19649m | 3.9m/s | -54.8°C | 0.0% | 58.5hPa | 0V | 00:00:00 | 00:00:00 | 00:00:00 | |
| PETON7-10 | 2026-08-30 12:36:54 | 48.19941 | 17.07343 | 66° | 20km/h | 19646m | 3.7m/s | 0°C | 0% | 0hPa | 0V | 00:00:00 | 00:00:00 | 00:00:00 | |
| OE5DXL-15 | 2026-08-30 12:36:52 | 48.19937 | 17.07327 | 73° | 18km/h | 19635m | 5.1m/s | 0°C | 0% | 0hPa | 0V | 00:00:00 | 00:00:00 | 00:00:00 | |
| OE5MMP-10 | 2026-08-30 12:36:46 | 48.19929 | 17.07289 | 83° | 20km/h | 19608m | 4.6m/s | 0°C | 0% | 0hPa | 0V | 00:00:00 | 00:00:00 | 00:00:00 | |
| PETON7-10 | 2026-08-30 12:36:39 | 48.19902 | 17.07240 | 58° | 16km/h | 19575m | 3.9m/s | 0°C | 0% | 0hPa | 0V | 00:00:00 | 00:00:00 | 00:00:00 | |
| ATIDSZ-14 | 2026-08-30 12:36:37 | 48.19895 | 17.07229 | 39° | 18km/h | 19565m | 6.2m/s | 0°C | 0% | 0hPa | 0V | 00:00:00 | 00:00:00 | 00:00:00 | |
| OE5MMP-10 | 2026-08-30 12:36:34 | 48.19886 | 17.07217 | 46° | 15km/h | 19549m | 4.9m/s | 0°C | 0% | 0hPa | 0V | 00:00:00 | 00:00:00 | 00:00:00 | |
| OE3OSB-13 | 2026-08-30 12:36:25 | 48.19865 | 17.07174 | 76° | 9km/h | 19497m | 5.6m/s | -55.2°C | 0.0% | 60.0hPa | 0V | 00:00:00 | 00:00:00 | 00:00:00 | |
| OE5MMP-10 | 2026-08-30 12:36:24 | 48.19865 | 17.07174 | 77° | 11km/h | 19497m | 5.6m/s | 0°C | 0% | 0hPa | 0V | 00:00:00 | 00:00:00 | 00:00:00 | |
| OE5DXL-15 | 2026-08-30 12:36:22 | 48.19863 | 17.07169 | 37° | 11km/h | 19488m | 6.8m/s | 0°C | 0% | 0hPa | 0V | 00:00:00 | 00:00:00 | 00:00:00 | |
| OE3JTB-15 | 2026-08-30 12:36:21 | 48.19858 | 17.07157 | 97° | 11km/h | 19468m | 4.4m/s | 0°C | 0% | 0hPa | 0V | 00:00:00 | 00:00:00 | 00:00:00 | |
| ATIDSZ-14 | 2026-08-30 12:36:16 | 48.19857 | 17.07149 | 59° | 13km/h | 19457m | 5.5m/s | 0°C | 0% | 0hPa | 0V | 00:00:00 | 00:00:00 | 00:00:00 | |
| OE5MMP-10 | 2026-08-30 12:36:13 | 48.19852 | 17.07138 | 68° | 13km/h | 19442m | 3.7m/s | 0°C | 0% | 0hPa | 0V | 00:00:00 | 00:00:00 | 00:00:00 | |
| PETON7-10 | 2026-08-30 12:36:09 | 48.19846 | 17.07126 | 91° | 11km/h | 19420m | 6.5m/s | 0°C | 0% | 0hPa | 0V | 00:00:00 | 00:00:00 | 00:00:00 | |
| OE5MMP-10 | 2026-08-30 12:36:03 | 48.19850 | 17.07098 | 110° | 11km/h | 19388m | 5.4m/s | 0°C | 0% | 0hPa | 0V | 00:00:00 | 00:00:00 | 00:00:00 | |
| OE3OSB-13 | 2026-08-30 12:35:54 | 48.19849 | 17.07061 | 88° | 15km/h | 19338m | 5.7m/s | -54.8°C | 0.0% | 61.6hPa | 0V | 00:00:00 | 00:00:00 | 00:00:00 | |
| OE5DXL-15 | 2026-08-30 12:35:52 | 48.19849 | 17.07056 | 86° | 13km/h | 19332m | 5.7m/s | 0°C | 0% | 0hPa | 0V | 00:00:00 | 00:00:00 | 00:00:00 | |
| OE3JTB-15 | 2026-08-30 12:35:48 | 48.19839 | 17.07033 | 66° | 11km/h | 19308m | 6.4m/s | 0°C | 0% | 0hPa | 0V | 00:00:00 | 00:00:00 | 00:00:00 | |
| OE5MMP-10 | 2026-08-30 12:35:42 | 48.19836 | 17.07006 | 81° | 11km/h | 19283m | 6.2m/s | 0°C | 0% | 0hPa | 0V | 00:00:00 | 00:00:00 | 00:00:00 | |
| PETON7-10 | 2026-08-30 12:35:39 | 48.19834 | 17.06998 | 39° | 13km/h | 19268m | 6.4m/s | 0°C | 0% | 0hPa | 0V | 00:00:00 | 00:00:00 | 00:00:00 | |
| ATIDSZ-14 | 2026-08-30 12:35:35 | 48.19824 | 17.06988 | 59° | 7km/h | 19246m | 3.2m/s | 0°C | 0% | 0hPa | 0V | 00:00:00 | 00:00:00 | 00:00:00 | |
| OE5MMP-10 | 2026-08-30 12:35:31 | 48.19819 | 17.06973 | 82° | 16km/h | 19228m | 5.3m/s | 0°C | 0% | 0hPa | 0V | 00:00:00 | 00:00:00 | 00:00:00 | |
| PETON7-10 | 2026-08-30 12:35:25 | 48.19802 | 17.06953 | 60° | 16km/h | 19197m | 6.0m/s | 0°C | 0% | 0hPa | 0V | 00:00:00 | 00:00:00 | 00:00:00 | |
| OE5MMP-10 | 2026-08-30 12:35:20 | 48.19791 | 17.06926 | 32° | 16km/h | 19177m | 5.3m/s | 0°C | 0% | 0hPa | 0V | 00:00:00 | 00:00:00 | 00:00:00 | |
| OE3JTB-15 | 2026-08-30 12:35:16 | 48.19771 | 17.06918 | 354° | 53km/h | 19145m | 4.7m/s | 0°C | 0% | 0hPa | 0V | 00:00:00 | 00:00:00 | 00:00:00 | |
| ATIDSZ-14 | 2026-08-30 12:35:14 | 48.19771 | 17.06918 | 355° | 13km/h | 19145m | 4.7m/s | 0°C | 0% | 0hPa | 0V | 00:00:00 | 00:00:00 | 00:00:00 | |
| PG1ADW-2 | 2026-08-30 12:35:11 | 48.19760 | 17.06910 | 39° | 16km/h | 19131m | 2.8m/s | 0°C | 0% | 0hPa | 0V | 00:00:00 | 00:00:00 | 00:00:00 | |
| OE5MMP-10 | 2026-08-30 12:35:10 | 48.19756 | 17.06906 | 27° | 15km/h | 19127m | 6.2m/s | 0°C | 0% | 0hPa | 0V | 00:00:00 | 00:00:00 | 00:00:00 | |
| PETON7-10 | 2026-08-30 12:35:09 | 48.19750 | 17.06903 | 13° | 9km/h | 19121m | 4.7m/s | 0°C | 0% | 0hPa | 0V | 00:00:00 | 00:00:00 | 00:00:00 | |
| OE5MMP-10 | 2026-08-30 12:35:00 | 48.19730 | 17.06901 | 10° | 9km/h | 19077m | 3.7m/s | 0°C | 0% | 0hPa | 0V | 00:00:00 | 00:00:00 | 00:00:00 | |
| OE3OSB-13 | 2026-08-30 12:34:52 | 48.19711 | 17.06904 | 323° | 7km/h | 19027m | 4.7m/s | -54.4°C | 0.0% | 64.9hPa | 0V | 00:00:00 | 00:00:00 | 00:00:00 | |
| OE5MMP-10 | 2026-08-30 12:34:50 | 48.19710 | 17.06906 | 346° | 9km/h | 19022m | 6.5m/s | 0°C | 0% | 0hPa | 0V | 00:00:00 | 00:00:00 | 00:00:00 | |
| OE5MMP-10 | 2026-08-30 12:34:38 | 48.19690 | 17.06930 | 338° | 15km/h | 18956m | 4.7m/s | 0°C | 0% | 0hPa | 0V | 00:00:00 | 00:00:00 | 00:00:00 | |
| PETON7-10 | 2026-08-30 12:34:37 | 48.19686 | 17.06933 | 329° | 11km/h | 18950m | 6.7m/s | 0°C | 0% | 0hPa | 0V | 00:00:00 | 00:00:00 | 00:00:00 | |
| ATIDSZ-14 | 2026-08-30 12:34:31 | 48.19682 | 17.06962 | 258° | 18km/h | 18918m | 4.7m/s | 0°C | 0% | 0hPa | 0V | 00:00:00 | 00:00:00 | 00:00:00 | |
| OE5MMP-10 | 2026-08-30 12:34:28 | 48.19680 | 17.06976 | 332° | 11km/h | 18902m | 6.6m/s | 0°C | 0% | 0hPa | 0V | 00:00:00 | 00:00:00 | 00:00:00 | |
| OE5DXL-15 | 2026-08-30 12:34:22 | 48.19682 | 17.06982 | 214° | 9km/h | 18868m | 4.3m/s | 0°C | 0% | 0hPa | 0V | 00:00:00 | 00:00:00 | 00:00:00 | |
| OE3OSB-13 | 2026-08-30 12:34:21 | 48.19687 | 17.06994 | 252° | 16km/h | 18858m | 2.8m/s | -54.6°C | 0.0% | 66.8hPa | 0V | 00:00:00 | 00:00:00 | 00:00:00 | |
| OE5MMP-10 | 2026-08-30 12:34:18 | 48.19686 | 17.07001 | 346° | 9km/h | 18850m | 6.3m/s | 0°C | 0% | 0hPa | 0V | 00:00:00 | 00:00:00 | 00:00:00 | |
| ATIDSZ-14 | 2026-08-30 12:34:10 | 48.19686 | 17.06992 | 179° | 13km/h | 18807m | 5.1m/s | 0°C | 0% | 0hPa | 0V | 00:00:00 | 00:00:00 | 00:00:00 | |
| OE5MMP-10 | 2026-08-30 12:34:07 | 48.19693 | 17.06993 | 168° | 11km/h | 18791m | 4.5m/s | 0°C | 0% | 0hPa | 0V | 00:00:00 | 00:00:00 | 00:00:00 | |
| OE3OSB-13 | 2026-08-30 12:33:50 | 48.19715 | 17.06940 | 108° | 15km/h | 18694m | 5.5m/s | -54.2°C | 0.0% | 68.6hPa | 0V | 00:00:00 | 00:00:00 | 00:00:00 | |
| ATIDSZ-14 | 2026-08-30 12:33:49 | 48.19715 | 17.06940 | 110° | 15km/h | 18694m | 5.5m/s | 0°C | 0% | 0hPa | 0V | 00:00:00 | 00:00:00 | 00:00:00 | |
| OE5MMP-10 | 2026-08-30 12:33:46 | 48.19717 | 17.06927 | 95° | 18km/h | 18678m | 4.5m/s | 0°C | 0% | 0hPa | 0V | 00:00:00 | 00:00:00 | 00:00:00 | |
| PETON7-10 | 2026-08-30 12:33:37 | 48.19720 | 17.06866 | 100° | 24km/h | 18630m | 6.3m/s | 0°C | 0% | 0hPa | 0V | 00:00:00 | 00:00:00 | 00:00:00 | |
| OE5MMP-10 | 2026-08-30 12:33:35 | 48.19720 | 17.06853 | 88° | 26km/h | 18620m | 4.5m/s | 0°C | 0% | 0hPa | 0V | 00:00:00 | 00:00:00 | 00:00:00 | |
| ATIDSZ-14 | 2026-08-30 12:33:28 | 48.19716 | 17.06790 | 81° | 31km/h | 18583m | 4.6m/s | 0°C | 0% | 0hPa | 0V | 00:00:00 | 00:00:00 | 00:00:00 | |
| OE5MMP-10 | 2026-08-30 12:33:25 | 48.19710 | 17.06759 | 68° | 26km/h | 18567m | 4.7m/s | 0°C | 0% | 0hPa | 0V | 00:00:00 | 00:00:00 | 00:00:00 | |
| PETON7-10 | 2026-08-30 12:33:22 | 48.19706 | 17.06732 | 82° | 22km/h | 18550m | 5.6m/s | 0°C | 0% | 0hPa | 0V | 00:00:00 | 00:00:00 | 00:00:00 | |
| OE5DXL-15 | 2026-08-30 12:33:21 | 48.19705 | 17.06724 | 78° | 18km/h | 18545m | 5.8m/s | 0°C | 0% | 0hPa | 0V | 00:00:00 | 00:00:00 | 00:00:00 | |
| OE3OSB-13 | 2026-08-30 12:33:19 | 48.19700 | 17.06699 | 79° | 26km/h | 18530m | 5.5m/s | -54.4°C | 0.0% | 70.5hPa | 0V | 00:00:00 | 00:00:00 | 00:00:00 | |
| OE5MMP-10 | 2026-08-30 12:33:15 | 48.19693 | 17.06672 | 52° | 20km/h | 18516m | 5.2m/s | 0°C | 0% | 0hPa | 0V | 00:00:00 | 00:00:00 | 00:00:00 | |
| ATIDSZ-14 | 2026-08-30 12:33:08 | 48.19682 | 17.06622 | 89° | 16km/h | 18479m | 5.9m/s | !°C | 0% | 0hPa | 0V | 00:00:00 | 00:00:00 | 00:00:00 | |
| PETON7-10 | 2026-08-30 12:33:07 | 48.19682 | 17.06616 | 92° | 16km/h | 18474m | 4.9m/s | 0°C | 0% | 0hPa | 0V | 00:00:00 | 00:00:00 | 00:00:00 | |
| OE5MMP-10 | 2026-08-30 12:33:05 | 48.19682 | 17.06604 | 83° | 16km/h | 18464m | 6.2m/s | 0°C | 0% | 0hPa | 0V | 00:00:00 | 00:00:00 | 00:00:00 | |
| OE3OSB-13 | 2026-08-30 12:32:47 | 48.19662 | 17.06522 | 151° | 13km/h | 18370m | 5.0m/s | -55.1°C | 0.0% | 72.4hPa | 0V | 00:00:00 | 00:00:00 | 00:00:00 | |
| OE5MMP-10 | 2026-08-30 12:32:44 | 48.19668 | 17.06516 | 137° | 11km/h | 18361m | 5.1m/s | 0°C | 0% | 0hPa | 0V | 00:00:00 | 00:00:00 | 00:00:00 | |
| PETON7-10 | 2026-08-30 12:32:37 | 48.19665 | 17.06489 | 85° | 11km/h | 18326m | 3.7m/s | 0°C | 0% | 0hPa | 0V | 00:00:00 | 00:00:00 | 00:00:00 | |
| OE5MMP-10 | 2026-08-30 12:32:34 | 48.19669 | 17.06474 | 124° | 11km/h | 18311m | 4.3m/s | 0°C | 0% | 0hPa | 0V | 00:00:00 | 00:00:00 | 00:00:00 | |
| ATIDSZ-14 | 2026-08-30 12:32:28 | 48.19673 | 17.06462 | 77° | 9km/h | 18281m | 5.9m/s | 0°C | 0% | 0hPa | 0V | 00:00:00 | 00:00:00 | 00:00:00 | |
| OE5MMP-10 | 2026-08-30 12:32:24 | 48.19676 | 17.06441 | 136° | 13km/h | 18263m | 3.1m/s | 0°C | 0% | 0hPa | 0V | 00:00:00 | 00:00:00 | 00:00:00 | |
| PETON7-10 | 2026-08-30 12:32:22 | 48.19681 | 17.06435 | 154° | 15km/h | 18253m | 5.0m/s | 0°C | 0% | 0hPa | 0V | 00:00:00 | 00:00:00 | 00:00:00 | |
| OE5DXL-15 | 2026-08-30 12:32:21 | 48.19683 | 17.06434 | 156° | 20km/h | 18249m | 4.6m/s | 0°C | 0% | 0hPa | 0V | 00:00:00 | 00:00:00 | 00:00:00 | |
| OE3OSB-13 | 2026-08-30 12:32:16 | 48.19694 | 17.06409 | 91° | 18km/h | 18218m | 2.4m/s | -54.7°C | 0.0% | 74.2hPa | 0V | 00:00:00 | 00:00:00 | 00:00:00 | |
| OE5MMP-10 | 2026-08-30 12:32:13 | 48.19696 | 17.06392 | 107° | 22km/h | 18208m | 4.8m/s | 0°C | 0% | 0hPa | 0V | 00:00:00 | 00:00:00 | 00:00:00 | |
| PETON7-10 | 2026-08-30 12:32:08 | 48.19707 | 17.06367 | 152° | 24km/h | 18181m | 4.5m/s | 0°C | 0% | 0hPa | 0V | 00:00:00 | 00:00:00 | 00:00:00 | |
| ATIDSZ-14 | 2026-08-30 12:32:07 | 48.19707 | 17.06367 | 153° | 16km/h | 18181m | 4.5m/s | 0°C | 0% | 0hPa | 0V | 00:00:00 | 00:00:00 | 00:00:00 | |
| PG1ADW-2 | 2026-08-30 12:32:02 | 48.19719 | 17.06326 | 112° | 24km/h | 18157m | 5.5m/s | 0°C | 0% | 0hPa | 0V | 00:00:00 | 00:00:00 | 00:00:00 | |
| OE5MMP-10 | 2026-08-30 12:32:00 | 48.19726 | 17.06306 | 114° | 24km/h | 18148m | 5.7m/s | 0°C | 0% | 0hPa | 0V | 00:00:00 | 00:00:00 | 00:00:00 | |
| OE3OSB-13 | 2026-08-30 12:31:45 | 48.19756 | 17.06186 | 92° | 18km/h | 18070m | 5.3m/s | -55.1°C | 0.0% | 76.1hPa | 0V | 00:00:00 | 00:00:00 | 00:00:00 | |
| PG1ADW-2 | 2026-08-30 12:31:41 | 48.19756 | 17.06160 | 97° | 22km/h | 18054m | 4.6m/s | 0°C | 0% | 0hPa | 0V | 00:00:00 | 00:00:00 | 00:00:00 | |
| OE5MMP-10 | 2026-08-30 12:31:40 | 48.19758 | 17.06150 | 103° | 22km/h | 18051m | 2.2m/s | 0°C | 0% | 0hPa | 0V | 00:00:00 | 00:00:00 | 00:00:00 | |
| PETON7-10 | 2026-08-30 12:31:37 | 48.19758 | 17.06124 | 83° | 22km/h | 18038m | 3.5m/s | 0°C | 0% | 0hPa | 0V | 00:00:00 | 00:00:00 | 00:00:00 | |
| OE5MMP-10 | 2026-08-30 12:31:30 | 48.19755 | 17.06070 | 85° | 22km/h | 18001m | 4.3m/s | 0°C | 0% | 0hPa | 0V | 00:00:00 | 00:00:00 | 00:00:00 | |
| ATIDSZ-14 | 2026-08-30 12:31:25 | 48.19749 | 17.06027 | 81° | 24km/h | 17978m | 5.5m/s | 0°C | 0% | 0hPa | 0V | 00:00:00 | 00:00:00 | 00:00:00 | |
| OE5DXL-15 | 2026-08-30 12:31:22 | 48.19744 | 17.05999 | 65° | 26km/h | 17959m | 4.4m/s | 0°C | 0% | 0hPa | 0V | 00:00:00 | 00:00:00 | 00:00:00 | |
| OE5MMP-10 | 2026-08-30 12:31:20 | 48.19742 | 17.05991 | 71° | 27km/h | 17954m | 5.4m/s | 0°C | 0% | 0hPa | 0V | 00:00:00 | 00:00:00 | 00:00:00 | |
| OE3OSB-13 | 2026-08-30 12:31:14 | 48.19733 | 17.05922 | 79° | 24km/h | 17921m | 3.0m/s | -54.8°C | 0.0% | 78.0hPa | 0V | 00:00:00 | 00:00:00 | 00:00:00 | |
| OE5MMP-10 | 2026-08-30 12:31:10 | 48.19723 | 17.05893 | 55° | 24km/h | 17908m | 2.9m/s | 0°C | 0% | 0hPa | 0V | 00:00:00 | 00:00:00 | 00:00:00 | |
| PETON7-10 | 2026-08-30 12:31:06 | 48.19713 | 17.05853 | 69° | 22km/h | 17891m | 5.6m/s | 0°C | 0% | 0hPa | 0V | 00:00:00 | 00:00:00 | 00:00:00 | |
| ATIDSZ-14 | 2026-08-30 12:31:05 | 48.19710 | 17.05845 | 55° | 26km/h | 17886m | 5.1m/s | 0°C | 0% | 0hPa | 0V | 00:00:00 | 00:00:00 | 00:00:00 | |
| OE5MMP-10 | 2026-08-30 12:31:00 | 48.19693 | 17.05816 | 52° | 24km/h | 17863m | 5.9m/s | 0°C | 0% | 0hPa | 0V | 00:00:00 | 00:00:00 | 00:00:00 | |
| OE3OSB-13 | 2026-08-30 12:30:43 | 48.19616 | 17.05681 | 54° | 33km/h | 17776m | 4.1m/s | -55.0°C | 0.0% | 79.9hPa | 0V | 00:00:00 | 00:00:00 | 00:00:00 | |
| OE5MMP-10 | 2026-08-30 12:30:35 | 48.19585 | 17.05630 | 34° | 24km/h | 17742m | 4.9m/s | 0°C | 0% | 0hPa | 0V | 00:00:00 | 00:00:00 | 00:00:00 | |
| PETON7-10 | 2026-08-30 12:30:31 | 48.19569 | 17.05609 | 48° | 24km/h | 17724m | 5.7m/s | 0°C | 0% | 0hPa | 0V | 00:00:00 | 00:00:00 | 00:00:00 | |
| ATIDSZ-14 | 2026-08-30 12:30:24 | 48.19535 | 17.05569 | 42° | 18km/h | 17689m | 3.6m/s | 0°C | 0% | 0hPa | 0V | 00:00:00 | 00:00:00 | 00:00:00 | |
| OE5MMP-10 | 2026-08-30 12:30:22 | 48.19527 | 17.05557 | 53° | 24km/h | 17679m | 5.1m/s | 0°C | 0% | 0hPa | 0V | 00:00:00 | 00:00:00 | 00:00:00 | |
| OE5DXL-15 | 2026-08-30 12:30:21 | 48.19524 | 17.05548 | 60° | 16km/h | 17674m | 4.0m/s | 0°C | 0% | 0hPa | 0V | 00:00:00 | 00:00:00 | 00:00:00 | |
| PETON7-10 | 2026-08-30 12:30:16 | 48.19503 | 17.05506 | 36° | 18km/h | 17645m | 4.3m/s | 0°C | 0% | 0hPa | 0V | 00:00:00 | 00:00:00 | 00:00:00 | |
| OE3OSB-13 | 2026-08-30 12:30:12 | 48.19485 | 17.05490 | 38° | 22km/h | 17625m | 4.8m/s | -56.1°C | 0.0% | 81.9hPa | 0V | 00:00:00 | 00:00:00 | 00:00:00 | |
| ATIDSZ-14 | 2026-08-30 12:30:03 | 48.19453 | 17.05475 | 15° | 9km/h | 17585m | 5.0m/s | 0°C | 0% | 0hPa | 0V | 00:00:00 | 00:00:00 | 00:00:00 | |
| PETON7-10 | 2026-08-30 12:30:00 | 48.19447 | 17.05467 | 65° | 11km/h | 17570m | 4.5m/s | 0°C | 0% | 0hPa | 0V | 00:00:00 | 00:00:00 | 00:00:00 | |
| OE5MMP-10 | 2026-08-30 12:29:52 | 48.19431 | 17.05452 | 40° | 11km/h | 17529m | 4.4m/s | 0°C | 0% | 0hPa | 0V | 00:00:00 | 00:00:00 | 00:00:00 | |
| OE5DXL-15 | 2026-08-30 12:29:51 | 48.19430 | 17.05449 | 70° | 9km/h | 17524m | 5.9m/s | 0°C | 0% | 0hPa | 0V | 00:00:00 | 00:00:00 | 00:00:00 | |
| HA6NAB-11 | 2026-08-30 12:29:45 | 48.19422 | 17.05428 | 32° | 13km/h | 17495m | 4.6m/s | 0°C | 0% | 0hPa | 0V | 00:00:00 | 00:00:00 | 00:00:00 | |
| PETON7-10 | 2026-08-30 12:29:43 | 48.19418 | 17.05421 | 67° | 9km/h | 17484m | 3.8m/s | 0°C | 0% | 0hPa | 0V | 00:00:00 | 00:00:00 | 00:00:00 | |
| OE5MMP-10 | 2026-08-30 12:29:42 | 48.19417 | 17.05418 | 53° | 11km/h | 17480m | 5.0m/s | 0°C | 0% | 0hPa | 0V | 00:00:00 | 00:00:00 | 00:00:00 | |
| OE3OSB-13 | 2026-08-30 12:29:41 | 48.19414 | 17.05411 | 68° | 11km/h | 17471m | 4.0m/s | -55.6°C | 0.0% | 84.0hPa | 0V | 00:00:00 | 00:00:00 | 00:00:00 | |
| HA6NAB-11 | 2026-08-30 12:29:40 | 48.19414 | 17.05411 | 70° | 11km/h | 17471m | 4.0m/s | 0°C | 0% | 0hPa | 0V | 00:00:00 | 00:00:00 | 00:00:00 | |
| HA6NAB-11 | 2026-08-30 12:29:34 | 48.19408 | 17.05390 | 23° | 13km/h | 17443m | 5.3m/s | 0°C | 0% | 0hPa | 0V | 00:00:00 | 00:00:00 | 00:00:00 | |
| PETON7-10 | 2026-08-30 12:29:28 | 48.19404 | 17.05382 | 129° | 7km/h | 17412m | 6.2m/s | 0°C | 0% | 0hPa | 0V | 00:00:00 | 00:00:00 | 00:00:00 | |
| HA6NAB-11 | 2026-08-30 12:29:23 | 48.19404 | 17.05372 | 68° | 7km/h | 17387m | 6.3m/s | 0°C | 0% | 0hPa | 0V | 00:00:00 | 00:00:00 | 00:00:00 | |
| OE5MMP-10 | 2026-08-30 12:29:22 | 48.19404 | 17.05369 | 94° | 9km/h | 17382m | 3.9m/s | 0°C | 0% | 0hPa | 0V | 00:00:00 | 00:00:00 | 00:00:00 | |
| OE5DXL-15 | 2026-08-30 12:29:21 | 48.19403 | 17.05367 | 65° | 11km/h | 17378m | 4.6m/s | 0°C | 0% | 0hPa | 0V | 00:00:00 | 00:00:00 | 00:00:00 | |
| HA6NAB-11 | 2026-08-30 12:29:17 | 48.19406 | 17.05363 | 178° | 13km/h | 17359m | 5.1m/s | 0°C | 0% | 0hPa | 0V | 00:00:00 | 00:00:00 | 00:00:00 | |
| PETON7-10 | 2026-08-30 12:29:13 | 48.19417 | 17.05362 | 152° | 11km/h | 17339m | 5.3m/s | 0°C | 0% | 0hPa | 0V | 00:00:00 | 00:00:00 | 00:00:00 | |
| OE5MMP-10 | 2026-08-30 12:29:12 | 48.19419 | 17.05360 | 143° | 9km/h | 17334m | 4.8m/s | 0°C | 0% | 0hPa | 0V | 00:00:00 | 00:00:00 | 00:00:00 | |
| OE3OSB-13 | 2026-08-30 12:29:10 | 48.19421 | 17.05352 | 52° | 4km/h | 17319m | 3.2m/s | -56.2°C | 0.0% | 86.2hPa | 0V | 00:00:00 | 00:00:00 | 00:00:00 | |
| ATIDSZ-14 | 2026-08-30 12:29:02 | 48.19427 | 17.05330 | 110° | 13km/h | 17285m | 4.5m/s | 0°C | 0% | 0hPa | 0V | 00:00:00 | 00:00:00 | 00:00:00 | |
| PETON7-10 | 2026-08-30 12:28:57 | 48.19421 | 17.05298 | 89° | 16km/h | 17261m | 5.2m/s | 0°C | 0% | 0hPa | 0V | 00:00:00 | 00:00:00 | 00:00:00 | |
| OE5MMP-10 | 2026-08-30 12:28:52 | 48.19423 | 17.05278 | 99° | 18km/h | 17236m | 5.9m/s | 0°C | 0% | 0hPa | 0V | 00:00:00 | 00:00:00 | 00:00:00 | |
| OE5DXL-15 | 2026-08-30 12:28:51 | 48.19424 | 17.05273 | 98° | 22km/h | 17231m | 4.9m/s | 0°C | 0% | 0hPa | 0V | 00:00:00 | 00:00:00 | 00:00:00 | |
| PETON7-10 | 2026-08-30 12:28:42 | 48.19412 | 17.05210 | 75° | 20km/h | 17187m | 4.7m/s | 0°C | 0% | 0hPa | 0V | 00:00:00 | 00:00:00 | 00:00:00 | |
| OE5MMP-10 | 2026-08-30 12:28:41 | 48.19412 | 17.05207 | 77° | 18km/h | 17183m | 4.1m/s | 0°C | 0% | 0hPa | 0V | 00:00:00 | 00:00:00 | 00:00:00 | |
| OE3OSB-13 | 2026-08-30 12:28:39 | 48.19411 | 17.05195 | 79° | 16km/h | 17169m | 4.6m/s | -56.0°C | 0.0% | 88.3hPa | 0V | 00:00:00 | 00:00:00 | 00:00:00 | |
| OE5MMP-10 | 2026-08-30 12:28:31 | 48.19394 | 17.05132 | 70° | 26km/h | 17134m | 5.0m/s | 0°C | 0% | 0hPa | 0V | 00:00:00 | 00:00:00 | 00:00:00 | |
| PETON7-10 | 2026-08-30 12:28:27 | 48.19390 | 17.05100 | 71° | 31km/h | 17115m | 5.4m/s | 0°C | 0% | 0hPa | 0V | 00:00:00 | 00:00:00 | 00:00:00 | |
| OE5DXL-15 | 2026-08-30 12:28:21 | 48.19379 | 17.05031 | 76° | 31km/h | 17086m | 3.7m/s | 0°C | 0% | 0hPa | 0V | 00:00:00 | 00:00:00 | 00:00:00 | |
| PETON7-10 | 2026-08-30 12:28:12 | 48.19360 | 17.04921 | 68° | 29km/h | 17045m | 5.8m/s | 0°C | 0% | 0hPa | 0V | 00:00:00 | 00:00:00 | 00:00:00 | |
| OE5MMP-10 | 2026-08-30 12:28:11 | 48.19357 | 17.04909 | 69° | 27km/h | 17040m | 4.2m/s | 0°C | 0% | 0hPa | 0V | 00:00:00 | 00:00:00 | 00:00:00 | |
| OE3OSB-13 | 2026-08-30 12:28:08 | 48.19351 | 17.04866 | 78° | 26km/h | 17018m | 4.7m/s | -56.7°C | 0.0% | 90.5hPa | 0V | 00:00:00 | 00:00:00 | 00:00:00 | |
| OE5MMP-10 | 2026-08-30 12:28:01 | 48.19340 | 17.04807 | 69° | 31km/h | 16991m | 4.6m/s | 0°C | 0% | 0hPa | 0V | 00:00:00 | 00:00:00 | 00:00:00 | |
| ATIDSZ-14 | 2026-08-30 12:28:00 | 48.19338 | 17.04796 | 73° | 29km/h | 16987m | 4.9m/s | 0°C | 0% | 0hPa | 0V | 00:00:00 | 00:00:00 | 00:00:00 | |
| PETON7-10 | 2026-08-30 12:27:57 | 48.19332 | 17.04763 | 70° | 29km/h | 16972m | 4.7m/s | 0°C | 0% | 0hPa | 0V | 00:00:00 | 00:00:00 | 00:00:00 | |
| OE5DXL-15 | 2026-08-30 12:27:51 | 48.19314 | 17.04697 | 59° | 26km/h | 16944m | 4.5m/s | 0°C | 0% | 0hPa | 0V | 00:00:00 | 00:00:00 | 00:00:00 | |
| PETON7-10 | 2026-08-30 12:27:41 | 48.19289 | 17.04597 | 60° | 26km/h | 16896m | 4.0m/s | 0°C | 0% | 0hPa | 0V | 00:00:00 | 00:00:00 | 00:00:00 | |
| OE5MMP-10 | 2026-08-30 12:27:40 | 48.19286 | 17.04587 | 71° | 24km/h | 16891m | 6.4m/s | 0°C | 0% | 0hPa | 0V | 00:00:00 | 00:00:00 | 00:00:00 | |
| ATIDSZ-14 | 2026-08-30 12:27:39 | 48.19284 | 17.04576 | 73° | 29km/h | 16886m | 4.8m/s | 0°C | 0% | 0hPa | 0V | 00:00:00 | 00:00:00 | 00:00:00 | |
| OE3OSB-13 | 2026-08-30 12:27:37 | 48.19276 | 17.04547 | 65° | 22km/h | 16871m | 4.3m/s | -56.7°C | 0.0% | 92.8hPa | 0V | 00:00:00 | 00:00:00 | 00:00:00 | |
| OE5MMP-10 | 2026-08-30 12:27:28 | 48.19259 | 17.04477 | 74° | 24km/h | 16831m | 3.6m/s | 0°C | 0% | 0hPa | 0V | 00:00:00 | 00:00:00 | 00:00:00 | |
| PETON7-10 | 2026-08-30 12:27:25 | 48.19252 | 17.04454 | 69° | 24km/h | 16817m | 4.2m/s | 0°C | 0% | 0hPa | 0V | 00:00:00 | 00:00:00 | 00:00:00 | |
| OE5DXL-15 | 2026-08-30 12:27:21 | 48.19243 | 17.04423 | 45° | 20km/h | 16798m | 5.5m/s | 0°C | 0% | 0hPa | 0V | 00:00:00 | 00:00:00 | 00:00:00 | |
| ATIDSZ-14 | 2026-08-30 12:27:19 | 48.19233 | 17.04408 | 50° | 31km/h | 16788m | 5.4m/s | 0°C | 0% | 0hPa | 0V | 00:00:00 | 00:00:00 | 00:00:00 | |
| OE5MMP-10 | 2026-08-30 12:27:14 | 48.19224 | 17.04375 | 100° | 20km/h | 16764m | 5.6m/s | 0°C | 0% | 0hPa | 0V | 00:00:00 | 00:00:00 | 00:00:00 | |
| PETON7-10 | 2026-08-30 12:27:09 | 48.19213 | 17.04338 | 46° | 18km/h | 16742m | 4.2m/s | 0°C | 0% | 0hPa | 0V | 00:00:00 | 00:00:00 | 00:00:00 | |
| OE3OSB-13 | 2026-08-30 12:27:06 | 48.19204 | 17.04310 | 77° | 11km/h | 16722m | 6.0m/s | -56.1°C | 0.0% | 95.1hPa | 0V | 00:00:00 | 00:00:00 | 00:00:00 | |
| PG1ADW-2 | 2026-08-30 12:27:02 | 48.19201 | 17.04294 | 70° | 16km/h | 16707m | 5.0m/s | 0°C | 0% | 0hPa | 0V | 00:00:00 | 00:00:00 | 00:00:00 | |
| ATIDSZ-14 | 2026-08-30 12:26:59 | 48.19194 | 17.04269 | 53° | 20km/h | 16693m | 5.6m/s | 0°C | 0% | 0hPa | 0V | 00:00:00 | 00:00:00 | 00:00:00 | |
| OE5MMP-10 | 2026-08-30 12:26:57 | 48.19188 | 17.04259 | 53° | 16km/h | 16683m | 5.4m/s | 0°C | 0% | 0hPa | 0V | 00:00:00 | 00:00:00 | 00:00:00 | |
| PETON7-10 | 2026-08-30 12:26:54 | 48.19180 | 17.04242 | 60° | 16km/h | 16669m | 6.9m/s | 0°C | 0% | 0hPa | 0V | 00:00:00 | 00:00:00 | 00:00:00 | |
| OE5DXL-15 | 2026-08-30 12:26:51 | 48.19174 | 17.04230 | 60° | 18km/h | 16653m | 5.1m/s | 0°C | 0% | 0hPa | 0V | 00:00:00 | 00:00:00 | 00:00:00 | |
| OE5MMP-10 | 2026-08-30 12:26:47 | 48.19164 | 17.04207 | 59° | 18km/h | 16635m | 4.9m/s | 0°C | 0% | 0hPa | 0V | 00:00:00 | 00:00:00 | 00:00:00 | |
| ATIDSZ-14 | 2026-08-30 12:26:39 | 48.19144 | 17.04166 | 49° | 18km/h | 16594m | 4.9m/s | 0°C | 0% | 0hPa | 0V | 00:00:00 | 00:00:00 | 00:00:00 | |
| PETON7-10 | 2026-08-30 12:26:38 | 48.19142 | 17.04161 | 56° | 18km/h | 16588m | 6.1m/s | 0°C | 0% | 0hPa | 0V | 00:00:00 | 00:00:00 | 00:00:00 | |
| OE5MMP-10 | 2026-08-30 12:26:37 | 48.19140 | 17.04156 | 62° | 16km/h | 16583m | 4.5m/s | 0°C | 0% | 0hPa | 0V | 00:00:00 | 00:00:00 | 00:00:00 | |
| OE3OSB-13 | 2026-08-30 12:26:35 | 48.19132 | 17.04137 | 53° | 16km/h | 16569m | 6.0m/s | -55.1°C | 0.0% | 97.5hPa | 0V | 00:00:00 | 00:00:00 | 00:00:00 | |
| OE5MMP-10 | 2026-08-30 12:26:26 | 48.19115 | 17.04093 | 56° | 22km/h | 16529m | 5.5m/s | 0°C | 0% | 0hPa | 0V | 00:00:00 | 00:00:00 | 00:00:00 | |
| PETON7-10 | 2026-08-30 12:26:23 | 48.19106 | 17.04074 | 44° | 20km/h | 16514m | 3.8m/s | 0°C | 0% | 0hPa | 0V | 00:00:00 | 00:00:00 | 00:00:00 | |
| OE5DXL-15 | 2026-08-30 12:26:21 | 48.19101 | 17.04062 | 64° | 20km/h | 16506m | 5.5m/s | 0°C | 0% | 0hPa | 0V | 00:00:00 | 00:00:00 | 00:00:00 | |
| OE5MMP-10 | 2026-08-30 12:26:16 | 48.19092 | 17.04022 | 81° | 20km/h | 16481m | 6.0m/s | 0°C | 0% | 0hPa | 0V | 00:00:00 | 00:00:00 | 00:00:00 | |
| PETON7-10 | 2026-08-30 12:26:08 | 48.19072 | 17.03977 | 63° | 22km/h | 16443m | 4.6m/s | 0°C | 0% | 0hPa | 0V | 00:00:00 | 00:00:00 | 00:00:00 | |
| OE5MMP-10 | 2026-08-30 12:26:06 | 48.19069 | 17.03961 | 82° | 20km/h | 16434m | 5.9m/s | 0°C | 0% | 0hPa | 0V | 00:00:00 | 00:00:00 | 00:00:00 | |
| OE3OSB-13 | 2026-08-30 12:26:04 | 48.19069 | 17.03936 | 94° | 15km/h | 16419m | 4.1m/s | -54.9°C | 0.0% | 100.0hPa | 0V | 00:00:00 | 00:00:00 | 00:00:00 | |
| ATIDSZ-14 | 2026-08-30 12:25:58 | 48.19067 | 17.03901 | 98° | 22km/h | 16397m | 4.9m/s | 0°C | 0% | 0hPa | 0V | 00:00:00 | 00:00:00 | 00:00:00 | |
| OE5MMP-10 | 2026-08-30 12:25:56 | 48.19067 | 17.03885 | 85° | 26km/h | 16387m | 5.5m/s | 0°C | 0% | 0hPa | 0V | 00:00:00 | 00:00:00 | 00:00:00 | |
| PETON7-10 | 2026-08-30 12:25:53 | 48.19066 | 17.03860 | 99° | 35km/h | 16374m | 4.2m/s | 0°C | 0% | 0hPa | 0V | 00:00:00 | 00:00:00 | 00:00:00 | |
| OE5MMP-10 | 2026-08-30 12:25:46 | 48.19065 | 17.03785 | 80° | 38km/h | 16340m | 4.9m/s | 0°C | 0% | 0hPa | 0V | 00:00:00 | 00:00:00 | 00:00:00 | |
| ATIDSZ-14 | 2026-08-30 12:25:38 | 48.19057 | 17.03684 | 95° | 37km/h | 16301m | 3.2m/s | 0°C | 0% | 0hPa | 0V | 00:00:00 | 00:00:00 | 00:00:00 | |
| OE3OSB-13 | 2026-08-30 12:25:33 | 48.19053 | 17.03590 | 81° | 40km/h | 16274m | 6.1m/s | -55.1°C | 0.0% | 102.4hPa | 0V | 00:00:00 | 00:00:00 | 00:00:00 | |
| OE5MMP-10 | 2026-08-30 12:25:22 | 48.19040 | 17.03412 | 79° | 51km/h | 16227m | 5.7m/s | 0°C | 0% | 0hPa | 0V | 00:00:00 | 00:00:00 | 00:00:00 | |
| PG1ADW-2 | 2026-08-30 12:25:21 | 48.19032 | 17.03369 | 76° | 44km/h | 16218m | 3.6m/s | 0°C | 0% | 0hPa | 0V | 00:00:00 | 00:00:00 | 00:00:00 | |
| ATIDSZ-14 | 2026-08-30 12:25:18 | 48.19027 | 17.03329 | 83° | 51km/h | 16209m | 3.8m/s | 0°C | 0% | 0hPa | 0V | 00:00:00 | 00:00:00 | 00:00:00 | |
| PETON7-10 | 2026-08-30 12:25:15 | 48.19020 | 17.03275 | 78° | 44km/h | 16196m | 4.3m/s | 0°C | 0% | 0hPa | 0V | 00:00:00 | 00:00:00 | 00:00:00 | |
| OE5MMP-10 | 2026-08-30 12:25:12 | 48.19012 | 17.03223 | 76° | 44km/h | 16183m | 5.7m/s | 0°C | 0% | 0hPa | 0V | 00:00:00 | 00:00:00 | 00:00:00 | |
| PETON7-10 | 2026-08-30 12:24:59 | 48.18983 | 17.03010 | 77° | 35km/h | 16125m | 5.6m/s | 0°C | 0% | 0hPa | 0V | 00:00:00 | 00:00:00 | 00:00:00 | |
| PG1ADW-2 | 2026-08-30 12:24:58 | 48.18981 | 17.02995 | 80° | 33km/h | 16120m | 4.3m/s | 0°C | 0% | 0hPa | 0V | 00:00:00 | 00:00:00 | 00:00:00 | |
| ATIDSZ-14 | 2026-08-30 12:24:57 | 48.18979 | 17.02979 | 75° | 44km/h | 16116m | 4.5m/s | 0°C | 0% | 0hPa | 0V | 00:00:00 | 00:00:00 | 00:00:00 | |
| OE5MMP-10 | 2026-08-30 12:24:53 | 48.18967 | 17.02920 | 80° | 31km/h | 16097m | 4.6m/s | 0°C | 0% | 0hPa | 0V | 00:00:00 | 00:00:00 | 00:00:00 | |
| PETON7-10 | 2026-08-30 12:24:44 | 48.18955 | 17.02824 | 90° | 31km/h | 16051m | 3.9m/s | 0°C | 0% | 0hPa | 0V | 00:00:00 | 00:00:00 | 00:00:00 | |
| PG1ADW-2 | 2026-08-30 12:24:37 | 48.18950 | 17.02753 | 84° | 33km/h | 16020m | 4.8m/s | 0°C | 0% | 0hPa | 0V | 00:00:00 | 00:00:00 | 00:00:00 | |
| OE3OSB-13 | 2026-08-30 12:24:30 | 48.18944 | 17.02668 | 101° | 27km/h | 15986m | 5.8m/s | -57.5°C | 0.1% | 107.3hPa | 0V | 00:00:00 | 00:00:00 | 00:00:00 | |
| PETON7-10 | 2026-08-30 12:24:29 | 48.18946 | 17.02657 | 111° | 31km/h | 15981m | 5.6m/s | 0°C | 0% | 0hPa | 0V | 00:00:00 | 00:00:00 | 00:00:00 | |
| OE5MMP-10 | 2026-08-30 12:24:26 | 48.18948 | 17.02630 | 76° | 31km/h | 15967m | 2.9m/s | 0°C | 0% | 0hPa | 0V | 00:00:00 | 00:00:00 | 00:00:00 | |
| ATIDSZ-14 | 2026-08-30 12:24:17 | 48.18944 | 17.02515 | 98° | 33km/h | 15923m | 6.0m/s | 0°C | 0% | 0hPa | 0V | 00:00:00 | 00:00:00 | 00:00:00 | |
| PG1ADW-2 | 2026-08-30 12:24:16 | 48.18944 | 17.02504 | 92° | 38km/h | 15918m | 5.0m/s | 0°C | 0% | 0hPa | 0V | 00:00:00 | 00:00:00 | 00:00:00 | |
| PETON7-10 | 2026-08-30 12:24:14 | 48.18945 | 17.02481 | 93° | 37km/h | 15909m | 6.6m/s | 0°C | 0% | 0hPa | 0V | 00:00:00 | 00:00:00 | 00:00:00 | |
| OE5MMP-10 | 2026-08-30 12:24:13 | 48.18946 | 17.02467 | 99° | 38km/h | 15904m | 4.1m/s | 0°C | 0% | 0hPa | 0V | 00:00:00 | 00:00:00 | 00:00:00 | |
| OE5MMP-10 | 2026-08-30 12:24:01 | 48.18956 | 17.02300 | 89° | 42km/h | 15847m | 4.2m/s | 0°C | 0% | 0hPa | 0V | 00:00:00 | 00:00:00 | 00:00:00 | |
| PETON7-10 | 2026-08-30 12:23:59 | 48.18956 | 17.02268 | 91° | 42km/h | 15836m | 5.5m/s | 0°C | 0% | 0hPa | 0V | 00:00:00 | 00:00:00 | 00:00:00 | |
| ATIDSZ-14 | 2026-08-30 12:23:57 | 48.18956 | 17.02234 | 90° | 40km/h | 15826m | 5.4m/s | 0°C | 0% | 0hPa | 0V | 00:00:00 | 00:00:00 | 00:00:00 | |
| PG1ADW-2 | 2026-08-30 12:23:52 | 48.18958 | 17.02158 | 94° | 42km/h | 15802m | 5.7m/s | 0°C | 0% | 0hPa | 0V | 00:00:00 | 00:00:00 | 00:00:00 | |
| PETON7-10 | 2026-08-30 12:23:43 | 48.18980 | 17.02017 | 98° | 46km/h | 15758m | 5.9m/s | 0°C | 0% | 0hPa | 0V | 00:00:00 | 00:00:00 | 00:00:00 | |
| OE5MMP-10 | 2026-08-30 12:23:37 | 48.18982 | 17.01923 | 102° | 42km/h | 15730m | 5.3m/s | 0°C | 0% | 0hPa | 0V | 00:00:00 | 00:00:00 | 00:00:00 | |
| PG1ADW-2 | 2026-08-30 12:23:31 | 48.18999 | 17.01826 | 106° | 49km/h | 15701m | 5.0m/s | 0°C | 0% | 0hPa | 0V | 00:00:00 | 00:00:00 | 00:00:00 | |
| OE3OSB-13 | 2026-08-30 12:23:28 | 48.19006 | 17.01771 | 99° | 51km/h | 15687m | 5.8m/s | -56.5°C | 0.4% | 112.8hPa | 0V | 00:00:00 | 00:00:00 | 00:00:00 | |
| OE5MMP-10 | 2026-08-30 12:23:27 | 48.19008 | 17.01753 | 101° | 47km/h | 15682m | 4.9m/s | 0°C | 0% | 0hPa | 0V | 00:00:00 | 00:00:00 | 00:00:00 | |
| ATIDSZ-14 | 2026-08-30 12:23:16 | 48.19033 | 17.01555 | 91° | 49km/h | 15632m | 3.9m/s | 0°C | 0% | 0hPa | 0V | 00:00:00 | 00:00:00 | 00:00:00 | |
| OE5MMP-10 | 2026-08-30 12:23:15 | 48.19034 | 17.01536 | 94° | 51km/h | 15629m | 4.5m/s | 0°C | 0% | 0hPa | 0V | 00:00:00 | 00:00:00 | 00:00:00 | |
| PETON7-10 | 2026-08-30 12:23:12 | 48.19037 | 17.01475 | 97° | 53km/h | 15616m | 6.9m/s | 0°C | 0% | 0hPa | 0V | 00:00:00 | 00:00:00 | 00:00:00 | |
| PG1ADW-2 | 2026-08-30 12:23:05 | 48.19044 | 17.01341 | 93° | 55km/h | 15580m | 6.2m/s | 0°C | 0% | 0hPa | 0V | 00:00:00 | 00:00:00 | 00:00:00 | |
| OE5MMP-10 | 2026-08-30 12:23:04 | 48.19045 | 17.01318 | 96° | 57km/h | 15575m | 4.8m/s | 0°C | 0% | 0hPa | 0V | 00:00:00 | 00:00:00 | 00:00:00 | |
| PETON7-10 | 2026-08-30 12:22:57 | 48.19053 | 17.01173 | 92° | 53km/h | 15540m | 4.6m/s | 0°C | 0% | 0hPa | 0V | 00:00:00 | 00:00:00 | 00:00:00 | |
| ATIDSZ-14 | 2026-08-30 12:22:56 | 48.19054 | 17.01152 | 94° | 57km/h | 15536m | 5.6m/s | 0°C | 0% | 0hPa | 0V | 00:00:00 | 00:00:00 | 00:00:00 | |
| OE5MMP-10 | 2026-08-30 12:22:54 | 48.19056 | 17.01109 | 93° | 53km/h | 15527m | 4.2m/s | 0°C | 0% | 0hPa | 0V | 00:00:00 | 00:00:00 | 00:00:00 | |
| OE5MMP-10 | 2026-08-30 12:22:44 | 48.19067 | 17.00910 | 94° | 55km/h | 15480m | 4.2m/s | 0°C | 0% | 0hPa | 0V | 00:00:00 | 00:00:00 | 00:00:00 | |
| PETON7-10 | 2026-08-30 12:22:42 | 48.19069 | 17.00872 | 92° | 53km/h | 15470m | 5.5m/s | 0°C | 0% | 0hPa | 0V | 00:00:00 | 00:00:00 | 00:00:00 | |
| PG1ADW-2 | 2026-08-30 12:22:40 | 48.19069 | 17.00833 | 94° | 53km/h | 15460m | 4.9m/s | 0°C | 0% | 0hPa | 0V | 00:00:00 | 00:00:00 | 00:00:00 | |
| ATIDSZ-14 | 2026-08-30 12:22:35 | 48.19070 | 17.00727 | 93° | 57km/h | 15436m | 5.1m/s | 0°C | 0% | 0hPa | 0V | 00:00:00 | 00:00:00 | 00:00:00 | |
| OE5MMP-10 | 2026-08-30 12:22:31 | 48.19073 | 17.00648 | 93° | 51km/h | 15417m | 4.7m/s | 0°C | 0% | 0hPa | 0V | 00:00:00 | 00:00:00 | 00:00:00 | |
| PETON7-10 | 2026-08-30 12:22:27 | 48.19075 | 17.00573 | 87° | 55km/h | 15398m | 4.2m/s | 0°C | 0% | 0hPa | 0V | 00:00:00 | 00:00:00 | 00:00:00 | |
| OE3OSB-13 | 2026-08-30 12:22:26 | 48.19074 | 17.00533 | 90° | 53km/h | 15389m | 6.2m/s | -55.7°C | 1.1% | 118.4hPa | 0V | 00:00:00 | 00:00:00 | 00:00:00 | |
| OE5MMP-10 | 2026-08-30 12:22:20 | 48.19074 | 17.00430 | 89° | 55km/h | 15366m | 6.5m/s | 0°C | 0% | 0hPa | 0V | 00:00:00 | 00:00:00 | 00:00:00 | |
| ATIDSZ-14 | 2026-08-30 12:22:14 | 48.19064 | 17.00305 | 87° | 55km/h | 15339m | 3.9m/s | 0°C | 0% | 0hPa | 0V | 00:00:00 | 00:00:00 | 00:00:00 | |
| PETON7-10 | 2026-08-30 12:22:12 | 48.19060 | 17.00264 | 80° | 57km/h | 15329m | 3.7m/s | 0°C | 0% | 0hPa | 0V | 00:00:00 | 00:00:00 | 00:00:00 | |
| OE5MMP-10 | 2026-08-30 12:22:09 | 48.19054 | 17.00201 | 85° | 55km/h | 15316m | 5.1m/s | 0°C | 0% | 0hPa | 0V | 00:00:00 | 00:00:00 | 00:00:00 | |
| OE3OSB-13 | 2026-08-30 12:21:55 | 48.19026 | 16.99886 | 89° | 51km/h | 15245m | 5.0m/s | -55.3°C | 1.4% | 121.2hPa | 0V | 00:00:00 | 00:00:00 | 00:00:00 | |
| ATIDSZ-14 | 2026-08-30 12:21:54 | 48.19027 | 16.99886 | 91° | 53km/h | 15245m | 5.0m/s | 0°C | 0% | 0hPa | 0V | 00:00:00 | 00:00:00 | 00:00:00 | |
| PG1ADW-2 | 2026-08-30 12:21:51 | 48.19022 | 16.99830 | 80° | 55km/h | 15232m | 3.9m/s | 0°C | 0% | 0hPa | 0V | 00:00:00 | 00:00:00 | 00:00:00 | |
| OE5MMP-10 | 2026-08-30 12:21:48 | 48.19018 | 16.99773 | 84° | 55km/h | 15218m | 5.0m/s | 0°C | 0% | 0hPa | 0V | 00:00:00 | 00:00:00 | 00:00:00 | |
| PETON7-10 | 2026-08-30 12:21:42 | 48.19011 | 16.99645 | 87° | 55km/h | 15190m | 4.5m/s | 0°C | 0% | 0hPa | 0V | 00:00:00 | 00:00:00 | 00:00:00 | |
| ATIDSZ-14 | 2026-08-30 12:21:33 | 48.19000 | 16.99465 | 81° | 62km/h | 15154m | 3.5m/s | 0°C | 0% | 0hPa | 0V | 00:00:00 | 00:00:00 | 00:00:00 | |
| PG1ADW-2 | 2026-08-30 12:21:31 | 48.18995 | 16.99421 | 83° | 49km/h | 15145m | 5.0m/s | 0°C | 0% | 0hPa | 0V | 00:00:00 | 00:00:00 | 00:00:00 | |
| PETON7-10 | 2026-08-30 12:21:26 | 48.18989 | 16.99311 | 80° | 55km/h | 15125m | 5.7m/s | 0°C | 0% | 0hPa | 0V | 00:00:00 | 00:00:00 | 00:00:00 | |
| OE3OSB-13 | 2026-08-30 12:21:24 | 48.18983 | 16.99251 | 87° | 55km/h | 15111m | 5.2m/s | -56.0°C | 1.3% | 123.9hPa | 0V | 00:00:00 | 00:00:00 | 00:00:00 | |
| ATIDSZ-14 | 2026-08-30 12:21:13 | 48.18986 | 16.99040 | 77° | 57km/h | 15065m | 5.1m/s | 0°C | 0% | 0hPa | 0V | 00:00:00 | 00:00:00 | 00:00:00 | |
| PETON7-10 | 2026-08-30 12:21:11 | 48.18980 | 16.99000 | 79° | 55km/h | 15053m | 6.0m/s | 0°C | 0% | 0hPa | 0V | 00:00:00 | 00:00:00 | 00:00:00 | |
| OE3OSB-13 | 2026-08-30 12:20:54 | 48.18940 | 16.98611 | 76° | 47km/h | 14968m | 3.9m/s | -56.3°C | 1.4% | 126.7hPa | 0V | 00:00:00 | 00:00:00 | 00:00:00 | |
| PETON7-10 | 2026-08-30 12:20:39 | 48.18888 | 16.98386 | 68° | 44km/h | 14911m | 2.7m/s | 0°C | 0% | 0hPa | 0V | 00:00:00 | 00:00:00 | 00:00:00 | |
| ATIDSZ-14 | 2026-08-30 12:20:32 | 48.18864 | 16.98279 | 72° | 47km/h | 14883m | 4.8m/s | 0°C | 0% | 0hPa | 0V | 00:00:00 | 00:00:00 | 00:00:00 | |
| PETON7-10 | 2026-08-30 12:20:24 | 48.18830 | 16.98161 | 65° | 40km/h | 14843m | 4.3m/s | 0°C | 0% | 0hPa | 0V | 00:00:00 | 00:00:00 | 00:00:00 | |
| OE3OSB-13 | 2026-08-30 12:20:22 | 48.18818 | 16.98118 | 68° | 38km/h | 14830m | 5.3m/s | -55.7°C | 1.8% | 129.6hPa | 0V | 00:00:00 | 00:00:00 | 00:00:00 | |
| ATIDSZ-14 | 2026-08-30 12:20:12 | 48.18787 | 16.97989 | 65° | 42km/h | 14791m | 6.2m/s | 0°C | 0% | 0hPa | 0V | 00:00:00 | 00:00:00 | 00:00:00 | |
| PETON7-10 | 2026-08-30 12:20:09 | 48.18775 | 16.97948 | 66° | 37km/h | 14777m | 4.8m/s | 0°C | 0% | 0hPa | 0V | 00:00:00 | 00:00:00 | 00:00:00 | |
| OE3OSB-13 | 2026-08-30 12:19:51 | 48.18716 | 16.97707 | 74° | 31km/h | 14689m | 5.6m/s | -55.0°C | 2.3% | 132.6hPa | 0V | 00:00:00 | 00:00:00 | 00:00:00 | |
| PETON7-10 | 2026-08-30 12:19:39 | 48.18701 | 16.97582 | 88° | 27km/h | 14640m | 4.7m/s | 0°C | 0% | 0hPa | 0V | 00:00:00 | 00:00:00 | 00:00:00 | |
| ATIDSZ-14 | 2026-08-30 12:19:31 | 48.18689 | 16.97498 | 86° | 29km/h | 14605m | 4.0m/s | 0°C | 0% | 0hPa | 0V | 00:00:00 | 00:00:00 | 00:00:00 | |
| PETON7-10 | 2026-08-30 12:19:24 | 48.18682 | 16.97428 | 73° | 29km/h | 14575m | 6.1m/s | 0°C | 0% | 0hPa | 0V | 00:00:00 | 00:00:00 | 00:00:00 | |
| OE3OSB-13 | 2026-08-30 12:19:20 | 48.18677 | 16.97370 | 93° | 33km/h | 14552m | 5.3m/s | -53.9°C | 3.0% | 135.5hPa | 0V | 00:00:00 | 00:00:00 | 00:00:00 | |
| PG1ADW-2 | 2026-08-30 12:19:15 | 48.18679 | 16.97330 | 90° | 29km/h | 14536m | 2.9m/s | 0°C | 0% | 0hPa | 0V | 00:00:00 | 00:00:00 | 00:00:00 | |
| ATIDSZ-14 | 2026-08-30 12:19:11 | 48.18674 | 16.97289 | 73° | 33km/h | 14518m | 6.6m/s | 0°C | 0% | 0hPa | 0V | 00:00:00 | 00:00:00 | 00:00:00 | |
| PETON7-10 | 2026-08-30 12:19:09 | 48.18670 | 16.97264 | 81° | 31km/h | 14510m | 5.1m/s | 0°C | 0% | 0hPa | 0V | 00:00:00 | 00:00:00 | 00:00:00 | |
| OE3OSB-13 | 2026-08-30 12:18:49 | 48.18687 | 16.97027 | 97° | 33km/h | 14417m | 5.4m/s | -53.8°C | 3.5% | 138.5hPa | 0V | 00:00:00 | 00:00:00 | 00:00:00 | |
| PETON7-10 | 2026-08-30 12:18:38 | 48.18701 | 16.96885 | 107° | 44km/h | 14374m | 5.9m/s | 0°C | 0% | 0hPa | 0V | 00:00:00 | 00:00:00 | 00:00:00 | |
| ATIDSZ-14 | 2026-08-30 12:18:30 | 48.18724 | 16.96768 | 105° | 47km/h | 14343m | 2.4m/s | 0°C | 0% | 0hPa | 0V | 00:00:00 | 00:00:00 | 00:00:00 | |
| PG1ADW-2 | 2026-08-30 12:18:27 | 48.18733 | 16.96721 | 110° | 58km/h | 14330m | 4.1m/s | 0°C | 0% | 0hPa | 0V | 00:00:00 | 00:00:00 | 00:00:00 | |
| PETON7-10 | 2026-08-30 12:18:23 | 48.18752 | 16.96652 | 116° | 57km/h | 14312m | 3.5m/s | 0°C | 0% | 0hPa | 0V | 00:00:00 | 00:00:00 | 00:00:00 | |
| OE3OSB-13 | 2026-08-30 12:18:18 | 48.18772 | 16.96534 | 104° | 49km/h | 14283m | 3.6m/s | -54.6°C | 3.5% | 141.5hPa | 0V | 00:00:00 | 00:00:00 | 00:00:00 | |
| ATIDSZ-14 | 2026-08-30 12:18:10 | 48.18805 | 16.96390 | 99° | 71km/h | 14252m | 3.4m/s | 0°C | 0% | 0hPa | 0V | 00:00:00 | 00:00:00 | 00:00:00 | |
| PETON7-10 | 2026-08-30 12:18:08 | 48.18807 | 16.96339 | 92° | 60km/h | 14244m | 5.3m/s | 0°C | 0% | 0hPa | 0V | 00:00:00 | 00:00:00 | 00:00:00 | |
| OE3OSB-13 | 2026-08-30 12:17:47 | 48.18893 | 16.95827 | 102° | 71km/h | 14158m | 4.5m/s | -54.7°C | 3.6% | 144.5hPa | 0V | 00:00:00 | 00:00:00 | 00:00:00 | |
| PETON7-10 | 2026-08-30 12:17:38 | 48.18916 | 16.95606 | 97° | 73km/h | 14126m | 4.9m/s | 0°C | 0% | 0hPa | 0V | 00:00:00 | 00:00:00 | 00:00:00 | |
| ATIDSZ-14 | 2026-08-30 12:17:29 | 48.18932 | 16.95356 | 95° | 73km/h | 14089m | 3.6m/s | 0°C | 0% | 0hPa | 0V | 00:00:00 | 00:00:00 | 00:00:00 | |
| HA6NAB-11 | 2026-08-30 12:17:27 | 48.18936 | 16.95302 | 98° | 75km/h | 14081m | 3.6m/s | 0°C | 0% | 0hPa | 0V | 00:00:00 | 00:00:00 | 00:00:00 | |
| PETON7-10 | 2026-08-30 12:17:23 | 48.18941 | 16.95194 | 93° | 77km/h | 14064m | 5.9m/s | 0°C | 0% | 0hPa | 0V | 00:00:00 | 00:00:00 | 00:00:00 | |
| HA6NAB-11 | 2026-08-30 12:17:21 | 48.18943 | 16.95139 | 93° | 77km/h | 14056m | 4.9m/s | 0°C | 0% | 0hPa | 0V | 00:00:00 | 00:00:00 | 00:00:00 | |
| OE3OSB-13 | 2026-08-30 12:17:16 | 48.18946 | 16.94967 | 86° | 77km/h | 14032m | 4.6m/s | -54.2°C | 3.4% | 147.5hPa | 0V | 00:00:00 | 00:00:00 | 00:00:00 | |
| HA6NAB-11 | 2026-08-30 12:17:11 | 48.18945 | 16.94849 | 94° | 75km/h | 14015m | 5.6m/s | 0°C | 0% | 0hPa | 0V | 00:00:00 | 00:00:00 | 00:00:00 | |
| PETON7-10 | 2026-08-30 12:17:08 | 48.18944 | 16.94763 | 92° | 77km/h | 14002m | 5.5m/s | 0°C | 0% | 0hPa | 0V | 00:00:00 | 00:00:00 | 00:00:00 | |
| HA6NAB-11 | 2026-08-30 12:17:05 | 48.18944 | 16.94670 | 88° | 82km/h | 13988m | 4.0m/s | 0°C | 0% | 0hPa | 0V | 00:00:00 | 00:00:00 | 00:00:00 | |
| OE3OSB-13 | 2026-08-30 12:16:44 | 48.18934 | 16.94079 | 86° | 68km/h | 13902m | 7.1m/s | -54.4°C | 3.4% | 150.6hPa | 0V | 00:00:00 | 00:00:00 | 00:00:00 | |
| PETON7-10 | 2026-08-30 12:16:38 | 48.18934 | 16.93915 | 89° | 71km/h | 13877m | 5.1m/s | 0°C | 0% | 0hPa | 0V | 00:00:00 | 00:00:00 | 00:00:00 | |
| ATIDSZ-14 | 2026-08-30 12:16:25 | 48.18935 | 16.93562 | 94° | 73km/h | 13821m | 5.3m/s | 0°C | 0% | 0hPa | 0V | 00:00:00 | 00:00:00 | 00:00:00 | |
| PETON7-10 | 2026-08-30 12:16:22 | 48.18936 | 16.93482 | 90° | 69km/h | 13808m | 3.2m/s | 0°C | 0% | 0hPa | 0V | 00:00:00 | 00:00:00 | 00:00:00 | |
| OE3OSB-13 | 2026-08-30 12:16:13 | 48.18946 | 16.93244 | 94° | 68km/h | 13769m | 6.4m/s | -54.1°C | 3.5% | 153.9hPa | 0V | 00:00:00 | 00:00:00 | 00:00:00 | |
| PETON7-10 | 2026-08-30 12:16:07 | 48.18950 | 16.93089 | 86° | 68km/h | 13741m | 2.9m/s | 0°C | 0% | 0hPa | 0V | 00:00:00 | 00:00:00 | 00:00:00 | |
| ATIDSZ-14 | 2026-08-30 12:16:04 | 48.18950 | 16.93007 | 92° | 75km/h | 13727m | 5.1m/s | 0°C | 0% | 0hPa | 0V | 00:00:00 | 00:00:00 | 00:00:00 | |
| PETON7-10 | 2026-08-30 12:15:51 | 48.18943 | 16.92675 | 90° | 71km/h | 13674m | 5.7m/s | 0°C | 0% | 0hPa | 0V | 00:00:00 | 00:00:00 | 00:00:00 | |
| ATIDSZ-14 | 2026-08-30 12:15:43 | 48.18941 | 16.92462 | 95° | 68km/h | 13634m | 5.0m/s | 0°C | 0% | 0hPa | 0V | 00:00:00 | 00:00:00 | 00:00:00 | |
| OE3OSB-13 | 2026-08-30 12:15:42 | 48.18942 | 16.92410 | 91° | 69km/h | 13625m | 3.3m/s | -53.5°C | 3.7% | 157.4hPa | 0V | 00:00:00 | 00:00:00 | 00:00:00 | |
| PETON7-10 | 2026-08-30 12:15:37 | 48.18947 | 16.92274 | 92° | 78km/h | 13602m | 3.9m/s | 0°C | 0% | 0hPa | 0V | 00:00:00 | 00:00:00 | 00:00:00 | |
| OE3JTB-15 | 2026-08-30 12:15:32 | 48.18957 | 16.92080 | 98° | 78km/h | 13568m | 5.7m/s | 0°C | 0% | 0hPa | 0V | 00:00:00 | 00:00:00 | 00:00:00 | |
| ATIDSZ-14 | 2026-08-30 12:15:22 | 48.18979 | 16.91874 | 99° | 84km/h | 13535m | 4.0m/s | 0°C | 0% | 0hPa | 0V | 00:00:00 | 00:00:00 | 00:00:00 | |
| PETON7-10 | 2026-08-30 12:15:20 | 48.18983 | 16.91812 | 95° | 84km/h | 13526m | 4.3m/s | 0°C | 0% | 0hPa | 0V | 00:00:00 | 00:00:00 | 00:00:00 | |
| OE3OSB-13 | 2026-08-30 12:15:11 | 48.18997 | 16.91496 | 90° | 84km/h | 13480m | 6.6m/s | -53.6°C | 4.1% | 161.2hPa | 0V | 00:00:00 | 00:00:00 | 00:00:00 | |
| PETON7-10 | 2026-08-30 12:15:04 | 48.19009 | 16.91311 | 95° | 86km/h | 13449m | 4.3m/s | 0°C | 0% | 0hPa | 0V | 00:00:00 | 00:00:00 | 00:00:00 | |
| ATIDSZ-14 | 2026-08-30 12:15:01 | 48.19012 | 16.91214 | 95° | 84km/h | 13436m | 6.5m/s | 0°C | 0% | 0hPa | 0V | 00:00:00 | 00:00:00 | 00:00:00 | |
| PG1ADW-2 | 2026-08-30 12:15:00 | 48.19016 | 16.91150 | 96° | 86km/h | 13427m | 6.5m/s | 0°C | 0% | 0hPa | 0V | 00:00:00 | 00:00:00 | 00:00:00 | |
| PETON7-10 | 2026-08-30 12:14:49 | 48.19044 | 16.90835 | 93° | 86km/h | 13377m | 3.0m/s | 0°C | 0% | 0hPa | 0V | 00:00:00 | 00:00:00 | 00:00:00 | |
| ATIDSZ-14 | 2026-08-30 12:14:40 | 48.19054 | 16.90534 | 92° | 82km/h | 13333m | 4.8m/s | 0°C | 0% | 0hPa | 0V | 00:00:00 | 00:00:00 | 00:00:00 | |
| PETON7-10 | 2026-08-30 12:14:34 | 48.19066 | 16.90306 | 95° | 86km/h | 13301m | 4.3m/s | 0°C | 0% | 0hPa | 0V | 00:00:00 | 00:00:00 | 00:00:00 | |
| OE3JTB-15 | 2026-08-30 12:14:30 | 48.19067 | 16.90107 | 94° | 84km/h | 13274m | 5.5m/s | 0°C | 0% | 0hPa | 0V | 00:00:00 | 00:00:00 | 00:00:00 | |
| ATIDSZ-14 | 2026-08-30 12:14:19 | 48.19070 | 16.89847 | 91° | 82km/h | 13235m | 3.7m/s | 0°C | 0% | 0hPa | 0V | 00:00:00 | 00:00:00 | 00:00:00 | |
| PETON7-10 | 2026-08-30 12:14:18 | 48.19071 | 16.89815 | 91° | 86km/h | 13231m | 5.4m/s | 0°C | 0% | 0hPa | 0V | 00:00:00 | 00:00:00 | 00:00:00 | |
| OE3OSB-13 | 2026-08-30 12:14:09 | 48.19072 | 16.89492 | 90° | 84km/h | 13184m | 6.9m/s | -53.4°C | 5.9% | 169.1hPa | 0V | 00:00:00 | 00:00:00 | 00:00:00 | |
| PG1ADW-2 | 2026-08-30 12:14:08 | 48.19072 | 16.89492 | 91° | 95km/h | 13184m | 6.9m/s | 0°C | 0% | 0hPa | 0V | 00:00:00 | 00:00:00 | 00:00:00 | |
| PETON7-10 | 2026-08-30 12:14:03 | 48.19078 | 16.89333 | 95° | 88km/h | 13157m | 5.1m/s | 0°C | 0% | 0hPa | 0V | 00:00:00 | 00:00:00 | 00:00:00 | |
| OE3JTB-15 | 2026-08-30 12:13:59 | 48.19087 | 16.89110 | 96° | 91km/h | 13125m | 4.3m/s | 0°C | 0% | 0hPa | 0V | 00:00:00 | 00:00:00 | 00:00:00 | |
| PETON7-10 | 2026-08-30 12:13:48 | 48.19108 | 16.88843 | 93° | 93km/h | 13082m | 6.4m/s | 0°C | 0% | 0hPa | 0V | 00:00:00 | 00:00:00 | 00:00:00 | |
| ATIDSZ-14 | 2026-08-30 12:13:39 | 48.19142 | 16.88536 | 97° | 95km/h | 13038m | 4.5m/s | 0°C | 0% | 0hPa | 0V | 00:00:00 | 00:00:00 | 00:00:00 | |
| OE3OSB-13 | 2026-08-30 12:13:38 | 48.19146 | 16.88463 | 95° | 97km/h | 13028m | 3.3m/s | -53.8°C | 7.0% | 173.2hPa | 0V | 00:00:00 | 00:00:00 | 00:00:00 | |
| PETON7-10 | 2026-08-30 12:13:33 | 48.19160 | 16.88319 | 97° | 99km/h | 13006m | 6.4m/s | 0°C | 0% | 0hPa | 0V | 00:00:00 | 00:00:00 | 00:00:00 | |
| OE3JTB-15 | 2026-08-30 12:13:30 | 48.19184 | 16.88064 | 103° | 104km/h | 12962m | 5.2m/s | 0°C | 0% | 0hPa | 0V | 00:00:00 | 00:00:00 | 00:00:00 | |
| PETON7-10 | 2026-08-30 12:13:18 | 48.19212 | 16.87751 | 99° | 106km/h | 12917m | 3.3m/s | 0°C | 0% | 0hPa | 0V | 00:00:00 | 00:00:00 | 00:00:00 | |
| OE3OSB-13 | 2026-08-30 12:13:07 | 48.19251 | 16.87279 | 104° | 108km/h | 12841m | 5.3m/s | -53.6°C | 7.9% | 178.2hPa | 0V | 00:00:00 | 00:00:00 | 00:00:00 | |
| PETON7-10 | 2026-08-30 12:13:03 | 48.19262 | 16.87167 | 90° | 104km/h | 12825m | 4.0m/s | 0°C | 0% | 0hPa | 0V | 00:00:00 | 00:00:00 | 00:00:00 | |
| ATIDSZ-14 | 2026-08-30 12:12:57 | 48.19268 | 16.86934 | 97° | 100km/h | 12786m | 6.8m/s | 0°C | 0% | 0hPa | 0V | 00:00:00 | 00:00:00 | 00:00:00 | |
| PETON7-10 | 2026-08-30 12:12:48 | 48.19283 | 16.86570 | 96° | 104km/h | 12731m | 9.9m/s | 0°C | 0% | 0hPa | 0V | 00:00:00 | 00:00:00 | 00:00:00 | |
| OE3OSB-13 | 2026-08-30 12:12:36 | 48.19310 | 16.86060 | 88° | 106km/h | 12662m | 4.0m/s | -54.4°C | 8.8% | 183.6hPa | 0V | 00:00:00 | 00:00:00 | 00:00:00 | |
| PETON7-10 | 2026-08-30 12:12:33 | 48.19309 | 16.85975 | 90° | 106km/h | 12650m | 4.3m/s | 0°C | 0% | 0hPa | 0V | 00:00:00 | 00:00:00 | 00:00:00 | |
| PG1ADW-2 | 2026-08-30 12:12:22 | 48.19317 | 16.85530 | 94° | 100km/h | 12607m | 5.4m/s | 0°C | 0% | 0hPa | 0V | 00:00:00 | 00:00:00 | 00:00:00 | |
| PETON7-10 | 2026-08-30 12:12:18 | 48.19326 | 16.85376 | 96° | 100km/h | 12589m | 3.8m/s | 0°C | 0% | 0hPa | 0V | 00:00:00 | 00:00:00 | 00:00:00 | |
| ATIDSZ-14 | 2026-08-30 12:12:16 | 48.19330 | 16.85303 | 96° | 100km/h | 12582m | 5.1m/s | 0°C | 0% | 0hPa | 0V | 00:00:00 | 00:00:00 | 00:00:00 | |
| OE3OSB-13 | 2026-08-30 12:12:05 | 48.19358 | 16.84840 | 94° | 99km/h | 12529m | 6.2m/s | -54.5°C | 10.9% | 187.5hPa | 0V | 00:00:00 | 00:00:00 | 00:00:00 | |
| PETON7-10 | 2026-08-30 12:12:03 | 48.19359 | 16.84802 | 93° | 97km/h | 12524m | 3.7m/s | 0°C | 0% | 0hPa | 0V | 00:00:00 | 00:00:00 | 00:00:00 | |
| OE3JTB-15 | 2026-08-30 12:12:02 | 48.19363 | 16.84651 | 93° | 95km/h | 12506m | 4.9m/s | 0°C | 0% | 0hPa | 0V | 00:00:00 | 00:00:00 | 00:00:00 | |
| PG1ADW-2 | 2026-08-30 12:11:58 | 48.19364 | 16.84614 | 89° | 95km/h | 12502m | 3.2m/s | 0°C | 0% | 0hPa | 0V | 00:00:00 | 00:00:00 | 00:00:00 | |
| ATIDSZ-14 | 2026-08-30 12:11:56 | 48.19363 | 16.84540 | 93° | 97km/h | 12494m | 4.2m/s | 0°C | 0% | 0hPa | 0V | 00:00:00 | 00:00:00 | 00:00:00 | |
| PETON7-10 | 2026-08-30 12:11:48 | 48.19361 | 16.84251 | 86° | 93km/h | 12462m | 3.1m/s | 0°C | 0% | 0hPa | 0V | 00:00:00 | 00:00:00 | 00:00:00 | |
| PG1ADW-2 | 2026-08-30 12:11:38 | 48.19370 | 16.83902 | 93° | 91km/h | 12420m | 3.6m/s | 0°C | 0% | 0hPa | 0V | 00:00:00 | 00:00:00 | 00:00:00 | |
| OE3OSB-13 | 2026-08-30 12:11:34 | 48.19377 | 16.83727 | 95° | 88km/h | 12398m | 3.8m/s | -54.3°C | 13.9% | 191.4hPa | 0V | 00:00:00 | 00:00:00 | 00:00:00 | |
| PETON7-10 | 2026-08-30 12:11:33 | 48.19377 | 16.83727 | 96° | 89km/h | 12398m | 3.8m/s | 0°C | 0% | 0hPa | 0V | 00:00:00 | 00:00:00 | 00:00:00 | |
| PETON7-10 | 2026-08-30 12:11:18 | 48.19417 | 16.83217 | 99° | 99km/h | 12341m | 3.7m/s | 0°C | 0% | 0hPa | 0V | 00:00:00 | 00:00:00 | 00:00:00 | |
| PG1ADW-2 | 2026-08-30 12:11:16 | 48.19425 | 16.83147 | 103° | 104km/h | 12332m | 5.4m/s | 0°C | 0% | 0hPa | 0V | 00:00:00 | 00:00:00 | 00:00:00 | |
| ATIDSZ-14 | 2026-08-30 12:11:14 | 48.19436 | 16.83075 | 102° | 99km/h | 12324m | 4.0m/s | 0°C | 0% | 0hPa | 0V | 00:00:00 | 00:00:00 | 00:00:00 | |
| PETON7-10 | 2026-08-30 12:11:04 | 48.19483 | 16.82664 | 101° | 108km/h | 12283m | 2.4m/s | 0°C | 0% | 0hPa | 0V | 00:00:00 | 00:00:00 | 00:00:00 | |
| OE3OSB-13 | 2026-08-30 12:11:03 | 48.19488 | 16.82625 | 101° | 106km/h | 12279m | 3.8m/s | -54.9°C | 18.5% | 195.0hPa | 0V | 00:00:00 | 00:00:00 | 00:00:00 | |
| ATIDSZ-14 | 2026-08-30 12:10:54 | 48.19527 | 16.82312 | 98° | 104km/h | 12247m | 3.8m/s | 0°C | 0% | 0hPa | 0V | 00:00:00 | 00:00:00 | 00:00:00 | |
| PG1ADW-2 | 2026-08-30 12:10:51 | 48.19538 | 16.82191 | 99° | 106km/h | 12235m | 5.1m/s | 0°C | 0% | 0hPa | 0V | 00:00:00 | 00:00:00 | 00:00:00 | |
| PETON7-10 | 2026-08-30 12:10:48 | 48.19550 | 16.82057 | 98° | 104km/h | 12223m | 2.7m/s | 0°C | 0% | 0hPa | 0V | 00:00:00 | 00:00:00 | 00:00:00 | |
| PETON7-10 | 2026-08-30 12:10:33 | 48.19572 | 16.81475 | 93° | 97km/h | 12155m | 5.8m/s | 0°C | 0% | 0hPa | 0V | 00:00:00 | 00:00:00 | 00:00:00 | |
| OE3OSB-13 | 2026-08-30 12:10:32 | 48.19575 | 16.81403 | 92° | 91km/h | 12146m | 4.0m/s | -55.9°C | 23.8% | 199.2hPa | 0V | 00:00:00 | 00:00:00 | 00:00:00 | |
| PG1ADW-2 | 2026-08-30 12:10:29 | 48.19574 | 16.81329 | 85° | 95km/h | 12137m | 1.7m/s | 0°C | 0% | 0hPa | 0V | 00:00:00 | 00:00:00 | 00:00:00 | |
| HA6NAB-11 | 2026-08-30 12:10:13 | 48.19563 | 16.80743 | 94° | 82km/h | 12065m | 3.5m/s | 0°C | 0% | 0hPa | 0V | 00:00:00 | 00:00:00 | 00:00:00 | |
| PG1ADW-2 | 2026-08-30 12:10:07 | 48.19564 | 16.80532 | 84° | 91km/h | 12037m | 3.6m/s | 0°C | 0% | 0hPa | 0V | 00:00:00 | 00:00:00 | 00:00:00 | |
| PETON7-10 | 2026-08-30 12:10:03 | 48.19561 | 16.80400 | 97° | 86km/h | 12020m | 4.3m/s | 0°C | 0% | 0hPa | 0V | 00:00:00 | 00:00:00 | 00:00:00 | |
| HA6NAB-11 | 2026-08-30 12:10:02 | 48.19564 | 16.80369 | 99° | 86km/h | 12016m | 5.2m/s | 0°C | 0% | 0hPa | 0V | 00:00:00 | 00:00:00 | 00:00:00 | |
| OE3OSB-13 | 2026-08-30 12:10:00 | 48.19570 | 16.80302 | 97° | 88km/h | 12008m | 4.9m/s | -56.0°C | 30.9% | 203.8hPa | 0V | 00:00:00 | 00:00:00 | 00:00:00 | |
| HA6NAB-11 | 2026-08-30 12:09:56 | 48.19576 | 16.80169 | 97° | 86km/h | 11992m | 3.2m/s | 0°C | 0% | 0hPa | 0V | 00:00:00 | 00:00:00 | 00:00:00 | |
| OE3JTB-15 | 2026-08-30 12:09:55 | 48.19578 | 16.80137 | 96° | 88km/h | 11988m | 4.6m/s | 0°C | 0% | 0hPa | 0V | 00:00:00 | 00:00:00 | 00:00:00 | |
| ATIDSZ-14 | 2026-08-30 12:09:52 | 48.19586 | 16.80041 | 100° | 86km/h | 11977m | 3.8m/s | 0°C | 0% | 0hPa | 0V | 00:00:00 | 00:00:00 | 00:00:00 | |
| HA6NAB-11 | 2026-08-30 12:09:50 | 48.19590 | 16.79976 | 95° | 86km/h | 11969m | 3.2m/s | 0°C | 0% | 0hPa | 0V | 00:00:00 | 00:00:00 | 00:00:00 | |
| PETON7-10 | 2026-08-30 12:09:48 | 48.19593 | 16.79910 | 96° | 93km/h | 11963m | 5.4m/s | 0°C | 0% | 0hPa | 0V | 00:00:00 | 00:00:00 | 00:00:00 | |
| HA6NAB-11 | 2026-08-30 12:09:44 | 48.19602 | 16.79773 | 95° | 91km/h | 11947m | 2.7m/s | 0°C | 0% | 0hPa | 0V | 00:00:00 | 00:00:00 | 00:00:00 | |
| PETON7-10 | 2026-08-30 12:09:33 | 48.19638 | 16.79375 | 101° | 91km/h | 11903m | 4.2m/s | 0°C | 0% | 0hPa | 0V | 00:00:00 | 00:00:00 | 00:00:00 | |
| ATIDSZ-14 | 2026-08-30 12:09:31 | 48.19644 | 16.79308 | 94° | 93km/h | 11895m | 3.0m/s | 0°C | 0% | 0hPa | 0V | 00:00:00 | 00:00:00 | 00:00:00 | |
| OE3OSB-13 | 2026-08-30 12:09:30 | 48.19647 | 16.79239 | 91° | 91km/h | 11887m | 6.9m/s | -56.6°C | 34.3% | 207.8hPa | 0V | 00:00:00 | 00:00:00 | 00:00:00 | |
| PETON7-10 | 2026-08-30 12:09:18 | 48.19665 | 16.78862 | 98° | 93km/h | 11838m | 5.6m/s | 0°C | 0% | 0hPa | 0V | 00:00:00 | 00:00:00 | 00:00:00 | |
| PG1ADW-2 | 2026-08-30 12:09:12 | 48.19686 | 16.78655 | 100° | 93km/h | 11809m | 4.0m/s | 0°C | 0% | 0hPa | 0V | 00:00:00 | 00:00:00 | 00:00:00 | |
| ATIDSZ-14 | 2026-08-30 12:09:10 | 48.19692 | 16.78582 | 97° | 97km/h | 11800m | 4.1m/s | 0°C | 0% | 0hPa | 0V | 00:00:00 | 00:00:00 | 00:00:00 | |
| OE3JTB-15 | 2026-08-30 12:09:04 | 48.19722 | 16.78377 | 103° | 91km/h | 11774m | 5.3m/s | 0°C | 0% | 0hPa | 0V | 00:00:00 | 00:00:00 | 00:00:00 | |
| PETON7-10 | 2026-08-30 12:09:02 | 48.19730 | 16.78306 | 99° | 91km/h | 11766m | 2.8m/s | 0°C | 0% | 0hPa | 0V | 00:00:00 | 00:00:00 | 00:00:00 | |
| OE3OSB-13 | 2026-08-30 12:08:58 | 48.19748 | 16.78168 | 104° | 86km/h | 11744m | 6.1m/s | -56.1°C | 34.6% | 212.6hPa | 0V | 00:00:00 | 00:00:00 | 00:00:00 | |
| PG1ADW-2 | 2026-08-30 12:08:52 | 48.19771 | 16.77969 | 102° | 91km/h | 11715m | 6.4m/s | 0°C | 0% | 0hPa | 0V | 00:00:00 | 00:00:00 | 00:00:00 | |
| ATIDSZ-14 | 2026-08-30 12:08:50 | 48.19782 | 16.77901 | 106° | 95km/h | 11706m | 4.8m/s | 0°C | 0% | 0hPa | 0V | 00:00:00 | 00:00:00 | 00:00:00 | |
| PETON7-10 | 2026-08-30 12:08:47 | 48.19799 | 16.77798 | 104° | 91km/h | 11694m | 4.5m/s | 0°C | 0% | 0hPa | 0V | 00:00:00 | 00:00:00 | 00:00:00 | |
| OE3JTB-15 | 2026-08-30 12:08:33 | 48.19881 | 16.77329 | 105° | 88km/h | 11635m | 3.7m/s | 0°C | 0% | 0hPa | 0V | 00:00:00 | 00:00:00 | 00:00:00 | |
| PETON7-10 | 2026-08-30 12:08:31 | 48.19890 | 16.77264 | 101° | 91km/h | 11627m | 4.3m/s | 0°C | 0% | 0hPa | 0V | 00:00:00 | 00:00:00 | 00:00:00 | |
| ATIDSZ-14 | 2026-08-30 12:08:29 | 48.19901 | 16.77199 | 106° | 89km/h | 11618m | 5.0m/s | 0°C | 0% | 0hPa | 0V | 00:00:00 | 00:00:00 | 00:00:00 | |
| OE3OSB-13 | 2026-08-30 12:08:27 | 48.19913 | 16.77133 | 105° | 89km/h | 11608m | 2.9m/s | -55.6°C | 35.0% | 217.3hPa | 0V | 00:00:00 | 00:00:00 | 00:00:00 | |
| PG1ADW-2 | 2026-08-30 12:08:25 | 48.19926 | 16.77067 | 108° | 89km/h | 11600m | 4.5m/s | 0°C | 0% | 0hPa | 0V | 00:00:00 | 00:00:00 | 00:00:00 | |
| PETON7-10 | 2026-08-30 12:08:16 | 48.19976 | 16.76769 | 111° | 88km/h | 11561m | 4.5m/s | 0°C | 0% | 0hPa | 0V | 00:00:00 | 00:00:00 | 00:00:00 | |
| ATIDSZ-14 | 2026-08-30 12:08:09 | 48.20017 | 16.76545 | 106° | 88km/h | 11528m | 4.8m/s | 0°C | 0% | 0hPa | 0V | 00:00:00 | 00:00:00 | 00:00:00 | |
| PG1ADW-2 | 2026-08-30 12:08:02 | 48.20058 | 16.76330 | 105° | 82km/h | 11501m | 6.1m/s | 0°C | 0% | 0hPa | 0V | 00:00:00 | 00:00:00 | 00:00:00 | |
| PETON7-10 | 2026-08-30 12:08:01 | 48.20064 | 16.76300 | 109° | 86km/h | 11496m | 5.8m/s | 0°C | 0% | 0hPa | 0V | 00:00:00 | 00:00:00 | 00:00:00 | |
| OE3OSB-13 | 2026-08-30 12:07:57 | 48.20101 | 16.76107 | 108° | 82km/h | 11470m | 5.8m/s | -54.7°C | 35.9% | 222.3hPa | 0V | 00:00:00 | 00:00:00 | 00:00:00 | |
| ATIDSZ-14 | 2026-08-30 12:07:48 | 48.20148 | 16.75901 | 107° | 78km/h | 11441m | 6.6m/s | 0°C | 0% | 0hPa | 0V | 00:00:00 | 00:00:00 | 00:00:00 | |
| PETON7-10 | 2026-08-30 12:07:46 | 48.20159 | 16.75840 | 102° | 82km/h | 11430m | 5.8m/s | 0°C | 0% | 0hPa | 0V | 00:00:00 | 00:00:00 | 00:00:00 | |
| PG1ADW-2 | 2026-08-30 12:07:42 | 48.20180 | 16.75719 | 109° | 82km/h | 11411m | 1.9m/s | 0°C | 0% | 0hPa | 0V | 00:00:00 | 00:00:00 | 00:00:00 | |
| PETON7-10 | 2026-08-30 12:07:31 | 48.20250 | 16.75394 | 107° | 84km/h | 11366m | 5.7m/s | 0°C | 0% | 0hPa | 0V | 00:00:00 | 00:00:00 | 00:00:00 | |
| OE3JTB-15 | 2026-08-30 12:07:29 | 48.20263 | 16.75334 | 108° | 86km/h | 11356m | 5.8m/s | 0°C | 0% | 0hPa | 0V | 00:00:00 | 00:00:00 | 00:00:00 | |
| ATIDSZ-14 | 2026-08-30 12:07:27 | 48.20276 | 16.75273 | 108° | 84km/h | 11348m | 4.7m/s | 0°C | 0% | 0hPa | 0V | 00:00:00 | 00:00:00 | 00:00:00 | |
| OE3OSB-13 | 2026-08-30 12:07:25 | 48.20295 | 16.75182 | 109° | 78km/h | 11333m | 5.2m/s | -53.5°C | 37.6% | 227.2hPa | 0V | 00:00:00 | 00:00:00 | 00:00:00 | |
| PG1ADW-2 | 2026-08-30 12:07:18 | 48.20335 | 16.75000 | 110° | 84km/h | 11307m | 5.3m/s | 0°C | 0% | 0hPa | 0V | 00:00:00 | 00:00:00 | 00:00:00 | |
| PETON7-10 | 2026-08-30 12:07:16 | 48.20367 | 16.74941 | 113° | 88km/h | 11297m | 5.0m/s | 0°C | 0% | 0hPa | 0V | 00:00:00 | 00:00:00 | 00:00:00 | |
| ATIDSZ-14 | 2026-08-30 12:07:05 | 48.20429 | 16.74601 | 112° | 89km/h | 11245m | 4.8m/s | 0°C | 0% | 0hPa | 0V | 00:00:00 | 00:00:00 | 00:00:00 | |
| PETON7-10 | 2026-08-30 12:07:01 | 48.20460 | 16.74480 | 111° | 80km/h | 11223m | 6.1m/s | 0°C | 0% | 0hPa | 0V | 00:00:00 | 00:00:00 | 00:00:00 | |
| OE3JTB-15 | 2026-08-30 12:07:00 | 48.20467 | 16.74448 | 109° | 80km/h | 11218m | 3.9m/s | 0°C | 0% | 0hPa | 0V | 00:00:00 | 00:00:00 | 00:00:00 | |
| OE3OSB-13 | 2026-08-30 12:06:54 | 48.20513 | 16.74246 | 106° | 78km/h | 11185m | 4.5m/s | -52.4°C | 38.4% | 232.4hPa | 0V | 00:00:00 | 00:00:00 | 00:00:00 | |
| PETON7-10 | 2026-08-30 12:06:45 | 48.20569 | 16.74013 | 109° | 80km/h | 11146m | 5.0m/s | 0°C | 0% | 0hPa | 0V | 00:00:00 | 00:00:00 | 00:00:00 | |
| ATIDSZ-14 | 2026-08-30 12:06:44 | 48.20575 | 16.73986 | 110° | 78km/h | 11142m | 3.2m/s | 0°C | 0% | 0hPa | 0V | 00:00:00 | 00:00:00 | 00:00:00 | |
| OE3JTB-15 | 2026-08-30 12:06:31 | 48.20680 | 16.73560 | 116° | 80km/h | 11052m | 5.4m/s | 0°C | 0% | 0hPa | 0V | 00:00:00 | 00:00:00 | 00:00:00 | |
| OE3OSB-13 | 2026-08-30 12:06:23 | 48.20734 | 16.73357 | 112° | 66km/h | 11013m | 5.2m/s | -51.1°C | 35.8% | 238.9hPa | 0V | 00:00:00 | 00:00:00 | 00:00:00 | |
| ATIDSZ-14 | 2026-08-30 12:06:22 | 48.20734 | 16.73357 | 113° | 66km/h | 11013m | 5.2m/s | 0°C | 0% | 0hPa | 0V | 00:00:00 | 00:00:00 | 00:00:00 | |
| PETON7-10 | 2026-08-30 12:06:15 | 48.20781 | 16.73168 | 108° | 75km/h | 10972m | 3.5m/s | 0°C | 0% | 0hPa | 0V | 00:00:00 | 00:00:00 | 00:00:00 | |
| ATIDSZ-14 | 2026-08-30 12:06:02 | 48.20876 | 16.72819 | 117° | 68km/h | 10898m | 5.0m/s | 0°C | 0% | 0hPa | 0V | 00:00:00 | 00:00:00 | 00:00:00 | |
| PETON7-10 | 2026-08-30 12:06:00 | 48.20890 | 16.72769 | 108° | 73km/h | 10885m | 5.1m/s | 0°C | 0% | 0hPa | 0V | 00:00:00 | 00:00:00 | 00:00:00 | |
| OE3OSB-13 | 2026-08-30 12:05:52 | 48.20939 | 16.72528 | 111° | 73km/h | 10839m | 4.9m/s | -49.7°C | 35.1% | 245.6hPa | 0V | 00:00:00 | 00:00:00 | 00:00:00 | |
| PETON7-10 | 2026-08-30 12:05:45 | 48.20973 | 16.72372 | 109° | 75km/h | 10812m | 4.4m/s | 0°C | 0% | 0hPa | 0V | 00:00:00 | 00:00:00 | 00:00:00 | |
| ATIDSZ-14 | 2026-08-30 12:05:40 | 48.20997 | 16.72230 | 99° | 71km/h | 10785m | 9.1m/s | 0°C | 0% | 0hPa | 0V | 00:00:00 | 00:00:00 | 00:00:00 | |
| PG1ADW-2 | 2026-08-30 12:05:35 | 48.21023 | 16.72106 | 110° | 77km/h | 10757m | 7.3m/s | 0°C | 0% | 0hPa | 0V | 00:00:00 | 00:00:00 | 00:00:00 | |
| OE3JTB-15 | 2026-08-30 12:05:32 | 48.21045 | 16.71960 | 101° | 78km/h | 10729m | 7.5m/s | 0°C | 0% | 0hPa | 0V | 00:00:00 | 00:00:00 | 00:00:00 | |
| PETON7-10 | 2026-08-30 12:05:30 | 48.21045 | 16.71960 | 101° | 75km/h | 10729m | 7.5m/s | 0°C | 0% | 0hPa | 0V | 00:00:00 | 00:00:00 | 00:00:00 | |
| OE3OSB-13 | 2026-08-30 12:05:21 | 48.21100 | 16.71683 | 108° | 75km/h | 10676m | 6.8m/s | -48.2°C | 36.1% | 251.8hPa | 0V | 00:00:00 | 00:00:00 | 00:00:00 | |
| ATIDSZ-14 | 2026-08-30 12:05:19 | 48.21106 | 16.71656 | 106° | 75km/h | 10670m | 5.8m/s | 0°C | 0% | 0hPa | 0V | 00:00:00 | 00:00:00 | 00:00:00 | |
| PETON7-10 | 2026-08-30 12:05:15 | 48.21127 | 16.71546 | 110° | 78km/h | 10651m | 4.2m/s | 0°C | 0% | 0hPa | 0V | 00:00:00 | 00:00:00 | 00:00:00 | |
| PG1ADW-2 | 2026-08-30 12:05:07 | 48.21168 | 16.71322 | 105° | 84km/h | 10611m | 4.8m/s | 0°C | 0% | 0hPa | 0V | 00:00:00 | 00:00:00 | 00:00:00 | |
| OE3JTB-15 | 2026-08-30 12:05:04 | 48.21199 | 16.71141 | 112° | 78km/h | 10583m | 2.6m/s | 0°C | 0% | 0hPa | 0V | 00:00:00 | 00:00:00 | 00:00:00 | |
| PETON7-10 | 2026-08-30 12:05:00 | 48.21206 | 16.71113 | 108° | 78km/h | 10579m | 4.6m/s | 0°C | 0% | 0hPa | 0V | 00:00:00 | 00:00:00 | 00:00:00 | |
| OE3OSB-13 | 2026-08-30 12:04:50 | 48.21254 | 16.70793 | 102° | 71km/h | 10518m | 5.8m/s | -46.9°C | 38.0% | 258.1hPa | 0V | 00:00:00 | 00:00:00 | 00:00:00 | |
| PETON7-10 | 2026-08-30 12:04:45 | 48.21266 | 16.70680 | 97° | 80km/h | 10493m | 6.2m/s | 0°C | 0% | 0hPa | 0V | 00:00:00 | 00:00:00 | 00:00:00 | |
| OE3JTB-15 | 2026-08-30 12:04:31 | 48.21338 | 16.70177 | 106° | 84km/h | 10399m | 5.2m/s | 0°C | 0% | 0hPa | 0V | 00:00:00 | 00:00:00 | 00:00:00 | |
| PG1ADW-2 | 2026-08-30 12:04:22 | 48.21363 | 16.69998 | 101° | 78km/h | 10370m | 5.4m/s | 0°C | 0% | 0hPa | 0V | 00:00:00 | 00:00:00 | 00:00:00 | |
| OE3OSB-13 | 2026-08-30 12:04:19 | 48.21380 | 16.69882 | 104° | 77km/h | 10351m | 8.3m/s | -45.7°C | 40.0% | 264.6hPa | 0V | 00:00:00 | 00:00:00 | 00:00:00 | |
| PETON7-10 | 2026-08-30 12:04:15 | 48.21392 | 16.69790 | 100° | 78km/h | 10335m | 6.4m/s | 0°C | 0% | 0hPa | 0V | 00:00:00 | 00:00:00 | 00:00:00 | |
| OM5KV | 2026-08-30 12:04:13 | 48.21398 | 16.69729 | 102° | 78km/h | 10320m | 7.1m/s | 0°C | 0% | 0hPa | 0V | 00:00:00 | 00:00:00 | 00:00:00 | |
| PG1ADW-2 | 2026-08-30 12:04:01 | 48.21457 | 16.69386 | 105° | 84km/h | 10259m | 4.7m/s | 0°C | 0% | 0hPa | 0V | 00:00:00 | 00:00:00 | 00:00:00 | |
| PETON7-10 | 2026-08-30 12:04:00 | 48.21461 | 16.69358 | 105° | 78km/h | 10255m | 3.2m/s | 0°C | 0% | 0hPa | 0V | 00:00:00 | 00:00:00 | 00:00:00 | |
| OE3OSB-13 | 2026-08-30 12:03:48 | 48.21521 | 16.68984 | 108° | 80km/h | 10193m | 3.9m/s | -44.5°C | 0% | 271.0hPa | 0V | 00:00:00 | 00:00:00 | 00:00:00 | |
| HA6NAB-11 | 2026-08-30 12:03:45 | 48.21533 | 16.68923 | 108° | 89km/h | 10182m | 2.5m/s | 0°C | 0% | 0hPa | 0V | 00:00:00 | 00:00:00 | 00:00:00 | |
| PG1ADW-2 | 2026-08-30 12:03:41 | 48.21559 | 16.68796 | 106° | 80km/h | 10161m | 4.2m/s | 0°C | 0% | 0hPa | 0V | 00:00:00 | 00:00:00 | 00:00:00 | |
| HA6NAB-11 | 2026-08-30 12:03:39 | 48.21568 | 16.68745 | 101° | 68km/h | 10148m | 8.3m/s | 0°C | 0% | 0hPa | 0V | 00:00:00 | 00:00:00 | 00:00:00 | |
| HA6NAB-11 | 2026-08-30 12:03:33 | 48.21592 | 16.68559 | 104° | 86km/h | 10113m | 3.3m/s | 0°C | 0% | 0hPa | 0V | 00:00:00 | 00:00:00 | 00:00:00 | |
| PETON7-10 | 2026-08-30 12:03:30 | 48.21606 | 16.68469 | 104° | 80km/h | 10101m | 5.5m/s | 0°C | 0% | 0hPa | 0V | 00:00:00 | 00:00:00 | 00:00:00 | |
| PG1ADW-2 | 2026-08-30 12:03:21 | 48.21645 | 16.68198 | 105° | 89km/h | 10052m | 5.7m/s | 0°C | 0% | 0hPa | 0V | 00:00:00 | 00:00:00 | 00:00:00 | |
| OE3OSB-13 | 2026-08-30 12:03:17 | 48.21668 | 16.68048 | 95° | 68km/h | 10029m | 5.8m/s | -42.9°C | 38.7% | 278.1hPa | 0V | 00:00:00 | 00:00:00 | 00:00:00 | |
| PETON7-10 | 2026-08-30 12:03:14 | 48.21674 | 16.67992 | 104° | 82km/h | 10017m | 6.9m/s | 0°C | 0% | 0hPa | 0V | 00:00:00 | 00:00:00 | 00:00:00 | |
| OM5KV | 2026-08-30 12:03:10 | 48.21695 | 16.67864 | 96° | 89km/h | 9990m | 6.3m/s | 0°C | 0% | 0hPa | 0V | 00:00:00 | 00:00:00 | 00:00:00 | |
| OM5KV | 2026-08-30 12:03:04 | 48.21713 | 16.67679 | 105° | 80km/h | 9957m | 5.7m/s | 0°C | 0% | 0hPa | 0V | 00:00:00 | 00:00:00 | 00:00:00 | |
| PG1ADW-2 | 2026-08-30 12:03:01 | 48.21725 | 16.67590 | 97° | 80km/h | 9937m | 5.4m/s | 0°C | 0% | 0hPa | 0V | 00:00:00 | 00:00:00 | 00:00:00 | |
| OE3OSB-13 | 2026-08-30 12:02:46 | 48.21779 | 16.67096 | 92° | 86km/h | 9849m | 4.6m/s | -41.4°C | 36.8% | 285.5hPa | 0V | 00:00:00 | 00:00:00 | 00:00:00 | |
| PETON7-10 | 2026-08-30 12:02:44 | 48.21780 | 16.67064 | 95° | 82km/h | 9843m | 6.7m/s | 0°C | 0% | 0hPa | 0V | 00:00:00 | 00:00:00 | 00:00:00 | |
| OM5KV | 2026-08-30 12:02:43 | 48.21782 | 16.67034 | 99° | 80km/h | 9838m | 4.1m/s | 0°C | 0% | 0hPa | 0V | 00:00:00 | 00:00:00 | 00:00:00 | |
| PG1ADW-2 | 2026-08-30 12:02:39 | 48.21795 | 16.66921 | 99° | 86km/h | 9812m | 5.1m/s | 0°C | 0% | 0hPa | 0V | 00:00:00 | 00:00:00 | 00:00:00 | |
| OM5KV | 2026-08-30 12:02:31 | 48.21831 | 16.66665 | 101° | 80km/h | 9772m | 7.3m/s | 0°C | 0% | 0hPa | 0V | 00:00:00 | 00:00:00 | 00:00:00 | |
| PETON7-10 | 2026-08-30 12:02:30 | 48.21836 | 16.66607 | 98° | 88km/h | 9758m | 4.8m/s | 0°C | 0% | 0hPa | 0V | 00:00:00 | 00:00:00 | 00:00:00 | |
| OE3JTB-15 | 2026-08-30 12:02:29 | 48.21849 | 16.66477 | 102° | 86km/h | 9734m | 4.2m/s | 0°C | 0% | 0hPa | 0V | 00:00:00 | 00:00:00 | 00:00:00 | |
| OM5KV | 2026-08-30 12:02:25 | 48.21849 | 16.66477 | 103° | 88km/h | 9734m | 4.3m/s | 0°C | 0% | 0hPa | 0V | 00:00:00 | 00:00:00 | 00:00:00 | |
| OM5KV | 2026-08-30 12:02:19 | 48.21866 | 16.66279 | 91° | 84km/h | 9706m | 8.4m/s | 0°C | 0% | 0hPa | 0V | 00:00:00 | 00:00:00 | 00:00:00 | |
| OM5KV | 2026-08-30 12:02:16 | 48.21878 | 16.66186 | 107° | 89km/h | 9688m | 5.9m/s | 0°C | 0% | 0hPa | 0V | 00:00:00 | 00:00:00 | 00:00:00 | |
| OE3OSB-13 | 2026-08-30 12:02:15 | 48.21890 | 16.66118 | 103° | 95km/h | 9674m | 7.2m/s | -39.9°C | 35.2% | 293.0hPa | 0V | 00:00:00 | 00:00:00 | 00:00:00 | |
| PETON7-10 | 2026-08-30 12:02:13 | 48.21895 | 16.66083 | 100° | 86km/h | 9667m | 6.0m/s | 0°C | 0% | 0hPa | 0V | 00:00:00 | 00:00:00 | 00:00:00 | |
| OM5KV | 2026-08-30 12:02:11 | 48.21903 | 16.66015 | 103° | 82km/h | 9656m | 3.5m/s | 0°C | 0% | 0hPa | 0V | 00:00:00 | 00:00:00 | 00:00:00 | |
| PG1ADW-2 | 2026-08-30 12:02:09 | 48.21908 | 16.65958 | 98° | 86km/h | 9644m | 4.6m/s | 0°C | 0% | 0hPa | 0V | 00:00:00 | 00:00:00 | 00:00:00 | |
| OM5KV | 2026-08-30 12:02:07 | 48.21911 | 16.65899 | 91° | 78km/h | 9635m | 6.4m/s | 0°C | 0% | 0hPa | 0V | 00:00:00 | 00:00:00 | 00:00:00 | |
| OM5KV | 2026-08-30 12:02:05 | 48.21912 | 16.65833 | 92° | 91km/h | 9622m | 6.2m/s | 0°C | 0% | 0hPa | 0V | 00:00:00 | 00:00:00 | 00:00:00 | |
| OM5KV | 2026-08-30 12:02:01 | 48.21930 | 16.65698 | 111° | 91km/h | 9601m | 3.3m/s | 0°C | 0% | 0hPa | 0V | 00:00:00 | 00:00:00 | 00:00:00 | |
| OM5KV | 2026-08-30 12:02:00 | 48.21938 | 16.65666 | 111° | 89km/h | 9595m | 7.7m/s | 0°C | 0% | 0hPa | 0V | 00:00:00 | 00:00:00 | 00:00:00 | |
| OE3OSB-13 | 2026-08-30 12:01:44 | 48.22020 | 16.65130 | 99° | 89km/h | 9506m | 3.0m/s | -38.4°C | 35.9% | 300.5hPa | 0V | 00:00:00 | 00:00:00 | 00:00:00 | |
| PETON7-10 | 2026-08-30 12:01:41 | 48.22029 | 16.65062 | 104° | 82km/h | 9498m | 3.0m/s | 0°C | 0% | 0hPa | 0V | 00:00:00 | 00:00:00 | 00:00:00 | |
| OM5KV | 2026-08-30 12:01:38 | 48.22040 | 16.64971 | 97° | 75km/h | 9482m | 5.4m/s | 0°C | 0% | 0hPa | 0V | 00:00:00 | 00:00:00 | 00:00:00 | |
| OM5KV | 2026-08-30 12:01:33 | 48.22067 | 16.64820 | 110° | 84km/h | 9446m | 5.6m/s | 0°C | 0% | 0hPa | 0V | 00:00:00 | 00:00:00 | 00:00:00 | |
| OM5KV | 2026-08-30 12:01:32 | 48.22074 | 16.64790 | 108° | 88km/h | 9441m | 3.9m/s | 0°C | 0% | 0hPa | 0V | 00:00:00 | 00:00:00 | 00:00:00 | |
| OM5KV | 2026-08-30 12:01:27 | 48.22101 | 16.64646 | 109° | 80km/h | 9414m | 4.2m/s | 0°C | 0% | 0hPa | 0V | 00:00:00 | 00:00:00 | 00:00:00 | |
| PG1ADW-2 | 2026-08-30 12:01:26 | 48.22107 | 16.64615 | 104° | 82km/h | 9411m | 3.1m/s | 0°C | 0% | 0hPa | 0V | 00:00:00 | 00:00:00 | 00:00:00 | |
| PETON7-10 | 2026-08-30 12:01:25 | 48.22112 | 16.64583 | 100° | 84km/h | 9407m | 4.9m/s | 0°C | 0% | 0hPa | 0V | 00:00:00 | 00:00:00 | 00:00:00 | |
| OM5KV | 2026-08-30 12:01:21 | 48.22136 | 16.64460 | 115° | 77km/h | 9383m | 5.5m/s | 0°C | 0% | 0hPa | 0V | 00:00:00 | 00:00:00 | 00:00:00 | |
| OE3OSB-13 | 2026-08-30 12:01:12 | 48.22196 | 16.64153 | 99° | 82km/h | 9323m | 4.9m/s | -37.0°C | 36.4% | 308.7hPa | 0V | 00:00:00 | 00:00:00 | 00:00:00 | |
| PETON7-10 | 2026-08-30 12:01:09 | 48.22205 | 16.64095 | 106° | 80km/h | 9314m | 4.1m/s | 0°C | 0% | 0hPa | 0V | 00:00:00 | 00:00:00 | 00:00:00 | |
| OM5KV | 2026-08-30 12:01:08 | 48.22210 | 16.64067 | 110° | 77km/h | 9310m | 4.9m/s | 0°C | 0% | 0hPa | 0V | 00:00:00 | 00:00:00 | 00:00:00 | |
| OM5KV | 2026-08-30 12:01:04 | 48.22239 | 16.63949 | 116° | 88km/h | 9290m | 4.6m/s | 0°C | 0% | 0hPa | 0V | 00:00:00 | 00:00:00 | 00:00:00 | |
| OM5KV | 2026-08-30 12:00:58 | 48.22273 | 16.63781 | 102° | 82km/h | 9266m | 6.8m/s | 0°C | 0% | 0hPa | 0V | 00:00:00 | 00:00:00 | 00:00:00 | |
| PETON7-10 | 2026-08-30 12:00:54 | 48.22304 | 16.63656 | 110° | 84km/h | 9245m | 6.1m/s | 0°C | 0% | 0hPa | 0V | 00:00:00 | 00:00:00 | 00:00:00 | |
| OM5KV | 2026-08-30 12:00:53 | 48.22312 | 16.63625 | 112° | 80km/h | 9239m | 4.1m/s | 0°C | 0% | 0hPa | 0V | 00:00:00 | 00:00:00 | 00:00:00 | |
| OE3OSB-13 | 2026-08-30 12:00:41 | 48.22402 | 16.63247 | 105° | 75km/h | 9167m | 7.1m/s | -35.6°C | 35.6% | 316.0hPa | 0V | 00:00:00 | 00:00:00 | 00:00:00 | |
| PETON7-10 | 2026-08-30 12:00:39 | 48.22406 | 16.63221 | 99° | 80km/h | 9162m | 5.6m/s | 0°C | 0% | 0hPa | 0V | 00:00:00 | 00:00:00 | 00:00:00 | |
| OE3JTB-15 | 2026-08-30 12:00:38 | 48.22417 | 16.63170 | 114° | 78km/h | 9149m | 4.5m/s | 0°C | 0% | 0hPa | 0V | 00:00:00 | 00:00:00 | 00:00:00 | |
| OM5KV | 2026-08-30 12:00:36 | 48.22426 | 16.63143 | 118° | 82km/h | 9143m | 7.2m/s | 0°C | 0% | 0hPa | 0V | 00:00:00 | 00:00:00 | 00:00:00 | |
| OM5KV | 2026-08-30 12:00:30 | 48.22484 | 16.62962 | 114° | 78km/h | 9109m | 4.9m/s | 0°C | 0% | 0hPa | 0V | 00:00:00 | 00:00:00 | 00:00:00 | |
| PETON7-10 | 2026-08-30 12:00:24 | 48.22522 | 16.62795 | 109° | 77km/h | 9071m | 6.6m/s | 0°C | 0% | 0hPa | 0V | 00:00:00 | 00:00:00 | 00:00:00 | |
| PG1ADW-2 | 2026-08-30 12:00:19 | 48.22553 | 16.62652 | 115° | 80km/h | 9044m | 3.9m/s | 0°C | 0% | 0hPa | 0V | 00:00:00 | 00:00:00 | 00:00:00 | |
| OM5KV | 2026-08-30 12:00:18 | 48.22560 | 16.62627 | 115° | 75km/h | 9040m | 4.5m/s | 0°C | 0% | 0hPa | 0V | 00:00:00 | 00:00:00 | 00:00:00 | |
| OM5KV | 2026-08-30 12:00:12 | 48.22602 | 16.62464 | 109° | 80km/h | 9008m | 5.9m/s | 0°C | 0% | 0hPa | 0V | 00:00:00 | 00:00:00 | 00:00:00 | |
| OE3OSB-13 | 2026-08-30 12:00:10 | 48.22617 | 16.62384 | 107° | 68km/h | 8990m | 8.5m/s | -34.2°C | 36.5% | 324.1hPa | 0V | 00:00:00 | 00:00:00 | 00:00:00 | |
| PETON7-10 | 2026-08-30 12:00:09 | 48.22617 | 16.62384 | 108° | 80km/h | 8990m | 8.5m/s | 0°C | 0% | 0hPa | 0V | 00:00:00 | 00:00:00 | 00:00:00 | |
| OM5KV | 2026-08-30 12:00:06 | 48.22633 | 16.62303 | 108° | 82km/h | 8970m | 6.5m/s | 0°C | 0% | 0hPa | 0V | 00:00:00 | 00:00:00 | 00:00:00 | |
| OM5KV | 2026-08-30 12:00:01 | 48.22669 | 16.62148 | 108° | 84km/h | 8941m | 6.7m/s | 0°C | 0% | 0hPa | 0V | 00:00:00 | 00:00:00 | 00:00:00 | |
| PG1ADW-2 | 2026-08-30 11:59:59 | 48.22682 | 16.62090 | 112° | 82km/h | 8930m | 5.1m/s | 0°C | 0% | 0hPa | 0V | 00:00:00 | 00:00:00 | 00:00:00 | |
| OM5KV | 2026-08-30 11:59:55 | 48.22712 | 16.61979 | 110° | 71km/h | 8911m | 4.3m/s | 0°C | 0% | 0hPa | 0V | 00:00:00 | 00:00:00 | 00:00:00 | |
| PETON7-10 | 2026-08-30 11:59:52 | 48.22726 | 16.61897 | 108° | 82km/h | 8898m | 3.5m/s | 0°C | 0% | 0hPa | 0V | 00:00:00 | 00:00:00 | 00:00:00 | |
| PG1ADW-2 | 2026-08-30 11:59:39 | 48.22812 | 16.61514 | 109° | 77km/h | 8823m | 4.3m/s | 0°C | 0% | 0hPa | 0V | 00:00:00 | 00:00:00 | 00:00:00 | |
| PETON7-10 | 2026-08-30 11:59:37 | 48.22825 | 16.61462 | 113° | 78km/h | 8813m | 5.9m/s | 0°C | 0% | 0hPa | 0V | 00:00:00 | 00:00:00 | 00:00:00 | |
| PG1ADW-2 | 2026-08-30 11:59:18 | 48.22955 | 16.60942 | 110° | 69km/h | 8722m | 4.0m/s | 0°C | 0% | 0hPa | 0V | 00:00:00 | 00:00:00 | 00:00:00 | |
| OE3OSB-13 | 2026-08-30 11:59:08 | 48.23015 | 16.60649 | 109° | 77km/h | 8659m | 5.8m/s | -31.6°C | 36.4% | 340.0hPa | 0V | 00:00:00 | 00:00:00 | 00:00:00 | |
| PETON7-10 | 2026-08-30 11:59:05 | 48.23027 | 16.60588 | 106° | 69km/h | 8644m | 7.9m/s | 0°C | 0% | 0hPa | 0V | 00:00:00 | 00:00:00 | 00:00:00 | |
| PG1ADW-2 | 2026-08-30 11:58:56 | 48.23071 | 16.60372 | 107° | 73km/h | 8591m | 4.8m/s | 0°C | 0% | 0hPa | 0V | 00:00:00 | 00:00:00 | 00:00:00 | |
| PETON7-10 | 2026-08-30 11:58:50 | 48.23114 | 16.60217 | 112° | 75km/h | 8557m | 6.4m/s | 0°C | 0% | 0hPa | 0V | 00:00:00 | 00:00:00 | 00:00:00 | |
| OE3OSB-13 | 2026-08-30 11:58:37 | 48.23205 | 16.59849 | 99° | 66km/h | 8485m | 4.3m/s | -30.3°C | 35.9% | 348.5hPa | 0V | 00:00:00 | 00:00:00 | 00:00:00 | |
| PG1ADW-2 | 2026-08-30 11:58:36 | 48.23205 | 16.59849 | 100° | 73km/h | 8485m | 4.3m/s | 0°C | 0% | 0hPa | 0V | 00:00:00 | 00:00:00 | 00:00:00 | |
| PETON7-10 | 2026-08-30 11:58:35 | 48.23209 | 16.59824 | 104° | 75km/h | 8481m | 4.1m/s | 0°C | 0% | 0hPa | 0V | 00:00:00 | 00:00:00 | 00:00:00 | |
| PETON7-10 | 2026-08-30 11:58:19 | 48.23316 | 16.59393 | 105° | 73km/h | 8402m | 4.3m/s | 0°C | 0% | 0hPa | 0V | 00:00:00 | 00:00:00 | 00:00:00 | |
| PG1ADW-2 | 2026-08-30 11:58:10 | 48.23374 | 16.59172 | 113° | 75km/h | 8346m | 5.4m/s | 0°C | 0% | 0hPa | 0V | 00:00:00 | 00:00:00 | 00:00:00 | |
| OE3JTB-15 | 2026-08-30 11:58:06 | 48.23401 | 16.59064 | 107° | 71km/h | 8326m | 3.1m/s | 0°C | 0% | 0hPa | 0V | 00:00:00 | 00:00:00 | 00:00:00 | |
| PETON7-10 | 2026-08-30 11:58:04 | 48.23412 | 16.59012 | 106° | 73km/h | 8316m | 6.3m/s | 0°C | 0% | 0hPa | 0V | 00:00:00 | 00:00:00 | 00:00:00 | |
| PG1ADW-2 | 2026-08-30 11:57:50 | 48.23506 | 16.58656 | 111° | 68km/h | 8244m | 4.9m/s | 0°C | 0% | 0hPa | 0V | 00:00:00 | 00:00:00 | 00:00:00 | |
| PETON7-10 | 2026-08-30 11:57:49 | 48.23513 | 16.58631 | 116° | 69km/h | 8238m | 5.7m/s | 0°C | 0% | 0hPa | 0V | 00:00:00 | 00:00:00 | 00:00:00 | |
| OE3OSB-13 | 2026-08-30 11:57:35 | 48.23615 | 16.58274 | 113° | 77km/h | 8161m | 5.2m/s | -27.7°C | 28.5% | 364.8hPa | 0V | 00:00:00 | 00:00:00 | 00:00:00 | |
| PETON7-10 | 2026-08-30 11:57:34 | 48.23615 | 16.58273 | 114° | 69km/h | 8162m | 5.2m/s | 0°C | 0% | 0hPa | 0V | 00:00:00 | 00:00:00 | 00:00:00 | |
| PETON7-10 | 2026-08-30 11:57:18 | 48.23722 | 16.57889 | 112° | 66km/h | 8081m | 6.1m/s | 0°C | 0% | 0hPa | 0V | 00:00:00 | 00:00:00 | 00:00:00 | |
| OE3OSB-13 | 2026-08-30 11:57:04 | 48.23817 | 16.57537 | 121° | 62km/h | 8007m | 4.1m/s | -26.3°C | 30.2% | 372.8hPa | 0V | 00:00:00 | 00:00:00 | 00:00:00 | |
| PETON7-10 | 2026-08-30 11:57:03 | 48.23817 | 16.57537 | 122° | 66km/h | 8007m | 4.0m/s | 0°C | 0% | 0hPa | 0V | 00:00:00 | 00:00:00 | 00:00:00 | |
| OE3JTB-15 | 2026-08-30 11:56:55 | 48.23873 | 16.57353 | 103° | 60km/h | 7964m | 4.8m/s | 0°C | 0% | 0hPa | 0V | 00:00:00 | 00:00:00 | 00:00:00 | |
| OE3OSB-13 | 2026-08-30 11:56:33 | 48.23980 | 16.56813 | 113° | 57km/h | 7861m | 5.3m/s | -25.2°C | 33.9% | 380.3hPa | 0V | 00:00:00 | 00:00:00 | 00:00:00 | |
| OE3JTB-15 | 2026-08-30 11:56:20 | 48.24032 | 16.56560 | 106° | 64km/h | 7804m | 3.0m/s | 0°C | 0% | 0hPa | 0V | 00:00:00 | 00:00:00 | 00:00:00 | |
| PETON7-10 | 2026-08-30 11:56:16 | 48.24051 | 16.56473 | 111° | 64km/h | 7787m | 5.4m/s | 0°C | 0% | 0hPa | 0V | 00:00:00 | 00:00:00 | 00:00:00 | |
| OE3OSB-13 | 2026-08-30 11:56:02 | 48.24136 | 16.56129 | 111° | 66km/h | 7719m | 2.4m/s | -24.1°C | 33.8% | 388.4hPa | 0V | 00:00:00 | 00:00:00 | 00:00:00 | |
| PETON7-10 | 2026-08-30 11:56:00 | 48.24142 | 16.56105 | 111° | 64km/h | 7715m | 4.9m/s | 0°C | 0% | 0hPa | 0V | 00:00:00 | 00:00:00 | 00:00:00 | |
| PG1ADW-2 | 2026-08-30 11:55:54 | 48.24175 | 16.55976 | 112° | 64km/h | 7692m | 4.4m/s | 0°C | 0% | 0hPa | 0V | 00:00:00 | 00:00:00 | 00:00:00 | |
| OE3JTB-15 | 2026-08-30 11:55:49 | 48.24200 | 16.55849 | 106° | 58km/h | 7672m | 5.0m/s | 0°C | 0% | 0hPa | 0V | 00:00:00 | 00:00:00 | 00:00:00 | |
| PETON7-10 | 2026-08-30 11:55:45 | 48.24222 | 16.55764 | 110° | 62km/h | 7646m | 5.6m/s | 0°C | 0% | 0hPa | 0V | 00:00:00 | 00:00:00 | 00:00:00 | |
| OE3OSB-13 | 2026-08-30 11:55:31 | 48.24298 | 16.55437 | 113° | 58km/h | 7563m | 4.5m/s | -22.7°C | 31.3% | 396.7hPa | 0V | 00:00:00 | 00:00:00 | 00:00:00 | |
| PETON7-10 | 2026-08-30 11:55:30 | 48.24298 | 16.55437 | 114° | 58km/h | 7563m | 4.4m/s | 0°C | 0% | 0hPa | 0V | 00:00:00 | 00:00:00 | 00:00:00 | |
| PG1ADW-2 | 2026-08-30 11:55:28 | 48.24308 | 16.55398 | 111° | 60km/h | 7554m | 4.7m/s | 0°C | 0% | 0hPa | 0V | 00:00:00 | 00:00:00 | 00:00:00 | |
| OE3JTB-15 | 2026-08-30 11:55:19 | 48.24338 | 16.55205 | 101° | 60km/h | 7511m | 4.8m/s | 0°C | 0% | 0hPa | 0V | 00:00:00 | 00:00:00 | 00:00:00 | |
| PETON7-10 | 2026-08-30 11:55:14 | 48.24364 | 16.55099 | 111° | 58km/h | 7484m | 6.1m/s | 0°C | 0% | 0hPa | 0V | 00:00:00 | 00:00:00 | 00:00:00 | |
| PG1ADW-2 | 2026-08-30 11:55:01 | 48.24424 | 16.54821 | 103° | 60km/h | 7430m | 5.8m/s | 0°C | 0% | 0hPa | 0V | 00:00:00 | 00:00:00 | 00:00:00 | |
| OE3OSB-13 | 2026-08-30 11:55:00 | 48.24432 | 16.54779 | 107° | 60km/h | 7418m | 4.7m/s | -21.7°C | 30.3% | 404.5hPa | 0V | 00:00:00 | 00:00:00 | 00:00:00 | |
| PETON7-10 | 2026-08-30 11:54:59 | 48.24432 | 16.54779 | 108° | 58km/h | 7418m | 4.7m/s | 0°C | 0% | 0hPa | 0V | 00:00:00 | 00:00:00 | 00:00:00 | |
| OE3JTB-15 | 2026-08-30 11:54:47 | 48.24492 | 16.54504 | 111° | 60km/h | 7363m | 5.0m/s | 0°C | 0% | 0hPa | 0V | 00:00:00 | 00:00:00 | 00:00:00 | |
| PETON7-10 | 2026-08-30 11:54:44 | 48.24502 | 16.54465 | 111° | 58km/h | 7355m | 4.5m/s | 0°C | 0% | 0hPa | 0V | 00:00:00 | 00:00:00 | 00:00:00 | |
| PG1ADW-2 | 2026-08-30 11:54:41 | 48.24515 | 16.54398 | 106° | 58km/h | 7343m | 4.4m/s | 0°C | 0% | 0hPa | 0V | 00:00:00 | 00:00:00 | 00:00:00 | |
| PETON7-10 | 2026-08-30 11:54:29 | 48.24565 | 16.54142 | 110° | 60km/h | 7299m | 3.5m/s | 0°C | 0% | 0hPa | 0V | 00:00:00 | 00:00:00 | 00:00:00 | |
| OE3OSB-13 | 2026-08-30 11:54:28 | 48.24570 | 16.54120 | 106° | 58km/h | 7296m | 1.7m/s | -20.6°C | 30.1% | 411.4hPa | 0V | 00:00:00 | 00:00:00 | 00:00:00 | |
| PG1ADW-2 | 2026-08-30 11:54:20 | 48.24603 | 16.53948 | 109° | 60km/h | 7256m | 3.9m/s | 0°C | 0% | 0hPa | 0V | 00:00:00 | 00:00:00 | 00:00:00 | |
| OE3JTB-15 | 2026-08-30 11:54:17 | 48.24621 | 16.53860 | 106° | 57km/h | 7236m | 4.0m/s | 0°C | 0% | 0hPa | 0V | 00:00:00 | 00:00:00 | 00:00:00 | |
| PETON7-10 | 2026-08-30 11:54:13 | 48.24638 | 16.53796 | 118° | 60km/h | 7228m | 2.6m/s | 0°C | 0% | 0hPa | 0V | 00:00:00 | 00:00:00 | 00:00:00 | |
| OE3OSB-13 | 2026-08-30 11:53:57 | 48.24728 | 16.53447 | 114° | 57km/h | 7149m | 6.7m/s | -19.8°C | 31.3% | 419.8hPa | 0V | 00:00:00 | 00:00:00 | 00:00:00 | |
| PG1ADW-2 | 2026-08-30 11:53:55 | 48.24736 | 16.53410 | 99° | 60km/h | 7139m | 4.1m/s | 0°C | 0% | 0hPa | 0V | 00:00:00 | 00:00:00 | 00:00:00 | |
| PETON7-10 | 2026-08-30 11:53:43 | 48.24795 | 16.53161 | 121° | 62km/h | 7080m | 4.4m/s | 0°C | 0% | 0hPa | 0V | 00:00:00 | 00:00:00 | 00:00:00 | |
| PETON7-10 | 2026-08-30 11:53:28 | 48.24899 | 16.52846 | 116° | 64km/h | 7031m | 4.8m/s | 0°C | 0% | 0hPa | 0V | 00:00:00 | 00:00:00 | 00:00:00 | |
| OE3OSB-13 | 2026-08-30 11:53:26 | 48.24914 | 16.52804 | 114° | 64km/h | 7020m | 7.3m/s | -18.8°C | 31.8% | 427.5hPa | 0V | 00:00:00 | 00:00:00 | 00:00:00 | |
| OE3JTB-15 | 2026-08-30 11:53:18 | 48.24978 | 16.52582 | 111° | 58km/h | 6959m | 5.5m/s | 0°C | 0% | 0hPa | 0V | 00:00:00 | 00:00:00 | 00:00:00 | |
| PETON7-10 | 2026-08-30 11:53:13 | 48.24996 | 16.52510 | 112° | 60km/h | 6947m | 5.3m/s | 0°C | 0% | 0hPa | 0V | 00:00:00 | 00:00:00 | 00:00:00 | |
| OE3OSB-13 | 2026-08-30 11:52:55 | 48.25106 | 16.52145 | 112° | 49km/h | 6862m | 4.8m/s | -17.7°C | 29.6% | 436.3hPa | 0V | 00:00:00 | 00:00:00 | 00:00:00 | |
| OE3JTB-15 | 2026-08-30 11:52:46 | 48.25158 | 16.51953 | 109° | 53km/h | 6814m | 4.6m/s | 0°C | 0% | 0hPa | 0V | 00:00:00 | 00:00:00 | 00:00:00 | |
| PETON7-10 | 2026-08-30 11:52:42 | 48.25168 | 16.51915 | 114° | 55km/h | 6806m | 3.0m/s | 0°C | 0% | 0hPa | 0V | 00:00:00 | 00:00:00 | 00:00:00 | |
| PETON7-10 | 2026-08-30 11:52:27 | 48.25244 | 16.51633 | 109° | 51km/h | 6736m | 3.2m/s | 0°C | 0% | 0hPa | 0V | 00:00:00 | 00:00:00 | 00:00:00 | |
| OE3OSB-13 | 2026-08-30 11:52:24 | 48.25261 | 16.51556 | 113° | 46km/h | 6720m | 4.0m/s | -17.0°C | 15.5% | 444.9hPa | 0V | 00:00:00 | 00:00:00 | 00:00:00 | |
| OE3JTB-15 | 2026-08-30 11:52:17 | 48.25286 | 16.51430 | 117° | 55km/h | 6690m | 4.9m/s | 0°C | 0% | 0hPa | 0V | 00:00:00 | 00:00:00 | 00:00:00 | |
| PG1ADW-2 | 2026-08-30 11:52:13 | 48.25308 | 16.51385 | 137° | 57km/h | 6675m | 7.0m/s | 0°C | 0% | 0hPa | 0V | 00:00:00 | 00:00:00 | 00:00:00 | |
| PETON7-10 | 2026-08-30 11:52:12 | 48.25317 | 16.51369 | 123° | 55km/h | 6670m | 3.7m/s | 0°C | 0% | 0hPa | 0V | 00:00:00 | 00:00:00 | 00:00:00 | |
| OE3OSB-13 | 2026-08-30 11:51:53 | 48.25434 | 16.50990 | 131° | 58km/h | 6578m | 4.9m/s | -16.0°C | 14.4% | 453.8hPa | 0V | 00:00:00 | 00:00:00 | 00:00:00 | |
| PG1ADW-2 | 2026-08-30 11:51:48 | 48.25457 | 16.50909 | 101° | 55km/h | 6551m | 5.2m/s | 0°C | 0% | 0hPa | 0V | 00:00:00 | 00:00:00 | 00:00:00 | |
| PETON7-10 | 2026-08-30 11:51:42 | 48.25485 | 16.50799 | 118° | 55km/h | 6522m | 4.0m/s | 0°C | 0% | 0hPa | 0V | 00:00:00 | 00:00:00 | 00:00:00 | |
| PETON7-10 | 2026-08-30 11:51:27 | 48.25556 | 16.50509 | 111° | 53km/h | 6452m | 5.4m/s | 0°C | 0% | 0hPa | 0V | 00:00:00 | 00:00:00 | 00:00:00 | |
| OE3OSB-13 | 2026-08-30 11:51:22 | 48.25586 | 16.50390 | 111° | 51km/h | 6419m | 3.6m/s | -15.1°C | 14.1% | 463.1hPa | 0V | 00:00:00 | 00:00:00 | 00:00:00 | |
| OE3JTB-15 | 2026-08-30 11:51:18 | 48.25597 | 16.50338 | 102° | 47km/h | 6405m | 3.5m/s | 0°C | 0% | 0hPa | 0V | 00:00:00 | 00:00:00 | 00:00:00 | |
| PETON7-10 | 2026-08-30 11:51:12 | 48.25621 | 16.50221 | 96° | 47km/h | 6380m | 3.1m/s | 0°C | 0% | 0hPa | 0V | 00:00:00 | 00:00:00 | 00:00:00 | |
| OE3OSB-13 | 2026-08-30 11:50:51 | 48.25679 | 16.49853 | 115° | 53km/h | 6281m | 4.0m/s | -14.0°C | 12.9% | 472.1hPa | 0V | 00:00:00 | 00:00:00 | 00:00:00 | |
| OE3JTB-15 | 2026-08-30 11:50:49 | 48.25683 | 16.49835 | 105° | 44km/h | 6278m | 0.9m/s | 0°C | 0% | 0hPa | 0V | 00:00:00 | 00:00:00 | 00:00:00 | |
| PETON7-10 | 2026-08-30 11:50:42 | 48.25690 | 16.49717 | 97° | 46km/h | 6239m | 4.8m/s | 0°C | 0% | 0hPa | 0V | 00:00:00 | 00:00:00 | 00:00:00 | |
| PETON7-10 | 2026-08-30 11:50:27 | 48.25722 | 16.49476 | 99° | 40km/h | 6165m | 8.8m/s | 0°C | 0% | 0hPa | 0V | 00:00:00 | 00:00:00 | 00:00:00 | |
| PG1ADW-2 | 2026-08-30 11:50:22 | 48.25733 | 16.49407 | 99° | 46km/h | 6137m | 6.1m/s | 0°C | 0% | 0hPa | 0V | 00:00:00 | 00:00:00 | 00:00:00 | |
| OE3OSB-13 | 2026-08-30 11:50:20 | 48.25734 | 16.49357 | 92° | 42km/h | 6125m | 4.8m/s | -12.8°C | 15.5% | 482.1hPa | 0V | 00:00:00 | 00:00:00 | 00:00:00 | |
| PETON7-10 | 2026-08-30 11:50:12 | 48.25747 | 16.49251 | 103° | 42km/h | 6096m | 2.2m/s | 0°C | 0% | 0hPa | 0V | 00:00:00 | 00:00:00 | 00:00:00 | |
| OE3OSB-13 | 2026-08-30 11:49:49 | 48.25776 | 16.48884 | 90° | 35km/h | 5977m | 3.5m/s | -12.3°C | 53.7% | 491.3hPa | 0V | 00:00:00 | 00:00:00 | 00:00:00 | |
| PETON7-10 | 2026-08-30 11:49:42 | 48.25783 | 16.48800 | 95° | 31km/h | 5954m | 4.5m/s | 0°C | 0% | 0hPa | 0V | 00:00:00 | 00:00:00 | 00:00:00 | |
| PETON7-10 | 2026-08-30 11:49:27 | 48.25803 | 16.48629 | 115° | 38km/h | 5882m | 4.7m/s | 0°C | 0% | 0hPa | 0V | 00:00:00 | 00:00:00 | 00:00:00 | |
| OE3JTB-15 | 2026-08-30 11:49:22 | 48.25805 | 16.48560 | 68° | 37km/h | 5852m | 3.8m/s | 0°C | 0% | 0hPa | 0V | 00:00:00 | 00:00:00 | 00:00:00 | |
| OE3OSB-13 | 2026-08-30 11:49:19 | 48.25810 | 16.48490 | 107° | 40km/h | 5827m | 5.0m/s | -11.5°C | 59.5% | 501.1hPa | 0V | 00:00:00 | 00:00:00 | 00:00:00 | |
| PETON7-10 | 2026-08-30 11:49:12 | 48.25809 | 16.48424 | 98° | 38km/h | 5802m | 6.5m/s | 0°C | 0% | 0hPa | 0V | 00:00:00 | 00:00:00 | 00:00:00 | |
| PG1ADW-2 | 2026-08-30 11:49:08 | 48.25821 | 16.48357 | 96° | 35km/h | 5779m | 4.3m/s | 0°C | 0% | 0hPa | 0V | 00:00:00 | 00:00:00 | 00:00:00 | |
| OE3OSB-13 | 2026-08-30 11:48:47 | 48.25827 | 16.48068 | 96° | 31km/h | 5667m | 3.6m/s | -10.2°C | 48.3% | 511.8hPa | 0V | 00:00:00 | 00:00:00 | 00:00:00 | |
| PETON7-10 | 2026-08-30 11:48:27 | 48.25852 | 16.47819 | 96° | 33km/h | 5567m | 5.5m/s | 0°C | 0% | 0hPa | 0V | 00:00:00 | 00:00:00 | 00:00:00 | |
| OE3JTB-15 | 2026-08-30 11:48:24 | 48.25858 | 16.47784 | 107° | 33km/h | 5551m | 5.2m/s | 0°C | 0% | 0hPa | 0V | 00:00:00 | 00:00:00 | 00:00:00 | |
| OE3OSB-13 | 2026-08-30 11:48:16 | 48.25854 | 16.47676 | 80° | 33km/h | 5505m | 4.8m/s | -9.0°C | 37.1% | 522.9hPa | 0V | 00:00:00 | 00:00:00 | 00:00:00 | |
| PETON7-10 | 2026-08-30 11:48:12 | 48.25853 | 16.47643 | 99° | 31km/h | 5489m | 4.4m/s | 0°C | 0% | 0hPa | 0V | 00:00:00 | 00:00:00 | 00:00:00 | |
| OE3OSB-13 | 2026-08-30 11:47:45 | 48.25847 | 16.47304 | 73° | 31km/h | 5346m | 6.4m/s | -8.1°C | 40.9% | 533.9hPa | 0V | 00:00:00 | 00:00:00 | 00:00:00 | |
| PETON7-10 | 2026-08-30 11:47:43 | 48.25845 | 16.47279 | 92° | 38km/h | 5336m | 4.5m/s | 0°C | 0% | 0hPa | 0V | 00:00:00 | 00:00:00 | 00:00:00 | |
| PETON7-10 | 2026-08-30 11:47:27 | 48.25849 | 16.47063 | 86° | 37km/h | 5257m | 5.2m/s | 0°C | 0% | 0hPa | 0V | 00:00:00 | 00:00:00 | 00:00:00 | |
| OE3JTB-15 | 2026-08-30 11:47:26 | 48.25849 | 16.47067 | 89° | 40km/h | 5252m | 5.4m/s | 0°C | 0% | 0hPa | 0V | 00:00:00 | 00:00:00 | 00:00:00 | |
| PG1ADW-2 | 2026-08-30 11:47:17 | 48.25857 | 16.46919 | 83° | 42km/h | 5207m | 4.2m/s | 0°C | 0% | 0hPa | 0V | 00:00:00 | 00:00:00 | 00:00:00 | |
| OE3OSB-13 | 2026-08-30 11:47:13 | 48.25851 | 16.46867 | 79° | 31km/h | 5189m | 5.0m/s | -7.7°C | 55.5% | 544.8hPa | 0V | 00:00:00 | 00:00:00 | 00:00:00 | |
| PETON7-10 | 2026-08-30 11:47:12 | 48.25848 | 16.46854 | 72° | 44km/h | 5185m | 3.5m/s | 0°C | 0% | 0hPa | 0V | 00:00:00 | 00:00:00 | 00:00:00 | |
| PETON7-10 | 2026-08-30 11:46:57 | 48.25819 | 16.46622 | 97° | 40km/h | 5108m | 3.2m/s | 0°C | 0% | 0hPa | 0V | 00:00:00 | 00:00:00 | 00:00:00 | |
| PETON7-10 | 2026-08-30 11:46:42 | 48.25788 | 16.46403 | 100° | 42km/h | 5028m | 5.4m/s | 0°C | 0% | 0hPa | 0V | 00:00:00 | 00:00:00 | 00:00:00 | |
| OE3JTB-15 | 2026-08-30 11:46:28 | 48.25771 | 16.46189 | 69° | 47km/h | 4950m | 5.3m/s | 0°C | 0% | 0hPa | 0V | 00:00:00 | 00:00:00 | 00:00:00 | |
| PETON7-10 | 2026-08-30 11:46:27 | 48.25769 | 16.46174 | 83° | 44km/h | 4944m | 6.7m/s | 0°C | 0% | 0hPa | 0V | 00:00:00 | 00:00:00 | 00:00:00 | |
| PG1ADW-2 | 2026-08-30 11:46:12 | 48.25758 | 16.45933 | 89° | 47km/h | 4855m | 7.9m/s | 0°C | 0% | 0hPa | 0V | 00:00:00 | 00:00:00 | 00:00:00 | |
| PETON7-10 | 2026-08-30 11:46:11 | 48.25757 | 16.45914 | 89° | 51km/h | 4848m | 6.9m/s | 0°C | 0% | 0hPa | 0V | 00:00:00 | 00:00:00 | 00:00:00 | |
| OE3JTB-15 | 2026-08-30 11:45:59 | 48.25751 | 16.45681 | 85° | 46km/h | 4788m | 5.5m/s | 0°C | 0% | 0hPa | 0V | 00:00:00 | 00:00:00 | 00:00:00 | |
| PETON7-10 | 2026-08-30 11:45:56 | 48.25744 | 16.45632 | 89° | 49km/h | 4771m | 6.5m/s | 0°C | 0% | 0hPa | 0V | 00:00:00 | 00:00:00 | 00:00:00 | |
| PETON7-10 | 2026-08-30 11:45:41 | 48.25741 | 16.45368 | 92° | 44km/h | 4689m | 5.6m/s | 0°C | 0% | 0hPa | 0V | 00:00:00 | 00:00:00 | 00:00:00 | |
| OE3OSB-13 | 2026-08-30 11:45:40 | 48.25740 | 16.45334 | 90° | 42km/h | 4676m | 4.8m/s | -4.5°C | 69.0% | 581.7hPa | 0V | 00:00:00 | 00:00:00 | 00:00:00 | |
| OE3JTB-15 | 2026-08-30 11:45:30 | 48.25747 | 16.45184 | 112° | 44km/h | 4638m | 4.1m/s | 0°C | 0% | 0hPa | 0V | 00:00:00 | 00:00:00 | 00:00:00 | |
| PETON7-10 | 2026-08-30 11:45:26 | 48.25743 | 16.45121 | 62° | 44km/h | 4619m | 4.9m/s | 0°C | 0% | 0hPa | 0V | 00:00:00 | 00:00:00 | 00:00:00 | |
| S52SK | 2026-08-30 11:45:18 | 48.25732 | 16.44986 | 79° | 38km/h | 4565m | 5.0m/s | 0°C | 0% | 0hPa | 0V | 00:00:00 | 00:00:00 | 00:00:00 | |
| S52SK | 2026-08-30 11:45:12 | 48.25742 | 16.44892 | 108° | 44km/h | 4540m | 2.3m/s | 0°C | 0% | 0hPa | 0V | 00:00:00 | 00:00:00 | 00:00:00 | |
| PETON7-10 | 2026-08-30 11:45:11 | 48.25744 | 16.44877 | 96° | 44km/h | 4536m | 4.5m/s | 0°C | 0% | 0hPa | 0V | 00:00:00 | 00:00:00 | 00:00:00 | |
| OE3OSB-13 | 2026-08-30 11:45:09 | 48.25743 | 16.44836 | 87° | 44km/h | 4516m | 6.7m/s | -3.2°C | 70.2% | 594.0hPa | 0V | 00:00:00 | 00:00:00 | 00:00:00 | |
| S52SK | 2026-08-30 11:45:07 | 48.25742 | 16.44817 | 91° | 53km/h | 4511m | 3.8m/s | 0°C | 0% | 0hPa | 0V | 00:00:00 | 00:00:00 | 00:00:00 | |
| OE3JTB-15 | 2026-08-30 11:45:01 | 48.25748 | 16.44705 | 75° | 40km/h | 4480m | 5.4m/s | 0°C | 0% | 0hPa | 0V | 00:00:00 | 00:00:00 | 00:00:00 | |
| PETON7-10 | 2026-08-30 11:44:56 | 48.25739 | 16.44627 | 77° | 40km/h | 4454m | 3.8m/s | 0°C | 0% | 0hPa | 0V | 00:00:00 | 00:00:00 | 00:00:00 | |
| PETON7-10 | 2026-08-30 11:44:41 | 48.25727 | 16.44401 | 87° | 37km/h | 4382m | 5.0m/s | 0°C | 0% | 0hPa | 0V | 00:00:00 | 00:00:00 | 00:00:00 | |
| OE3OSB-13 | 2026-08-30 11:44:38 | 48.25723 | 16.44345 | 83° | 31km/h | 4361m | 5.4m/s | -2.6°C | 74.6% | 605.8hPa | 0V | 00:00:00 | 00:00:00 | 00:00:00 | |
| OE3JTB-15 | 2026-08-30 11:44:33 | 48.25719 | 16.44264 | 96° | 40km/h | 4335m | 4.8m/s | 0°C | 0% | 0hPa | 0V | 00:00:00 | 00:00:00 | 00:00:00 | |
| PETON7-10 | 2026-08-30 11:44:26 | 48.25714 | 16.44194 | 48° | 44km/h | 4308m | 4.0m/s | 0°C | 0% | 0hPa | 0V | 00:00:00 | 00:00:00 | 00:00:00 | |
| S52SK | 2026-08-30 11:44:25 | 48.25708 | 16.44180 | 64° | 46km/h | 4303m | 5.0m/s | 0°C | 0% | 0hPa | 0V | 00:00:00 | 00:00:00 | 00:00:00 | |
| PETON7-10 | 2026-08-30 11:44:11 | 48.25671 | 16.43949 | 82° | 35km/h | 4227m | 3.8m/s | 0°C | 0% | 0hPa | 0V | 00:00:00 | 00:00:00 | 00:00:00 | |
| OE3OSB-13 | 2026-08-30 11:44:07 | 48.25680 | 16.43881 | 88° | 24km/h | 4201m | 4.5m/s | -1.3°C | 67.5% | 618.0hPa | 0V | 00:00:00 | 00:00:00 | 00:00:00 | |
| OE3JTB-15 | 2026-08-30 11:44:03 | 48.25670 | 16.43854 | 63° | 35km/h | 4181m | 7.7m/s | 0°C | 0% | 0hPa | 0V | 00:00:00 | 00:00:00 | 00:00:00 | |
| PETON7-10 | 2026-08-30 11:43:54 | 48.25657 | 16.43727 | 92° | 38km/h | 4131m | 4.1m/s | 0°C | 0% | 0hPa | 0V | 00:00:00 | 00:00:00 | 00:00:00 | |
| PETON7-10 | 2026-08-30 11:43:39 | 48.25644 | 16.43526 | 83° | 37km/h | 4045m | 5.6m/s | 0°C | 0% | 0hPa | 0V | 00:00:00 | 00:00:00 | 00:00:00 | |
| OE3OSB-13 | 2026-08-30 11:43:36 | 48.25641 | 16.43480 | 104° | 22km/h | 4020m | 4.4m/s | -0.4°C | 64.4% | 632.2hPa | 0V | 00:00:00 | 00:00:00 | 00:00:00 | |
| OE3JTB-15 | 2026-08-30 11:43:34 | 48.25642 | 16.43469 | 100° | 31km/h | 4015m | 5.3m/s | 0°C | 0% | 0hPa | 0V | 00:00:00 | 00:00:00 | 00:00:00 | |
| PETON7-10 | 2026-08-30 11:43:23 | 48.25664 | 16.43306 | 126° | 24km/h | 3955m | 5.6m/s | 0°C | 0% | 0hPa | 0V | 00:00:00 | 00:00:00 | 00:00:00 | |
| PETON7-10 | 2026-08-30 11:43:08 | 48.25655 | 16.43185 | 76° | 33km/h | 3872m | 5.8m/s | 0°C | 0% | 0hPa | 0V | 00:00:00 | 00:00:00 | 00:00:00 | |
| OE3OSB-13 | 2026-08-30 11:43:05 | 48.25648 | 16.43127 | 71° | 38km/h | 3845m | 6.8m/s | 0.5°C | 66.7% | 646.4hPa | 0V | 00:00:00 | 00:00:00 | 00:00:00 | |
| PETON7-10 | 2026-08-30 11:42:53 | 48.25630 | 16.43007 | 75° | 37km/h | 3785m | 5.0m/s | 0°C | 0% | 0hPa | 0V | 00:00:00 | 00:00:00 | 00:00:00 | |
| PETON7-10 | 2026-08-30 11:42:38 | 48.25621 | 16.42801 | 87° | 40km/h | 3708m | 2.7m/s | 0°C | 0% | 0hPa | 0V | 00:00:00 | 00:00:00 | 00:00:00 | |
| OE3JTB-15 | 2026-08-30 11:42:36 | 48.25616 | 16.42763 | 71° | 40km/h | 3699m | 4.4m/s | 0°C | 0% | 0hPa | 0V | 00:00:00 | 00:00:00 | 00:00:00 | |
| OE3OSB-13 | 2026-08-30 11:42:34 | 48.25602 | 16.42716 | 69° | 37km/h | 3684m | 6.0m/s | 1.6°C | 66.9% | 659.5hPa | 0V | 00:00:00 | 00:00:00 | 00:00:00 | |
| PETON7-10 | 2026-08-30 11:42:23 | 48.25594 | 16.42573 | 91° | 40km/h | 3630m | 8.7m/s | 0°C | 0% | 0hPa | 0V | 00:00:00 | 00:00:00 | 00:00:00 | |
| PETON7-10 | 2026-08-30 11:42:08 | 48.25578 | 16.42352 | 73° | 38km/h | 3561m | 6.4m/s | 0°C | 0% | 0hPa | 0V | 00:00:00 | 00:00:00 | 00:00:00 | |
| OE3JTB-15 | 2026-08-30 11:42:07 | 48.25577 | 16.42336 | 94° | 42km/h | 3555m | 4.3m/s | 0°C | 0% | 0hPa | 0V | 00:00:00 | 00:00:00 | 00:00:00 | |
| OE3OSB-13 | 2026-08-30 11:42:03 | 48.25586 | 16.42268 | 68° | 29km/h | 3529m | 4.9m/s | 2.8°C | 66.1% | 672.3hPa | 0V | 00:00:00 | 00:00:00 | 00:00:00 | |
| OE3JTB-15 | 2026-08-30 11:41:38 | 48.25557 | 16.41898 | 74° | 42km/h | 3401m | 6.0m/s | 0°C | 0% | 0hPa | 0V | 00:00:00 | 00:00:00 | 00:00:00 | |
| OE3OSB-13 | 2026-08-30 11:41:32 | 48.25559 | 16.41807 | 108° | 35km/h | 3356m | 1.7m/s | 4.2°C | 60.3% | 686.4hPa | 0V | 00:00:00 | 00:00:00 | 00:00:00 | |
| PETON7-10 | 2026-08-30 11:41:23 | 48.25557 | 16.41667 | 84° | 42km/h | 3311m | 5.1m/s | 0°C | 0% | 0hPa | 0V | 00:00:00 | 00:00:00 | 00:00:00 | |
| OE3JTB-15 | 2026-08-30 11:41:09 | 48.25542 | 16.41448 | 98° | 38km/h | 3242m | 4.6m/s | 0°C | 0% | 0hPa | 0V | 00:00:00 | 00:00:00 | 00:00:00 | |
| PETON7-10 | 2026-08-30 11:41:08 | 48.25544 | 16.41433 | 96° | 38km/h | 3236m | 4.4m/s | 0°C | 0% | 0hPa | 0V | 00:00:00 | 00:00:00 | 00:00:00 | |
| OE3OSB-13 | 2026-08-30 11:41:01 | 48.25548 | 16.41306 | 97° | 47km/h | 3189m | 6.3m/s | 5.6°C | 60.2% | 700.7hPa | 0V | 00:00:00 | 00:00:00 | 00:00:00 | |
| PETON7-10 | 2026-08-30 11:40:53 | 48.25559 | 16.41228 | 89° | 42km/h | 3150m | 5.0m/s | 0°C | 0% | 0hPa | 0V | 00:00:00 | 00:00:00 | 00:00:00 | |
| OE3JTB-15 | 2026-08-30 11:40:40 | 48.25545 | 16.41029 | 81° | 42km/h | 3082m | 2.4m/s | 0°C | 0% | 0hPa | 0V | 00:00:00 | 00:00:00 | 00:00:00 | |
| PETON7-10 | 2026-08-30 11:40:37 | 48.25536 | 16.40976 | 67° | 40km/h | 3070m | 3.4m/s | 0°C | 0% | 0hPa | 0V | 00:00:00 | 00:00:00 | 00:00:00 | |
| PETON7-10 | 2026-08-30 11:40:22 | 48.25510 | 16.40760 | 67° | 40km/h | 2998m | 3.8m/s | 0°C | 0% | 0hPa | 0V | 00:00:00 | 00:00:00 | 00:00:00 | |
| OE3JTB-15 | 2026-08-30 11:40:11 | 48.25495 | 16.40598 | 74° | 29km/h | 2940m | 3.5m/s | 0°C | 0% | 0hPa | 0V | 00:00:00 | 00:00:00 | 00:00:00 | |
| PETON7-10 | 2026-08-30 11:40:07 | 48.25497 | 16.40541 | 102° | 31km/h | 2916m | 2.6m/s | 0°C | 0% | 0hPa | 0V | 00:00:00 | 00:00:00 | 00:00:00 | |
| OE3OSB-13 | 2026-08-30 11:39:59 | 48.25479 | 16.40448 | 59° | 38km/h | 2864m | 3.7m/s | 7.7°C | 36.8% | 729.5hPa | 0V | 00:00:00 | 00:00:00 | 00:00:00 | |
| PETON7-10 | 2026-08-30 11:39:52 | 48.25462 | 16.40392 | 105° | 27km/h | 2837m | 3.4m/s | 0°C | 0% | 0hPa | 0V | 00:00:00 | 00:00:00 | 00:00:00 | |
| OE3JTB-15 | 2026-08-30 11:39:42 | 48.25459 | 16.40305 | 96° | 37km/h | 2791m | 4.9m/s | 0°C | 0% | 0hPa | 0V | 00:00:00 | 00:00:00 | 00:00:00 | |
| PETON7-10 | 2026-08-30 11:39:37 | 48.25455 | 16.40236 | 91° | 35km/h | 2763m | 4.4m/s | 0°C | 0% | 0hPa | 0V | 00:00:00 | 00:00:00 | 00:00:00 | |
| OE3OSB-13 | 2026-08-30 11:39:27 | 48.25427 | 16.40115 | 83° | 47km/h | 2715m | 5.3m/s | 8.4°C | 41.3% | 742.6hPa | 0V | 00:00:00 | 00:00:00 | 00:00:00 | |
| PETON7-10 | 2026-08-30 11:39:22 | 48.25418 | 16.40056 | 46° | 37km/h | 2689m | 3.3m/s | 0°C | 0% | 0hPa | 0V | 00:00:00 | 00:00:00 | 00:00:00 | |
| OE3JTB-15 | 2026-08-30 11:39:13 | 48.25396 | 16.39935 | 85° | 35km/h | 2635m | 4.9m/s | 0°C | 0% | 0hPa | 0V | 00:00:00 | 00:00:00 | 00:00:00 | |
| PETON7-10 | 2026-08-30 11:39:07 | 48.25372 | 16.39868 | 72° | 37km/h | 2601m | 3.7m/s | 0°C | 0% | 0hPa | 0V | 00:00:00 | 00:00:00 | 00:00:00 | |
| OE3OSB-13 | 2026-08-30 11:38:56 | 48.25346 | 16.39716 | 68° | 27km/h | 2541m | 5.1m/s | 9.6°C | 39.4% | 758.7hPa | 0V | 00:00:00 | 00:00:00 | 00:00:00 | |
| PETON7-10 | 2026-08-30 11:38:51 | 48.25334 | 16.39673 | 92° | 37km/h | 2519m | 6.5m/s | 0°C | 0% | 0hPa | 0V | 00:00:00 | 00:00:00 | 00:00:00 | |
| OE3JTB-15 | 2026-08-30 11:38:44 | 48.25348 | 16.39557 | 113° | 31km/h | 2476m | 2.2m/s | 0°C | 0% | 0hPa | 0V | 00:00:00 | 00:00:00 | 00:00:00 | |
| PETON7-10 | 2026-08-30 11:38:36 | 48.25370 | 16.39486 | 111° | 31km/h | 2447m | 2.8m/s | 0°C | 0% | 0hPa | 0V | 00:00:00 | 00:00:00 | 00:00:00 | |
| OE3OSB-13 | 2026-08-30 11:38:25 | 48.25373 | 16.39333 | 77° | 33km/h | 2392m | 3.6m/s | 9.2°C | 57.9% | 772.8hPa | 0V | 00:00:00 | 00:00:00 | 00:00:00 | |
| PETON7-10 | 2026-08-30 11:38:21 | 48.25370 | 16.39312 | 128° | 31km/h | 2377m | 3.4m/s | 0°C | 0% | 0hPa | 0V | 00:00:00 | 00:00:00 | 00:00:00 | |
| OE3JTB-15 | 2026-08-30 11:38:15 | 48.25381 | 16.39240 | 65° | 29km/h | 2352m | 3.9m/s | 0°C | 0% | 0hPa | 0V | 00:00:00 | 00:00:00 | 00:00:00 | |
| PETON7-10 | 2026-08-30 11:38:06 | 48.25378 | 16.39142 | 79° | 31km/h | 2301m | 6.3m/s | 0°C | 0% | 0hPa | 0V | 00:00:00 | 00:00:00 | 00:00:00 | |
| OE3OSB-13 | 2026-08-30 11:37:54 | 48.25371 | 16.38981 | 62° | 24km/h | 2241m | 5.4m/s | 10.0°C | 64.1% | 787.3hPa | 0V | 00:00:00 | 00:00:00 | 00:00:00 | |
| PETON7-10 | 2026-08-30 11:37:51 | 48.25369 | 16.38968 | 98° | 35km/h | 2230m | 3.1m/s | 0°C | 0% | 0hPa | 0V | 00:00:00 | 00:00:00 | 00:00:00 | |
| OE3JTB-15 | 2026-08-30 11:37:46 | 48.25378 | 16.38919 | 92° | 37km/h | 2212m | 5.0m/s | 0°C | 0% | 0hPa | 0V | 00:00:00 | 00:00:00 | 00:00:00 | |
| PETON7-10 | 2026-08-30 11:37:36 | 48.25349 | 16.38778 | 77° | 37km/h | 2159m | 4.5m/s | 0°C | 0% | 0hPa | 0V | 00:00:00 | 00:00:00 | 00:00:00 | |
| OE3OSB-13 | 2026-08-30 11:37:23 | 48.25301 | 16.38598 | 64° | 31km/h | 2091m | 3.9m/s | 10.9°C | 67.3% | 801.6hPa | 0V | 00:00:00 | 00:00:00 | 00:00:00 | |
| PETON7-10 | 2026-08-30 11:37:21 | 48.25298 | 16.38589 | 57° | 33km/h | 2086m | 5.5m/s | 0°C | 0% | 0hPa | 0V | 00:00:00 | 00:00:00 | 00:00:00 | |
| OE3JTB-15 | 2026-08-30 11:37:16 | 48.25280 | 16.38525 | 57° | 31km/h | 2064m | 3.2m/s | 0°C | 0% | 0hPa | 0V | 00:00:00 | 00:00:00 | 00:00:00 | |
| PETON7-10 | 2026-08-30 11:37:06 | 48.25250 | 16.38432 | 80° | 37km/h | 2025m | 0.6m/s | 0°C | 0% | 0hPa | 0V | 00:00:00 | 00:00:00 | 00:00:00 | |
| OE3OSB-13 | 2026-08-30 11:36:52 | 48.25207 | 16.38243 | 97° | 31km/h | 1966m | 1.9m/s | 11.7°C | 69.8% | 813.6hPa | 0V | 00:00:00 | 00:00:00 | 00:00:00 | |
| PETON7-10 | 2026-08-30 11:36:51 | 48.25207 | 16.38242 | 98° | 18km/h | 1966m | 1.9m/s | 0°C | 0% | 0hPa | 0V | 00:00:00 | 00:00:00 | 00:00:00 | |
| OE3JTB-15 | 2026-08-30 11:36:47 | 48.25205 | 16.38214 | 79° | 24km/h | 1948m | 2.9m/s | 0°C | 0% | 0hPa | 0V | 00:00:00 | 00:00:00 | 00:00:00 | |
| PETON7-10 | 2026-08-30 11:36:36 | 48.25198 | 16.38136 | 52° | 26km/h | 1908m | 3.0m/s | 0°C | 0% | 0hPa | 0V | 00:00:00 | 00:00:00 | 00:00:00 | |
| PETON7-10 | 2026-08-30 11:36:21 | 48.25167 | 16.38017 | 80° | 24km/h | 1847m | 4.3m/s | 0°C | 0% | 0hPa | 0V | 00:00:00 | 00:00:00 | 00:00:00 | |
| OE3OSB-13 | 2026-08-30 11:36:21 | 48.25168 | 16.38004 | 101° | 29km/h | 1843m | 1.6m/s | 12.7°C | 66.0% | 825.6hPa | 0V | 00:00:00 | 00:00:00 | 00:00:00 | |
| OE3JTB-15 | 2026-08-30 11:36:18 | 48.25171 | 16.37984 | 98° | 24km/h | 1834m | 4.8m/s | 0°C | 0% | 0hPa | 0V | 00:00:00 | 00:00:00 | 00:00:00 | |
| PETON7-10 | 2026-08-30 11:36:07 | 48.25147 | 16.37904 | 45° | 27km/h | 1787m | 3.3m/s | 0°C | 0% | 0hPa | 0V | 00:00:00 | 00:00:00 | 00:00:00 | |
| OE3OSB-13 | 2026-08-30 11:35:50 | 48.25133 | 16.37743 | 122° | 15km/h | 1709m | 4.9m/s | 14.1°C | 60.2% | 838.8hPa | 0V | 00:00:00 | 00:00:00 | 00:00:00 | |
| OE3JTB-15 | 2026-08-30 11:35:49 | 48.25133 | 16.37743 | 123° | 16km/h | 1709m | 4.9m/s | 0°C | 0% | 0hPa | 0V | 00:00:00 | 00:00:00 | 00:00:00 | |
| PETON7-10 | 2026-08-30 11:35:36 | 48.25135 | 16.37696 | 313° | 18km/h | 1640m | 5.2m/s | 0°C | 0% | 0hPa | 0V | 00:00:00 | 00:00:00 | 00:00:00 | |
| PETON7-10 | 2026-08-30 11:35:21 | 48.25111 | 16.37621 | 115° | 18km/h | 1554m | 2.9m/s | 0°C | 0% | 0hPa | 0V | 00:00:00 | 00:00:00 | 00:00:00 | |
| OE3JTB-15 | 2026-08-30 11:35:20 | 48.25114 | 16.37616 | 142° | 16km/h | 1551m | 2.9m/s | 0°C | 0% | 0hPa | 0V | 00:00:00 | 00:00:00 | 00:00:00 | |
| OE3OSB-13 | 2026-08-30 11:35:19 | 48.25115 | 16.37614 | 16° | 5km/h | 1542m | 4.4m/s | 15.7°C | 55.7% | 855.8hPa | 0V | 00:00:00 | 00:00:00 | 00:00:00 | |
| PETON7-10 | 2026-08-30 11:35:06 | 48.25093 | 16.37550 | 75° | 18km/h | 1476m | 3.8m/s | 0°C | 0% | 0hPa | 0V | 00:00:00 | 00:00:00 | 00:00:00 | |
| OE3OSB-13 | 2026-08-30 11:34:48 | 48.25080 | 16.37445 | 160° | 7km/h | 1391m | 3.0m/s | 17.2°C | 52.7% | 871.2hPa | 0V | 00:00:00 | 00:00:00 | 00:00:00 | |
| PETON7-10 | 2026-08-30 11:34:35 | 48.25071 | 16.37395 | 74° | 18km/h | 1343m | 3.2m/s | 0°C | 0% | 0hPa | 0V | 00:00:00 | 00:00:00 | 00:00:00 | |
| OE3JTB-15 | 2026-08-30 11:34:22 | 48.25074 | 16.37333 | 55° | 16km/h | 1291m | 4.7m/s | 0°C | 0% | 0hPa | 0V | 00:00:00 | 00:00:00 | 00:00:00 | |
| PETON7-10 | 2026-08-30 11:34:20 | 48.25069 | 16.37319 | 67° | 15km/h | 1283m | 2.9m/s | 0°C | 0% | 0hPa | 0V | 00:00:00 | 00:00:00 | 00:00:00 | |
| OE3OSB-13 | 2026-08-30 11:34:17 | 48.25069 | 16.37292 | 116° | 4km/h | 1269m | 3.1m/s | 18.3°C | 51.7% | 883.7hPa | 0V | 00:00:00 | 00:00:00 | 00:00:00 | |
| PETON7-10 | 2026-08-30 11:34:05 | 48.25039 | 16.37265 | 29° | 16km/h | 1228m | 3.0m/s | 0°C | 0% | 0hPa | 0V | 00:00:00 | 00:00:00 | 00:00:00 | |
| OE3OSB-13 | 2026-08-30 11:33:46 | 48.24992 | 16.37152 | 85° | 26km/h | 1151m | 2.2m/s | 19.4°C | 49.1% | 895.9hPa | 0V | 00:00:00 | 00:00:00 | 00:00:00 | |
| PETON7-10 | 2026-08-30 11:33:32 | 48.24956 | 16.37077 | 99° | 15km/h | 1098m | 5.1m/s | 0°C | 0% | 0hPa | 0V | 00:00:00 | 00:00:00 | 00:00:00 | |
| OE3JTB-15 | 2026-08-30 11:33:24 | 48.24946 | 16.37052 | 86° | 18km/h | 1056m | 4.9m/s | 0°C | 0% | 0hPa | 0V | 00:00:00 | 00:00:00 | 00:00:00 | |
| PETON7-10 | 2026-08-30 11:33:17 | 48.24937 | 16.37022 | 40° | 20km/h | 1015m | 5.9m/s | 0°C | 0% | 0hPa | 0V | 00:00:00 | 00:00:00 | 00:00:00 | |
| PETON7-10 | 2026-08-30 11:33:00 | 48.24907 | 16.36906 | 101° | 18km/h | 928m | 3.1m/s | 0°C | 0% | 0hPa | 0V | 00:00:00 | 00:00:00 | 00:00:00 | |
| OE3JTB-15 | 2026-08-30 11:32:55 | 48.24917 | 16.36889 | 15° | 20km/h | 904m | 5.0m/s | 0°C | 0% | 0hPa | 0V | 00:00:00 | 00:00:00 | 00:00:00 | |
| OE3JTB-15 | 2026-08-30 11:32:24 | 48.24872 | 16.36686 | 100° | 22km/h | 757m | 4.7m/s | 0°C | 0% | 0hPa | 0V | 00:00:00 | 00:00:00 | 00:00:00 | |
| OE3JTB-15 | 2026-08-30 11:31:55 | 48.24872 | 16.36478 | 16° | 22km/h | 625m | 3.4m/s | 0°C | 0% | 0hPa | 0V | 00:00:00 | 00:00:00 | 00:00:00 | |
| OE3JTB-15 | 2026-08-30 11:31:26 | 48.24864 | 16.36259 | 111° | 22km/h | 510m | 2.4m/s | 0°C | 0% | 0hPa | 0V | 00:00:00 | 00:00:00 | 00:00:00 | |
| OE3JTB-15 | 2026-08-30 11:30:57 | 48.24834 | 16.36048 | 130° | 31km/h | 397m | 2.7m/s | 0°C | 0% | 0hPa | 0V | 00:00:00 | 00:00:00 | 00:00:00 |